<?xml version="1.0" encoding="UTF-8" standalone="no" ?>
<gpx xmlns="http://www.topografix.com/GPX/1/1" xmlns:xsi="http://www.w3.org/2001/XMLSchema-instance" xsi:schemaLocation="http://www.topografix.com/GPX/1/1 http://www.topografix.com/GPX/1/1/gpx.xsd" version="1.1" creator="VisuGPX - https://www.visugpx.com">
  <metadata>
    <name>Forêt Fontainebleau 20/03/19</name>
    <desc><![CDATA[Boucle en forêt à partir du carrefour du rocher des princes.]]></desc>
  </metadata>
  <trk>
    <name><![CDATA[Rocher des princes11/04/2019]]></name>
    <trkseg>
      <trkpt lat="48.37286" lon="2.74923">
        <ele>96.199996948242</ele>
        <time>2019-04-11T11:58:43Z</time>
      </trkpt>
      <trkpt lat="48.37285" lon="2.74923">
        <ele>96.199996948242</ele>
        <time>2019-04-11T11:58:48Z</time>
      </trkpt>
      <trkpt lat="48.37284" lon="2.74923">
        <ele>96</ele>
        <time>2019-04-11T11:58:53Z</time>
      </trkpt>
      <trkpt lat="48.37283" lon="2.74923">
        <ele>95.599998474121</ele>
        <time>2019-04-11T11:58:58Z</time>
      </trkpt>
      <trkpt lat="48.37281" lon="2.74923">
        <ele>95.400001525879</ele>
        <time>2019-04-11T11:59:03Z</time>
      </trkpt>
      <trkpt lat="48.3728" lon="2.74923">
        <ele>95.400001525879</ele>
        <time>2019-04-11T11:59:08Z</time>
      </trkpt>
      <trkpt lat="48.37278" lon="2.74922">
        <ele>95.599998474121</ele>
        <time>2019-04-11T11:59:13Z</time>
      </trkpt>
      <trkpt lat="48.37278" lon="2.74922">
        <ele>95.800003051758</ele>
        <time>2019-04-11T11:59:18Z</time>
      </trkpt>
      <trkpt lat="48.37278" lon="2.74922">
        <ele>95.800003051758</ele>
        <time>2019-04-11T11:59:23Z</time>
      </trkpt>
      <trkpt lat="48.37278" lon="2.74921">
        <ele>95.599998474121</ele>
        <time>2019-04-11T11:59:28Z</time>
      </trkpt>
      <trkpt lat="48.37277" lon="2.74921">
        <ele>95.400001525879</ele>
        <time>2019-04-11T11:59:33Z</time>
      </trkpt>
      <trkpt lat="48.37276" lon="2.74921">
        <ele>95.199996948242</ele>
        <time>2019-04-11T11:59:38Z</time>
      </trkpt>
      <trkpt lat="48.37276" lon="2.74923">
        <ele>95.199996948242</ele>
        <time>2019-04-11T11:59:43Z</time>
      </trkpt>
      <trkpt lat="48.37275" lon="2.74924">
        <ele>95.199996948242</ele>
        <time>2019-04-11T11:59:48Z</time>
      </trkpt>
      <trkpt lat="48.37275" lon="2.74924">
        <ele>95.199996948242</ele>
        <time>2019-04-11T11:59:53Z</time>
      </trkpt>
      <trkpt lat="48.37275" lon="2.74927">
        <ele>95.199996948242</ele>
        <time>2019-04-11T11:59:58Z</time>
      </trkpt>
      <trkpt lat="48.37276" lon="2.7493">
        <ele>95.199996948242</ele>
        <time>2019-04-11T12:00:03Z</time>
      </trkpt>
      <trkpt lat="48.37276" lon="2.7493">
        <ele>95.400001525879</ele>
        <time>2019-04-11T12:00:08Z</time>
      </trkpt>
      <trkpt lat="48.37276" lon="2.74934">
        <ele>95.400001525879</ele>
        <time>2019-04-11T12:00:13Z</time>
      </trkpt>
      <trkpt lat="48.3728" lon="2.74935">
        <ele>95.400001525879</ele>
        <time>2019-04-11T12:00:18Z</time>
      </trkpt>
      <trkpt lat="48.37286" lon="2.74938">
        <ele>95.599998474121</ele>
        <time>2019-04-11T12:00:23Z</time>
      </trkpt>
      <trkpt lat="48.37285" lon="2.74936">
        <ele>95.400001525879</ele>
        <time>2019-04-11T12:00:28Z</time>
      </trkpt>
      <trkpt lat="48.37283" lon="2.74931">
        <ele>95.400001525879</ele>
        <time>2019-04-11T12:00:33Z</time>
      </trkpt>
      <trkpt lat="48.3728" lon="2.7493">
        <ele>95.199996948242</ele>
        <time>2019-04-11T12:00:38Z</time>
      </trkpt>
      <trkpt lat="48.3728" lon="2.74929">
        <ele>95.400001525879</ele>
        <time>2019-04-11T12:00:43Z</time>
      </trkpt>
      <trkpt lat="48.37281" lon="2.74928">
        <ele>95.199996948242</ele>
        <time>2019-04-11T12:00:48Z</time>
      </trkpt>
      <trkpt lat="48.37282" lon="2.74927">
        <ele>95.199996948242</ele>
        <time>2019-04-11T12:00:53Z</time>
      </trkpt>
      <trkpt lat="48.37284" lon="2.74926">
        <ele>95.199996948242</ele>
        <time>2019-04-11T12:00:58Z</time>
      </trkpt>
      <trkpt lat="48.37284" lon="2.74925">
        <ele>95.199996948242</ele>
        <time>2019-04-11T12:01:03Z</time>
      </trkpt>
      <trkpt lat="48.37284" lon="2.74925">
        <ele>95.199996948242</ele>
        <time>2019-04-11T12:01:08Z</time>
      </trkpt>
      <trkpt lat="48.37284" lon="2.74924">
        <ele>95.199996948242</ele>
        <time>2019-04-11T12:01:13Z</time>
      </trkpt>
      <trkpt lat="48.37285" lon="2.74924">
        <ele>95.199996948242</ele>
        <time>2019-04-11T12:01:18Z</time>
      </trkpt>
      <trkpt lat="48.37282" lon="2.74924">
        <ele>95.199996948242</ele>
        <time>2019-04-11T12:01:23Z</time>
      </trkpt>
      <trkpt lat="48.37279" lon="2.74922">
        <ele>95.199996948242</ele>
        <time>2019-04-11T12:01:28Z</time>
      </trkpt>
      <trkpt lat="48.37275" lon="2.74919">
        <ele>95.199996948242</ele>
        <time>2019-04-11T12:01:33Z</time>
      </trkpt>
      <trkpt lat="48.37274" lon="2.74918">
        <ele>95.199996948242</ele>
        <time>2019-04-11T12:01:38Z</time>
      </trkpt>
      <trkpt lat="48.37273" lon="2.74916">
        <ele>95.199996948242</ele>
        <time>2019-04-11T12:01:43Z</time>
      </trkpt>
      <trkpt lat="48.37261" lon="2.74908">
        <ele>95.199996948242</ele>
        <time>2019-04-11T12:01:48Z</time>
      </trkpt>
      <trkpt lat="48.37257" lon="2.74906">
        <ele>95.199996948242</ele>
        <time>2019-04-11T12:01:53Z</time>
      </trkpt>
      <trkpt lat="48.37252" lon="2.74902">
        <ele>95.199996948242</ele>
        <time>2019-04-11T12:01:58Z</time>
      </trkpt>
      <trkpt lat="48.37251" lon="2.74902">
        <ele>95.199996948242</ele>
        <time>2019-04-11T12:02:03Z</time>
      </trkpt>
      <trkpt lat="48.3725" lon="2.74901">
        <ele>95.199996948242</ele>
        <time>2019-04-11T12:02:08Z</time>
      </trkpt>
      <trkpt lat="48.37249" lon="2.749">
        <ele>95.199996948242</ele>
        <time>2019-04-11T12:02:13Z</time>
      </trkpt>
      <trkpt lat="48.37247" lon="2.74898">
        <ele>95.199996948242</ele>
        <time>2019-04-11T12:02:18Z</time>
      </trkpt>
      <trkpt lat="48.37243" lon="2.74892">
        <ele>95.199996948242</ele>
        <time>2019-04-11T12:02:23Z</time>
      </trkpt>
      <trkpt lat="48.37238" lon="2.74888">
        <ele>95.199996948242</ele>
        <time>2019-04-11T12:02:28Z</time>
      </trkpt>
      <trkpt lat="48.37232" lon="2.74877">
        <ele>95.199996948242</ele>
        <time>2019-04-11T12:02:33Z</time>
      </trkpt>
      <trkpt lat="48.37227" lon="2.74865">
        <ele>95.199996948242</ele>
        <time>2019-04-11T12:02:38Z</time>
      </trkpt>
      <trkpt lat="48.37215" lon="2.74848">
        <ele>95.199996948242</ele>
        <time>2019-04-11T12:02:43Z</time>
      </trkpt>
      <trkpt lat="48.37209" lon="2.7484">
        <ele>95.199996948242</ele>
        <time>2019-04-11T12:02:48Z</time>
      </trkpt>
      <trkpt lat="48.37205" lon="2.74836">
        <ele>100.19999694824</ele>
        <time>2019-04-11T12:02:53Z</time>
      </trkpt>
      <trkpt lat="48.37202" lon="2.74834">
        <ele>100.80000305176</ele>
        <time>2019-04-11T12:02:58Z</time>
      </trkpt>
      <trkpt lat="48.37198" lon="2.74834">
        <ele>101.19999694824</ele>
        <time>2019-04-11T12:03:03Z</time>
      </trkpt>
      <trkpt lat="48.37194" lon="2.74835">
        <ele>102</ele>
        <time>2019-04-11T12:03:08Z</time>
      </trkpt>
      <trkpt lat="48.37191" lon="2.74835">
        <ele>102.80000305176</ele>
        <time>2019-04-11T12:03:13Z</time>
      </trkpt>
      <trkpt lat="48.37189" lon="2.74837">
        <ele>103.40000152588</ele>
        <time>2019-04-11T12:03:18Z</time>
      </trkpt>
      <trkpt lat="48.37184" lon="2.74843">
        <ele>103.80000305176</ele>
        <time>2019-04-11T12:03:23Z</time>
      </trkpt>
      <trkpt lat="48.37177" lon="2.74847">
        <ele>104.19999694824</ele>
        <time>2019-04-11T12:03:28Z</time>
      </trkpt>
      <trkpt lat="48.37174" lon="2.74848">
        <ele>104.80000305176</ele>
        <time>2019-04-11T12:03:33Z</time>
      </trkpt>
      <trkpt lat="48.3717" lon="2.74855">
        <ele>105.19999694824</ele>
        <time>2019-04-11T12:03:38Z</time>
      </trkpt>
      <trkpt lat="48.37165" lon="2.74861">
        <ele>105.80000305176</ele>
        <time>2019-04-11T12:03:43Z</time>
      </trkpt>
      <trkpt lat="48.37161" lon="2.74864">
        <ele>106.19999694824</ele>
        <time>2019-04-11T12:03:48Z</time>
      </trkpt>
      <trkpt lat="48.37157" lon="2.74866">
        <ele>106.59999847412</ele>
        <time>2019-04-11T12:03:53Z</time>
      </trkpt>
      <trkpt lat="48.37155" lon="2.74865">
        <ele>107.40000152588</ele>
        <time>2019-04-11T12:03:58Z</time>
      </trkpt>
      <trkpt lat="48.37152" lon="2.74866">
        <ele>108</ele>
        <time>2019-04-11T12:04:03Z</time>
      </trkpt>
      <trkpt lat="48.37146" lon="2.74866">
        <ele>108.40000152588</ele>
        <time>2019-04-11T12:04:08Z</time>
      </trkpt>
      <trkpt lat="48.37139" lon="2.74863">
        <ele>108.80000305176</ele>
        <time>2019-04-11T12:04:13Z</time>
      </trkpt>
      <trkpt lat="48.37134" lon="2.74861">
        <ele>109.80000305176</ele>
        <time>2019-04-11T12:04:18Z</time>
      </trkpt>
      <trkpt lat="48.37131" lon="2.7486">
        <ele>110.19999694824</ele>
        <time>2019-04-11T12:04:23Z</time>
      </trkpt>
      <trkpt lat="48.37127" lon="2.74859">
        <ele>110.59999847412</ele>
        <time>2019-04-11T12:04:28Z</time>
      </trkpt>
      <trkpt lat="48.3712" lon="2.74855">
        <ele>111.19999694824</ele>
        <time>2019-04-11T12:04:33Z</time>
      </trkpt>
      <trkpt lat="48.37114" lon="2.74853">
        <ele>111.80000305176</ele>
        <time>2019-04-11T12:04:38Z</time>
      </trkpt>
      <trkpt lat="48.37112" lon="2.74853">
        <ele>112.40000152588</ele>
        <time>2019-04-11T12:04:43Z</time>
      </trkpt>
      <trkpt lat="48.37104" lon="2.74853">
        <ele>113.19999694824</ele>
        <time>2019-04-11T12:04:48Z</time>
      </trkpt>
      <trkpt lat="48.37101" lon="2.74853">
        <ele>113.80000305176</ele>
        <time>2019-04-11T12:04:53Z</time>
      </trkpt>
      <trkpt lat="48.37093" lon="2.7485">
        <ele>114.40000152588</ele>
        <time>2019-04-11T12:04:58Z</time>
      </trkpt>
      <trkpt lat="48.37084" lon="2.74842">
        <ele>114.80000305176</ele>
        <time>2019-04-11T12:05:03Z</time>
      </trkpt>
      <trkpt lat="48.37078" lon="2.74839">
        <ele>115.59999847412</ele>
        <time>2019-04-11T12:05:08Z</time>
      </trkpt>
      <trkpt lat="48.37074" lon="2.74837">
        <ele>116.80000305176</ele>
        <time>2019-04-11T12:05:13Z</time>
      </trkpt>
      <trkpt lat="48.37071" lon="2.74838">
        <ele>117.40000152588</ele>
        <time>2019-04-11T12:05:18Z</time>
      </trkpt>
      <trkpt lat="48.3707" lon="2.74845">
        <ele>118</ele>
        <time>2019-04-11T12:05:23Z</time>
      </trkpt>
      <trkpt lat="48.37069" lon="2.74851">
        <ele>118.40000152588</ele>
        <time>2019-04-11T12:05:28Z</time>
      </trkpt>
      <trkpt lat="48.37067" lon="2.74858">
        <ele>119</ele>
        <time>2019-04-11T12:05:33Z</time>
      </trkpt>
      <trkpt lat="48.37066" lon="2.74863">
        <ele>119.40000152588</ele>
        <time>2019-04-11T12:05:38Z</time>
      </trkpt>
      <trkpt lat="48.37065" lon="2.74868">
        <ele>119.80000305176</ele>
        <time>2019-04-11T12:05:43Z</time>
      </trkpt>
      <trkpt lat="48.37064" lon="2.74873">
        <ele>119.59999847412</ele>
        <time>2019-04-11T12:05:48Z</time>
      </trkpt>
      <trkpt lat="48.37064" lon="2.74879">
        <ele>119</ele>
        <time>2019-04-11T12:05:53Z</time>
      </trkpt>
      <trkpt lat="48.37062" lon="2.74887">
        <ele>118.59999847412</ele>
        <time>2019-04-11T12:05:58Z</time>
      </trkpt>
      <trkpt lat="48.3706" lon="2.74894">
        <ele>118.80000305176</ele>
        <time>2019-04-11T12:06:03Z</time>
      </trkpt>
      <trkpt lat="48.3706" lon="2.74901">
        <ele>119.19999694824</ele>
        <time>2019-04-11T12:06:08Z</time>
      </trkpt>
      <trkpt lat="48.37059" lon="2.74912">
        <ele>119.80000305176</ele>
        <time>2019-04-11T12:06:13Z</time>
      </trkpt>
      <trkpt lat="48.37059" lon="2.74919">
        <ele>120.40000152588</ele>
        <time>2019-04-11T12:06:18Z</time>
      </trkpt>
      <trkpt lat="48.37061" lon="2.74926">
        <ele>121</ele>
        <time>2019-04-11T12:06:23Z</time>
      </trkpt>
      <trkpt lat="48.37064" lon="2.74935">
        <ele>120.80000305176</ele>
        <time>2019-04-11T12:06:28Z</time>
      </trkpt>
      <trkpt lat="48.37066" lon="2.74942">
        <ele>120.59999847412</ele>
        <time>2019-04-11T12:06:33Z</time>
      </trkpt>
      <trkpt lat="48.37067" lon="2.7495">
        <ele>120.80000305176</ele>
        <time>2019-04-11T12:06:38Z</time>
      </trkpt>
      <trkpt lat="48.37069" lon="2.74958">
        <ele>121.19999694824</ele>
        <time>2019-04-11T12:06:43Z</time>
      </trkpt>
      <trkpt lat="48.37071" lon="2.74969">
        <ele>121.19999694824</ele>
        <time>2019-04-11T12:06:48Z</time>
      </trkpt>
      <trkpt lat="48.37071" lon="2.74976">
        <ele>121.40000152588</ele>
        <time>2019-04-11T12:06:53Z</time>
      </trkpt>
      <trkpt lat="48.37071" lon="2.74982">
        <ele>121.40000152588</ele>
        <time>2019-04-11T12:06:58Z</time>
      </trkpt>
      <trkpt lat="48.3707" lon="2.74992">
        <ele>121.59999847412</ele>
        <time>2019-04-11T12:07:03Z</time>
      </trkpt>
      <trkpt lat="48.37069" lon="2.74997">
        <ele>122</ele>
        <time>2019-04-11T12:07:08Z</time>
      </trkpt>
      <trkpt lat="48.37068" lon="2.75">
        <ele>122.19999694824</ele>
        <time>2019-04-11T12:07:13Z</time>
      </trkpt>
      <trkpt lat="48.37063" lon="2.75005">
        <ele>122.59999847412</ele>
        <time>2019-04-11T12:07:18Z</time>
      </trkpt>
      <trkpt lat="48.37059" lon="2.75008">
        <ele>123</ele>
        <time>2019-04-11T12:07:23Z</time>
      </trkpt>
      <trkpt lat="48.37056" lon="2.75012">
        <ele>123.59999847412</ele>
        <time>2019-04-11T12:07:28Z</time>
      </trkpt>
      <trkpt lat="48.37052" lon="2.75016">
        <ele>123.80000305176</ele>
        <time>2019-04-11T12:07:33Z</time>
      </trkpt>
      <trkpt lat="48.3705" lon="2.75019">
        <ele>124.80000305176</ele>
        <time>2019-04-11T12:07:38Z</time>
      </trkpt>
      <trkpt lat="48.37048" lon="2.75025">
        <ele>125.19999694824</ele>
        <time>2019-04-11T12:07:43Z</time>
      </trkpt>
      <trkpt lat="48.37044" lon="2.75032">
        <ele>125.40000152588</ele>
        <time>2019-04-11T12:07:48Z</time>
      </trkpt>
      <trkpt lat="48.3704" lon="2.7504">
        <ele>125.80000305176</ele>
        <time>2019-04-11T12:07:53Z</time>
      </trkpt>
      <trkpt lat="48.37035" lon="2.75044">
        <ele>126.59999847412</ele>
        <time>2019-04-11T12:07:58Z</time>
      </trkpt>
      <trkpt lat="48.37032" lon="2.75046">
        <ele>127</ele>
        <time>2019-04-11T12:08:03Z</time>
      </trkpt>
      <trkpt lat="48.37027" lon="2.75053">
        <ele>127.40000152588</ele>
        <time>2019-04-11T12:08:08Z</time>
      </trkpt>
      <trkpt lat="48.37026" lon="2.75054">
        <ele>128.19999694824</ele>
        <time>2019-04-11T12:08:13Z</time>
      </trkpt>
      <trkpt lat="48.37023" lon="2.75061">
        <ele>128.60000610352</ele>
        <time>2019-04-11T12:08:18Z</time>
      </trkpt>
      <trkpt lat="48.37022" lon="2.75068">
        <ele>129.19999694824</ele>
        <time>2019-04-11T12:08:23Z</time>
      </trkpt>
      <trkpt lat="48.3702" lon="2.75073">
        <ele>129.60000610352</ele>
        <time>2019-04-11T12:08:28Z</time>
      </trkpt>
      <trkpt lat="48.37019" lon="2.75079">
        <ele>130</ele>
        <time>2019-04-11T12:08:33Z</time>
      </trkpt>
      <trkpt lat="48.37019" lon="2.75081">
        <ele>130.60000610352</ele>
        <time>2019-04-11T12:08:38Z</time>
      </trkpt>
      <trkpt lat="48.37019" lon="2.75085">
        <ele>130.80000305176</ele>
        <time>2019-04-11T12:08:43Z</time>
      </trkpt>
      <trkpt lat="48.37017" lon="2.75089">
        <ele>130.80000305176</ele>
        <time>2019-04-11T12:08:48Z</time>
      </trkpt>
      <trkpt lat="48.37018" lon="2.75097">
        <ele>130.80000305176</ele>
        <time>2019-04-11T12:08:53Z</time>
      </trkpt>
      <trkpt lat="48.37021" lon="2.75104">
        <ele>130.80000305176</ele>
        <time>2019-04-11T12:08:58Z</time>
      </trkpt>
      <trkpt lat="48.37023" lon="2.7511">
        <ele>130.39999389648</ele>
        <time>2019-04-11T12:09:03Z</time>
      </trkpt>
      <trkpt lat="48.37024" lon="2.75117">
        <ele>129.80000305176</ele>
        <time>2019-04-11T12:09:08Z</time>
      </trkpt>
      <trkpt lat="48.37024" lon="2.75131">
        <ele>129.19999694824</ele>
        <time>2019-04-11T12:09:13Z</time>
      </trkpt>
      <trkpt lat="48.37023" lon="2.75138">
        <ele>129</ele>
        <time>2019-04-11T12:09:18Z</time>
      </trkpt>
      <trkpt lat="48.37027" lon="2.75142">
        <ele>128.19999694824</ele>
        <time>2019-04-11T12:09:23Z</time>
      </trkpt>
      <trkpt lat="48.37032" lon="2.75146">
        <ele>128</ele>
        <time>2019-04-11T12:09:28Z</time>
      </trkpt>
      <trkpt lat="48.37037" lon="2.75151">
        <ele>128</ele>
        <time>2019-04-11T12:09:33Z</time>
      </trkpt>
      <trkpt lat="48.37037" lon="2.75156">
        <ele>127.80000305176</ele>
        <time>2019-04-11T12:09:38Z</time>
      </trkpt>
      <trkpt lat="48.37034" lon="2.75161">
        <ele>127.19999694824</ele>
        <time>2019-04-11T12:09:43Z</time>
      </trkpt>
      <trkpt lat="48.37031" lon="2.75163">
        <ele>126.59999847412</ele>
        <time>2019-04-11T12:09:48Z</time>
      </trkpt>
      <trkpt lat="48.3703" lon="2.75163">
        <ele>125.80000305176</ele>
        <time>2019-04-11T12:09:53Z</time>
      </trkpt>
      <trkpt lat="48.37026" lon="2.75168">
        <ele>125.40000152588</ele>
        <time>2019-04-11T12:09:58Z</time>
      </trkpt>
      <trkpt lat="48.37024" lon="2.7517">
        <ele>125.80000305176</ele>
        <time>2019-04-11T12:10:03Z</time>
      </trkpt>
      <trkpt lat="48.37018" lon="2.75176">
        <ele>126</ele>
        <time>2019-04-11T12:10:08Z</time>
      </trkpt>
      <trkpt lat="48.37013" lon="2.75182">
        <ele>126</ele>
        <time>2019-04-11T12:10:13Z</time>
      </trkpt>
      <trkpt lat="48.3701" lon="2.75187">
        <ele>125.80000305176</ele>
        <time>2019-04-11T12:10:18Z</time>
      </trkpt>
      <trkpt lat="48.37008" lon="2.75198">
        <ele>125.40000152588</ele>
        <time>2019-04-11T12:10:23Z</time>
      </trkpt>
      <trkpt lat="48.37005" lon="2.75207">
        <ele>124.80000305176</ele>
        <time>2019-04-11T12:10:28Z</time>
      </trkpt>
      <trkpt lat="48.37003" lon="2.75215">
        <ele>124.40000152588</ele>
        <time>2019-04-11T12:10:33Z</time>
      </trkpt>
      <trkpt lat="48.37001" lon="2.75219">
        <ele>124.80000305176</ele>
        <time>2019-04-11T12:10:38Z</time>
      </trkpt>
      <trkpt lat="48.37" lon="2.75221">
        <ele>125.59999847412</ele>
        <time>2019-04-11T12:10:43Z</time>
      </trkpt>
      <trkpt lat="48.36999" lon="2.75227">
        <ele>126.59999847412</ele>
        <time>2019-04-11T12:10:48Z</time>
      </trkpt>
      <trkpt lat="48.36998" lon="2.75235">
        <ele>127</ele>
        <time>2019-04-11T12:10:53Z</time>
      </trkpt>
      <trkpt lat="48.36996" lon="2.75243">
        <ele>126.80000305176</ele>
        <time>2019-04-11T12:10:58Z</time>
      </trkpt>
      <trkpt lat="48.36995" lon="2.75252">
        <ele>126.19999694824</ele>
        <time>2019-04-11T12:11:03Z</time>
      </trkpt>
      <trkpt lat="48.36994" lon="2.75256">
        <ele>126.40000152588</ele>
        <time>2019-04-11T12:11:08Z</time>
      </trkpt>
      <trkpt lat="48.36991" lon="2.75266">
        <ele>127</ele>
        <time>2019-04-11T12:11:13Z</time>
      </trkpt>
      <trkpt lat="48.36987" lon="2.75275">
        <ele>128</ele>
        <time>2019-04-11T12:11:18Z</time>
      </trkpt>
      <trkpt lat="48.36986" lon="2.75285">
        <ele>128.39999389648</ele>
        <time>2019-04-11T12:11:23Z</time>
      </trkpt>
      <trkpt lat="48.36985" lon="2.75293">
        <ele>128.60000610352</ele>
        <time>2019-04-11T12:11:28Z</time>
      </trkpt>
      <trkpt lat="48.36983" lon="2.753">
        <ele>128.80000305176</ele>
        <time>2019-04-11T12:11:33Z</time>
      </trkpt>
      <trkpt lat="48.36981" lon="2.75305">
        <ele>128.80000305176</ele>
        <time>2019-04-11T12:11:38Z</time>
      </trkpt>
      <trkpt lat="48.3698" lon="2.75313">
        <ele>128.39999389648</ele>
        <time>2019-04-11T12:11:43Z</time>
      </trkpt>
      <trkpt lat="48.36977" lon="2.75319">
        <ele>128.19999694824</ele>
        <time>2019-04-11T12:11:48Z</time>
      </trkpt>
      <trkpt lat="48.36974" lon="2.75324">
        <ele>127.59999847412</ele>
        <time>2019-04-11T12:11:53Z</time>
      </trkpt>
      <trkpt lat="48.36969" lon="2.75325">
        <ele>126.80000305176</ele>
        <time>2019-04-11T12:11:58Z</time>
      </trkpt>
      <trkpt lat="48.36963" lon="2.75325">
        <ele>126.80000305176</ele>
        <time>2019-04-11T12:12:03Z</time>
      </trkpt>
      <trkpt lat="48.3696" lon="2.75328">
        <ele>126.80000305176</ele>
        <time>2019-04-11T12:12:08Z</time>
      </trkpt>
      <trkpt lat="48.36957" lon="2.75332">
        <ele>126.80000305176</ele>
        <time>2019-04-11T12:12:13Z</time>
      </trkpt>
      <trkpt lat="48.36955" lon="2.75339">
        <ele>126.80000305176</ele>
        <time>2019-04-11T12:12:18Z</time>
      </trkpt>
      <trkpt lat="48.36954" lon="2.75348">
        <ele>123.40000152588</ele>
        <time>2019-04-11T12:12:23Z</time>
      </trkpt>
      <trkpt lat="48.36953" lon="2.75356">
        <ele>121.80000305176</ele>
        <time>2019-04-11T12:12:28Z</time>
      </trkpt>
      <trkpt lat="48.3695" lon="2.7536">
        <ele>120.59999847412</ele>
        <time>2019-04-11T12:12:33Z</time>
      </trkpt>
      <trkpt lat="48.36947" lon="2.75366">
        <ele>120.59999847412</ele>
        <time>2019-04-11T12:12:38Z</time>
      </trkpt>
      <trkpt lat="48.36941" lon="2.75366">
        <ele>121.19999694824</ele>
        <time>2019-04-11T12:12:43Z</time>
      </trkpt>
      <trkpt lat="48.36938" lon="2.75365">
        <ele>121.59999847412</ele>
        <time>2019-04-11T12:12:48Z</time>
      </trkpt>
      <trkpt lat="48.36936" lon="2.75364">
        <ele>122.19999694824</ele>
        <time>2019-04-11T12:12:53Z</time>
      </trkpt>
      <trkpt lat="48.36931" lon="2.75362">
        <ele>122.40000152588</ele>
        <time>2019-04-11T12:12:58Z</time>
      </trkpt>
      <trkpt lat="48.36923" lon="2.75353">
        <ele>122.40000152588</ele>
        <time>2019-04-11T12:13:03Z</time>
      </trkpt>
      <trkpt lat="48.36921" lon="2.7535">
        <ele>122.80000305176</ele>
        <time>2019-04-11T12:13:08Z</time>
      </trkpt>
      <trkpt lat="48.36921" lon="2.75348">
        <ele>123.59999847412</ele>
        <time>2019-04-11T12:13:13Z</time>
      </trkpt>
      <trkpt lat="48.36922" lon="2.75344">
        <ele>124.40000152588</ele>
        <time>2019-04-11T12:13:18Z</time>
      </trkpt>
      <trkpt lat="48.36922" lon="2.75343">
        <ele>125</ele>
        <time>2019-04-11T12:13:23Z</time>
      </trkpt>
      <trkpt lat="48.36922" lon="2.75341">
        <ele>125.59999847412</ele>
        <time>2019-04-11T12:13:28Z</time>
      </trkpt>
      <trkpt lat="48.3692" lon="2.75336">
        <ele>126.19999694824</ele>
        <time>2019-04-11T12:13:33Z</time>
      </trkpt>
      <trkpt lat="48.36918" lon="2.75333">
        <ele>126.80000305176</ele>
        <time>2019-04-11T12:13:38Z</time>
      </trkpt>
      <trkpt lat="48.36916" lon="2.7533">
        <ele>127.59999847412</ele>
        <time>2019-04-11T12:13:43Z</time>
      </trkpt>
      <trkpt lat="48.36915" lon="2.75327">
        <ele>128.39999389648</ele>
        <time>2019-04-11T12:13:48Z</time>
      </trkpt>
      <trkpt lat="48.36913" lon="2.75324">
        <ele>129.19999694824</ele>
        <time>2019-04-11T12:13:53Z</time>
      </trkpt>
      <trkpt lat="48.36909" lon="2.75319">
        <ele>129.80000305176</ele>
        <time>2019-04-11T12:13:58Z</time>
      </trkpt>
      <trkpt lat="48.36905" lon="2.75314">
        <ele>130.80000305176</ele>
        <time>2019-04-11T12:14:03Z</time>
      </trkpt>
      <trkpt lat="48.36903" lon="2.7531">
        <ele>131.60000610352</ele>
        <time>2019-04-11T12:14:08Z</time>
      </trkpt>
      <trkpt lat="48.369" lon="2.75308">
        <ele>132.80000305176</ele>
        <time>2019-04-11T12:14:13Z</time>
      </trkpt>
      <trkpt lat="48.36896" lon="2.75304">
        <ele>133.80000305176</ele>
        <time>2019-04-11T12:14:18Z</time>
      </trkpt>
      <trkpt lat="48.36893" lon="2.75302">
        <ele>134.80000305176</ele>
        <time>2019-04-11T12:14:23Z</time>
      </trkpt>
      <trkpt lat="48.36889" lon="2.753">
        <ele>135.39999389648</ele>
        <time>2019-04-11T12:14:28Z</time>
      </trkpt>
      <trkpt lat="48.36881" lon="2.75293">
        <ele>136.19999694824</ele>
        <time>2019-04-11T12:14:33Z</time>
      </trkpt>
      <trkpt lat="48.3687" lon="2.75284">
        <ele>137</ele>
        <time>2019-04-11T12:14:38Z</time>
      </trkpt>
      <trkpt lat="48.36861" lon="2.75279">
        <ele>138</ele>
        <time>2019-04-11T12:14:43Z</time>
      </trkpt>
      <trkpt lat="48.36856" lon="2.75276">
        <ele>138</ele>
        <time>2019-04-11T12:14:48Z</time>
      </trkpt>
      <trkpt lat="48.36854" lon="2.75276">
        <ele>137.80000305176</ele>
        <time>2019-04-11T12:14:53Z</time>
      </trkpt>
      <trkpt lat="48.36848" lon="2.75274">
        <ele>138</ele>
        <time>2019-04-11T12:14:58Z</time>
      </trkpt>
      <trkpt lat="48.36842" lon="2.75272">
        <ele>138.19999694824</ele>
        <time>2019-04-11T12:15:03Z</time>
      </trkpt>
      <trkpt lat="48.3684" lon="2.75273">
        <ele>138.19999694824</ele>
        <time>2019-04-11T12:15:08Z</time>
      </trkpt>
      <trkpt lat="48.36839" lon="2.75273">
        <ele>138.60000610352</ele>
        <time>2019-04-11T12:15:13Z</time>
      </trkpt>
      <trkpt lat="48.36836" lon="2.75273">
        <ele>139</ele>
        <time>2019-04-11T12:15:18Z</time>
      </trkpt>
      <trkpt lat="48.36833" lon="2.75272">
        <ele>139.39999389648</ele>
        <time>2019-04-11T12:15:23Z</time>
      </trkpt>
      <trkpt lat="48.36829" lon="2.75271">
        <ele>139.39999389648</ele>
        <time>2019-04-11T12:15:28Z</time>
      </trkpt>
      <trkpt lat="48.36821" lon="2.75268">
        <ele>139.60000610352</ele>
        <time>2019-04-11T12:15:33Z</time>
      </trkpt>
      <trkpt lat="48.36818" lon="2.75269">
        <ele>139.80000305176</ele>
        <time>2019-04-11T12:15:38Z</time>
      </trkpt>
      <trkpt lat="48.36815" lon="2.75269">
        <ele>139.80000305176</ele>
        <time>2019-04-11T12:15:43Z</time>
      </trkpt>
      <trkpt lat="48.36811" lon="2.75266">
        <ele>139.60000610352</ele>
        <time>2019-04-11T12:15:48Z</time>
      </trkpt>
      <trkpt lat="48.36807" lon="2.75267">
        <ele>139.60000610352</ele>
        <time>2019-04-11T12:15:53Z</time>
      </trkpt>
      <trkpt lat="48.36802" lon="2.75266">
        <ele>139.80000305176</ele>
        <time>2019-04-11T12:15:58Z</time>
      </trkpt>
      <trkpt lat="48.36789" lon="2.75261">
        <ele>140.19999694824</ele>
        <time>2019-04-11T12:16:03Z</time>
      </trkpt>
      <trkpt lat="48.36778" lon="2.75257">
        <ele>140.19999694824</ele>
        <time>2019-04-11T12:16:08Z</time>
      </trkpt>
      <trkpt lat="48.36767" lon="2.75251">
        <ele>140.39999389648</ele>
        <time>2019-04-11T12:16:13Z</time>
      </trkpt>
      <trkpt lat="48.3676" lon="2.75245">
        <ele>140.39999389648</ele>
        <time>2019-04-11T12:16:18Z</time>
      </trkpt>
      <trkpt lat="48.36755" lon="2.75244">
        <ele>140.19999694824</ele>
        <time>2019-04-11T12:16:23Z</time>
      </trkpt>
      <trkpt lat="48.36748" lon="2.75241">
        <ele>139.80000305176</ele>
        <time>2019-04-11T12:16:28Z</time>
      </trkpt>
      <trkpt lat="48.36741" lon="2.7524">
        <ele>139.19999694824</ele>
        <time>2019-04-11T12:16:33Z</time>
      </trkpt>
      <trkpt lat="48.36737" lon="2.7524">
        <ele>138.60000610352</ele>
        <time>2019-04-11T12:16:38Z</time>
      </trkpt>
      <trkpt lat="48.36733" lon="2.7524">
        <ele>138</ele>
        <time>2019-04-11T12:16:43Z</time>
      </trkpt>
      <trkpt lat="48.36723" lon="2.75244">
        <ele>136.80000305176</ele>
        <time>2019-04-11T12:16:48Z</time>
      </trkpt>
      <trkpt lat="48.36717" lon="2.75248">
        <ele>135.39999389648</ele>
        <time>2019-04-11T12:16:53Z</time>
      </trkpt>
      <trkpt lat="48.36713" lon="2.75251">
        <ele>134.19999694824</ele>
        <time>2019-04-11T12:16:58Z</time>
      </trkpt>
      <trkpt lat="48.36712" lon="2.75253">
        <ele>133</ele>
        <time>2019-04-11T12:17:03Z</time>
      </trkpt>
      <trkpt lat="48.36705" lon="2.75262">
        <ele>132</ele>
        <time>2019-04-11T12:17:08Z</time>
      </trkpt>
      <trkpt lat="48.36698" lon="2.75264">
        <ele>130.80000305176</ele>
        <time>2019-04-11T12:17:13Z</time>
      </trkpt>
      <trkpt lat="48.36693" lon="2.75268">
        <ele>129.19999694824</ele>
        <time>2019-04-11T12:17:18Z</time>
      </trkpt>
      <trkpt lat="48.3669" lon="2.7527">
        <ele>128</ele>
        <time>2019-04-11T12:17:23Z</time>
      </trkpt>
      <trkpt lat="48.36686" lon="2.75271">
        <ele>127</ele>
        <time>2019-04-11T12:17:28Z</time>
      </trkpt>
      <trkpt lat="48.36679" lon="2.75275">
        <ele>126.40000152588</ele>
        <time>2019-04-11T12:17:33Z</time>
      </trkpt>
      <trkpt lat="48.36673" lon="2.75276">
        <ele>125.59999847412</ele>
        <time>2019-04-11T12:17:38Z</time>
      </trkpt>
      <trkpt lat="48.3667" lon="2.75279">
        <ele>125</ele>
        <time>2019-04-11T12:17:43Z</time>
      </trkpt>
      <trkpt lat="48.36665" lon="2.75284">
        <ele>124.59999847412</ele>
        <time>2019-04-11T12:17:48Z</time>
      </trkpt>
      <trkpt lat="48.36659" lon="2.75287">
        <ele>124.40000152588</ele>
        <time>2019-04-11T12:17:53Z</time>
      </trkpt>
      <trkpt lat="48.36655" lon="2.75292">
        <ele>123.80000305176</ele>
        <time>2019-04-11T12:17:58Z</time>
      </trkpt>
      <trkpt lat="48.36649" lon="2.753">
        <ele>123.19999694824</ele>
        <time>2019-04-11T12:18:03Z</time>
      </trkpt>
      <trkpt lat="48.36642" lon="2.75303">
        <ele>122.40000152588</ele>
        <time>2019-04-11T12:18:08Z</time>
      </trkpt>
      <trkpt lat="48.36637" lon="2.75306">
        <ele>121.80000305176</ele>
        <time>2019-04-11T12:18:13Z</time>
      </trkpt>
      <trkpt lat="48.36631" lon="2.75308">
        <ele>121</ele>
        <time>2019-04-11T12:18:18Z</time>
      </trkpt>
      <trkpt lat="48.36627" lon="2.75309">
        <ele>120.19999694824</ele>
        <time>2019-04-11T12:18:23Z</time>
      </trkpt>
      <trkpt lat="48.36623" lon="2.7531">
        <ele>119.40000152588</ele>
        <time>2019-04-11T12:18:28Z</time>
      </trkpt>
      <trkpt lat="48.36616" lon="2.7531">
        <ele>118.59999847412</ele>
        <time>2019-04-11T12:18:33Z</time>
      </trkpt>
      <trkpt lat="48.3661" lon="2.75313">
        <ele>117.80000305176</ele>
        <time>2019-04-11T12:18:38Z</time>
      </trkpt>
      <trkpt lat="48.36603" lon="2.75312">
        <ele>117</ele>
        <time>2019-04-11T12:18:43Z</time>
      </trkpt>
      <trkpt lat="48.36596" lon="2.75313">
        <ele>116.40000152588</ele>
        <time>2019-04-11T12:18:48Z</time>
      </trkpt>
      <trkpt lat="48.36591" lon="2.75316">
        <ele>115.59999847412</ele>
        <time>2019-04-11T12:18:53Z</time>
      </trkpt>
      <trkpt lat="48.36586" lon="2.75319">
        <ele>114.80000305176</ele>
        <time>2019-04-11T12:18:58Z</time>
      </trkpt>
      <trkpt lat="48.36581" lon="2.75319">
        <ele>114.19999694824</ele>
        <time>2019-04-11T12:19:03Z</time>
      </trkpt>
      <trkpt lat="48.36575" lon="2.75318">
        <ele>113.80000305176</ele>
        <time>2019-04-11T12:19:08Z</time>
      </trkpt>
      <trkpt lat="48.36569" lon="2.75318">
        <ele>113</ele>
        <time>2019-04-11T12:19:13Z</time>
      </trkpt>
      <trkpt lat="48.36562" lon="2.75318">
        <ele>112</ele>
        <time>2019-04-11T12:19:18Z</time>
      </trkpt>
      <trkpt lat="48.36557" lon="2.7532">
        <ele>110.80000305176</ele>
        <time>2019-04-11T12:19:23Z</time>
      </trkpt>
      <trkpt lat="48.36551" lon="2.75323">
        <ele>110</ele>
        <time>2019-04-11T12:19:28Z</time>
      </trkpt>
      <trkpt lat="48.36547" lon="2.75325">
        <ele>109</ele>
        <time>2019-04-11T12:19:33Z</time>
      </trkpt>
      <trkpt lat="48.36544" lon="2.75327">
        <ele>108.19999694824</ele>
        <time>2019-04-11T12:19:38Z</time>
      </trkpt>
      <trkpt lat="48.36537" lon="2.75329">
        <ele>107.40000152588</ele>
        <time>2019-04-11T12:19:43Z</time>
      </trkpt>
      <trkpt lat="48.36529" lon="2.7533">
        <ele>106.80000305176</ele>
        <time>2019-04-11T12:19:48Z</time>
      </trkpt>
      <trkpt lat="48.36524" lon="2.75331">
        <ele>106.40000152588</ele>
        <time>2019-04-11T12:19:53Z</time>
      </trkpt>
      <trkpt lat="48.36519" lon="2.7533">
        <ele>106.19999694824</ele>
        <time>2019-04-11T12:19:58Z</time>
      </trkpt>
      <trkpt lat="48.36512" lon="2.75332">
        <ele>105.80000305176</ele>
        <time>2019-04-11T12:20:03Z</time>
      </trkpt>
      <trkpt lat="48.36505" lon="2.75335">
        <ele>105</ele>
        <time>2019-04-11T12:20:08Z</time>
      </trkpt>
      <trkpt lat="48.365" lon="2.75338">
        <ele>104.80000305176</ele>
        <time>2019-04-11T12:20:13Z</time>
      </trkpt>
      <trkpt lat="48.36495" lon="2.75341">
        <ele>104.40000152588</ele>
        <time>2019-04-11T12:20:18Z</time>
      </trkpt>
      <trkpt lat="48.3649" lon="2.75346">
        <ele>104.19999694824</ele>
        <time>2019-04-11T12:20:23Z</time>
      </trkpt>
      <trkpt lat="48.36484" lon="2.75351">
        <ele>103.80000305176</ele>
        <time>2019-04-11T12:20:28Z</time>
      </trkpt>
      <trkpt lat="48.36478" lon="2.75356">
        <ele>103.40000152588</ele>
        <time>2019-04-11T12:20:33Z</time>
      </trkpt>
      <trkpt lat="48.36476" lon="2.75359">
        <ele>103.40000152588</ele>
        <time>2019-04-11T12:20:38Z</time>
      </trkpt>
      <trkpt lat="48.36475" lon="2.7536">
        <ele>103.40000152588</ele>
        <time>2019-04-11T12:20:43Z</time>
      </trkpt>
      <trkpt lat="48.36473" lon="2.75362">
        <ele>103.19999694824</ele>
        <time>2019-04-11T12:20:48Z</time>
      </trkpt>
      <trkpt lat="48.36473" lon="2.75361">
        <ele>103.19999694824</ele>
        <time>2019-04-11T12:20:53Z</time>
      </trkpt>
      <trkpt lat="48.36473" lon="2.75361">
        <ele>103.40000152588</ele>
        <time>2019-04-11T12:20:58Z</time>
      </trkpt>
      <trkpt lat="48.36474" lon="2.7536">
        <ele>103.59999847412</ele>
        <time>2019-04-11T12:21:03Z</time>
      </trkpt>
      <trkpt lat="48.36474" lon="2.75358">
        <ele>103.80000305176</ele>
        <time>2019-04-11T12:21:08Z</time>
      </trkpt>
      <trkpt lat="48.36476" lon="2.75356">
        <ele>103.80000305176</ele>
        <time>2019-04-11T12:21:13Z</time>
      </trkpt>
      <trkpt lat="48.36477" lon="2.75355">
        <ele>103.59999847412</ele>
        <time>2019-04-11T12:21:18Z</time>
      </trkpt>
      <trkpt lat="48.36477" lon="2.75355">
        <ele>103.59999847412</ele>
        <time>2019-04-11T12:21:23Z</time>
      </trkpt>
      <trkpt lat="48.36476" lon="2.75355">
        <ele>103.40000152588</ele>
        <time>2019-04-11T12:21:28Z</time>
      </trkpt>
      <trkpt lat="48.36476" lon="2.75356">
        <ele>103.19999694824</ele>
        <time>2019-04-11T12:21:33Z</time>
      </trkpt>
      <trkpt lat="48.36476" lon="2.75356">
        <ele>103.19999694824</ele>
        <time>2019-04-11T12:21:38Z</time>
      </trkpt>
      <trkpt lat="48.36476" lon="2.75356">
        <ele>103.40000152588</ele>
        <time>2019-04-11T12:21:43Z</time>
      </trkpt>
      <trkpt lat="48.36477" lon="2.75355">
        <ele>103.40000152588</ele>
        <time>2019-04-11T12:21:48Z</time>
      </trkpt>
      <trkpt lat="48.36476" lon="2.75354">
        <ele>103.40000152588</ele>
        <time>2019-04-11T12:21:53Z</time>
      </trkpt>
      <trkpt lat="48.36475" lon="2.75352">
        <ele>103.40000152588</ele>
        <time>2019-04-11T12:21:58Z</time>
      </trkpt>
      <trkpt lat="48.36476" lon="2.75352">
        <ele>103.40000152588</ele>
        <time>2019-04-11T12:22:03Z</time>
      </trkpt>
      <trkpt lat="48.36475" lon="2.75352">
        <ele>103.40000152588</ele>
        <time>2019-04-11T12:22:08Z</time>
      </trkpt>
      <trkpt lat="48.36476" lon="2.75351">
        <ele>103.40000152588</ele>
        <time>2019-04-11T12:22:13Z</time>
      </trkpt>
      <trkpt lat="48.36475" lon="2.75351">
        <ele>103.40000152588</ele>
        <time>2019-04-11T12:22:18Z</time>
      </trkpt>
      <trkpt lat="48.36473" lon="2.75351">
        <ele>103.40000152588</ele>
        <time>2019-04-11T12:22:23Z</time>
      </trkpt>
      <trkpt lat="48.36473" lon="2.75351">
        <ele>103.40000152588</ele>
        <time>2019-04-11T12:22:28Z</time>
      </trkpt>
      <trkpt lat="48.36474" lon="2.75351">
        <ele>103.40000152588</ele>
        <time>2019-04-11T12:22:33Z</time>
      </trkpt>
      <trkpt lat="48.36475" lon="2.7535">
        <ele>103.40000152588</ele>
        <time>2019-04-11T12:22:38Z</time>
      </trkpt>
      <trkpt lat="48.36476" lon="2.7535">
        <ele>103.40000152588</ele>
        <time>2019-04-11T12:22:43Z</time>
      </trkpt>
      <trkpt lat="48.36476" lon="2.75351">
        <ele>103.40000152588</ele>
        <time>2019-04-11T12:22:48Z</time>
      </trkpt>
      <trkpt lat="48.36476" lon="2.75351">
        <ele>103.40000152588</ele>
        <time>2019-04-11T12:22:53Z</time>
      </trkpt>
      <trkpt lat="48.36473" lon="2.75351">
        <ele>103.40000152588</ele>
        <time>2019-04-11T12:22:58Z</time>
      </trkpt>
      <trkpt lat="48.36468" lon="2.75348">
        <ele>103.40000152588</ele>
        <time>2019-04-11T12:23:03Z</time>
      </trkpt>
      <trkpt lat="48.36464" lon="2.7535">
        <ele>103.40000152588</ele>
        <time>2019-04-11T12:23:08Z</time>
      </trkpt>
      <trkpt lat="48.36458" lon="2.75352">
        <ele>103.40000152588</ele>
        <time>2019-04-11T12:23:13Z</time>
      </trkpt>
      <trkpt lat="48.36453" lon="2.75358">
        <ele>103.40000152588</ele>
        <time>2019-04-11T12:23:18Z</time>
      </trkpt>
      <trkpt lat="48.36449" lon="2.75362">
        <ele>103.40000152588</ele>
        <time>2019-04-11T12:23:23Z</time>
      </trkpt>
      <trkpt lat="48.36447" lon="2.75364">
        <ele>103.40000152588</ele>
        <time>2019-04-11T12:23:28Z</time>
      </trkpt>
      <trkpt lat="48.36444" lon="2.75365">
        <ele>103.40000152588</ele>
        <time>2019-04-11T12:23:33Z</time>
      </trkpt>
      <trkpt lat="48.3644" lon="2.7537">
        <ele>103.40000152588</ele>
        <time>2019-04-11T12:23:38Z</time>
      </trkpt>
      <trkpt lat="48.36432" lon="2.75378">
        <ele>103.40000152588</ele>
        <time>2019-04-11T12:23:43Z</time>
      </trkpt>
      <trkpt lat="48.36428" lon="2.75381">
        <ele>103.40000152588</ele>
        <time>2019-04-11T12:23:48Z</time>
      </trkpt>
      <trkpt lat="48.36422" lon="2.75385">
        <ele>103.40000152588</ele>
        <time>2019-04-11T12:23:53Z</time>
      </trkpt>
      <trkpt lat="48.36417" lon="2.7539">
        <ele>103.40000152588</ele>
        <time>2019-04-11T12:23:58Z</time>
      </trkpt>
      <trkpt lat="48.36412" lon="2.75395">
        <ele>103.40000152588</ele>
        <time>2019-04-11T12:24:03Z</time>
      </trkpt>
      <trkpt lat="48.36406" lon="2.754">
        <ele>103.40000152588</ele>
        <time>2019-04-11T12:24:08Z</time>
      </trkpt>
      <trkpt lat="48.364" lon="2.75405">
        <ele>103.40000152588</ele>
        <time>2019-04-11T12:24:13Z</time>
      </trkpt>
      <trkpt lat="48.36395" lon="2.75409">
        <ele>103.40000152588</ele>
        <time>2019-04-11T12:24:18Z</time>
      </trkpt>
      <trkpt lat="48.36391" lon="2.75413">
        <ele>103.40000152588</ele>
        <time>2019-04-11T12:24:23Z</time>
      </trkpt>
      <trkpt lat="48.36387" lon="2.75415">
        <ele>103.40000152588</ele>
        <time>2019-04-11T12:24:28Z</time>
      </trkpt>
      <trkpt lat="48.36382" lon="2.75418">
        <ele>103.40000152588</ele>
        <time>2019-04-11T12:24:33Z</time>
      </trkpt>
      <trkpt lat="48.36378" lon="2.75421">
        <ele>103.40000152588</ele>
        <time>2019-04-11T12:24:38Z</time>
      </trkpt>
      <trkpt lat="48.36373" lon="2.75425">
        <ele>103.40000152588</ele>
        <time>2019-04-11T12:24:43Z</time>
      </trkpt>
      <trkpt lat="48.36369" lon="2.75429">
        <ele>108</ele>
        <time>2019-04-11T12:24:48Z</time>
      </trkpt>
      <trkpt lat="48.36365" lon="2.75431">
        <ele>108.40000152588</ele>
        <time>2019-04-11T12:24:53Z</time>
      </trkpt>
      <trkpt lat="48.36361" lon="2.75434">
        <ele>109.59999847412</ele>
        <time>2019-04-11T12:24:58Z</time>
      </trkpt>
      <trkpt lat="48.36356" lon="2.75437">
        <ele>110.59999847412</ele>
        <time>2019-04-11T12:25:03Z</time>
      </trkpt>
      <trkpt lat="48.36351" lon="2.75441">
        <ele>111.19999694824</ele>
        <time>2019-04-11T12:25:08Z</time>
      </trkpt>
      <trkpt lat="48.36345" lon="2.75445">
        <ele>111.59999847412</ele>
        <time>2019-04-11T12:25:13Z</time>
      </trkpt>
      <trkpt lat="48.36341" lon="2.75449">
        <ele>112</ele>
        <time>2019-04-11T12:25:18Z</time>
      </trkpt>
      <trkpt lat="48.36337" lon="2.75453">
        <ele>112.40000152588</ele>
        <time>2019-04-11T12:25:23Z</time>
      </trkpt>
      <trkpt lat="48.36333" lon="2.75454">
        <ele>112.80000305176</ele>
        <time>2019-04-11T12:25:28Z</time>
      </trkpt>
      <trkpt lat="48.36327" lon="2.75457">
        <ele>112.59999847412</ele>
        <time>2019-04-11T12:25:33Z</time>
      </trkpt>
      <trkpt lat="48.36319" lon="2.7546">
        <ele>112.59999847412</ele>
        <time>2019-04-11T12:25:38Z</time>
      </trkpt>
      <trkpt lat="48.36314" lon="2.75468">
        <ele>112</ele>
        <time>2019-04-11T12:25:43Z</time>
      </trkpt>
      <trkpt lat="48.36309" lon="2.75474">
        <ele>111</ele>
        <time>2019-04-11T12:25:48Z</time>
      </trkpt>
      <trkpt lat="48.36306" lon="2.75479">
        <ele>110</ele>
        <time>2019-04-11T12:25:53Z</time>
      </trkpt>
      <trkpt lat="48.36302" lon="2.75484">
        <ele>109.19999694824</ele>
        <time>2019-04-11T12:25:58Z</time>
      </trkpt>
      <trkpt lat="48.36297" lon="2.7549">
        <ele>108.40000152588</ele>
        <time>2019-04-11T12:26:03Z</time>
      </trkpt>
      <trkpt lat="48.36292" lon="2.75496">
        <ele>106.80000305176</ele>
        <time>2019-04-11T12:26:08Z</time>
      </trkpt>
      <trkpt lat="48.36287" lon="2.75502">
        <ele>105.80000305176</ele>
        <time>2019-04-11T12:26:13Z</time>
      </trkpt>
      <trkpt lat="48.3628" lon="2.75507">
        <ele>105.19999694824</ele>
        <time>2019-04-11T12:26:18Z</time>
      </trkpt>
      <trkpt lat="48.36273" lon="2.75513">
        <ele>104.40000152588</ele>
        <time>2019-04-11T12:26:23Z</time>
      </trkpt>
      <trkpt lat="48.36268" lon="2.7552">
        <ele>103.40000152588</ele>
        <time>2019-04-11T12:26:28Z</time>
      </trkpt>
      <trkpt lat="48.36264" lon="2.75526">
        <ele>102.80000305176</ele>
        <time>2019-04-11T12:26:33Z</time>
      </trkpt>
      <trkpt lat="48.36262" lon="2.75529">
        <ele>102.40000152588</ele>
        <time>2019-04-11T12:26:38Z</time>
      </trkpt>
      <trkpt lat="48.36259" lon="2.75531">
        <ele>102</ele>
        <time>2019-04-11T12:26:43Z</time>
      </trkpt>
      <trkpt lat="48.36255" lon="2.75536">
        <ele>101.59999847412</ele>
        <time>2019-04-11T12:26:48Z</time>
      </trkpt>
      <trkpt lat="48.3625" lon="2.75541">
        <ele>101.19999694824</ele>
        <time>2019-04-11T12:26:53Z</time>
      </trkpt>
      <trkpt lat="48.36247" lon="2.75546">
        <ele>100.80000305176</ele>
        <time>2019-04-11T12:26:58Z</time>
      </trkpt>
      <trkpt lat="48.36242" lon="2.75554">
        <ele>100.40000152588</ele>
        <time>2019-04-11T12:27:03Z</time>
      </trkpt>
      <trkpt lat="48.36236" lon="2.75561">
        <ele>100.19999694824</ele>
        <time>2019-04-11T12:27:08Z</time>
      </trkpt>
      <trkpt lat="48.36231" lon="2.75565">
        <ele>100</ele>
        <time>2019-04-11T12:27:13Z</time>
      </trkpt>
      <trkpt lat="48.36226" lon="2.75568">
        <ele>99.599998474121</ele>
        <time>2019-04-11T12:27:18Z</time>
      </trkpt>
      <trkpt lat="48.3622" lon="2.75573">
        <ele>99.400001525879</ele>
        <time>2019-04-11T12:27:23Z</time>
      </trkpt>
      <trkpt lat="48.36215" lon="2.75578">
        <ele>99.400001525879</ele>
        <time>2019-04-11T12:27:28Z</time>
      </trkpt>
      <trkpt lat="48.3621" lon="2.75578">
        <ele>99.400001525879</ele>
        <time>2019-04-11T12:27:33Z</time>
      </trkpt>
      <trkpt lat="48.36204" lon="2.75575">
        <ele>100</ele>
        <time>2019-04-11T12:27:38Z</time>
      </trkpt>
      <trkpt lat="48.36197" lon="2.75571">
        <ele>100.19999694824</ele>
        <time>2019-04-11T12:27:43Z</time>
      </trkpt>
      <trkpt lat="48.36192" lon="2.75569">
        <ele>100.40000152588</ele>
        <time>2019-04-11T12:27:48Z</time>
      </trkpt>
      <trkpt lat="48.36188" lon="2.75564">
        <ele>100.80000305176</ele>
        <time>2019-04-11T12:27:53Z</time>
      </trkpt>
      <trkpt lat="48.36184" lon="2.75558">
        <ele>101.19999694824</ele>
        <time>2019-04-11T12:27:58Z</time>
      </trkpt>
      <trkpt lat="48.36182" lon="2.75551">
        <ele>101.59999847412</ele>
        <time>2019-04-11T12:28:03Z</time>
      </trkpt>
      <trkpt lat="48.3618" lon="2.75545">
        <ele>102</ele>
        <time>2019-04-11T12:28:08Z</time>
      </trkpt>
      <trkpt lat="48.36178" lon="2.7554">
        <ele>102.59999847412</ele>
        <time>2019-04-11T12:28:13Z</time>
      </trkpt>
      <trkpt lat="48.36176" lon="2.75532">
        <ele>103</ele>
        <time>2019-04-11T12:28:18Z</time>
      </trkpt>
      <trkpt lat="48.36174" lon="2.75524">
        <ele>103.40000152588</ele>
        <time>2019-04-11T12:28:23Z</time>
      </trkpt>
      <trkpt lat="48.36172" lon="2.75514">
        <ele>104</ele>
        <time>2019-04-11T12:28:28Z</time>
      </trkpt>
      <trkpt lat="48.36169" lon="2.75506">
        <ele>104.19999694824</ele>
        <time>2019-04-11T12:28:33Z</time>
      </trkpt>
      <trkpt lat="48.36168" lon="2.75498">
        <ele>104.80000305176</ele>
        <time>2019-04-11T12:28:38Z</time>
      </trkpt>
      <trkpt lat="48.36166" lon="2.75491">
        <ele>105.40000152588</ele>
        <time>2019-04-11T12:28:43Z</time>
      </trkpt>
      <trkpt lat="48.36164" lon="2.75485">
        <ele>105.59999847412</ele>
        <time>2019-04-11T12:28:48Z</time>
      </trkpt>
      <trkpt lat="48.36162" lon="2.75478">
        <ele>106.19999694824</ele>
        <time>2019-04-11T12:28:53Z</time>
      </trkpt>
      <trkpt lat="48.36161" lon="2.75471">
        <ele>106.59999847412</ele>
        <time>2019-04-11T12:28:58Z</time>
      </trkpt>
      <trkpt lat="48.3616" lon="2.75466">
        <ele>107.19999694824</ele>
        <time>2019-04-11T12:29:03Z</time>
      </trkpt>
      <trkpt lat="48.36158" lon="2.75459">
        <ele>107.80000305176</ele>
        <time>2019-04-11T12:29:08Z</time>
      </trkpt>
      <trkpt lat="48.36156" lon="2.75452">
        <ele>108.19999694824</ele>
        <time>2019-04-11T12:29:13Z</time>
      </trkpt>
      <trkpt lat="48.36154" lon="2.75445">
        <ele>109</ele>
        <time>2019-04-11T12:29:18Z</time>
      </trkpt>
      <trkpt lat="48.36152" lon="2.75439">
        <ele>110.19999694824</ele>
        <time>2019-04-11T12:29:23Z</time>
      </trkpt>
      <trkpt lat="48.3615" lon="2.75432">
        <ele>111</ele>
        <time>2019-04-11T12:29:28Z</time>
      </trkpt>
      <trkpt lat="48.36148" lon="2.75427">
        <ele>111.80000305176</ele>
        <time>2019-04-11T12:29:33Z</time>
      </trkpt>
      <trkpt lat="48.36147" lon="2.7542">
        <ele>112.19999694824</ele>
        <time>2019-04-11T12:29:38Z</time>
      </trkpt>
      <trkpt lat="48.36144" lon="2.75414">
        <ele>113.19999694824</ele>
        <time>2019-04-11T12:29:43Z</time>
      </trkpt>
      <trkpt lat="48.36142" lon="2.75407">
        <ele>114.19999694824</ele>
        <time>2019-04-11T12:29:48Z</time>
      </trkpt>
      <trkpt lat="48.36141" lon="2.75399">
        <ele>114.80000305176</ele>
        <time>2019-04-11T12:29:53Z</time>
      </trkpt>
      <trkpt lat="48.36139" lon="2.75392">
        <ele>115.40000152588</ele>
        <time>2019-04-11T12:29:58Z</time>
      </trkpt>
      <trkpt lat="48.36138" lon="2.75387">
        <ele>116.19999694824</ele>
        <time>2019-04-11T12:30:03Z</time>
      </trkpt>
      <trkpt lat="48.36136" lon="2.75383">
        <ele>117</ele>
        <time>2019-04-11T12:30:08Z</time>
      </trkpt>
      <trkpt lat="48.36134" lon="2.75377">
        <ele>118</ele>
        <time>2019-04-11T12:30:13Z</time>
      </trkpt>
      <trkpt lat="48.36132" lon="2.7537">
        <ele>118.59999847412</ele>
        <time>2019-04-11T12:30:18Z</time>
      </trkpt>
      <trkpt lat="48.3613" lon="2.75363">
        <ele>119.59999847412</ele>
        <time>2019-04-11T12:30:23Z</time>
      </trkpt>
      <trkpt lat="48.36129" lon="2.75357">
        <ele>120.40000152588</ele>
        <time>2019-04-11T12:30:28Z</time>
      </trkpt>
      <trkpt lat="48.36127" lon="2.75349">
        <ele>121.40000152588</ele>
        <time>2019-04-11T12:30:33Z</time>
      </trkpt>
      <trkpt lat="48.36124" lon="2.75343">
        <ele>121.80000305176</ele>
        <time>2019-04-11T12:30:38Z</time>
      </trkpt>
      <trkpt lat="48.36122" lon="2.75336">
        <ele>122.19999694824</ele>
        <time>2019-04-11T12:30:43Z</time>
      </trkpt>
      <trkpt lat="48.36121" lon="2.7533">
        <ele>123</ele>
        <time>2019-04-11T12:30:48Z</time>
      </trkpt>
      <trkpt lat="48.3612" lon="2.75325">
        <ele>124.40000152588</ele>
        <time>2019-04-11T12:30:53Z</time>
      </trkpt>
      <trkpt lat="48.36118" lon="2.75318">
        <ele>125.40000152588</ele>
        <time>2019-04-11T12:30:58Z</time>
      </trkpt>
      <trkpt lat="48.36116" lon="2.75314">
        <ele>126.59999847412</ele>
        <time>2019-04-11T12:31:03Z</time>
      </trkpt>
      <trkpt lat="48.36113" lon="2.75306">
        <ele>127.40000152588</ele>
        <time>2019-04-11T12:31:08Z</time>
      </trkpt>
      <trkpt lat="48.36112" lon="2.75298">
        <ele>128.19999694824</ele>
        <time>2019-04-11T12:31:13Z</time>
      </trkpt>
      <trkpt lat="48.36111" lon="2.7529">
        <ele>129.19999694824</ele>
        <time>2019-04-11T12:31:18Z</time>
      </trkpt>
      <trkpt lat="48.36111" lon="2.75283">
        <ele>130.39999389648</ele>
        <time>2019-04-11T12:31:23Z</time>
      </trkpt>
      <trkpt lat="48.36112" lon="2.75275">
        <ele>131</ele>
        <time>2019-04-11T12:31:28Z</time>
      </trkpt>
      <trkpt lat="48.36113" lon="2.75266">
        <ele>131.60000610352</ele>
        <time>2019-04-11T12:31:33Z</time>
      </trkpt>
      <trkpt lat="48.36112" lon="2.75259">
        <ele>133</ele>
        <time>2019-04-11T12:31:38Z</time>
      </trkpt>
      <trkpt lat="48.36112" lon="2.75251">
        <ele>134.39999389648</ele>
        <time>2019-04-11T12:31:43Z</time>
      </trkpt>
      <trkpt lat="48.36114" lon="2.75246">
        <ele>135.39999389648</ele>
        <time>2019-04-11T12:31:48Z</time>
      </trkpt>
      <trkpt lat="48.36115" lon="2.75238">
        <ele>136.19999694824</ele>
        <time>2019-04-11T12:31:53Z</time>
      </trkpt>
      <trkpt lat="48.36115" lon="2.75232">
        <ele>136.80000305176</ele>
        <time>2019-04-11T12:31:58Z</time>
      </trkpt>
      <trkpt lat="48.36114" lon="2.75228">
        <ele>137.60000610352</ele>
        <time>2019-04-11T12:32:03Z</time>
      </trkpt>
      <trkpt lat="48.36113" lon="2.75229">
        <ele>138.39999389648</ele>
        <time>2019-04-11T12:32:08Z</time>
      </trkpt>
      <trkpt lat="48.36113" lon="2.75232">
        <ele>138.80000305176</ele>
        <time>2019-04-11T12:32:13Z</time>
      </trkpt>
      <trkpt lat="48.36113" lon="2.75233">
        <ele>138.60000610352</ele>
        <time>2019-04-11T12:32:18Z</time>
      </trkpt>
      <trkpt lat="48.36113" lon="2.75233">
        <ele>138.60000610352</ele>
        <time>2019-04-11T12:32:23Z</time>
      </trkpt>
      <trkpt lat="48.36113" lon="2.75234">
        <ele>138.80000305176</ele>
        <time>2019-04-11T12:32:28Z</time>
      </trkpt>
      <trkpt lat="48.36113" lon="2.75235">
        <ele>138.80000305176</ele>
        <time>2019-04-11T12:32:33Z</time>
      </trkpt>
      <trkpt lat="48.36113" lon="2.75235">
        <ele>138.80000305176</ele>
        <time>2019-04-11T12:32:38Z</time>
      </trkpt>
      <trkpt lat="48.36113" lon="2.75235">
        <ele>139</ele>
        <time>2019-04-11T12:32:43Z</time>
      </trkpt>
      <trkpt lat="48.36114" lon="2.75234">
        <ele>139.19999694824</ele>
        <time>2019-04-11T12:32:48Z</time>
      </trkpt>
      <trkpt lat="48.36114" lon="2.75234">
        <ele>139.19999694824</ele>
        <time>2019-04-11T12:32:53Z</time>
      </trkpt>
      <trkpt lat="48.36114" lon="2.75235">
        <ele>139.19999694824</ele>
        <time>2019-04-11T12:32:58Z</time>
      </trkpt>
      <trkpt lat="48.36113" lon="2.75234">
        <ele>139.19999694824</ele>
        <time>2019-04-11T12:33:03Z</time>
      </trkpt>
      <trkpt lat="48.36113" lon="2.75234">
        <ele>139.19999694824</ele>
        <time>2019-04-11T12:33:08Z</time>
      </trkpt>
      <trkpt lat="48.36112" lon="2.75234">
        <ele>139</ele>
        <time>2019-04-11T12:33:13Z</time>
      </trkpt>
      <trkpt lat="48.36112" lon="2.75234">
        <ele>139</ele>
        <time>2019-04-11T12:33:18Z</time>
      </trkpt>
      <trkpt lat="48.36111" lon="2.75234">
        <ele>139</ele>
        <time>2019-04-11T12:33:23Z</time>
      </trkpt>
      <trkpt lat="48.36111" lon="2.75234">
        <ele>139</ele>
        <time>2019-04-11T12:33:28Z</time>
      </trkpt>
      <trkpt lat="48.36111" lon="2.75235">
        <ele>139</ele>
        <time>2019-04-11T12:33:33Z</time>
      </trkpt>
      <trkpt lat="48.36111" lon="2.75235">
        <ele>139</ele>
        <time>2019-04-11T12:33:38Z</time>
      </trkpt>
      <trkpt lat="48.36111" lon="2.75236">
        <ele>139</ele>
        <time>2019-04-11T12:33:43Z</time>
      </trkpt>
      <trkpt lat="48.36111" lon="2.75236">
        <ele>139</ele>
        <time>2019-04-11T12:33:48Z</time>
      </trkpt>
      <trkpt lat="48.36111" lon="2.75237">
        <ele>139</ele>
        <time>2019-04-11T12:33:53Z</time>
      </trkpt>
      <trkpt lat="48.3611" lon="2.75237">
        <ele>139</ele>
        <time>2019-04-11T12:33:58Z</time>
      </trkpt>
      <trkpt lat="48.3611" lon="2.75236">
        <ele>139</ele>
        <time>2019-04-11T12:34:03Z</time>
      </trkpt>
      <trkpt lat="48.36109" lon="2.75236">
        <ele>139</ele>
        <time>2019-04-11T12:34:08Z</time>
      </trkpt>
      <trkpt lat="48.36109" lon="2.75234">
        <ele>139</ele>
        <time>2019-04-11T12:34:13Z</time>
      </trkpt>
      <trkpt lat="48.36109" lon="2.75233">
        <ele>139</ele>
        <time>2019-04-11T12:34:18Z</time>
      </trkpt>
      <trkpt lat="48.36109" lon="2.75232">
        <ele>139</ele>
        <time>2019-04-11T12:34:23Z</time>
      </trkpt>
      <trkpt lat="48.36109" lon="2.75231">
        <ele>139</ele>
        <time>2019-04-11T12:34:28Z</time>
      </trkpt>
      <trkpt lat="48.36109" lon="2.75231">
        <ele>139</ele>
        <time>2019-04-11T12:34:33Z</time>
      </trkpt>
      <trkpt lat="48.36108" lon="2.75231">
        <ele>139</ele>
        <time>2019-04-11T12:34:38Z</time>
      </trkpt>
      <trkpt lat="48.36108" lon="2.75231">
        <ele>139</ele>
        <time>2019-04-11T12:34:43Z</time>
      </trkpt>
      <trkpt lat="48.36108" lon="2.75231">
        <ele>139</ele>
        <time>2019-04-11T12:34:48Z</time>
      </trkpt>
      <trkpt lat="48.36107" lon="2.75231">
        <ele>139</ele>
        <time>2019-04-11T12:34:53Z</time>
      </trkpt>
      <trkpt lat="48.36107" lon="2.7523">
        <ele>139</ele>
        <time>2019-04-11T12:34:58Z</time>
      </trkpt>
      <trkpt lat="48.36107" lon="2.7523">
        <ele>139</ele>
        <time>2019-04-11T12:35:03Z</time>
      </trkpt>
      <trkpt lat="48.36107" lon="2.7523">
        <ele>139</ele>
        <time>2019-04-11T12:35:08Z</time>
      </trkpt>
      <trkpt lat="48.36107" lon="2.7523">
        <ele>139</ele>
        <time>2019-04-11T12:35:13Z</time>
      </trkpt>
      <trkpt lat="48.36107" lon="2.7523">
        <ele>139</ele>
        <time>2019-04-11T12:35:18Z</time>
      </trkpt>
      <trkpt lat="48.36107" lon="2.75231">
        <ele>139</ele>
        <time>2019-04-11T12:35:23Z</time>
      </trkpt>
      <trkpt lat="48.36108" lon="2.75231">
        <ele>139</ele>
        <time>2019-04-11T12:35:28Z</time>
      </trkpt>
      <trkpt lat="48.36108" lon="2.75229">
        <ele>139</ele>
        <time>2019-04-11T12:35:33Z</time>
      </trkpt>
      <trkpt lat="48.36107" lon="2.75229">
        <ele>139</ele>
        <time>2019-04-11T12:35:38Z</time>
      </trkpt>
      <trkpt lat="48.36106" lon="2.75229">
        <ele>139</ele>
        <time>2019-04-11T12:35:43Z</time>
      </trkpt>
      <trkpt lat="48.36106" lon="2.7523">
        <ele>139</ele>
        <time>2019-04-11T12:35:48Z</time>
      </trkpt>
      <trkpt lat="48.36107" lon="2.75229">
        <ele>139</ele>
        <time>2019-04-11T12:35:53Z</time>
      </trkpt>
      <trkpt lat="48.36107" lon="2.75229">
        <ele>139</ele>
        <time>2019-04-11T12:35:58Z</time>
      </trkpt>
      <trkpt lat="48.36107" lon="2.75229">
        <ele>139</ele>
        <time>2019-04-11T12:36:03Z</time>
      </trkpt>
      <trkpt lat="48.36107" lon="2.75229">
        <ele>139</ele>
        <time>2019-04-11T12:36:08Z</time>
      </trkpt>
      <trkpt lat="48.36107" lon="2.7523">
        <ele>139</ele>
        <time>2019-04-11T12:36:13Z</time>
      </trkpt>
      <trkpt lat="48.36108" lon="2.7523">
        <ele>139</ele>
        <time>2019-04-11T12:36:18Z</time>
      </trkpt>
      <trkpt lat="48.36108" lon="2.7523">
        <ele>139</ele>
        <time>2019-04-11T12:36:23Z</time>
      </trkpt>
      <trkpt lat="48.36108" lon="2.75231">
        <ele>139</ele>
        <time>2019-04-11T12:36:28Z</time>
      </trkpt>
      <trkpt lat="48.36106" lon="2.75233">
        <ele>139</ele>
        <time>2019-04-11T12:36:33Z</time>
      </trkpt>
      <trkpt lat="48.36102" lon="2.75238">
        <ele>139</ele>
        <time>2019-04-11T12:36:38Z</time>
      </trkpt>
      <trkpt lat="48.36099" lon="2.75245">
        <ele>139</ele>
        <time>2019-04-11T12:36:43Z</time>
      </trkpt>
      <trkpt lat="48.36095" lon="2.75252">
        <ele>139</ele>
        <time>2019-04-11T12:36:48Z</time>
      </trkpt>
      <trkpt lat="48.36091" lon="2.75258">
        <ele>139</ele>
        <time>2019-04-11T12:36:53Z</time>
      </trkpt>
      <trkpt lat="48.36087" lon="2.75261">
        <ele>139</ele>
        <time>2019-04-11T12:36:58Z</time>
      </trkpt>
      <trkpt lat="48.36082" lon="2.75263">
        <ele>139</ele>
        <time>2019-04-11T12:37:03Z</time>
      </trkpt>
      <trkpt lat="48.36078" lon="2.75262">
        <ele>139.19999694824</ele>
        <time>2019-04-11T12:37:08Z</time>
      </trkpt>
      <trkpt lat="48.36074" lon="2.75258">
        <ele>140.39999389648</ele>
        <time>2019-04-11T12:37:13Z</time>
      </trkpt>
      <trkpt lat="48.36071" lon="2.75255">
        <ele>140.39999389648</ele>
        <time>2019-04-11T12:37:18Z</time>
      </trkpt>
      <trkpt lat="48.36068" lon="2.7525">
        <ele>140.60000610352</ele>
        <time>2019-04-11T12:37:23Z</time>
      </trkpt>
      <trkpt lat="48.36066" lon="2.75245">
        <ele>140.60000610352</ele>
        <time>2019-04-11T12:37:28Z</time>
      </trkpt>
      <trkpt lat="48.36064" lon="2.75242">
        <ele>140.60000610352</ele>
        <time>2019-04-11T12:37:33Z</time>
      </trkpt>
      <trkpt lat="48.36064" lon="2.75234">
        <ele>140.39999389648</ele>
        <time>2019-04-11T12:37:38Z</time>
      </trkpt>
      <trkpt lat="48.36064" lon="2.75226">
        <ele>140.19999694824</ele>
        <time>2019-04-11T12:37:43Z</time>
      </trkpt>
      <trkpt lat="48.36064" lon="2.75219">
        <ele>140.39999389648</ele>
        <time>2019-04-11T12:37:48Z</time>
      </trkpt>
      <trkpt lat="48.36065" lon="2.75212">
        <ele>140.39999389648</ele>
        <time>2019-04-11T12:37:53Z</time>
      </trkpt>
      <trkpt lat="48.36067" lon="2.75205">
        <ele>140.19999694824</ele>
        <time>2019-04-11T12:37:58Z</time>
      </trkpt>
      <trkpt lat="48.3607" lon="2.752">
        <ele>140.19999694824</ele>
        <time>2019-04-11T12:38:03Z</time>
      </trkpt>
      <trkpt lat="48.36073" lon="2.75196">
        <ele>140.19999694824</ele>
        <time>2019-04-11T12:38:08Z</time>
      </trkpt>
      <trkpt lat="48.36078" lon="2.75195">
        <ele>140.19999694824</ele>
        <time>2019-04-11T12:38:13Z</time>
      </trkpt>
      <trkpt lat="48.36084" lon="2.75195">
        <ele>140.19999694824</ele>
        <time>2019-04-11T12:38:18Z</time>
      </trkpt>
      <trkpt lat="48.36091" lon="2.75195">
        <ele>140</ele>
        <time>2019-04-11T12:38:23Z</time>
      </trkpt>
      <trkpt lat="48.36096" lon="2.75193">
        <ele>139.80000305176</ele>
        <time>2019-04-11T12:38:28Z</time>
      </trkpt>
      <trkpt lat="48.36103" lon="2.75189">
        <ele>139.80000305176</ele>
        <time>2019-04-11T12:38:33Z</time>
      </trkpt>
      <trkpt lat="48.36107" lon="2.75181">
        <ele>139.80000305176</ele>
        <time>2019-04-11T12:38:38Z</time>
      </trkpt>
      <trkpt lat="48.36109" lon="2.75172">
        <ele>139.80000305176</ele>
        <time>2019-04-11T12:38:43Z</time>
      </trkpt>
      <trkpt lat="48.36112" lon="2.75164">
        <ele>139.80000305176</ele>
        <time>2019-04-11T12:38:48Z</time>
      </trkpt>
      <trkpt lat="48.36112" lon="2.75154">
        <ele>139.39999389648</ele>
        <time>2019-04-11T12:38:53Z</time>
      </trkpt>
      <trkpt lat="48.36114" lon="2.75145">
        <ele>139.39999389648</ele>
        <time>2019-04-11T12:38:58Z</time>
      </trkpt>
      <trkpt lat="48.36115" lon="2.75137">
        <ele>139.39999389648</ele>
        <time>2019-04-11T12:39:03Z</time>
      </trkpt>
      <trkpt lat="48.36115" lon="2.75128">
        <ele>139.19999694824</ele>
        <time>2019-04-11T12:39:08Z</time>
      </trkpt>
      <trkpt lat="48.36115" lon="2.75121">
        <ele>139.19999694824</ele>
        <time>2019-04-11T12:39:13Z</time>
      </trkpt>
      <trkpt lat="48.36116" lon="2.75113">
        <ele>139.19999694824</ele>
        <time>2019-04-11T12:39:18Z</time>
      </trkpt>
      <trkpt lat="48.36117" lon="2.75104">
        <ele>139.39999389648</ele>
        <time>2019-04-11T12:39:23Z</time>
      </trkpt>
      <trkpt lat="48.36119" lon="2.75096">
        <ele>139.19999694824</ele>
        <time>2019-04-11T12:39:28Z</time>
      </trkpt>
      <trkpt lat="48.36119" lon="2.75089">
        <ele>139.19999694824</ele>
        <time>2019-04-11T12:39:33Z</time>
      </trkpt>
      <trkpt lat="48.3612" lon="2.75081">
        <ele>139</ele>
        <time>2019-04-11T12:39:38Z</time>
      </trkpt>
      <trkpt lat="48.36122" lon="2.75074">
        <ele>139</ele>
        <time>2019-04-11T12:39:43Z</time>
      </trkpt>
      <trkpt lat="48.36123" lon="2.75066">
        <ele>139</ele>
        <time>2019-04-11T12:39:48Z</time>
      </trkpt>
      <trkpt lat="48.36124" lon="2.75057">
        <ele>139</ele>
        <time>2019-04-11T12:39:53Z</time>
      </trkpt>
      <trkpt lat="48.36125" lon="2.75048">
        <ele>139.19999694824</ele>
        <time>2019-04-11T12:39:58Z</time>
      </trkpt>
      <trkpt lat="48.36126" lon="2.75041">
        <ele>139.39999389648</ele>
        <time>2019-04-11T12:40:03Z</time>
      </trkpt>
      <trkpt lat="48.36126" lon="2.75033">
        <ele>139.39999389648</ele>
        <time>2019-04-11T12:40:08Z</time>
      </trkpt>
      <trkpt lat="48.36126" lon="2.75024">
        <ele>139.19999694824</ele>
        <time>2019-04-11T12:40:13Z</time>
      </trkpt>
      <trkpt lat="48.36124" lon="2.75015">
        <ele>139</ele>
        <time>2019-04-11T12:40:18Z</time>
      </trkpt>
      <trkpt lat="48.36122" lon="2.75008">
        <ele>139.19999694824</ele>
        <time>2019-04-11T12:40:23Z</time>
      </trkpt>
      <trkpt lat="48.3612" lon="2.75001">
        <ele>139.39999389648</ele>
        <time>2019-04-11T12:40:28Z</time>
      </trkpt>
      <trkpt lat="48.36119" lon="2.74994">
        <ele>139.60000610352</ele>
        <time>2019-04-11T12:40:33Z</time>
      </trkpt>
      <trkpt lat="48.36118" lon="2.74985">
        <ele>139.39999389648</ele>
        <time>2019-04-11T12:40:38Z</time>
      </trkpt>
      <trkpt lat="48.36118" lon="2.74977">
        <ele>139.39999389648</ele>
        <time>2019-04-11T12:40:43Z</time>
      </trkpt>
      <trkpt lat="48.36117" lon="2.7497">
        <ele>139.80000305176</ele>
        <time>2019-04-11T12:40:48Z</time>
      </trkpt>
      <trkpt lat="48.36117" lon="2.74963">
        <ele>140</ele>
        <time>2019-04-11T12:40:53Z</time>
      </trkpt>
      <trkpt lat="48.36116" lon="2.74955">
        <ele>140</ele>
        <time>2019-04-11T12:40:58Z</time>
      </trkpt>
      <trkpt lat="48.36115" lon="2.74947">
        <ele>140</ele>
        <time>2019-04-11T12:41:03Z</time>
      </trkpt>
      <trkpt lat="48.36114" lon="2.74939">
        <ele>140.19999694824</ele>
        <time>2019-04-11T12:41:08Z</time>
      </trkpt>
      <trkpt lat="48.36113" lon="2.74933">
        <ele>140.19999694824</ele>
        <time>2019-04-11T12:41:13Z</time>
      </trkpt>
      <trkpt lat="48.36113" lon="2.74926">
        <ele>140.19999694824</ele>
        <time>2019-04-11T12:41:18Z</time>
      </trkpt>
      <trkpt lat="48.36112" lon="2.7492">
        <ele>140.19999694824</ele>
        <time>2019-04-11T12:41:23Z</time>
      </trkpt>
      <trkpt lat="48.36111" lon="2.7491">
        <ele>140</ele>
        <time>2019-04-11T12:41:28Z</time>
      </trkpt>
      <trkpt lat="48.36109" lon="2.74903">
        <ele>140</ele>
        <time>2019-04-11T12:41:33Z</time>
      </trkpt>
      <trkpt lat="48.36108" lon="2.74894">
        <ele>140</ele>
        <time>2019-04-11T12:41:38Z</time>
      </trkpt>
      <trkpt lat="48.36106" lon="2.74884">
        <ele>140.19999694824</ele>
        <time>2019-04-11T12:41:43Z</time>
      </trkpt>
      <trkpt lat="48.36105" lon="2.74877">
        <ele>140.19999694824</ele>
        <time>2019-04-11T12:41:48Z</time>
      </trkpt>
      <trkpt lat="48.36105" lon="2.7487">
        <ele>140.39999389648</ele>
        <time>2019-04-11T12:41:53Z</time>
      </trkpt>
      <trkpt lat="48.36105" lon="2.74861">
        <ele>140.39999389648</ele>
        <time>2019-04-11T12:41:58Z</time>
      </trkpt>
      <trkpt lat="48.36103" lon="2.74851">
        <ele>140.39999389648</ele>
        <time>2019-04-11T12:42:03Z</time>
      </trkpt>
      <trkpt lat="48.36101" lon="2.74844">
        <ele>140.39999389648</ele>
        <time>2019-04-11T12:42:08Z</time>
      </trkpt>
      <trkpt lat="48.36098" lon="2.74836">
        <ele>140.39999389648</ele>
        <time>2019-04-11T12:42:13Z</time>
      </trkpt>
      <trkpt lat="48.36094" lon="2.74828">
        <ele>140.19999694824</ele>
        <time>2019-04-11T12:42:18Z</time>
      </trkpt>
      <trkpt lat="48.3609" lon="2.74821">
        <ele>140.19999694824</ele>
        <time>2019-04-11T12:42:23Z</time>
      </trkpt>
      <trkpt lat="48.36086" lon="2.74814">
        <ele>140.19999694824</ele>
        <time>2019-04-11T12:42:28Z</time>
      </trkpt>
      <trkpt lat="48.36084" lon="2.74806">
        <ele>140</ele>
        <time>2019-04-11T12:42:33Z</time>
      </trkpt>
      <trkpt lat="48.36082" lon="2.74799">
        <ele>140</ele>
        <time>2019-04-11T12:42:38Z</time>
      </trkpt>
      <trkpt lat="48.36079" lon="2.74793">
        <ele>140</ele>
        <time>2019-04-11T12:42:43Z</time>
      </trkpt>
      <trkpt lat="48.36076" lon="2.74786">
        <ele>140</ele>
        <time>2019-04-11T12:42:48Z</time>
      </trkpt>
      <trkpt lat="48.36073" lon="2.74779">
        <ele>140</ele>
        <time>2019-04-11T12:42:53Z</time>
      </trkpt>
      <trkpt lat="48.3607" lon="2.74772">
        <ele>139.80000305176</ele>
        <time>2019-04-11T12:42:58Z</time>
      </trkpt>
      <trkpt lat="48.36067" lon="2.74764">
        <ele>139.80000305176</ele>
        <time>2019-04-11T12:43:03Z</time>
      </trkpt>
      <trkpt lat="48.36064" lon="2.74757">
        <ele>139.80000305176</ele>
        <time>2019-04-11T12:43:08Z</time>
      </trkpt>
      <trkpt lat="48.36061" lon="2.74751">
        <ele>139.60000610352</ele>
        <time>2019-04-11T12:43:13Z</time>
      </trkpt>
      <trkpt lat="48.3606" lon="2.74744">
        <ele>139.60000610352</ele>
        <time>2019-04-11T12:43:18Z</time>
      </trkpt>
      <trkpt lat="48.36058" lon="2.7474">
        <ele>139.39999389648</ele>
        <time>2019-04-11T12:43:23Z</time>
      </trkpt>
      <trkpt lat="48.36053" lon="2.74731">
        <ele>139.39999389648</ele>
        <time>2019-04-11T12:43:28Z</time>
      </trkpt>
      <trkpt lat="48.36051" lon="2.74722">
        <ele>139.39999389648</ele>
        <time>2019-04-11T12:43:33Z</time>
      </trkpt>
      <trkpt lat="48.36046" lon="2.74714">
        <ele>139.39999389648</ele>
        <time>2019-04-11T12:43:38Z</time>
      </trkpt>
      <trkpt lat="48.36044" lon="2.74708">
        <ele>139.39999389648</ele>
        <time>2019-04-11T12:43:43Z</time>
      </trkpt>
      <trkpt lat="48.36041" lon="2.74702">
        <ele>139.39999389648</ele>
        <time>2019-04-11T12:43:48Z</time>
      </trkpt>
      <trkpt lat="48.36039" lon="2.74694">
        <ele>139.39999389648</ele>
        <time>2019-04-11T12:43:53Z</time>
      </trkpt>
      <trkpt lat="48.36035" lon="2.74686">
        <ele>139.39999389648</ele>
        <time>2019-04-11T12:43:58Z</time>
      </trkpt>
      <trkpt lat="48.36033" lon="2.7468">
        <ele>139.39999389648</ele>
        <time>2019-04-11T12:44:03Z</time>
      </trkpt>
      <trkpt lat="48.36029" lon="2.74674">
        <ele>139.39999389648</ele>
        <time>2019-04-11T12:44:08Z</time>
      </trkpt>
      <trkpt lat="48.36026" lon="2.74666">
        <ele>139.39999389648</ele>
        <time>2019-04-11T12:44:13Z</time>
      </trkpt>
      <trkpt lat="48.36023" lon="2.74659">
        <ele>139.39999389648</ele>
        <time>2019-04-11T12:44:18Z</time>
      </trkpt>
      <trkpt lat="48.36019" lon="2.74653">
        <ele>139.39999389648</ele>
        <time>2019-04-11T12:44:23Z</time>
      </trkpt>
      <trkpt lat="48.36016" lon="2.74646">
        <ele>139.39999389648</ele>
        <time>2019-04-11T12:44:28Z</time>
      </trkpt>
      <trkpt lat="48.36013" lon="2.7464">
        <ele>139.39999389648</ele>
        <time>2019-04-11T12:44:33Z</time>
      </trkpt>
      <trkpt lat="48.3601" lon="2.74633">
        <ele>139.39999389648</ele>
        <time>2019-04-11T12:44:38Z</time>
      </trkpt>
      <trkpt lat="48.36008" lon="2.74625">
        <ele>139.39999389648</ele>
        <time>2019-04-11T12:44:43Z</time>
      </trkpt>
      <trkpt lat="48.36008" lon="2.74616">
        <ele>139.39999389648</ele>
        <time>2019-04-11T12:44:48Z</time>
      </trkpt>
      <trkpt lat="48.36007" lon="2.74607">
        <ele>139.39999389648</ele>
        <time>2019-04-11T12:44:53Z</time>
      </trkpt>
      <trkpt lat="48.36007" lon="2.74599">
        <ele>139.39999389648</ele>
        <time>2019-04-11T12:44:58Z</time>
      </trkpt>
      <trkpt lat="48.36007" lon="2.74591">
        <ele>139.39999389648</ele>
        <time>2019-04-11T12:45:03Z</time>
      </trkpt>
      <trkpt lat="48.36008" lon="2.74582">
        <ele>139.39999389648</ele>
        <time>2019-04-11T12:45:08Z</time>
      </trkpt>
      <trkpt lat="48.36009" lon="2.74573">
        <ele>139.19999694824</ele>
        <time>2019-04-11T12:45:13Z</time>
      </trkpt>
      <trkpt lat="48.36009" lon="2.74564">
        <ele>139.19999694824</ele>
        <time>2019-04-11T12:45:18Z</time>
      </trkpt>
      <trkpt lat="48.36011" lon="2.74556">
        <ele>138.80000305176</ele>
        <time>2019-04-11T12:45:23Z</time>
      </trkpt>
      <trkpt lat="48.36012" lon="2.74549">
        <ele>138.60000610352</ele>
        <time>2019-04-11T12:45:28Z</time>
      </trkpt>
      <trkpt lat="48.36013" lon="2.7454">
        <ele>138.80000305176</ele>
        <time>2019-04-11T12:45:33Z</time>
      </trkpt>
      <trkpt lat="48.36016" lon="2.74529">
        <ele>138.80000305176</ele>
        <time>2019-04-11T12:45:38Z</time>
      </trkpt>
      <trkpt lat="48.36018" lon="2.74519">
        <ele>138.60000610352</ele>
        <time>2019-04-11T12:45:43Z</time>
      </trkpt>
      <trkpt lat="48.36018" lon="2.74511">
        <ele>138.39999389648</ele>
        <time>2019-04-11T12:45:48Z</time>
      </trkpt>
      <trkpt lat="48.36017" lon="2.74504">
        <ele>138.39999389648</ele>
        <time>2019-04-11T12:45:53Z</time>
      </trkpt>
      <trkpt lat="48.36019" lon="2.74496">
        <ele>138.60000610352</ele>
        <time>2019-04-11T12:45:58Z</time>
      </trkpt>
      <trkpt lat="48.3602" lon="2.74489">
        <ele>138.80000305176</ele>
        <time>2019-04-11T12:46:03Z</time>
      </trkpt>
      <trkpt lat="48.36021" lon="2.74479">
        <ele>138.80000305176</ele>
        <time>2019-04-11T12:46:08Z</time>
      </trkpt>
      <trkpt lat="48.36022" lon="2.74471">
        <ele>138.80000305176</ele>
        <time>2019-04-11T12:46:13Z</time>
      </trkpt>
      <trkpt lat="48.36024" lon="2.74462">
        <ele>138.80000305176</ele>
        <time>2019-04-11T12:46:18Z</time>
      </trkpt>
      <trkpt lat="48.36026" lon="2.74454">
        <ele>138.80000305176</ele>
        <time>2019-04-11T12:46:23Z</time>
      </trkpt>
      <trkpt lat="48.36027" lon="2.74446">
        <ele>139</ele>
        <time>2019-04-11T12:46:28Z</time>
      </trkpt>
      <trkpt lat="48.36028" lon="2.74437">
        <ele>139</ele>
        <time>2019-04-11T12:46:33Z</time>
      </trkpt>
      <trkpt lat="48.36029" lon="2.74429">
        <ele>139.19999694824</ele>
        <time>2019-04-11T12:46:38Z</time>
      </trkpt>
      <trkpt lat="48.36029" lon="2.74421">
        <ele>139.19999694824</ele>
        <time>2019-04-11T12:46:43Z</time>
      </trkpt>
      <trkpt lat="48.3603" lon="2.74412">
        <ele>139.19999694824</ele>
        <time>2019-04-11T12:46:48Z</time>
      </trkpt>
      <trkpt lat="48.36031" lon="2.74404">
        <ele>139</ele>
        <time>2019-04-11T12:46:53Z</time>
      </trkpt>
      <trkpt lat="48.36031" lon="2.74396">
        <ele>139</ele>
        <time>2019-04-11T12:46:58Z</time>
      </trkpt>
      <trkpt lat="48.36031" lon="2.74385">
        <ele>139</ele>
        <time>2019-04-11T12:47:03Z</time>
      </trkpt>
      <trkpt lat="48.36032" lon="2.74378">
        <ele>139</ele>
        <time>2019-04-11T12:47:08Z</time>
      </trkpt>
      <trkpt lat="48.36034" lon="2.74369">
        <ele>139.19999694824</ele>
        <time>2019-04-11T12:47:13Z</time>
      </trkpt>
      <trkpt lat="48.36034" lon="2.7436">
        <ele>139.19999694824</ele>
        <time>2019-04-11T12:47:18Z</time>
      </trkpt>
      <trkpt lat="48.36036" lon="2.74349">
        <ele>139.39999389648</ele>
        <time>2019-04-11T12:47:23Z</time>
      </trkpt>
      <trkpt lat="48.36035" lon="2.7434">
        <ele>139.39999389648</ele>
        <time>2019-04-11T12:47:28Z</time>
      </trkpt>
      <trkpt lat="48.36034" lon="2.74331">
        <ele>139.39999389648</ele>
        <time>2019-04-11T12:47:33Z</time>
      </trkpt>
      <trkpt lat="48.36033" lon="2.74323">
        <ele>139.19999694824</ele>
        <time>2019-04-11T12:47:38Z</time>
      </trkpt>
      <trkpt lat="48.36032" lon="2.74315">
        <ele>139.39999389648</ele>
        <time>2019-04-11T12:47:43Z</time>
      </trkpt>
      <trkpt lat="48.36031" lon="2.74307">
        <ele>139.60000610352</ele>
        <time>2019-04-11T12:47:48Z</time>
      </trkpt>
      <trkpt lat="48.36029" lon="2.743">
        <ele>139.39999389648</ele>
        <time>2019-04-11T12:47:53Z</time>
      </trkpt>
      <trkpt lat="48.36028" lon="2.74294">
        <ele>139.39999389648</ele>
        <time>2019-04-11T12:47:58Z</time>
      </trkpt>
      <trkpt lat="48.36027" lon="2.74286">
        <ele>139.80000305176</ele>
        <time>2019-04-11T12:48:03Z</time>
      </trkpt>
      <trkpt lat="48.36027" lon="2.74278">
        <ele>139.60000610352</ele>
        <time>2019-04-11T12:48:08Z</time>
      </trkpt>
      <trkpt lat="48.36028" lon="2.74269">
        <ele>139.60000610352</ele>
        <time>2019-04-11T12:48:13Z</time>
      </trkpt>
      <trkpt lat="48.3603" lon="2.7426">
        <ele>139.80000305176</ele>
        <time>2019-04-11T12:48:18Z</time>
      </trkpt>
      <trkpt lat="48.36032" lon="2.74254">
        <ele>140.19999694824</ele>
        <time>2019-04-11T12:48:23Z</time>
      </trkpt>
      <trkpt lat="48.36032" lon="2.74247">
        <ele>140.80000305176</ele>
        <time>2019-04-11T12:48:28Z</time>
      </trkpt>
      <trkpt lat="48.36032" lon="2.74238">
        <ele>141</ele>
        <time>2019-04-11T12:48:33Z</time>
      </trkpt>
      <trkpt lat="48.36032" lon="2.7423">
        <ele>140.80000305176</ele>
        <time>2019-04-11T12:48:38Z</time>
      </trkpt>
      <trkpt lat="48.36032" lon="2.74223">
        <ele>140.80000305176</ele>
        <time>2019-04-11T12:48:43Z</time>
      </trkpt>
      <trkpt lat="48.3603" lon="2.74216">
        <ele>140.80000305176</ele>
        <time>2019-04-11T12:48:48Z</time>
      </trkpt>
      <trkpt lat="48.36029" lon="2.74214">
        <ele>141</ele>
        <time>2019-04-11T12:48:53Z</time>
      </trkpt>
      <trkpt lat="48.36028" lon="2.74212">
        <ele>141.60000610352</ele>
        <time>2019-04-11T12:48:58Z</time>
      </trkpt>
      <trkpt lat="48.36027" lon="2.7421">
        <ele>141.60000610352</ele>
        <time>2019-04-11T12:49:03Z</time>
      </trkpt>
      <trkpt lat="48.36027" lon="2.74209">
        <ele>141.39999389648</ele>
        <time>2019-04-11T12:49:08Z</time>
      </trkpt>
      <trkpt lat="48.36027" lon="2.74208">
        <ele>141.39999389648</ele>
        <time>2019-04-11T12:49:13Z</time>
      </trkpt>
      <trkpt lat="48.36027" lon="2.74207">
        <ele>141.39999389648</ele>
        <time>2019-04-11T12:49:18Z</time>
      </trkpt>
      <trkpt lat="48.36027" lon="2.74207">
        <ele>140.80000305176</ele>
        <time>2019-04-11T12:49:23Z</time>
      </trkpt>
      <trkpt lat="48.36027" lon="2.74206">
        <ele>141.39999389648</ele>
        <time>2019-04-11T12:49:28Z</time>
      </trkpt>
      <trkpt lat="48.36027" lon="2.74207">
        <ele>142.19999694824</ele>
        <time>2019-04-11T12:49:33Z</time>
      </trkpt>
      <trkpt lat="48.36028" lon="2.74206">
        <ele>141.80000305176</ele>
        <time>2019-04-11T12:49:38Z</time>
      </trkpt>
      <trkpt lat="48.36028" lon="2.74206">
        <ele>141.60000610352</ele>
        <time>2019-04-11T12:49:43Z</time>
      </trkpt>
      <trkpt lat="48.36028" lon="2.74206">
        <ele>141.60000610352</ele>
        <time>2019-04-11T12:49:48Z</time>
      </trkpt>
      <trkpt lat="48.36027" lon="2.74206">
        <ele>141.60000610352</ele>
        <time>2019-04-11T12:49:53Z</time>
      </trkpt>
      <trkpt lat="48.36027" lon="2.74207">
        <ele>141.60000610352</ele>
        <time>2019-04-11T12:49:58Z</time>
      </trkpt>
      <trkpt lat="48.36028" lon="2.74207">
        <ele>141.60000610352</ele>
        <time>2019-04-11T12:50:03Z</time>
      </trkpt>
      <trkpt lat="48.36028" lon="2.74207">
        <ele>141.60000610352</ele>
        <time>2019-04-11T12:50:08Z</time>
      </trkpt>
      <trkpt lat="48.36029" lon="2.74207">
        <ele>141.60000610352</ele>
        <time>2019-04-11T12:50:13Z</time>
      </trkpt>
      <trkpt lat="48.36028" lon="2.74206">
        <ele>141.60000610352</ele>
        <time>2019-04-11T12:50:18Z</time>
      </trkpt>
      <trkpt lat="48.36028" lon="2.74205">
        <ele>141.60000610352</ele>
        <time>2019-04-11T12:50:23Z</time>
      </trkpt>
      <trkpt lat="48.36026" lon="2.74204">
        <ele>141.60000610352</ele>
        <time>2019-04-11T12:50:28Z</time>
      </trkpt>
      <trkpt lat="48.36025" lon="2.74205">
        <ele>141.60000610352</ele>
        <time>2019-04-11T12:50:33Z</time>
      </trkpt>
      <trkpt lat="48.36024" lon="2.74205">
        <ele>141.60000610352</ele>
        <time>2019-04-11T12:50:38Z</time>
      </trkpt>
      <trkpt lat="48.36023" lon="2.74206">
        <ele>141.60000610352</ele>
        <time>2019-04-11T12:50:43Z</time>
      </trkpt>
      <trkpt lat="48.36024" lon="2.74207">
        <ele>141.60000610352</ele>
        <time>2019-04-11T12:50:48Z</time>
      </trkpt>
      <trkpt lat="48.36024" lon="2.74207">
        <ele>141.60000610352</ele>
        <time>2019-04-11T12:50:53Z</time>
      </trkpt>
      <trkpt lat="48.36024" lon="2.74206">
        <ele>141.60000610352</ele>
        <time>2019-04-11T12:50:58Z</time>
      </trkpt>
      <trkpt lat="48.36023" lon="2.74205">
        <ele>141.60000610352</ele>
        <time>2019-04-11T12:51:03Z</time>
      </trkpt>
      <trkpt lat="48.36022" lon="2.74205">
        <ele>141.60000610352</ele>
        <time>2019-04-11T12:51:08Z</time>
      </trkpt>
      <trkpt lat="48.3602" lon="2.74203">
        <ele>141.60000610352</ele>
        <time>2019-04-11T12:51:13Z</time>
      </trkpt>
      <trkpt lat="48.36019" lon="2.74202">
        <ele>141.60000610352</ele>
        <time>2019-04-11T12:51:18Z</time>
      </trkpt>
      <trkpt lat="48.36017" lon="2.74201">
        <ele>141.60000610352</ele>
        <time>2019-04-11T12:51:23Z</time>
      </trkpt>
      <trkpt lat="48.36013" lon="2.74198">
        <ele>141.60000610352</ele>
        <time>2019-04-11T12:51:28Z</time>
      </trkpt>
      <trkpt lat="48.36007" lon="2.74193">
        <ele>141.60000610352</ele>
        <time>2019-04-11T12:51:33Z</time>
      </trkpt>
      <trkpt lat="48.36001" lon="2.74192">
        <ele>141.60000610352</ele>
        <time>2019-04-11T12:51:38Z</time>
      </trkpt>
      <trkpt lat="48.35995" lon="2.74193">
        <ele>139.80000305176</ele>
        <time>2019-04-11T12:51:43Z</time>
      </trkpt>
      <trkpt lat="48.3599" lon="2.74196">
        <ele>139.19999694824</ele>
        <time>2019-04-11T12:51:48Z</time>
      </trkpt>
      <trkpt lat="48.35986" lon="2.74199">
        <ele>139.19999694824</ele>
        <time>2019-04-11T12:51:53Z</time>
      </trkpt>
      <trkpt lat="48.35982" lon="2.74203">
        <ele>139</ele>
        <time>2019-04-11T12:51:58Z</time>
      </trkpt>
      <trkpt lat="48.35979" lon="2.74209">
        <ele>138.80000305176</ele>
        <time>2019-04-11T12:52:03Z</time>
      </trkpt>
      <trkpt lat="48.35976" lon="2.74213">
        <ele>138.39999389648</ele>
        <time>2019-04-11T12:52:08Z</time>
      </trkpt>
      <trkpt lat="48.35973" lon="2.74219">
        <ele>137.80000305176</ele>
        <time>2019-04-11T12:52:13Z</time>
      </trkpt>
      <trkpt lat="48.35971" lon="2.74226">
        <ele>137.39999389648</ele>
        <time>2019-04-11T12:52:18Z</time>
      </trkpt>
      <trkpt lat="48.35969" lon="2.74229">
        <ele>136.80000305176</ele>
        <time>2019-04-11T12:52:23Z</time>
      </trkpt>
      <trkpt lat="48.35963" lon="2.7423">
        <ele>135.80000305176</ele>
        <time>2019-04-11T12:52:28Z</time>
      </trkpt>
      <trkpt lat="48.35959" lon="2.74227">
        <ele>134.80000305176</ele>
        <time>2019-04-11T12:52:33Z</time>
      </trkpt>
      <trkpt lat="48.35956" lon="2.74221">
        <ele>133.80000305176</ele>
        <time>2019-04-11T12:52:38Z</time>
      </trkpt>
      <trkpt lat="48.35956" lon="2.74212">
        <ele>133.39999389648</ele>
        <time>2019-04-11T12:52:43Z</time>
      </trkpt>
      <trkpt lat="48.35957" lon="2.74205">
        <ele>133.19999694824</ele>
        <time>2019-04-11T12:52:48Z</time>
      </trkpt>
      <trkpt lat="48.35959" lon="2.74198">
        <ele>132.60000610352</ele>
        <time>2019-04-11T12:52:53Z</time>
      </trkpt>
      <trkpt lat="48.35961" lon="2.7419">
        <ele>132.60000610352</ele>
        <time>2019-04-11T12:52:58Z</time>
      </trkpt>
      <trkpt lat="48.35963" lon="2.74182">
        <ele>132.60000610352</ele>
        <time>2019-04-11T12:53:03Z</time>
      </trkpt>
      <trkpt lat="48.35966" lon="2.74177">
        <ele>132.19999694824</ele>
        <time>2019-04-11T12:53:08Z</time>
      </trkpt>
      <trkpt lat="48.35969" lon="2.74171">
        <ele>132</ele>
        <time>2019-04-11T12:53:13Z</time>
      </trkpt>
      <trkpt lat="48.35972" lon="2.74166">
        <ele>131.39999389648</ele>
        <time>2019-04-11T12:53:18Z</time>
      </trkpt>
      <trkpt lat="48.35975" lon="2.74161">
        <ele>131.19999694824</ele>
        <time>2019-04-11T12:53:23Z</time>
      </trkpt>
      <trkpt lat="48.35981" lon="2.74157">
        <ele>130.80000305176</ele>
        <time>2019-04-11T12:53:28Z</time>
      </trkpt>
      <trkpt lat="48.35986" lon="2.74154">
        <ele>130.19999694824</ele>
        <time>2019-04-11T12:53:33Z</time>
      </trkpt>
      <trkpt lat="48.3599" lon="2.7415">
        <ele>129.60000610352</ele>
        <time>2019-04-11T12:53:38Z</time>
      </trkpt>
      <trkpt lat="48.35995" lon="2.74147">
        <ele>129</ele>
        <time>2019-04-11T12:53:43Z</time>
      </trkpt>
      <trkpt lat="48.36" lon="2.74142">
        <ele>128.39999389648</ele>
        <time>2019-04-11T12:53:48Z</time>
      </trkpt>
      <trkpt lat="48.36006" lon="2.74138">
        <ele>128.19999694824</ele>
        <time>2019-04-11T12:53:53Z</time>
      </trkpt>
      <trkpt lat="48.3601" lon="2.74134">
        <ele>127.80000305176</ele>
        <time>2019-04-11T12:53:58Z</time>
      </trkpt>
      <trkpt lat="48.36017" lon="2.74134">
        <ele>127.40000152588</ele>
        <time>2019-04-11T12:54:03Z</time>
      </trkpt>
      <trkpt lat="48.36022" lon="2.74136">
        <ele>127.19999694824</ele>
        <time>2019-04-11T12:54:08Z</time>
      </trkpt>
      <trkpt lat="48.36026" lon="2.74138">
        <ele>126.80000305176</ele>
        <time>2019-04-11T12:54:13Z</time>
      </trkpt>
      <trkpt lat="48.36031" lon="2.74142">
        <ele>126</ele>
        <time>2019-04-11T12:54:18Z</time>
      </trkpt>
      <trkpt lat="48.36035" lon="2.74146">
        <ele>125.80000305176</ele>
        <time>2019-04-11T12:54:23Z</time>
      </trkpt>
      <trkpt lat="48.3604" lon="2.74149">
        <ele>125.19999694824</ele>
        <time>2019-04-11T12:54:28Z</time>
      </trkpt>
      <trkpt lat="48.36044" lon="2.74154">
        <ele>124.80000305176</ele>
        <time>2019-04-11T12:54:33Z</time>
      </trkpt>
      <trkpt lat="48.36048" lon="2.74159">
        <ele>124</ele>
        <time>2019-04-11T12:54:38Z</time>
      </trkpt>
      <trkpt lat="48.36052" lon="2.74164">
        <ele>123.59999847412</ele>
        <time>2019-04-11T12:54:43Z</time>
      </trkpt>
      <trkpt lat="48.36056" lon="2.74167">
        <ele>123.19999694824</ele>
        <time>2019-04-11T12:54:48Z</time>
      </trkpt>
      <trkpt lat="48.3606" lon="2.74168">
        <ele>122.80000305176</ele>
        <time>2019-04-11T12:54:53Z</time>
      </trkpt>
      <trkpt lat="48.36065" lon="2.74165">
        <ele>122</ele>
        <time>2019-04-11T12:54:58Z</time>
      </trkpt>
      <trkpt lat="48.3607" lon="2.74159">
        <ele>121.59999847412</ele>
        <time>2019-04-11T12:55:03Z</time>
      </trkpt>
      <trkpt lat="48.36072" lon="2.74152">
        <ele>121.19999694824</ele>
        <time>2019-04-11T12:55:08Z</time>
      </trkpt>
      <trkpt lat="48.36074" lon="2.74144">
        <ele>120.80000305176</ele>
        <time>2019-04-11T12:55:13Z</time>
      </trkpt>
      <trkpt lat="48.36075" lon="2.74135">
        <ele>120.19999694824</ele>
        <time>2019-04-11T12:55:18Z</time>
      </trkpt>
      <trkpt lat="48.36075" lon="2.74127">
        <ele>119.59999847412</ele>
        <time>2019-04-11T12:55:23Z</time>
      </trkpt>
      <trkpt lat="48.36075" lon="2.7412">
        <ele>119</ele>
        <time>2019-04-11T12:55:28Z</time>
      </trkpt>
      <trkpt lat="48.36073" lon="2.7411">
        <ele>118.59999847412</ele>
        <time>2019-04-11T12:55:33Z</time>
      </trkpt>
      <trkpt lat="48.36072" lon="2.74102">
        <ele>118.19999694824</ele>
        <time>2019-04-11T12:55:38Z</time>
      </trkpt>
      <trkpt lat="48.36071" lon="2.74094">
        <ele>117.59999847412</ele>
        <time>2019-04-11T12:55:43Z</time>
      </trkpt>
      <trkpt lat="48.3607" lon="2.74087">
        <ele>117.19999694824</ele>
        <time>2019-04-11T12:55:48Z</time>
      </trkpt>
      <trkpt lat="48.36068" lon="2.7408">
        <ele>116.59999847412</ele>
        <time>2019-04-11T12:55:53Z</time>
      </trkpt>
      <trkpt lat="48.36065" lon="2.74073">
        <ele>115.80000305176</ele>
        <time>2019-04-11T12:55:58Z</time>
      </trkpt>
      <trkpt lat="48.36062" lon="2.74067">
        <ele>115.19999694824</ele>
        <time>2019-04-11T12:56:03Z</time>
      </trkpt>
      <trkpt lat="48.36058" lon="2.7406">
        <ele>114.59999847412</ele>
        <time>2019-04-11T12:56:08Z</time>
      </trkpt>
      <trkpt lat="48.36055" lon="2.74055">
        <ele>114</ele>
        <time>2019-04-11T12:56:13Z</time>
      </trkpt>
      <trkpt lat="48.36052" lon="2.74051">
        <ele>113.19999694824</ele>
        <time>2019-04-11T12:56:18Z</time>
      </trkpt>
      <trkpt lat="48.36047" lon="2.74043">
        <ele>112.59999847412</ele>
        <time>2019-04-11T12:56:23Z</time>
      </trkpt>
      <trkpt lat="48.36044" lon="2.74042">
        <ele>112</ele>
        <time>2019-04-11T12:56:28Z</time>
      </trkpt>
      <trkpt lat="48.36038" lon="2.74038">
        <ele>111.40000152588</ele>
        <time>2019-04-11T12:56:33Z</time>
      </trkpt>
      <trkpt lat="48.36034" lon="2.74033">
        <ele>110.80000305176</ele>
        <time>2019-04-11T12:56:38Z</time>
      </trkpt>
      <trkpt lat="48.3603" lon="2.7403">
        <ele>110.40000152588</ele>
        <time>2019-04-11T12:56:43Z</time>
      </trkpt>
      <trkpt lat="48.36024" lon="2.74025">
        <ele>110</ele>
        <time>2019-04-11T12:56:48Z</time>
      </trkpt>
      <trkpt lat="48.36017" lon="2.7402">
        <ele>109.40000152588</ele>
        <time>2019-04-11T12:56:53Z</time>
      </trkpt>
      <trkpt lat="48.36012" lon="2.74016">
        <ele>108.80000305176</ele>
        <time>2019-04-11T12:56:58Z</time>
      </trkpt>
      <trkpt lat="48.36007" lon="2.74013">
        <ele>108.40000152588</ele>
        <time>2019-04-11T12:57:03Z</time>
      </trkpt>
      <trkpt lat="48.36003" lon="2.74007">
        <ele>107.59999847412</ele>
        <time>2019-04-11T12:57:08Z</time>
      </trkpt>
      <trkpt lat="48.35998" lon="2.74003">
        <ele>107</ele>
        <time>2019-04-11T12:57:13Z</time>
      </trkpt>
      <trkpt lat="48.35994" lon="2.74001">
        <ele>106.59999847412</ele>
        <time>2019-04-11T12:57:18Z</time>
      </trkpt>
      <trkpt lat="48.35988" lon="2.73997">
        <ele>106</ele>
        <time>2019-04-11T12:57:23Z</time>
      </trkpt>
      <trkpt lat="48.35982" lon="2.73992">
        <ele>105.59999847412</ele>
        <time>2019-04-11T12:57:28Z</time>
      </trkpt>
      <trkpt lat="48.35976" lon="2.73989">
        <ele>105</ele>
        <time>2019-04-11T12:57:33Z</time>
      </trkpt>
      <trkpt lat="48.3597" lon="2.73985">
        <ele>104.40000152588</ele>
        <time>2019-04-11T12:57:38Z</time>
      </trkpt>
      <trkpt lat="48.35966" lon="2.73984">
        <ele>103.80000305176</ele>
        <time>2019-04-11T12:57:43Z</time>
      </trkpt>
      <trkpt lat="48.35959" lon="2.73983">
        <ele>103.40000152588</ele>
        <time>2019-04-11T12:57:48Z</time>
      </trkpt>
      <trkpt lat="48.35952" lon="2.73981">
        <ele>103</ele>
        <time>2019-04-11T12:57:53Z</time>
      </trkpt>
      <trkpt lat="48.35947" lon="2.73977">
        <ele>102.80000305176</ele>
        <time>2019-04-11T12:57:58Z</time>
      </trkpt>
      <trkpt lat="48.35941" lon="2.73975">
        <ele>102.40000152588</ele>
        <time>2019-04-11T12:58:03Z</time>
      </trkpt>
      <trkpt lat="48.35935" lon="2.73974">
        <ele>102.19999694824</ele>
        <time>2019-04-11T12:58:08Z</time>
      </trkpt>
      <trkpt lat="48.3593" lon="2.73972">
        <ele>102</ele>
        <time>2019-04-11T12:58:13Z</time>
      </trkpt>
      <trkpt lat="48.35923" lon="2.73969">
        <ele>102</ele>
        <time>2019-04-11T12:58:18Z</time>
      </trkpt>
      <trkpt lat="48.35917" lon="2.73967">
        <ele>101.59999847412</ele>
        <time>2019-04-11T12:58:23Z</time>
      </trkpt>
      <trkpt lat="48.35912" lon="2.73965">
        <ele>101</ele>
        <time>2019-04-11T12:58:28Z</time>
      </trkpt>
      <trkpt lat="48.35907" lon="2.73963">
        <ele>100.19999694824</ele>
        <time>2019-04-11T12:58:33Z</time>
      </trkpt>
      <trkpt lat="48.35901" lon="2.7396">
        <ele>100</ele>
        <time>2019-04-11T12:58:38Z</time>
      </trkpt>
      <trkpt lat="48.35895" lon="2.73957">
        <ele>99.599998474121</ele>
        <time>2019-04-11T12:58:43Z</time>
      </trkpt>
      <trkpt lat="48.35888" lon="2.73956">
        <ele>99</ele>
        <time>2019-04-11T12:58:48Z</time>
      </trkpt>
      <trkpt lat="48.35883" lon="2.73955">
        <ele>98.800003051758</ele>
        <time>2019-04-11T12:58:53Z</time>
      </trkpt>
      <trkpt lat="48.35877" lon="2.73952">
        <ele>98.599998474121</ele>
        <time>2019-04-11T12:58:58Z</time>
      </trkpt>
      <trkpt lat="48.35871" lon="2.73951">
        <ele>98.400001525879</ele>
        <time>2019-04-11T12:59:03Z</time>
      </trkpt>
      <trkpt lat="48.35865" lon="2.73953">
        <ele>98</ele>
        <time>2019-04-11T12:59:08Z</time>
      </trkpt>
      <trkpt lat="48.35862" lon="2.73954">
        <ele>97.599998474121</ele>
        <time>2019-04-11T12:59:13Z</time>
      </trkpt>
      <trkpt lat="48.35861" lon="2.73953">
        <ele>97.400001525879</ele>
        <time>2019-04-11T12:59:18Z</time>
      </trkpt>
      <trkpt lat="48.35861" lon="2.73954">
        <ele>97.400001525879</ele>
        <time>2019-04-11T12:59:23Z</time>
      </trkpt>
      <trkpt lat="48.35861" lon="2.73955">
        <ele>97.400001525879</ele>
        <time>2019-04-11T12:59:28Z</time>
      </trkpt>
      <trkpt lat="48.35861" lon="2.73958">
        <ele>97.599998474121</ele>
        <time>2019-04-11T12:59:33Z</time>
      </trkpt>
      <trkpt lat="48.35861" lon="2.7396">
        <ele>97.599998474121</ele>
        <time>2019-04-11T12:59:38Z</time>
      </trkpt>
      <trkpt lat="48.35861" lon="2.73961">
        <ele>97.400001525879</ele>
        <time>2019-04-11T12:59:43Z</time>
      </trkpt>
      <trkpt lat="48.35861" lon="2.73962">
        <ele>97.400001525879</ele>
        <time>2019-04-11T12:59:48Z</time>
      </trkpt>
      <trkpt lat="48.35862" lon="2.73963">
        <ele>97.400001525879</ele>
        <time>2019-04-11T12:59:53Z</time>
      </trkpt>
      <trkpt lat="48.35862" lon="2.73963">
        <ele>97.199996948242</ele>
        <time>2019-04-11T12:59:58Z</time>
      </trkpt>
      <trkpt lat="48.35862" lon="2.73964">
        <ele>97</ele>
        <time>2019-04-11T13:00:03Z</time>
      </trkpt>
      <trkpt lat="48.35862" lon="2.73965">
        <ele>97</ele>
        <time>2019-04-11T13:00:08Z</time>
      </trkpt>
      <trkpt lat="48.35863" lon="2.73964">
        <ele>97</ele>
        <time>2019-04-11T13:00:13Z</time>
      </trkpt>
      <trkpt lat="48.35863" lon="2.73965">
        <ele>97.199996948242</ele>
        <time>2019-04-11T13:00:18Z</time>
      </trkpt>
      <trkpt lat="48.35862" lon="2.73968">
        <ele>97.400001525879</ele>
        <time>2019-04-11T13:00:23Z</time>
      </trkpt>
      <trkpt lat="48.35861" lon="2.73975">
        <ele>97.400001525879</ele>
        <time>2019-04-11T13:00:28Z</time>
      </trkpt>
      <trkpt lat="48.35861" lon="2.73981">
        <ele>97.400001525879</ele>
        <time>2019-04-11T13:00:33Z</time>
      </trkpt>
      <trkpt lat="48.35861" lon="2.73988">
        <ele>97.599998474121</ele>
        <time>2019-04-11T13:00:38Z</time>
      </trkpt>
      <trkpt lat="48.35859" lon="2.73994">
        <ele>97.400001525879</ele>
        <time>2019-04-11T13:00:43Z</time>
      </trkpt>
      <trkpt lat="48.35859" lon="2.74002">
        <ele>97.599998474121</ele>
        <time>2019-04-11T13:00:48Z</time>
      </trkpt>
      <trkpt lat="48.35858" lon="2.7401">
        <ele>98</ele>
        <time>2019-04-11T13:00:53Z</time>
      </trkpt>
      <trkpt lat="48.35856" lon="2.74017">
        <ele>98.199996948242</ele>
        <time>2019-04-11T13:00:58Z</time>
      </trkpt>
      <trkpt lat="48.35855" lon="2.74025">
        <ele>98.199996948242</ele>
        <time>2019-04-11T13:01:03Z</time>
      </trkpt>
      <trkpt lat="48.35854" lon="2.74034">
        <ele>98.400001525879</ele>
        <time>2019-04-11T13:01:08Z</time>
      </trkpt>
      <trkpt lat="48.35852" lon="2.74042">
        <ele>98.599998474121</ele>
        <time>2019-04-11T13:01:13Z</time>
      </trkpt>
      <trkpt lat="48.35851" lon="2.74049">
        <ele>98.800003051758</ele>
        <time>2019-04-11T13:01:18Z</time>
      </trkpt>
      <trkpt lat="48.3585" lon="2.74056">
        <ele>99</ele>
        <time>2019-04-11T13:01:23Z</time>
      </trkpt>
      <trkpt lat="48.3585" lon="2.74067">
        <ele>99.400001525879</ele>
        <time>2019-04-11T13:01:28Z</time>
      </trkpt>
      <trkpt lat="48.35849" lon="2.74074">
        <ele>99.599998474121</ele>
        <time>2019-04-11T13:01:33Z</time>
      </trkpt>
      <trkpt lat="48.35849" lon="2.74082">
        <ele>99.800003051758</ele>
        <time>2019-04-11T13:01:38Z</time>
      </trkpt>
      <trkpt lat="48.35848" lon="2.7409">
        <ele>100</ele>
        <time>2019-04-11T13:01:43Z</time>
      </trkpt>
      <trkpt lat="48.35846" lon="2.74098">
        <ele>100.19999694824</ele>
        <time>2019-04-11T13:01:48Z</time>
      </trkpt>
      <trkpt lat="48.35845" lon="2.74105">
        <ele>100.40000152588</ele>
        <time>2019-04-11T13:01:53Z</time>
      </trkpt>
      <trkpt lat="48.35844" lon="2.74113">
        <ele>100.40000152588</ele>
        <time>2019-04-11T13:01:58Z</time>
      </trkpt>
      <trkpt lat="48.35844" lon="2.74124">
        <ele>100.40000152588</ele>
        <time>2019-04-11T13:02:03Z</time>
      </trkpt>
      <trkpt lat="48.35843" lon="2.74133">
        <ele>100.59999847412</ele>
        <time>2019-04-11T13:02:08Z</time>
      </trkpt>
      <trkpt lat="48.35842" lon="2.74141">
        <ele>100.80000305176</ele>
        <time>2019-04-11T13:02:13Z</time>
      </trkpt>
      <trkpt lat="48.3584" lon="2.74148">
        <ele>100.80000305176</ele>
        <time>2019-04-11T13:02:18Z</time>
      </trkpt>
      <trkpt lat="48.35839" lon="2.74155">
        <ele>100.59999847412</ele>
        <time>2019-04-11T13:02:23Z</time>
      </trkpt>
      <trkpt lat="48.35838" lon="2.74163">
        <ele>100.80000305176</ele>
        <time>2019-04-11T13:02:28Z</time>
      </trkpt>
      <trkpt lat="48.35837" lon="2.74173">
        <ele>101.19999694824</ele>
        <time>2019-04-11T13:02:33Z</time>
      </trkpt>
      <trkpt lat="48.35836" lon="2.74181">
        <ele>101.40000152588</ele>
        <time>2019-04-11T13:02:38Z</time>
      </trkpt>
      <trkpt lat="48.35835" lon="2.74188">
        <ele>101.80000305176</ele>
        <time>2019-04-11T13:02:43Z</time>
      </trkpt>
      <trkpt lat="48.35833" lon="2.74198">
        <ele>102</ele>
        <time>2019-04-11T13:02:48Z</time>
      </trkpt>
      <trkpt lat="48.35832" lon="2.74207">
        <ele>102.19999694824</ele>
        <time>2019-04-11T13:02:53Z</time>
      </trkpt>
      <trkpt lat="48.3583" lon="2.74215">
        <ele>102.19999694824</ele>
        <time>2019-04-11T13:02:58Z</time>
      </trkpt>
      <trkpt lat="48.3583" lon="2.74223">
        <ele>102.19999694824</ele>
        <time>2019-04-11T13:03:03Z</time>
      </trkpt>
      <trkpt lat="48.35829" lon="2.74232">
        <ele>102.19999694824</ele>
        <time>2019-04-11T13:03:08Z</time>
      </trkpt>
      <trkpt lat="48.35827" lon="2.74242">
        <ele>102.19999694824</ele>
        <time>2019-04-11T13:03:13Z</time>
      </trkpt>
      <trkpt lat="48.35826" lon="2.74252">
        <ele>102.19999694824</ele>
        <time>2019-04-11T13:03:18Z</time>
      </trkpt>
      <trkpt lat="48.35825" lon="2.74261">
        <ele>102.40000152588</ele>
        <time>2019-04-11T13:03:23Z</time>
      </trkpt>
      <trkpt lat="48.35824" lon="2.7427">
        <ele>102.40000152588</ele>
        <time>2019-04-11T13:03:28Z</time>
      </trkpt>
      <trkpt lat="48.35824" lon="2.74278">
        <ele>102.40000152588</ele>
        <time>2019-04-11T13:03:33Z</time>
      </trkpt>
      <trkpt lat="48.35823" lon="2.74285">
        <ele>102.80000305176</ele>
        <time>2019-04-11T13:03:38Z</time>
      </trkpt>
      <trkpt lat="48.35822" lon="2.74293">
        <ele>103.19999694824</ele>
        <time>2019-04-11T13:03:43Z</time>
      </trkpt>
      <trkpt lat="48.35821" lon="2.74302">
        <ele>103.40000152588</ele>
        <time>2019-04-11T13:03:48Z</time>
      </trkpt>
      <trkpt lat="48.3582" lon="2.74309">
        <ele>103.59999847412</ele>
        <time>2019-04-11T13:03:53Z</time>
      </trkpt>
      <trkpt lat="48.35819" lon="2.74318">
        <ele>103.40000152588</ele>
        <time>2019-04-11T13:03:58Z</time>
      </trkpt>
      <trkpt lat="48.35818" lon="2.74326">
        <ele>103.59999847412</ele>
        <time>2019-04-11T13:04:03Z</time>
      </trkpt>
      <trkpt lat="48.35817" lon="2.74333">
        <ele>103.59999847412</ele>
        <time>2019-04-11T13:04:08Z</time>
      </trkpt>
      <trkpt lat="48.35816" lon="2.74343">
        <ele>103.19999694824</ele>
        <time>2019-04-11T13:04:13Z</time>
      </trkpt>
      <trkpt lat="48.35816" lon="2.74352">
        <ele>103.19999694824</ele>
        <time>2019-04-11T13:04:18Z</time>
      </trkpt>
      <trkpt lat="48.35815" lon="2.74361">
        <ele>103.19999694824</ele>
        <time>2019-04-11T13:04:23Z</time>
      </trkpt>
      <trkpt lat="48.35813" lon="2.7437">
        <ele>103.19999694824</ele>
        <time>2019-04-11T13:04:28Z</time>
      </trkpt>
      <trkpt lat="48.35812" lon="2.74379">
        <ele>103.19999694824</ele>
        <time>2019-04-11T13:04:33Z</time>
      </trkpt>
      <trkpt lat="48.35811" lon="2.74386">
        <ele>103.19999694824</ele>
        <time>2019-04-11T13:04:38Z</time>
      </trkpt>
      <trkpt lat="48.35811" lon="2.74394">
        <ele>102.80000305176</ele>
        <time>2019-04-11T13:04:43Z</time>
      </trkpt>
      <trkpt lat="48.35809" lon="2.74403">
        <ele>102.59999847412</ele>
        <time>2019-04-11T13:04:48Z</time>
      </trkpt>
      <trkpt lat="48.35808" lon="2.74413">
        <ele>102.40000152588</ele>
        <time>2019-04-11T13:04:53Z</time>
      </trkpt>
      <trkpt lat="48.35807" lon="2.7442">
        <ele>102.40000152588</ele>
        <time>2019-04-11T13:04:58Z</time>
      </trkpt>
      <trkpt lat="48.35806" lon="2.74427">
        <ele>102.40000152588</ele>
        <time>2019-04-11T13:05:03Z</time>
      </trkpt>
      <trkpt lat="48.35805" lon="2.74438">
        <ele>102.40000152588</ele>
        <time>2019-04-11T13:05:08Z</time>
      </trkpt>
      <trkpt lat="48.35803" lon="2.74446">
        <ele>102.40000152588</ele>
        <time>2019-04-11T13:05:13Z</time>
      </trkpt>
      <trkpt lat="48.35803" lon="2.74455">
        <ele>102.59999847412</ele>
        <time>2019-04-11T13:05:18Z</time>
      </trkpt>
      <trkpt lat="48.35802" lon="2.74464">
        <ele>102.80000305176</ele>
        <time>2019-04-11T13:05:23Z</time>
      </trkpt>
      <trkpt lat="48.35801" lon="2.74474">
        <ele>102.59999847412</ele>
        <time>2019-04-11T13:05:28Z</time>
      </trkpt>
      <trkpt lat="48.358" lon="2.74481">
        <ele>102.80000305176</ele>
        <time>2019-04-11T13:05:33Z</time>
      </trkpt>
      <trkpt lat="48.35798" lon="2.74488">
        <ele>103.19999694824</ele>
        <time>2019-04-11T13:05:38Z</time>
      </trkpt>
      <trkpt lat="48.35797" lon="2.74497">
        <ele>102.80000305176</ele>
        <time>2019-04-11T13:05:43Z</time>
      </trkpt>
      <trkpt lat="48.35795" lon="2.74506">
        <ele>102.59999847412</ele>
        <time>2019-04-11T13:05:48Z</time>
      </trkpt>
      <trkpt lat="48.35794" lon="2.74513">
        <ele>102.40000152588</ele>
        <time>2019-04-11T13:05:53Z</time>
      </trkpt>
      <trkpt lat="48.35793" lon="2.74522">
        <ele>102.40000152588</ele>
        <time>2019-04-11T13:05:58Z</time>
      </trkpt>
      <trkpt lat="48.35791" lon="2.7453">
        <ele>102.40000152588</ele>
        <time>2019-04-11T13:06:03Z</time>
      </trkpt>
      <trkpt lat="48.35791" lon="2.7454">
        <ele>102.40000152588</ele>
        <time>2019-04-11T13:06:08Z</time>
      </trkpt>
      <trkpt lat="48.35789" lon="2.74548">
        <ele>102.40000152588</ele>
        <time>2019-04-11T13:06:13Z</time>
      </trkpt>
      <trkpt lat="48.35788" lon="2.74557">
        <ele>102.40000152588</ele>
        <time>2019-04-11T13:06:18Z</time>
      </trkpt>
      <trkpt lat="48.35787" lon="2.74566">
        <ele>102.40000152588</ele>
        <time>2019-04-11T13:06:23Z</time>
      </trkpt>
      <trkpt lat="48.35787" lon="2.74573">
        <ele>102.40000152588</ele>
        <time>2019-04-11T13:06:28Z</time>
      </trkpt>
      <trkpt lat="48.35788" lon="2.7458">
        <ele>102.40000152588</ele>
        <time>2019-04-11T13:06:33Z</time>
      </trkpt>
      <trkpt lat="48.35787" lon="2.74588">
        <ele>102.40000152588</ele>
        <time>2019-04-11T13:06:38Z</time>
      </trkpt>
      <trkpt lat="48.35785" lon="2.74597">
        <ele>102.40000152588</ele>
        <time>2019-04-11T13:06:43Z</time>
      </trkpt>
      <trkpt lat="48.35785" lon="2.74605">
        <ele>102.40000152588</ele>
        <time>2019-04-11T13:06:48Z</time>
      </trkpt>
      <trkpt lat="48.35783" lon="2.74613">
        <ele>102.40000152588</ele>
        <time>2019-04-11T13:06:53Z</time>
      </trkpt>
      <trkpt lat="48.35782" lon="2.74622">
        <ele>102.40000152588</ele>
        <time>2019-04-11T13:06:58Z</time>
      </trkpt>
      <trkpt lat="48.35781" lon="2.74632">
        <ele>100</ele>
        <time>2019-04-11T13:07:03Z</time>
      </trkpt>
      <trkpt lat="48.3578" lon="2.7464">
        <ele>100</ele>
        <time>2019-04-11T13:07:08Z</time>
      </trkpt>
      <trkpt lat="48.35778" lon="2.7465">
        <ele>99.400001525879</ele>
        <time>2019-04-11T13:07:13Z</time>
      </trkpt>
      <trkpt lat="48.35777" lon="2.7466">
        <ele>99</ele>
        <time>2019-04-11T13:07:18Z</time>
      </trkpt>
      <trkpt lat="48.35776" lon="2.7467">
        <ele>98.800003051758</ele>
        <time>2019-04-11T13:07:23Z</time>
      </trkpt>
      <trkpt lat="48.35775" lon="2.74678">
        <ele>98.599998474121</ele>
        <time>2019-04-11T13:07:28Z</time>
      </trkpt>
      <trkpt lat="48.35775" lon="2.74685">
        <ele>98.599998474121</ele>
        <time>2019-04-11T13:07:33Z</time>
      </trkpt>
      <trkpt lat="48.35774" lon="2.74693">
        <ele>98.400001525879</ele>
        <time>2019-04-11T13:07:38Z</time>
      </trkpt>
      <trkpt lat="48.35773" lon="2.74701">
        <ele>98.199996948242</ele>
        <time>2019-04-11T13:07:43Z</time>
      </trkpt>
      <trkpt lat="48.35771" lon="2.7471">
        <ele>97.800003051758</ele>
        <time>2019-04-11T13:07:48Z</time>
      </trkpt>
      <trkpt lat="48.35769" lon="2.7472">
        <ele>97.400001525879</ele>
        <time>2019-04-11T13:07:53Z</time>
      </trkpt>
      <trkpt lat="48.35768" lon="2.74728">
        <ele>97.199996948242</ele>
        <time>2019-04-11T13:07:58Z</time>
      </trkpt>
      <trkpt lat="48.35768" lon="2.74737">
        <ele>97.400001525879</ele>
        <time>2019-04-11T13:08:03Z</time>
      </trkpt>
      <trkpt lat="48.35767" lon="2.74744">
        <ele>97.400001525879</ele>
        <time>2019-04-11T13:08:08Z</time>
      </trkpt>
      <trkpt lat="48.35766" lon="2.74751">
        <ele>96.599998474121</ele>
        <time>2019-04-11T13:08:13Z</time>
      </trkpt>
      <trkpt lat="48.35765" lon="2.74761">
        <ele>96.400001525879</ele>
        <time>2019-04-11T13:08:18Z</time>
      </trkpt>
      <trkpt lat="48.35763" lon="2.74769">
        <ele>96.199996948242</ele>
        <time>2019-04-11T13:08:23Z</time>
      </trkpt>
      <trkpt lat="48.35763" lon="2.74772">
        <ele>96</ele>
        <time>2019-04-11T13:08:28Z</time>
      </trkpt>
      <trkpt lat="48.35762" lon="2.74784">
        <ele>96</ele>
        <time>2019-04-11T13:08:33Z</time>
      </trkpt>
      <trkpt lat="48.35761" lon="2.74794">
        <ele>96</ele>
        <time>2019-04-11T13:08:38Z</time>
      </trkpt>
      <trkpt lat="48.3576" lon="2.74801">
        <ele>95.800003051758</ele>
        <time>2019-04-11T13:08:43Z</time>
      </trkpt>
      <trkpt lat="48.35759" lon="2.74808">
        <ele>95.599998474121</ele>
        <time>2019-04-11T13:08:48Z</time>
      </trkpt>
      <trkpt lat="48.35756" lon="2.74821">
        <ele>95</ele>
        <time>2019-04-11T13:08:53Z</time>
      </trkpt>
      <trkpt lat="48.35755" lon="2.74832">
        <ele>95</ele>
        <time>2019-04-11T13:08:58Z</time>
      </trkpt>
      <trkpt lat="48.35754" lon="2.74843">
        <ele>95.199996948242</ele>
        <time>2019-04-11T13:09:03Z</time>
      </trkpt>
      <trkpt lat="48.35752" lon="2.74853">
        <ele>95.400001525879</ele>
        <time>2019-04-11T13:09:08Z</time>
      </trkpt>
      <trkpt lat="48.35752" lon="2.74859">
        <ele>95.599998474121</ele>
        <time>2019-04-11T13:09:13Z</time>
      </trkpt>
      <trkpt lat="48.35751" lon="2.74869">
        <ele>95.599998474121</ele>
        <time>2019-04-11T13:09:18Z</time>
      </trkpt>
      <trkpt lat="48.35749" lon="2.74879">
        <ele>95.599998474121</ele>
        <time>2019-04-11T13:09:23Z</time>
      </trkpt>
      <trkpt lat="48.35748" lon="2.74887">
        <ele>95.400001525879</ele>
        <time>2019-04-11T13:09:28Z</time>
      </trkpt>
      <trkpt lat="48.35748" lon="2.74893">
        <ele>95.599998474121</ele>
        <time>2019-04-11T13:09:33Z</time>
      </trkpt>
      <trkpt lat="48.35746" lon="2.74905">
        <ele>95.800003051758</ele>
        <time>2019-04-11T13:09:38Z</time>
      </trkpt>
      <trkpt lat="48.35744" lon="2.74914">
        <ele>95.800003051758</ele>
        <time>2019-04-11T13:09:43Z</time>
      </trkpt>
      <trkpt lat="48.35743" lon="2.74921">
        <ele>95.199996948242</ele>
        <time>2019-04-11T13:09:48Z</time>
      </trkpt>
      <trkpt lat="48.35742" lon="2.74927">
        <ele>94.800003051758</ele>
        <time>2019-04-11T13:09:53Z</time>
      </trkpt>
      <trkpt lat="48.35742" lon="2.74937">
        <ele>94.400001525879</ele>
        <time>2019-04-11T13:09:58Z</time>
      </trkpt>
      <trkpt lat="48.35741" lon="2.74945">
        <ele>94.199996948242</ele>
        <time>2019-04-11T13:10:03Z</time>
      </trkpt>
      <trkpt lat="48.3574" lon="2.74952">
        <ele>94.400001525879</ele>
        <time>2019-04-11T13:10:08Z</time>
      </trkpt>
      <trkpt lat="48.35738" lon="2.74964">
        <ele>94.599998474121</ele>
        <time>2019-04-11T13:10:13Z</time>
      </trkpt>
      <trkpt lat="48.35736" lon="2.74974">
        <ele>94.800003051758</ele>
        <time>2019-04-11T13:10:18Z</time>
      </trkpt>
      <trkpt lat="48.35735" lon="2.74983">
        <ele>94.800003051758</ele>
        <time>2019-04-11T13:10:23Z</time>
      </trkpt>
      <trkpt lat="48.35735" lon="2.74993">
        <ele>94.800003051758</ele>
        <time>2019-04-11T13:10:28Z</time>
      </trkpt>
      <trkpt lat="48.35734" lon="2.75002">
        <ele>94.800003051758</ele>
        <time>2019-04-11T13:10:33Z</time>
      </trkpt>
      <trkpt lat="48.35732" lon="2.75011">
        <ele>94.800003051758</ele>
        <time>2019-04-11T13:10:38Z</time>
      </trkpt>
      <trkpt lat="48.35731" lon="2.75019">
        <ele>94.800003051758</ele>
        <time>2019-04-11T13:10:43Z</time>
      </trkpt>
      <trkpt lat="48.3573" lon="2.75029">
        <ele>94.599998474121</ele>
        <time>2019-04-11T13:10:48Z</time>
      </trkpt>
      <trkpt lat="48.3573" lon="2.75033">
        <ele>94.599998474121</ele>
        <time>2019-04-11T13:10:53Z</time>
      </trkpt>
      <trkpt lat="48.35729" lon="2.75042">
        <ele>94.800003051758</ele>
        <time>2019-04-11T13:10:58Z</time>
      </trkpt>
      <trkpt lat="48.35727" lon="2.75053">
        <ele>94.800003051758</ele>
        <time>2019-04-11T13:11:03Z</time>
      </trkpt>
      <trkpt lat="48.35725" lon="2.75062">
        <ele>94.599998474121</ele>
        <time>2019-04-11T13:11:08Z</time>
      </trkpt>
      <trkpt lat="48.35724" lon="2.75072">
        <ele>94.599998474121</ele>
        <time>2019-04-11T13:11:13Z</time>
      </trkpt>
      <trkpt lat="48.35724" lon="2.75079">
        <ele>94.599998474121</ele>
        <time>2019-04-11T13:11:18Z</time>
      </trkpt>
      <trkpt lat="48.35723" lon="2.75085">
        <ele>94.599998474121</ele>
        <time>2019-04-11T13:11:23Z</time>
      </trkpt>
      <trkpt lat="48.35723" lon="2.75097">
        <ele>94.599998474121</ele>
        <time>2019-04-11T13:11:28Z</time>
      </trkpt>
      <trkpt lat="48.35723" lon="2.75103">
        <ele>94.599998474121</ele>
        <time>2019-04-11T13:11:33Z</time>
      </trkpt>
      <trkpt lat="48.35721" lon="2.75111">
        <ele>94.599998474121</ele>
        <time>2019-04-11T13:11:38Z</time>
      </trkpt>
      <trkpt lat="48.35719" lon="2.75121">
        <ele>94.599998474121</ele>
        <time>2019-04-11T13:11:43Z</time>
      </trkpt>
      <trkpt lat="48.35718" lon="2.7513">
        <ele>94.599998474121</ele>
        <time>2019-04-11T13:11:48Z</time>
      </trkpt>
      <trkpt lat="48.35716" lon="2.7514">
        <ele>94.599998474121</ele>
        <time>2019-04-11T13:11:53Z</time>
      </trkpt>
      <trkpt lat="48.35714" lon="2.7515">
        <ele>94.599998474121</ele>
        <time>2019-04-11T13:11:58Z</time>
      </trkpt>
      <trkpt lat="48.35713" lon="2.75158">
        <ele>94.599998474121</ele>
        <time>2019-04-11T13:12:03Z</time>
      </trkpt>
      <trkpt lat="48.35711" lon="2.75168">
        <ele>94.599998474121</ele>
        <time>2019-04-11T13:12:08Z</time>
      </trkpt>
      <trkpt lat="48.35711" lon="2.75177">
        <ele>94.599998474121</ele>
        <time>2019-04-11T13:12:13Z</time>
      </trkpt>
      <trkpt lat="48.3571" lon="2.75187">
        <ele>94.599998474121</ele>
        <time>2019-04-11T13:12:18Z</time>
      </trkpt>
      <trkpt lat="48.35709" lon="2.75196">
        <ele>94.599998474121</ele>
        <time>2019-04-11T13:12:23Z</time>
      </trkpt>
      <trkpt lat="48.35705" lon="2.75206">
        <ele>94.599998474121</ele>
        <time>2019-04-11T13:12:28Z</time>
      </trkpt>
      <trkpt lat="48.35703" lon="2.75211">
        <ele>94.599998474121</ele>
        <time>2019-04-11T13:12:33Z</time>
      </trkpt>
      <trkpt lat="48.35701" lon="2.75213">
        <ele>94.599998474121</ele>
        <time>2019-04-11T13:12:38Z</time>
      </trkpt>
      <trkpt lat="48.357" lon="2.75213">
        <ele>94.599998474121</ele>
        <time>2019-04-11T13:12:43Z</time>
      </trkpt>
      <trkpt lat="48.357" lon="2.75213">
        <ele>94.599998474121</ele>
        <time>2019-04-11T13:12:48Z</time>
      </trkpt>
      <trkpt lat="48.35701" lon="2.75212">
        <ele>94.599998474121</ele>
        <time>2019-04-11T13:12:53Z</time>
      </trkpt>
      <trkpt lat="48.35702" lon="2.75209">
        <ele>94.599998474121</ele>
        <time>2019-04-11T13:12:58Z</time>
      </trkpt>
      <trkpt lat="48.35702" lon="2.75207">
        <ele>94.599998474121</ele>
        <time>2019-04-11T13:13:03Z</time>
      </trkpt>
      <trkpt lat="48.35703" lon="2.75205">
        <ele>94.599998474121</ele>
        <time>2019-04-11T13:13:08Z</time>
      </trkpt>
      <trkpt lat="48.35703" lon="2.75203">
        <ele>94.599998474121</ele>
        <time>2019-04-11T13:13:13Z</time>
      </trkpt>
      <trkpt lat="48.35704" lon="2.75201">
        <ele>94.599998474121</ele>
        <time>2019-04-11T13:13:18Z</time>
      </trkpt>
      <trkpt lat="48.35706" lon="2.75199">
        <ele>94.599998474121</ele>
        <time>2019-04-11T13:13:23Z</time>
      </trkpt>
      <trkpt lat="48.35706" lon="2.75199">
        <ele>94.599998474121</ele>
        <time>2019-04-11T13:13:28Z</time>
      </trkpt>
      <trkpt lat="48.35707" lon="2.752">
        <ele>94.599998474121</ele>
        <time>2019-04-11T13:13:33Z</time>
      </trkpt>
      <trkpt lat="48.35707" lon="2.752">
        <ele>94.599998474121</ele>
        <time>2019-04-11T13:13:38Z</time>
      </trkpt>
      <trkpt lat="48.35708" lon="2.75202">
        <ele>94.599998474121</ele>
        <time>2019-04-11T13:13:43Z</time>
      </trkpt>
      <trkpt lat="48.35708" lon="2.75202">
        <ele>94.599998474121</ele>
        <time>2019-04-11T13:13:48Z</time>
      </trkpt>
      <trkpt lat="48.35709" lon="2.75202">
        <ele>94.599998474121</ele>
        <time>2019-04-11T13:13:53Z</time>
      </trkpt>
      <trkpt lat="48.3571" lon="2.75202">
        <ele>94.599998474121</ele>
        <time>2019-04-11T13:13:58Z</time>
      </trkpt>
      <trkpt lat="48.3571" lon="2.75203">
        <ele>94.599998474121</ele>
        <time>2019-04-11T13:14:03Z</time>
      </trkpt>
      <trkpt lat="48.3571" lon="2.75202">
        <ele>94.599998474121</ele>
        <time>2019-04-11T13:14:08Z</time>
      </trkpt>
      <trkpt lat="48.3571" lon="2.75202">
        <ele>94.599998474121</ele>
        <time>2019-04-11T13:14:13Z</time>
      </trkpt>
      <trkpt lat="48.3571" lon="2.75201">
        <ele>94.599998474121</ele>
        <time>2019-04-11T13:14:18Z</time>
      </trkpt>
      <trkpt lat="48.3571" lon="2.75199">
        <ele>94.599998474121</ele>
        <time>2019-04-11T13:14:23Z</time>
      </trkpt>
      <trkpt lat="48.3571" lon="2.75198">
        <ele>94.599998474121</ele>
        <time>2019-04-11T13:14:28Z</time>
      </trkpt>
      <trkpt lat="48.3571" lon="2.75198">
        <ele>94.599998474121</ele>
        <time>2019-04-11T13:14:33Z</time>
      </trkpt>
      <trkpt lat="48.3571" lon="2.75197">
        <ele>94.599998474121</ele>
        <time>2019-04-11T13:14:38Z</time>
      </trkpt>
      <trkpt lat="48.35709" lon="2.75197">
        <ele>94.599998474121</ele>
        <time>2019-04-11T13:14:43Z</time>
      </trkpt>
      <trkpt lat="48.35708" lon="2.75197">
        <ele>94.599998474121</ele>
        <time>2019-04-11T13:14:48Z</time>
      </trkpt>
      <trkpt lat="48.35706" lon="2.75198">
        <ele>94.599998474121</ele>
        <time>2019-04-11T13:14:53Z</time>
      </trkpt>
      <trkpt lat="48.35705" lon="2.75198">
        <ele>94.599998474121</ele>
        <time>2019-04-11T13:14:58Z</time>
      </trkpt>
      <trkpt lat="48.35704" lon="2.75199">
        <ele>94.599998474121</ele>
        <time>2019-04-11T13:15:03Z</time>
      </trkpt>
      <trkpt lat="48.35703" lon="2.75198">
        <ele>94.599998474121</ele>
        <time>2019-04-11T13:15:08Z</time>
      </trkpt>
      <trkpt lat="48.35703" lon="2.75198">
        <ele>94.599998474121</ele>
        <time>2019-04-11T13:15:13Z</time>
      </trkpt>
      <trkpt lat="48.35703" lon="2.75197">
        <ele>94.599998474121</ele>
        <time>2019-04-11T13:15:18Z</time>
      </trkpt>
      <trkpt lat="48.35703" lon="2.75195">
        <ele>94.599998474121</ele>
        <time>2019-04-11T13:15:23Z</time>
      </trkpt>
      <trkpt lat="48.35704" lon="2.75195">
        <ele>94.599998474121</ele>
        <time>2019-04-11T13:15:28Z</time>
      </trkpt>
      <trkpt lat="48.35704" lon="2.75196">
        <ele>94.599998474121</ele>
        <time>2019-04-11T13:15:33Z</time>
      </trkpt>
      <trkpt lat="48.35704" lon="2.75196">
        <ele>94.599998474121</ele>
        <time>2019-04-11T13:15:38Z</time>
      </trkpt>
      <trkpt lat="48.35704" lon="2.75198">
        <ele>94.599998474121</ele>
        <time>2019-04-11T13:15:43Z</time>
      </trkpt>
      <trkpt lat="48.35704" lon="2.75199">
        <ele>94.599998474121</ele>
        <time>2019-04-11T13:15:48Z</time>
      </trkpt>
      <trkpt lat="48.35704" lon="2.752">
        <ele>94.599998474121</ele>
        <time>2019-04-11T13:15:53Z</time>
      </trkpt>
      <trkpt lat="48.35704" lon="2.752">
        <ele>94.599998474121</ele>
        <time>2019-04-11T13:15:58Z</time>
      </trkpt>
      <trkpt lat="48.35704" lon="2.752">
        <ele>94.599998474121</ele>
        <time>2019-04-11T13:16:03Z</time>
      </trkpt>
      <trkpt lat="48.35705" lon="2.752">
        <ele>94.599998474121</ele>
        <time>2019-04-11T13:16:08Z</time>
      </trkpt>
      <trkpt lat="48.35705" lon="2.75198">
        <ele>94.599998474121</ele>
        <time>2019-04-11T13:16:13Z</time>
      </trkpt>
      <trkpt lat="48.35703" lon="2.75196">
        <ele>94.599998474121</ele>
        <time>2019-04-11T13:16:18Z</time>
      </trkpt>
      <trkpt lat="48.35703" lon="2.75195">
        <ele>94.599998474121</ele>
        <time>2019-04-11T13:16:23Z</time>
      </trkpt>
      <trkpt lat="48.35704" lon="2.75195">
        <ele>94.599998474121</ele>
        <time>2019-04-11T13:16:28Z</time>
      </trkpt>
      <trkpt lat="48.35704" lon="2.75195">
        <ele>94.599998474121</ele>
        <time>2019-04-11T13:16:33Z</time>
      </trkpt>
      <trkpt lat="48.35704" lon="2.75194">
        <ele>94.599998474121</ele>
        <time>2019-04-11T13:16:38Z</time>
      </trkpt>
      <trkpt lat="48.35704" lon="2.75194">
        <ele>94.599998474121</ele>
        <time>2019-04-11T13:16:43Z</time>
      </trkpt>
      <trkpt lat="48.35704" lon="2.75195">
        <ele>94.599998474121</ele>
        <time>2019-04-11T13:16:48Z</time>
      </trkpt>
      <trkpt lat="48.35704" lon="2.75196">
        <ele>94.599998474121</ele>
        <time>2019-04-11T13:16:53Z</time>
      </trkpt>
      <trkpt lat="48.35703" lon="2.75199">
        <ele>94.599998474121</ele>
        <time>2019-04-11T13:16:58Z</time>
      </trkpt>
      <trkpt lat="48.35702" lon="2.75199">
        <ele>94.599998474121</ele>
        <time>2019-04-11T13:17:03Z</time>
      </trkpt>
      <trkpt lat="48.35702" lon="2.75199">
        <ele>94.599998474121</ele>
        <time>2019-04-11T13:17:08Z</time>
      </trkpt>
      <trkpt lat="48.35704" lon="2.75199">
        <ele>94.599998474121</ele>
        <time>2019-04-11T13:17:13Z</time>
      </trkpt>
      <trkpt lat="48.35707" lon="2.75199">
        <ele>94.599998474121</ele>
        <time>2019-04-11T13:17:18Z</time>
      </trkpt>
      <trkpt lat="48.35708" lon="2.75199">
        <ele>94.599998474121</ele>
        <time>2019-04-11T13:17:23Z</time>
      </trkpt>
      <trkpt lat="48.35709" lon="2.752">
        <ele>94.599998474121</ele>
        <time>2019-04-11T13:17:28Z</time>
      </trkpt>
      <trkpt lat="48.35708" lon="2.752">
        <ele>94.599998474121</ele>
        <time>2019-04-11T13:17:33Z</time>
      </trkpt>
      <trkpt lat="48.35708" lon="2.752">
        <ele>94.599998474121</ele>
        <time>2019-04-11T13:17:38Z</time>
      </trkpt>
      <trkpt lat="48.35708" lon="2.752">
        <ele>94.599998474121</ele>
        <time>2019-04-11T13:17:43Z</time>
      </trkpt>
      <trkpt lat="48.35707" lon="2.752">
        <ele>94.599998474121</ele>
        <time>2019-04-11T13:17:48Z</time>
      </trkpt>
      <trkpt lat="48.35706" lon="2.752">
        <ele>94.599998474121</ele>
        <time>2019-04-11T13:17:53Z</time>
      </trkpt>
      <trkpt lat="48.35705" lon="2.75198">
        <ele>94.599998474121</ele>
        <time>2019-04-11T13:17:58Z</time>
      </trkpt>
      <trkpt lat="48.35705" lon="2.75198">
        <ele>94.599998474121</ele>
        <time>2019-04-11T13:18:03Z</time>
      </trkpt>
      <trkpt lat="48.35703" lon="2.75201">
        <ele>94.599998474121</ele>
        <time>2019-04-11T13:18:08Z</time>
      </trkpt>
      <trkpt lat="48.35703" lon="2.75202">
        <ele>94.599998474121</ele>
        <time>2019-04-11T13:18:13Z</time>
      </trkpt>
      <trkpt lat="48.35702" lon="2.75201">
        <ele>94.599998474121</ele>
        <time>2019-04-11T13:18:18Z</time>
      </trkpt>
      <trkpt lat="48.35702" lon="2.75203">
        <ele>94.599998474121</ele>
        <time>2019-04-11T13:18:23Z</time>
      </trkpt>
      <trkpt lat="48.35701" lon="2.75203">
        <ele>94.599998474121</ele>
        <time>2019-04-11T13:18:28Z</time>
      </trkpt>
      <trkpt lat="48.35701" lon="2.75205">
        <ele>94.599998474121</ele>
        <time>2019-04-11T13:18:33Z</time>
      </trkpt>
      <trkpt lat="48.35701" lon="2.75205">
        <ele>94.599998474121</ele>
        <time>2019-04-11T13:18:38Z</time>
      </trkpt>
      <trkpt lat="48.357" lon="2.75206">
        <ele>94.599998474121</ele>
        <time>2019-04-11T13:18:43Z</time>
      </trkpt>
      <trkpt lat="48.35699" lon="2.75208">
        <ele>94.599998474121</ele>
        <time>2019-04-11T13:18:48Z</time>
      </trkpt>
      <trkpt lat="48.35697" lon="2.75209">
        <ele>94.599998474121</ele>
        <time>2019-04-11T13:18:53Z</time>
      </trkpt>
      <trkpt lat="48.35695" lon="2.75209">
        <ele>94.599998474121</ele>
        <time>2019-04-11T13:18:58Z</time>
      </trkpt>
      <trkpt lat="48.35694" lon="2.75207">
        <ele>94.599998474121</ele>
        <time>2019-04-11T13:19:03Z</time>
      </trkpt>
      <trkpt lat="48.35693" lon="2.75205">
        <ele>94.599998474121</ele>
        <time>2019-04-11T13:19:08Z</time>
      </trkpt>
      <trkpt lat="48.35693" lon="2.75204">
        <ele>94.599998474121</ele>
        <time>2019-04-11T13:19:13Z</time>
      </trkpt>
      <trkpt lat="48.35694" lon="2.75203">
        <ele>94.599998474121</ele>
        <time>2019-04-11T13:19:18Z</time>
      </trkpt>
      <trkpt lat="48.35694" lon="2.75201">
        <ele>94.599998474121</ele>
        <time>2019-04-11T13:19:23Z</time>
      </trkpt>
      <trkpt lat="48.35694" lon="2.752">
        <ele>94.599998474121</ele>
        <time>2019-04-11T13:19:28Z</time>
      </trkpt>
      <trkpt lat="48.35696" lon="2.75199">
        <ele>94.599998474121</ele>
        <time>2019-04-11T13:19:33Z</time>
      </trkpt>
      <trkpt lat="48.35696" lon="2.75199">
        <ele>94.599998474121</ele>
        <time>2019-04-11T13:19:38Z</time>
      </trkpt>
      <trkpt lat="48.35696" lon="2.75199">
        <ele>94.599998474121</ele>
        <time>2019-04-11T13:19:43Z</time>
      </trkpt>
      <trkpt lat="48.35696" lon="2.752">
        <ele>94.599998474121</ele>
        <time>2019-04-11T13:19:48Z</time>
      </trkpt>
      <trkpt lat="48.35696" lon="2.75201">
        <ele>94.599998474121</ele>
        <time>2019-04-11T13:19:53Z</time>
      </trkpt>
      <trkpt lat="48.35695" lon="2.75202">
        <ele>94.599998474121</ele>
        <time>2019-04-11T13:19:58Z</time>
      </trkpt>
      <trkpt lat="48.3569" lon="2.752">
        <ele>94.599998474121</ele>
        <time>2019-04-11T13:20:03Z</time>
      </trkpt>
      <trkpt lat="48.35689" lon="2.75199">
        <ele>94.599998474121</ele>
        <time>2019-04-11T13:20:08Z</time>
      </trkpt>
      <trkpt lat="48.35686" lon="2.75199">
        <ele>94.599998474121</ele>
        <time>2019-04-11T13:20:13Z</time>
      </trkpt>
      <trkpt lat="48.35679" lon="2.75195">
        <ele>94.599998474121</ele>
        <time>2019-04-11T13:20:18Z</time>
      </trkpt>
      <trkpt lat="48.35676" lon="2.75194">
        <ele>94.599998474121</ele>
        <time>2019-04-11T13:20:23Z</time>
      </trkpt>
      <trkpt lat="48.35669" lon="2.75191">
        <ele>94.599998474121</ele>
        <time>2019-04-11T13:20:28Z</time>
      </trkpt>
      <trkpt lat="48.35659" lon="2.75187">
        <ele>94.599998474121</ele>
        <time>2019-04-11T13:20:33Z</time>
      </trkpt>
      <trkpt lat="48.35654" lon="2.75185">
        <ele>94.599998474121</ele>
        <time>2019-04-11T13:20:38Z</time>
      </trkpt>
      <trkpt lat="48.35649" lon="2.75182">
        <ele>94.599998474121</ele>
        <time>2019-04-11T13:20:43Z</time>
      </trkpt>
      <trkpt lat="48.35646" lon="2.75179">
        <ele>94.599998474121</ele>
        <time>2019-04-11T13:20:48Z</time>
      </trkpt>
      <trkpt lat="48.35639" lon="2.75174">
        <ele>94.599998474121</ele>
        <time>2019-04-11T13:20:53Z</time>
      </trkpt>
      <trkpt lat="48.35632" lon="2.7517">
        <ele>94.599998474121</ele>
        <time>2019-04-11T13:20:58Z</time>
      </trkpt>
      <trkpt lat="48.3563" lon="2.7517">
        <ele>94.599998474121</ele>
        <time>2019-04-11T13:21:03Z</time>
      </trkpt>
      <trkpt lat="48.35624" lon="2.75168">
        <ele>94.599998474121</ele>
        <time>2019-04-11T13:21:08Z</time>
      </trkpt>
      <trkpt lat="48.3562" lon="2.75165">
        <ele>94.599998474121</ele>
        <time>2019-04-11T13:21:13Z</time>
      </trkpt>
      <trkpt lat="48.35613" lon="2.75164">
        <ele>98.599998474121</ele>
        <time>2019-04-11T13:21:18Z</time>
      </trkpt>
      <trkpt lat="48.35609" lon="2.75162">
        <ele>99</ele>
        <time>2019-04-11T13:21:23Z</time>
      </trkpt>
      <trkpt lat="48.35606" lon="2.7516">
        <ele>99.599998474121</ele>
        <time>2019-04-11T13:21:28Z</time>
      </trkpt>
      <trkpt lat="48.35598" lon="2.75158">
        <ele>100.19999694824</ele>
        <time>2019-04-11T13:21:33Z</time>
      </trkpt>
      <trkpt lat="48.35591" lon="2.75155">
        <ele>101</ele>
        <time>2019-04-11T13:21:38Z</time>
      </trkpt>
      <trkpt lat="48.35588" lon="2.75152">
        <ele>101.80000305176</ele>
        <time>2019-04-11T13:21:43Z</time>
      </trkpt>
      <trkpt lat="48.35582" lon="2.75148">
        <ele>102.40000152588</ele>
        <time>2019-04-11T13:21:48Z</time>
      </trkpt>
      <trkpt lat="48.3558" lon="2.75147">
        <ele>103</ele>
        <time>2019-04-11T13:21:53Z</time>
      </trkpt>
      <trkpt lat="48.35578" lon="2.75143">
        <ele>103.59999847412</ele>
        <time>2019-04-11T13:21:58Z</time>
      </trkpt>
      <trkpt lat="48.35569" lon="2.75137">
        <ele>104.19999694824</ele>
        <time>2019-04-11T13:22:03Z</time>
      </trkpt>
      <trkpt lat="48.35563" lon="2.75131">
        <ele>105.19999694824</ele>
        <time>2019-04-11T13:22:08Z</time>
      </trkpt>
      <trkpt lat="48.35556" lon="2.75126">
        <ele>105.80000305176</ele>
        <time>2019-04-11T13:22:13Z</time>
      </trkpt>
      <trkpt lat="48.35552" lon="2.75122">
        <ele>106.19999694824</ele>
        <time>2019-04-11T13:22:18Z</time>
      </trkpt>
      <trkpt lat="48.35548" lon="2.75117">
        <ele>106.80000305176</ele>
        <time>2019-04-11T13:22:23Z</time>
      </trkpt>
      <trkpt lat="48.35545" lon="2.7511">
        <ele>107.40000152588</ele>
        <time>2019-04-11T13:22:28Z</time>
      </trkpt>
      <trkpt lat="48.35544" lon="2.75107">
        <ele>108</ele>
        <time>2019-04-11T13:22:33Z</time>
      </trkpt>
      <trkpt lat="48.35543" lon="2.75103">
        <ele>108.59999847412</ele>
        <time>2019-04-11T13:22:38Z</time>
      </trkpt>
      <trkpt lat="48.3554" lon="2.75096">
        <ele>109.19999694824</ele>
        <time>2019-04-11T13:22:43Z</time>
      </trkpt>
      <trkpt lat="48.35538" lon="2.75093">
        <ele>109.80000305176</ele>
        <time>2019-04-11T13:22:48Z</time>
      </trkpt>
      <trkpt lat="48.35533" lon="2.75083">
        <ele>110.40000152588</ele>
        <time>2019-04-11T13:22:53Z</time>
      </trkpt>
      <trkpt lat="48.35528" lon="2.75075">
        <ele>111.40000152588</ele>
        <time>2019-04-11T13:22:58Z</time>
      </trkpt>
      <trkpt lat="48.35524" lon="2.7507">
        <ele>112.59999847412</ele>
        <time>2019-04-11T13:23:03Z</time>
      </trkpt>
      <trkpt lat="48.35523" lon="2.75066">
        <ele>113.59999847412</ele>
        <time>2019-04-11T13:23:08Z</time>
      </trkpt>
      <trkpt lat="48.3552" lon="2.75061">
        <ele>114.59999847412</ele>
        <time>2019-04-11T13:23:13Z</time>
      </trkpt>
      <trkpt lat="48.35518" lon="2.75055">
        <ele>115.59999847412</ele>
        <time>2019-04-11T13:23:18Z</time>
      </trkpt>
      <trkpt lat="48.35517" lon="2.75052">
        <ele>116.59999847412</ele>
        <time>2019-04-11T13:23:23Z</time>
      </trkpt>
      <trkpt lat="48.35512" lon="2.75047">
        <ele>117.40000152588</ele>
        <time>2019-04-11T13:23:28Z</time>
      </trkpt>
      <trkpt lat="48.3551" lon="2.75044">
        <ele>118</ele>
        <time>2019-04-11T13:23:33Z</time>
      </trkpt>
      <trkpt lat="48.35507" lon="2.7504">
        <ele>119</ele>
        <time>2019-04-11T13:23:38Z</time>
      </trkpt>
      <trkpt lat="48.35503" lon="2.75034">
        <ele>120</ele>
        <time>2019-04-11T13:23:43Z</time>
      </trkpt>
      <trkpt lat="48.35499" lon="2.75028">
        <ele>121</ele>
        <time>2019-04-11T13:23:48Z</time>
      </trkpt>
      <trkpt lat="48.35495" lon="2.75021">
        <ele>121.80000305176</ele>
        <time>2019-04-11T13:23:53Z</time>
      </trkpt>
      <trkpt lat="48.3549" lon="2.75016">
        <ele>122.40000152588</ele>
        <time>2019-04-11T13:23:58Z</time>
      </trkpt>
      <trkpt lat="48.35486" lon="2.75013">
        <ele>122.80000305176</ele>
        <time>2019-04-11T13:24:03Z</time>
      </trkpt>
      <trkpt lat="48.35482" lon="2.75008">
        <ele>123.19999694824</ele>
        <time>2019-04-11T13:24:08Z</time>
      </trkpt>
      <trkpt lat="48.35478" lon="2.75004">
        <ele>123.59999847412</ele>
        <time>2019-04-11T13:24:13Z</time>
      </trkpt>
      <trkpt lat="48.35475" lon="2.75002">
        <ele>123.59999847412</ele>
        <time>2019-04-11T13:24:18Z</time>
      </trkpt>
      <trkpt lat="48.35472" lon="2.74997">
        <ele>123.59999847412</ele>
        <time>2019-04-11T13:24:23Z</time>
      </trkpt>
      <trkpt lat="48.3547" lon="2.74995">
        <ele>124</ele>
        <time>2019-04-11T13:24:28Z</time>
      </trkpt>
      <trkpt lat="48.35465" lon="2.74987">
        <ele>124.40000152588</ele>
        <time>2019-04-11T13:24:33Z</time>
      </trkpt>
      <trkpt lat="48.35461" lon="2.74979">
        <ele>124.59999847412</ele>
        <time>2019-04-11T13:24:38Z</time>
      </trkpt>
      <trkpt lat="48.35458" lon="2.74969">
        <ele>124.59999847412</ele>
        <time>2019-04-11T13:24:43Z</time>
      </trkpt>
      <trkpt lat="48.35455" lon="2.74964">
        <ele>124.80000305176</ele>
        <time>2019-04-11T13:24:48Z</time>
      </trkpt>
      <trkpt lat="48.35452" lon="2.7496">
        <ele>125.19999694824</ele>
        <time>2019-04-11T13:24:53Z</time>
      </trkpt>
      <trkpt lat="48.35449" lon="2.74955">
        <ele>125.40000152588</ele>
        <time>2019-04-11T13:24:58Z</time>
      </trkpt>
      <trkpt lat="48.35445" lon="2.74952">
        <ele>125.59999847412</ele>
        <time>2019-04-11T13:25:03Z</time>
      </trkpt>
      <trkpt lat="48.35442" lon="2.74949">
        <ele>126</ele>
        <time>2019-04-11T13:25:08Z</time>
      </trkpt>
      <trkpt lat="48.35438" lon="2.74944">
        <ele>126.40000152588</ele>
        <time>2019-04-11T13:25:13Z</time>
      </trkpt>
      <trkpt lat="48.35431" lon="2.74937">
        <ele>126.80000305176</ele>
        <time>2019-04-11T13:25:18Z</time>
      </trkpt>
      <trkpt lat="48.35427" lon="2.74931">
        <ele>127.40000152588</ele>
        <time>2019-04-11T13:25:23Z</time>
      </trkpt>
      <trkpt lat="48.35425" lon="2.74926">
        <ele>127.80000305176</ele>
        <time>2019-04-11T13:25:28Z</time>
      </trkpt>
      <trkpt lat="48.35423" lon="2.74919">
        <ele>128.19999694824</ele>
        <time>2019-04-11T13:25:33Z</time>
      </trkpt>
      <trkpt lat="48.35421" lon="2.74913">
        <ele>128.39999389648</ele>
        <time>2019-04-11T13:25:38Z</time>
      </trkpt>
      <trkpt lat="48.35418" lon="2.74906">
        <ele>128.39999389648</ele>
        <time>2019-04-11T13:25:43Z</time>
      </trkpt>
      <trkpt lat="48.35418" lon="2.749">
        <ele>128.80000305176</ele>
        <time>2019-04-11T13:25:48Z</time>
      </trkpt>
      <trkpt lat="48.35416" lon="2.74895">
        <ele>129.19999694824</ele>
        <time>2019-04-11T13:25:53Z</time>
      </trkpt>
      <trkpt lat="48.35414" lon="2.74888">
        <ele>129.80000305176</ele>
        <time>2019-04-11T13:25:58Z</time>
      </trkpt>
      <trkpt lat="48.35413" lon="2.7488">
        <ele>130.19999694824</ele>
        <time>2019-04-11T13:26:03Z</time>
      </trkpt>
      <trkpt lat="48.35412" lon="2.74873">
        <ele>130.60000610352</ele>
        <time>2019-04-11T13:26:08Z</time>
      </trkpt>
      <trkpt lat="48.35411" lon="2.74866">
        <ele>131</ele>
        <time>2019-04-11T13:26:13Z</time>
      </trkpt>
      <trkpt lat="48.35409" lon="2.7486">
        <ele>131.39999389648</ele>
        <time>2019-04-11T13:26:18Z</time>
      </trkpt>
      <trkpt lat="48.35407" lon="2.74854">
        <ele>131.80000305176</ele>
        <time>2019-04-11T13:26:23Z</time>
      </trkpt>
      <trkpt lat="48.35404" lon="2.74848">
        <ele>132</ele>
        <time>2019-04-11T13:26:28Z</time>
      </trkpt>
      <trkpt lat="48.35401" lon="2.74844">
        <ele>132.39999389648</ele>
        <time>2019-04-11T13:26:33Z</time>
      </trkpt>
      <trkpt lat="48.354" lon="2.74839">
        <ele>132.80000305176</ele>
        <time>2019-04-11T13:26:38Z</time>
      </trkpt>
      <trkpt lat="48.35397" lon="2.74833">
        <ele>133.19999694824</ele>
        <time>2019-04-11T13:26:43Z</time>
      </trkpt>
      <trkpt lat="48.35394" lon="2.74827">
        <ele>133.39999389648</ele>
        <time>2019-04-11T13:26:48Z</time>
      </trkpt>
      <trkpt lat="48.35389" lon="2.7482">
        <ele>133.60000610352</ele>
        <time>2019-04-11T13:26:53Z</time>
      </trkpt>
      <trkpt lat="48.35386" lon="2.74816">
        <ele>133.60000610352</ele>
        <time>2019-04-11T13:26:58Z</time>
      </trkpt>
      <trkpt lat="48.35381" lon="2.74809">
        <ele>134</ele>
        <time>2019-04-11T13:27:03Z</time>
      </trkpt>
      <trkpt lat="48.35378" lon="2.74801">
        <ele>134</ele>
        <time>2019-04-11T13:27:08Z</time>
      </trkpt>
      <trkpt lat="48.35375" lon="2.74794">
        <ele>134</ele>
        <time>2019-04-11T13:27:13Z</time>
      </trkpt>
      <trkpt lat="48.35374" lon="2.74789">
        <ele>133.80000305176</ele>
        <time>2019-04-11T13:27:18Z</time>
      </trkpt>
      <trkpt lat="48.35373" lon="2.74782">
        <ele>133.60000610352</ele>
        <time>2019-04-11T13:27:23Z</time>
      </trkpt>
      <trkpt lat="48.35372" lon="2.74773">
        <ele>133.19999694824</ele>
        <time>2019-04-11T13:27:28Z</time>
      </trkpt>
      <trkpt lat="48.35371" lon="2.74765">
        <ele>133</ele>
        <time>2019-04-11T13:27:33Z</time>
      </trkpt>
      <trkpt lat="48.35371" lon="2.74758">
        <ele>132.80000305176</ele>
        <time>2019-04-11T13:27:38Z</time>
      </trkpt>
      <trkpt lat="48.3537" lon="2.7475">
        <ele>132.39999389648</ele>
        <time>2019-04-11T13:27:43Z</time>
      </trkpt>
      <trkpt lat="48.35369" lon="2.74742">
        <ele>132.19999694824</ele>
        <time>2019-04-11T13:27:48Z</time>
      </trkpt>
      <trkpt lat="48.35369" lon="2.74735">
        <ele>132</ele>
        <time>2019-04-11T13:27:53Z</time>
      </trkpt>
      <trkpt lat="48.35367" lon="2.74726">
        <ele>131.80000305176</ele>
        <time>2019-04-11T13:27:58Z</time>
      </trkpt>
      <trkpt lat="48.35365" lon="2.74718">
        <ele>131.60000610352</ele>
        <time>2019-04-11T13:28:03Z</time>
      </trkpt>
      <trkpt lat="48.35365" lon="2.74711">
        <ele>131.39999389648</ele>
        <time>2019-04-11T13:28:08Z</time>
      </trkpt>
      <trkpt lat="48.35365" lon="2.74703">
        <ele>131.39999389648</ele>
        <time>2019-04-11T13:28:13Z</time>
      </trkpt>
      <trkpt lat="48.35363" lon="2.74693">
        <ele>131.19999694824</ele>
        <time>2019-04-11T13:28:18Z</time>
      </trkpt>
      <trkpt lat="48.35364" lon="2.74685">
        <ele>131.19999694824</ele>
        <time>2019-04-11T13:28:23Z</time>
      </trkpt>
      <trkpt lat="48.35364" lon="2.7468">
        <ele>131.19999694824</ele>
        <time>2019-04-11T13:28:28Z</time>
      </trkpt>
      <trkpt lat="48.35363" lon="2.74676">
        <ele>131</ele>
        <time>2019-04-11T13:28:33Z</time>
      </trkpt>
      <trkpt lat="48.35363" lon="2.74677">
        <ele>131</ele>
        <time>2019-04-11T13:28:38Z</time>
      </trkpt>
      <trkpt lat="48.35363" lon="2.74677">
        <ele>130.80000305176</ele>
        <time>2019-04-11T13:28:43Z</time>
      </trkpt>
      <trkpt lat="48.35364" lon="2.74678">
        <ele>130.80000305176</ele>
        <time>2019-04-11T13:28:48Z</time>
      </trkpt>
      <trkpt lat="48.35363" lon="2.74678">
        <ele>131</ele>
        <time>2019-04-11T13:28:53Z</time>
      </trkpt>
      <trkpt lat="48.35364" lon="2.74679">
        <ele>131.19999694824</ele>
        <time>2019-04-11T13:28:58Z</time>
      </trkpt>
      <trkpt lat="48.35365" lon="2.74682">
        <ele>131.19999694824</ele>
        <time>2019-04-11T13:29:03Z</time>
      </trkpt>
      <trkpt lat="48.35366" lon="2.74683">
        <ele>131</ele>
        <time>2019-04-11T13:29:08Z</time>
      </trkpt>
      <trkpt lat="48.35365" lon="2.74685">
        <ele>131</ele>
        <time>2019-04-11T13:29:13Z</time>
      </trkpt>
      <trkpt lat="48.35365" lon="2.74686">
        <ele>131.19999694824</ele>
        <time>2019-04-11T13:29:18Z</time>
      </trkpt>
      <trkpt lat="48.35364" lon="2.74687">
        <ele>131</ele>
        <time>2019-04-11T13:29:23Z</time>
      </trkpt>
      <trkpt lat="48.35364" lon="2.74687">
        <ele>131</ele>
        <time>2019-04-11T13:29:28Z</time>
      </trkpt>
      <trkpt lat="48.35366" lon="2.74688">
        <ele>131</ele>
        <time>2019-04-11T13:29:33Z</time>
      </trkpt>
      <trkpt lat="48.35367" lon="2.74687">
        <ele>131</ele>
        <time>2019-04-11T13:29:38Z</time>
      </trkpt>
      <trkpt lat="48.35367" lon="2.74685">
        <ele>131</ele>
        <time>2019-04-11T13:29:43Z</time>
      </trkpt>
      <trkpt lat="48.35368" lon="2.74683">
        <ele>131</ele>
        <time>2019-04-11T13:29:48Z</time>
      </trkpt>
      <trkpt lat="48.35368" lon="2.74683">
        <ele>131</ele>
        <time>2019-04-11T13:29:53Z</time>
      </trkpt>
      <trkpt lat="48.35368" lon="2.74684">
        <ele>131</ele>
        <time>2019-04-11T13:29:58Z</time>
      </trkpt>
      <trkpt lat="48.35368" lon="2.74684">
        <ele>131</ele>
        <time>2019-04-11T13:30:03Z</time>
      </trkpt>
      <trkpt lat="48.35369" lon="2.74684">
        <ele>131</ele>
        <time>2019-04-11T13:30:08Z</time>
      </trkpt>
      <trkpt lat="48.3537" lon="2.74684">
        <ele>131</ele>
        <time>2019-04-11T13:30:13Z</time>
      </trkpt>
      <trkpt lat="48.35371" lon="2.74683">
        <ele>131</ele>
        <time>2019-04-11T13:30:18Z</time>
      </trkpt>
      <trkpt lat="48.35372" lon="2.74683">
        <ele>131</ele>
        <time>2019-04-11T13:30:23Z</time>
      </trkpt>
      <trkpt lat="48.35372" lon="2.74684">
        <ele>131</ele>
        <time>2019-04-11T13:30:28Z</time>
      </trkpt>
      <trkpt lat="48.35372" lon="2.74685">
        <ele>131</ele>
        <time>2019-04-11T13:30:33Z</time>
      </trkpt>
      <trkpt lat="48.35373" lon="2.74686">
        <ele>131</ele>
        <time>2019-04-11T13:30:38Z</time>
      </trkpt>
      <trkpt lat="48.35376" lon="2.74687">
        <ele>131</ele>
        <time>2019-04-11T13:30:43Z</time>
      </trkpt>
      <trkpt lat="48.35376" lon="2.74687">
        <ele>131</ele>
        <time>2019-04-11T13:30:48Z</time>
      </trkpt>
      <trkpt lat="48.35376" lon="2.74686">
        <ele>131</ele>
        <time>2019-04-11T13:30:53Z</time>
      </trkpt>
      <trkpt lat="48.35375" lon="2.74686">
        <ele>131</ele>
        <time>2019-04-11T13:30:58Z</time>
      </trkpt>
      <trkpt lat="48.35374" lon="2.74687">
        <ele>131</ele>
        <time>2019-04-11T13:31:03Z</time>
      </trkpt>
      <trkpt lat="48.35372" lon="2.74687">
        <ele>131</ele>
        <time>2019-04-11T13:31:08Z</time>
      </trkpt>
      <trkpt lat="48.35371" lon="2.74688">
        <ele>131</ele>
        <time>2019-04-11T13:31:13Z</time>
      </trkpt>
      <trkpt lat="48.35372" lon="2.74688">
        <ele>131</ele>
        <time>2019-04-11T13:31:18Z</time>
      </trkpt>
      <trkpt lat="48.35371" lon="2.74688">
        <ele>131</ele>
        <time>2019-04-11T13:31:23Z</time>
      </trkpt>
      <trkpt lat="48.35372" lon="2.74688">
        <ele>131</ele>
        <time>2019-04-11T13:31:28Z</time>
      </trkpt>
      <trkpt lat="48.35373" lon="2.74689">
        <ele>131</ele>
        <time>2019-04-11T13:31:33Z</time>
      </trkpt>
      <trkpt lat="48.35374" lon="2.74689">
        <ele>131</ele>
        <time>2019-04-11T13:31:38Z</time>
      </trkpt>
      <trkpt lat="48.35373" lon="2.74688">
        <ele>131</ele>
        <time>2019-04-11T13:31:43Z</time>
      </trkpt>
      <trkpt lat="48.35373" lon="2.74689">
        <ele>131</ele>
        <time>2019-04-11T13:31:48Z</time>
      </trkpt>
      <trkpt lat="48.35373" lon="2.74688">
        <ele>131</ele>
        <time>2019-04-11T13:31:53Z</time>
      </trkpt>
      <trkpt lat="48.35372" lon="2.74685">
        <ele>131</ele>
        <time>2019-04-11T13:31:58Z</time>
      </trkpt>
      <trkpt lat="48.3537" lon="2.74679">
        <ele>131</ele>
        <time>2019-04-11T13:32:03Z</time>
      </trkpt>
      <trkpt lat="48.35368" lon="2.74674">
        <ele>131</ele>
        <time>2019-04-11T13:32:08Z</time>
      </trkpt>
      <trkpt lat="48.35366" lon="2.74668">
        <ele>131</ele>
        <time>2019-04-11T13:32:13Z</time>
      </trkpt>
      <trkpt lat="48.35365" lon="2.74658">
        <ele>131</ele>
        <time>2019-04-11T13:32:18Z</time>
      </trkpt>
      <trkpt lat="48.35365" lon="2.74648">
        <ele>131</ele>
        <time>2019-04-11T13:32:23Z</time>
      </trkpt>
      <trkpt lat="48.35366" lon="2.7464">
        <ele>131</ele>
        <time>2019-04-11T13:32:28Z</time>
      </trkpt>
      <trkpt lat="48.35366" lon="2.74633">
        <ele>131</ele>
        <time>2019-04-11T13:32:33Z</time>
      </trkpt>
      <trkpt lat="48.35367" lon="2.74626">
        <ele>131</ele>
        <time>2019-04-11T13:32:38Z</time>
      </trkpt>
      <trkpt lat="48.35368" lon="2.74618">
        <ele>131</ele>
        <time>2019-04-11T13:32:43Z</time>
      </trkpt>
      <trkpt lat="48.35369" lon="2.74611">
        <ele>131</ele>
        <time>2019-04-11T13:32:48Z</time>
      </trkpt>
      <trkpt lat="48.3537" lon="2.74604">
        <ele>131</ele>
        <time>2019-04-11T13:32:53Z</time>
      </trkpt>
      <trkpt lat="48.3537" lon="2.74597">
        <ele>131</ele>
        <time>2019-04-11T13:32:58Z</time>
      </trkpt>
      <trkpt lat="48.3537" lon="2.7459">
        <ele>131</ele>
        <time>2019-04-11T13:33:03Z</time>
      </trkpt>
      <trkpt lat="48.3537" lon="2.74586">
        <ele>131</ele>
        <time>2019-04-11T13:33:08Z</time>
      </trkpt>
      <trkpt lat="48.35371" lon="2.7458">
        <ele>131</ele>
        <time>2019-04-11T13:33:13Z</time>
      </trkpt>
      <trkpt lat="48.35372" lon="2.74571">
        <ele>131</ele>
        <time>2019-04-11T13:33:18Z</time>
      </trkpt>
      <trkpt lat="48.35374" lon="2.74561">
        <ele>131</ele>
        <time>2019-04-11T13:33:23Z</time>
      </trkpt>
      <trkpt lat="48.35375" lon="2.74553">
        <ele>131</ele>
        <time>2019-04-11T13:33:28Z</time>
      </trkpt>
      <trkpt lat="48.35375" lon="2.74545">
        <ele>131</ele>
        <time>2019-04-11T13:33:33Z</time>
      </trkpt>
      <trkpt lat="48.35376" lon="2.74538">
        <ele>131</ele>
        <time>2019-04-11T13:33:38Z</time>
      </trkpt>
      <trkpt lat="48.35376" lon="2.74529">
        <ele>131</ele>
        <time>2019-04-11T13:33:43Z</time>
      </trkpt>
      <trkpt lat="48.35376" lon="2.74521">
        <ele>131</ele>
        <time>2019-04-11T13:33:48Z</time>
      </trkpt>
      <trkpt lat="48.35375" lon="2.74513">
        <ele>131</ele>
        <time>2019-04-11T13:33:53Z</time>
      </trkpt>
      <trkpt lat="48.35373" lon="2.74506">
        <ele>131</ele>
        <time>2019-04-11T13:33:58Z</time>
      </trkpt>
      <trkpt lat="48.35373" lon="2.74499">
        <ele>131</ele>
        <time>2019-04-11T13:34:03Z</time>
      </trkpt>
      <trkpt lat="48.35372" lon="2.74492">
        <ele>131</ele>
        <time>2019-04-11T13:34:08Z</time>
      </trkpt>
      <trkpt lat="48.35372" lon="2.74483">
        <ele>131</ele>
        <time>2019-04-11T13:34:13Z</time>
      </trkpt>
      <trkpt lat="48.35372" lon="2.74475">
        <ele>131</ele>
        <time>2019-04-11T13:34:18Z</time>
      </trkpt>
      <trkpt lat="48.35373" lon="2.74468">
        <ele>131</ele>
        <time>2019-04-11T13:34:23Z</time>
      </trkpt>
      <trkpt lat="48.35373" lon="2.74461">
        <ele>131</ele>
        <time>2019-04-11T13:34:28Z</time>
      </trkpt>
      <trkpt lat="48.35373" lon="2.74452">
        <ele>131</ele>
        <time>2019-04-11T13:34:33Z</time>
      </trkpt>
      <trkpt lat="48.35373" lon="2.74445">
        <ele>131</ele>
        <time>2019-04-11T13:34:38Z</time>
      </trkpt>
      <trkpt lat="48.35372" lon="2.74436">
        <ele>131</ele>
        <time>2019-04-11T13:34:43Z</time>
      </trkpt>
      <trkpt lat="48.35373" lon="2.7443">
        <ele>131</ele>
        <time>2019-04-11T13:34:48Z</time>
      </trkpt>
      <trkpt lat="48.35373" lon="2.74422">
        <ele>131</ele>
        <time>2019-04-11T13:34:53Z</time>
      </trkpt>
      <trkpt lat="48.35373" lon="2.74413">
        <ele>131</ele>
        <time>2019-04-11T13:34:58Z</time>
      </trkpt>
      <trkpt lat="48.35372" lon="2.74404">
        <ele>131</ele>
        <time>2019-04-11T13:35:03Z</time>
      </trkpt>
      <trkpt lat="48.35373" lon="2.74396">
        <ele>131</ele>
        <time>2019-04-11T13:35:08Z</time>
      </trkpt>
      <trkpt lat="48.35373" lon="2.74388">
        <ele>131</ele>
        <time>2019-04-11T13:35:13Z</time>
      </trkpt>
      <trkpt lat="48.35373" lon="2.74381">
        <ele>131</ele>
        <time>2019-04-11T13:35:18Z</time>
      </trkpt>
      <trkpt lat="48.35374" lon="2.74374">
        <ele>131</ele>
        <time>2019-04-11T13:35:23Z</time>
      </trkpt>
      <trkpt lat="48.35375" lon="2.74367">
        <ele>131</ele>
        <time>2019-04-11T13:35:28Z</time>
      </trkpt>
      <trkpt lat="48.35376" lon="2.7436">
        <ele>131</ele>
        <time>2019-04-11T13:35:33Z</time>
      </trkpt>
      <trkpt lat="48.35377" lon="2.74351">
        <ele>131</ele>
        <time>2019-04-11T13:35:38Z</time>
      </trkpt>
      <trkpt lat="48.35379" lon="2.74344">
        <ele>131</ele>
        <time>2019-04-11T13:35:43Z</time>
      </trkpt>
      <trkpt lat="48.35382" lon="2.74335">
        <ele>131</ele>
        <time>2019-04-11T13:35:48Z</time>
      </trkpt>
      <trkpt lat="48.35384" lon="2.74327">
        <ele>131</ele>
        <time>2019-04-11T13:35:53Z</time>
      </trkpt>
      <trkpt lat="48.35387" lon="2.74322">
        <ele>131</ele>
        <time>2019-04-11T13:35:58Z</time>
      </trkpt>
      <trkpt lat="48.35391" lon="2.74315">
        <ele>131</ele>
        <time>2019-04-11T13:36:03Z</time>
      </trkpt>
      <trkpt lat="48.35393" lon="2.74307">
        <ele>131</ele>
        <time>2019-04-11T13:36:08Z</time>
      </trkpt>
      <trkpt lat="48.35394" lon="2.74302">
        <ele>134.80000305176</ele>
        <time>2019-04-11T13:36:13Z</time>
      </trkpt>
      <trkpt lat="48.35396" lon="2.74295">
        <ele>135.19999694824</ele>
        <time>2019-04-11T13:36:18Z</time>
      </trkpt>
      <trkpt lat="48.35398" lon="2.74287">
        <ele>135</ele>
        <time>2019-04-11T13:36:23Z</time>
      </trkpt>
      <trkpt lat="48.35397" lon="2.7428">
        <ele>135</ele>
        <time>2019-04-11T13:36:28Z</time>
      </trkpt>
      <trkpt lat="48.35396" lon="2.74275">
        <ele>134.80000305176</ele>
        <time>2019-04-11T13:36:33Z</time>
      </trkpt>
      <trkpt lat="48.35392" lon="2.74272">
        <ele>135</ele>
        <time>2019-04-11T13:36:38Z</time>
      </trkpt>
      <trkpt lat="48.35391" lon="2.7427">
        <ele>134.80000305176</ele>
        <time>2019-04-11T13:36:43Z</time>
      </trkpt>
      <trkpt lat="48.35387" lon="2.74264">
        <ele>134.80000305176</ele>
        <time>2019-04-11T13:36:48Z</time>
      </trkpt>
      <trkpt lat="48.35383" lon="2.74259">
        <ele>135.19999694824</ele>
        <time>2019-04-11T13:36:53Z</time>
      </trkpt>
      <trkpt lat="48.35379" lon="2.74251">
        <ele>135.39999389648</ele>
        <time>2019-04-11T13:36:58Z</time>
      </trkpt>
      <trkpt lat="48.35376" lon="2.74243">
        <ele>135.39999389648</ele>
        <time>2019-04-11T13:37:03Z</time>
      </trkpt>
      <trkpt lat="48.35373" lon="2.74234">
        <ele>135.60000610352</ele>
        <time>2019-04-11T13:37:08Z</time>
      </trkpt>
      <trkpt lat="48.35371" lon="2.74228">
        <ele>135.80000305176</ele>
        <time>2019-04-11T13:37:13Z</time>
      </trkpt>
      <trkpt lat="48.35368" lon="2.7422">
        <ele>136</ele>
        <time>2019-04-11T13:37:18Z</time>
      </trkpt>
      <trkpt lat="48.35365" lon="2.74213">
        <ele>136.19999694824</ele>
        <time>2019-04-11T13:37:23Z</time>
      </trkpt>
      <trkpt lat="48.35364" lon="2.74209">
        <ele>136.39999389648</ele>
        <time>2019-04-11T13:37:28Z</time>
      </trkpt>
      <trkpt lat="48.35364" lon="2.74204">
        <ele>137</ele>
        <time>2019-04-11T13:37:33Z</time>
      </trkpt>
      <trkpt lat="48.35361" lon="2.742">
        <ele>137.80000305176</ele>
        <time>2019-04-11T13:37:38Z</time>
      </trkpt>
      <trkpt lat="48.35358" lon="2.74196">
        <ele>138</ele>
        <time>2019-04-11T13:37:43Z</time>
      </trkpt>
      <trkpt lat="48.35354" lon="2.74192">
        <ele>138</ele>
        <time>2019-04-11T13:37:48Z</time>
      </trkpt>
      <trkpt lat="48.3535" lon="2.74187">
        <ele>138.39999389648</ele>
        <time>2019-04-11T13:37:53Z</time>
      </trkpt>
      <trkpt lat="48.35347" lon="2.74183">
        <ele>138.39999389648</ele>
        <time>2019-04-11T13:37:58Z</time>
      </trkpt>
      <trkpt lat="48.35341" lon="2.74177">
        <ele>138.60000610352</ele>
        <time>2019-04-11T13:38:03Z</time>
      </trkpt>
      <trkpt lat="48.35337" lon="2.74172">
        <ele>139.19999694824</ele>
        <time>2019-04-11T13:38:08Z</time>
      </trkpt>
      <trkpt lat="48.35334" lon="2.74169">
        <ele>139.60000610352</ele>
        <time>2019-04-11T13:38:13Z</time>
      </trkpt>
      <trkpt lat="48.3533" lon="2.74166">
        <ele>140</ele>
        <time>2019-04-11T13:38:18Z</time>
      </trkpt>
      <trkpt lat="48.35327" lon="2.74163">
        <ele>140.60000610352</ele>
        <time>2019-04-11T13:38:23Z</time>
      </trkpt>
      <trkpt lat="48.35323" lon="2.7416">
        <ele>141</ele>
        <time>2019-04-11T13:38:28Z</time>
      </trkpt>
      <trkpt lat="48.35319" lon="2.74156">
        <ele>141.60000610352</ele>
        <time>2019-04-11T13:38:33Z</time>
      </trkpt>
      <trkpt lat="48.35317" lon="2.74156">
        <ele>142.39999389648</ele>
        <time>2019-04-11T13:38:38Z</time>
      </trkpt>
      <trkpt lat="48.35315" lon="2.74157">
        <ele>142.80000305176</ele>
        <time>2019-04-11T13:38:43Z</time>
      </trkpt>
      <trkpt lat="48.35311" lon="2.74162">
        <ele>143</ele>
        <time>2019-04-11T13:38:48Z</time>
      </trkpt>
      <trkpt lat="48.35309" lon="2.74165">
        <ele>143.39999389648</ele>
        <time>2019-04-11T13:38:53Z</time>
      </trkpt>
      <trkpt lat="48.35306" lon="2.74167">
        <ele>143.60000610352</ele>
        <time>2019-04-11T13:38:58Z</time>
      </trkpt>
      <trkpt lat="48.35303" lon="2.7417">
        <ele>143.60000610352</ele>
        <time>2019-04-11T13:39:03Z</time>
      </trkpt>
      <trkpt lat="48.35293" lon="2.74174">
        <ele>144</ele>
        <time>2019-04-11T13:39:08Z</time>
      </trkpt>
      <trkpt lat="48.35286" lon="2.74175">
        <ele>144.39999389648</ele>
        <time>2019-04-11T13:39:13Z</time>
      </trkpt>
      <trkpt lat="48.35282" lon="2.74172">
        <ele>145</ele>
        <time>2019-04-11T13:39:18Z</time>
      </trkpt>
      <trkpt lat="48.35277" lon="2.74166">
        <ele>145.39999389648</ele>
        <time>2019-04-11T13:39:23Z</time>
      </trkpt>
      <trkpt lat="48.35273" lon="2.74159">
        <ele>145.80000305176</ele>
        <time>2019-04-11T13:39:28Z</time>
      </trkpt>
      <trkpt lat="48.35271" lon="2.74152">
        <ele>146</ele>
        <time>2019-04-11T13:39:33Z</time>
      </trkpt>
      <trkpt lat="48.35269" lon="2.74143">
        <ele>145.80000305176</ele>
        <time>2019-04-11T13:39:38Z</time>
      </trkpt>
      <trkpt lat="48.35266" lon="2.74135">
        <ele>145.80000305176</ele>
        <time>2019-04-11T13:39:43Z</time>
      </trkpt>
      <trkpt lat="48.35261" lon="2.74131">
        <ele>146</ele>
        <time>2019-04-11T13:39:48Z</time>
      </trkpt>
      <trkpt lat="48.35257" lon="2.7413">
        <ele>145.80000305176</ele>
        <time>2019-04-11T13:39:53Z</time>
      </trkpt>
      <trkpt lat="48.35253" lon="2.74128">
        <ele>146</ele>
        <time>2019-04-11T13:39:58Z</time>
      </trkpt>
      <trkpt lat="48.35247" lon="2.74126">
        <ele>146</ele>
        <time>2019-04-11T13:40:03Z</time>
      </trkpt>
      <trkpt lat="48.35242" lon="2.74123">
        <ele>146.19999694824</ele>
        <time>2019-04-11T13:40:08Z</time>
      </trkpt>
      <trkpt lat="48.35236" lon="2.7412">
        <ele>146.39999389648</ele>
        <time>2019-04-11T13:40:13Z</time>
      </trkpt>
      <trkpt lat="48.35232" lon="2.74118">
        <ele>146.39999389648</ele>
        <time>2019-04-11T13:40:18Z</time>
      </trkpt>
      <trkpt lat="48.35227" lon="2.74115">
        <ele>146.39999389648</ele>
        <time>2019-04-11T13:40:23Z</time>
      </trkpt>
      <trkpt lat="48.35221" lon="2.74112">
        <ele>146.39999389648</ele>
        <time>2019-04-11T13:40:28Z</time>
      </trkpt>
      <trkpt lat="48.35215" lon="2.7411">
        <ele>146.19999694824</ele>
        <time>2019-04-11T13:40:33Z</time>
      </trkpt>
      <trkpt lat="48.3521" lon="2.74105">
        <ele>146.19999694824</ele>
        <time>2019-04-11T13:40:38Z</time>
      </trkpt>
      <trkpt lat="48.35206" lon="2.74102">
        <ele>146.19999694824</ele>
        <time>2019-04-11T13:40:43Z</time>
      </trkpt>
      <trkpt lat="48.35201" lon="2.74098">
        <ele>146.19999694824</ele>
        <time>2019-04-11T13:40:48Z</time>
      </trkpt>
      <trkpt lat="48.35196" lon="2.74095">
        <ele>146</ele>
        <time>2019-04-11T13:40:53Z</time>
      </trkpt>
      <trkpt lat="48.35191" lon="2.74092">
        <ele>145.39999389648</ele>
        <time>2019-04-11T13:40:58Z</time>
      </trkpt>
      <trkpt lat="48.35186" lon="2.74087">
        <ele>145.19999694824</ele>
        <time>2019-04-11T13:41:03Z</time>
      </trkpt>
      <trkpt lat="48.35181" lon="2.74083">
        <ele>144.80000305176</ele>
        <time>2019-04-11T13:41:08Z</time>
      </trkpt>
      <trkpt lat="48.35178" lon="2.74077">
        <ele>144.60000610352</ele>
        <time>2019-04-11T13:41:13Z</time>
      </trkpt>
      <trkpt lat="48.35175" lon="2.74072">
        <ele>144.39999389648</ele>
        <time>2019-04-11T13:41:18Z</time>
      </trkpt>
      <trkpt lat="48.35171" lon="2.74064">
        <ele>144.39999389648</ele>
        <time>2019-04-11T13:41:23Z</time>
      </trkpt>
      <trkpt lat="48.35166" lon="2.74058">
        <ele>144.39999389648</ele>
        <time>2019-04-11T13:41:28Z</time>
      </trkpt>
      <trkpt lat="48.35161" lon="2.74053">
        <ele>144.39999389648</ele>
        <time>2019-04-11T13:41:33Z</time>
      </trkpt>
      <trkpt lat="48.35158" lon="2.74049">
        <ele>144.19999694824</ele>
        <time>2019-04-11T13:41:38Z</time>
      </trkpt>
      <trkpt lat="48.35152" lon="2.74044">
        <ele>144</ele>
        <time>2019-04-11T13:41:43Z</time>
      </trkpt>
      <trkpt lat="48.35148" lon="2.74039">
        <ele>144</ele>
        <time>2019-04-11T13:41:48Z</time>
      </trkpt>
      <trkpt lat="48.35145" lon="2.74031">
        <ele>143.80000305176</ele>
        <time>2019-04-11T13:41:53Z</time>
      </trkpt>
      <trkpt lat="48.35145" lon="2.74022">
        <ele>143.60000610352</ele>
        <time>2019-04-11T13:41:58Z</time>
      </trkpt>
      <trkpt lat="48.35146" lon="2.74014">
        <ele>143.39999389648</ele>
        <time>2019-04-11T13:42:03Z</time>
      </trkpt>
      <trkpt lat="48.35146" lon="2.74004">
        <ele>143.19999694824</ele>
        <time>2019-04-11T13:42:08Z</time>
      </trkpt>
      <trkpt lat="48.35147" lon="2.73995">
        <ele>143.19999694824</ele>
        <time>2019-04-11T13:42:13Z</time>
      </trkpt>
      <trkpt lat="48.35148" lon="2.73988">
        <ele>143.19999694824</ele>
        <time>2019-04-11T13:42:18Z</time>
      </trkpt>
      <trkpt lat="48.35148" lon="2.7398">
        <ele>143.19999694824</ele>
        <time>2019-04-11T13:42:23Z</time>
      </trkpt>
      <trkpt lat="48.35148" lon="2.73972">
        <ele>143.19999694824</ele>
        <time>2019-04-11T13:42:28Z</time>
      </trkpt>
      <trkpt lat="48.35149" lon="2.73963">
        <ele>143.39999389648</ele>
        <time>2019-04-11T13:42:33Z</time>
      </trkpt>
      <trkpt lat="48.35148" lon="2.73954">
        <ele>143.39999389648</ele>
        <time>2019-04-11T13:42:38Z</time>
      </trkpt>
      <trkpt lat="48.35146" lon="2.73946">
        <ele>143.39999389648</ele>
        <time>2019-04-11T13:42:43Z</time>
      </trkpt>
      <trkpt lat="48.35145" lon="2.73939">
        <ele>142.80000305176</ele>
        <time>2019-04-11T13:42:48Z</time>
      </trkpt>
      <trkpt lat="48.35144" lon="2.73931">
        <ele>142.80000305176</ele>
        <time>2019-04-11T13:42:53Z</time>
      </trkpt>
      <trkpt lat="48.35142" lon="2.73922">
        <ele>142.80000305176</ele>
        <time>2019-04-11T13:42:58Z</time>
      </trkpt>
      <trkpt lat="48.35141" lon="2.73914">
        <ele>143</ele>
        <time>2019-04-11T13:43:03Z</time>
      </trkpt>
      <trkpt lat="48.35139" lon="2.73906">
        <ele>143</ele>
        <time>2019-04-11T13:43:08Z</time>
      </trkpt>
      <trkpt lat="48.35137" lon="2.73898">
        <ele>143</ele>
        <time>2019-04-11T13:43:13Z</time>
      </trkpt>
      <trkpt lat="48.35137" lon="2.73891">
        <ele>142.80000305176</ele>
        <time>2019-04-11T13:43:18Z</time>
      </trkpt>
      <trkpt lat="48.35136" lon="2.73881">
        <ele>142.80000305176</ele>
        <time>2019-04-11T13:43:23Z</time>
      </trkpt>
      <trkpt lat="48.35135" lon="2.73872">
        <ele>142.39999389648</ele>
        <time>2019-04-11T13:43:28Z</time>
      </trkpt>
      <trkpt lat="48.35133" lon="2.73864">
        <ele>142.19999694824</ele>
        <time>2019-04-11T13:43:33Z</time>
      </trkpt>
      <trkpt lat="48.35131" lon="2.73855">
        <ele>141.60000610352</ele>
        <time>2019-04-11T13:43:38Z</time>
      </trkpt>
      <trkpt lat="48.35131" lon="2.73846">
        <ele>141</ele>
        <time>2019-04-11T13:43:43Z</time>
      </trkpt>
      <trkpt lat="48.35129" lon="2.73838">
        <ele>140.19999694824</ele>
        <time>2019-04-11T13:43:48Z</time>
      </trkpt>
      <trkpt lat="48.35127" lon="2.7383">
        <ele>139.60000610352</ele>
        <time>2019-04-11T13:43:53Z</time>
      </trkpt>
      <trkpt lat="48.35126" lon="2.73821">
        <ele>139.19999694824</ele>
        <time>2019-04-11T13:43:58Z</time>
      </trkpt>
      <trkpt lat="48.35124" lon="2.73812">
        <ele>139</ele>
        <time>2019-04-11T13:44:03Z</time>
      </trkpt>
      <trkpt lat="48.35123" lon="2.73804">
        <ele>138.80000305176</ele>
        <time>2019-04-11T13:44:08Z</time>
      </trkpt>
      <trkpt lat="48.35121" lon="2.73793">
        <ele>138.39999389648</ele>
        <time>2019-04-11T13:44:13Z</time>
      </trkpt>
      <trkpt lat="48.35119" lon="2.73785">
        <ele>138.19999694824</ele>
        <time>2019-04-11T13:44:18Z</time>
      </trkpt>
      <trkpt lat="48.35118" lon="2.73777">
        <ele>138</ele>
        <time>2019-04-11T13:44:23Z</time>
      </trkpt>
      <trkpt lat="48.35117" lon="2.73769">
        <ele>138</ele>
        <time>2019-04-11T13:44:28Z</time>
      </trkpt>
      <trkpt lat="48.35117" lon="2.73761">
        <ele>138</ele>
        <time>2019-04-11T13:44:33Z</time>
      </trkpt>
      <trkpt lat="48.35115" lon="2.73751">
        <ele>138</ele>
        <time>2019-04-11T13:44:38Z</time>
      </trkpt>
      <trkpt lat="48.35113" lon="2.73742">
        <ele>138</ele>
        <time>2019-04-11T13:44:43Z</time>
      </trkpt>
      <trkpt lat="48.35112" lon="2.73732">
        <ele>137.80000305176</ele>
        <time>2019-04-11T13:44:48Z</time>
      </trkpt>
      <trkpt lat="48.35112" lon="2.73723">
        <ele>137.39999389648</ele>
        <time>2019-04-11T13:44:53Z</time>
      </trkpt>
      <trkpt lat="48.35112" lon="2.73714">
        <ele>137.19999694824</ele>
        <time>2019-04-11T13:44:58Z</time>
      </trkpt>
      <trkpt lat="48.35112" lon="2.73706">
        <ele>136.80000305176</ele>
        <time>2019-04-11T13:45:03Z</time>
      </trkpt>
      <trkpt lat="48.35111" lon="2.73698">
        <ele>136.19999694824</ele>
        <time>2019-04-11T13:45:08Z</time>
      </trkpt>
      <trkpt lat="48.35112" lon="2.73687">
        <ele>135.60000610352</ele>
        <time>2019-04-11T13:45:13Z</time>
      </trkpt>
      <trkpt lat="48.35112" lon="2.73679">
        <ele>135.19999694824</ele>
        <time>2019-04-11T13:45:18Z</time>
      </trkpt>
      <trkpt lat="48.35113" lon="2.73671">
        <ele>135</ele>
        <time>2019-04-11T13:45:23Z</time>
      </trkpt>
      <trkpt lat="48.35115" lon="2.7366">
        <ele>134.60000610352</ele>
        <time>2019-04-11T13:45:28Z</time>
      </trkpt>
      <trkpt lat="48.35115" lon="2.73652">
        <ele>134.19999694824</ele>
        <time>2019-04-11T13:45:33Z</time>
      </trkpt>
      <trkpt lat="48.35116" lon="2.73645">
        <ele>133.80000305176</ele>
        <time>2019-04-11T13:45:38Z</time>
      </trkpt>
      <trkpt lat="48.35117" lon="2.73638">
        <ele>133.19999694824</ele>
        <time>2019-04-11T13:45:43Z</time>
      </trkpt>
      <trkpt lat="48.35117" lon="2.73629">
        <ele>132.60000610352</ele>
        <time>2019-04-11T13:45:48Z</time>
      </trkpt>
      <trkpt lat="48.35118" lon="2.73619">
        <ele>132</ele>
        <time>2019-04-11T13:45:53Z</time>
      </trkpt>
      <trkpt lat="48.35117" lon="2.73611">
        <ele>131.39999389648</ele>
        <time>2019-04-11T13:45:58Z</time>
      </trkpt>
      <trkpt lat="48.35118" lon="2.73603">
        <ele>131</ele>
        <time>2019-04-11T13:46:03Z</time>
      </trkpt>
      <trkpt lat="48.35118" lon="2.73594">
        <ele>130.80000305176</ele>
        <time>2019-04-11T13:46:08Z</time>
      </trkpt>
      <trkpt lat="48.35119" lon="2.73586">
        <ele>130.19999694824</ele>
        <time>2019-04-11T13:46:13Z</time>
      </trkpt>
      <trkpt lat="48.35118" lon="2.73577">
        <ele>129.60000610352</ele>
        <time>2019-04-11T13:46:18Z</time>
      </trkpt>
      <trkpt lat="48.35118" lon="2.73569">
        <ele>129</ele>
        <time>2019-04-11T13:46:23Z</time>
      </trkpt>
      <trkpt lat="48.35118" lon="2.73561">
        <ele>128.19999694824</ele>
        <time>2019-04-11T13:46:28Z</time>
      </trkpt>
      <trkpt lat="48.35118" lon="2.73551">
        <ele>128</ele>
        <time>2019-04-11T13:46:33Z</time>
      </trkpt>
      <trkpt lat="48.35119" lon="2.73541">
        <ele>128</ele>
        <time>2019-04-11T13:46:38Z</time>
      </trkpt>
      <trkpt lat="48.3512" lon="2.73532">
        <ele>127.59999847412</ele>
        <time>2019-04-11T13:46:43Z</time>
      </trkpt>
      <trkpt lat="48.35122" lon="2.73521">
        <ele>127.59999847412</ele>
        <time>2019-04-11T13:46:48Z</time>
      </trkpt>
      <trkpt lat="48.35123" lon="2.73509">
        <ele>127</ele>
        <time>2019-04-11T13:46:53Z</time>
      </trkpt>
      <trkpt lat="48.35123" lon="2.73501">
        <ele>126.59999847412</ele>
        <time>2019-04-11T13:46:58Z</time>
      </trkpt>
      <trkpt lat="48.35124" lon="2.73492">
        <ele>126.40000152588</ele>
        <time>2019-04-11T13:47:03Z</time>
      </trkpt>
      <trkpt lat="48.35125" lon="2.73485">
        <ele>126.19999694824</ele>
        <time>2019-04-11T13:47:08Z</time>
      </trkpt>
      <trkpt lat="48.35125" lon="2.73477">
        <ele>126</ele>
        <time>2019-04-11T13:47:13Z</time>
      </trkpt>
      <trkpt lat="48.35125" lon="2.73465">
        <ele>125.59999847412</ele>
        <time>2019-04-11T13:47:18Z</time>
      </trkpt>
      <trkpt lat="48.35125" lon="2.73457">
        <ele>125.19999694824</ele>
        <time>2019-04-11T13:47:23Z</time>
      </trkpt>
      <trkpt lat="48.35126" lon="2.73449">
        <ele>125</ele>
        <time>2019-04-11T13:47:28Z</time>
      </trkpt>
      <trkpt lat="48.35126" lon="2.73443">
        <ele>124.59999847412</ele>
        <time>2019-04-11T13:47:33Z</time>
      </trkpt>
      <trkpt lat="48.35127" lon="2.73434">
        <ele>124.19999694824</ele>
        <time>2019-04-11T13:47:38Z</time>
      </trkpt>
      <trkpt lat="48.35127" lon="2.73428">
        <ele>124.19999694824</ele>
        <time>2019-04-11T13:47:43Z</time>
      </trkpt>
      <trkpt lat="48.35129" lon="2.73417">
        <ele>123.80000305176</ele>
        <time>2019-04-11T13:47:48Z</time>
      </trkpt>
      <trkpt lat="48.3513" lon="2.73404">
        <ele>123.59999847412</ele>
        <time>2019-04-11T13:47:53Z</time>
      </trkpt>
      <trkpt lat="48.3513" lon="2.73395">
        <ele>123.40000152588</ele>
        <time>2019-04-11T13:47:58Z</time>
      </trkpt>
      <trkpt lat="48.3513" lon="2.73386">
        <ele>123.19999694824</ele>
        <time>2019-04-11T13:48:03Z</time>
      </trkpt>
      <trkpt lat="48.35131" lon="2.73376">
        <ele>123</ele>
        <time>2019-04-11T13:48:08Z</time>
      </trkpt>
      <trkpt lat="48.35131" lon="2.73365">
        <ele>122.59999847412</ele>
        <time>2019-04-11T13:48:13Z</time>
      </trkpt>
      <trkpt lat="48.35133" lon="2.73355">
        <ele>122.19999694824</ele>
        <time>2019-04-11T13:48:18Z</time>
      </trkpt>
      <trkpt lat="48.35136" lon="2.73347">
        <ele>121.80000305176</ele>
        <time>2019-04-11T13:48:23Z</time>
      </trkpt>
      <trkpt lat="48.35138" lon="2.73336">
        <ele>121.19999694824</ele>
        <time>2019-04-11T13:48:28Z</time>
      </trkpt>
      <trkpt lat="48.35141" lon="2.73325">
        <ele>120.80000305176</ele>
        <time>2019-04-11T13:48:33Z</time>
      </trkpt>
      <trkpt lat="48.35143" lon="2.7332">
        <ele>120.40000152588</ele>
        <time>2019-04-11T13:48:38Z</time>
      </trkpt>
      <trkpt lat="48.35143" lon="2.73319">
        <ele>120.19999694824</ele>
        <time>2019-04-11T13:48:43Z</time>
      </trkpt>
      <trkpt lat="48.35143" lon="2.73316">
        <ele>120.40000152588</ele>
        <time>2019-04-11T13:48:48Z</time>
      </trkpt>
      <trkpt lat="48.35142" lon="2.73316">
        <ele>120.80000305176</ele>
        <time>2019-04-11T13:48:54Z</time>
      </trkpt>
      <trkpt lat="48.35141" lon="2.73315">
        <ele>120.80000305176</ele>
        <time>2019-04-11T13:48:59Z</time>
      </trkpt>
      <trkpt lat="48.35141" lon="2.73315">
        <ele>120.80000305176</ele>
        <time>2019-04-11T13:49:04Z</time>
      </trkpt>
      <trkpt lat="48.3514" lon="2.73315">
        <ele>120.80000305176</ele>
        <time>2019-04-11T13:49:09Z</time>
      </trkpt>
      <trkpt lat="48.35139" lon="2.73315">
        <ele>120.80000305176</ele>
        <time>2019-04-11T13:49:14Z</time>
      </trkpt>
      <trkpt lat="48.35138" lon="2.73315">
        <ele>120.59999847412</ele>
        <time>2019-04-11T13:49:19Z</time>
      </trkpt>
      <trkpt lat="48.35137" lon="2.73314">
        <ele>120.40000152588</ele>
        <time>2019-04-11T13:49:24Z</time>
      </trkpt>
      <trkpt lat="48.35137" lon="2.73314">
        <ele>120.40000152588</ele>
        <time>2019-04-11T13:49:29Z</time>
      </trkpt>
      <trkpt lat="48.35136" lon="2.73313">
        <ele>120.59999847412</ele>
        <time>2019-04-11T13:49:34Z</time>
      </trkpt>
      <trkpt lat="48.35136" lon="2.73313">
        <ele>120.40000152588</ele>
        <time>2019-04-11T13:49:39Z</time>
      </trkpt>
      <trkpt lat="48.35136" lon="2.73313">
        <ele>120.40000152588</ele>
        <time>2019-04-11T13:49:44Z</time>
      </trkpt>
      <trkpt lat="48.35135" lon="2.73313">
        <ele>120.40000152588</ele>
        <time>2019-04-11T13:49:49Z</time>
      </trkpt>
      <trkpt lat="48.35134" lon="2.73313">
        <ele>120.40000152588</ele>
        <time>2019-04-11T13:49:54Z</time>
      </trkpt>
      <trkpt lat="48.35135" lon="2.73314">
        <ele>120.40000152588</ele>
        <time>2019-04-11T13:49:59Z</time>
      </trkpt>
      <trkpt lat="48.35134" lon="2.73315">
        <ele>120.40000152588</ele>
        <time>2019-04-11T13:50:04Z</time>
      </trkpt>
      <trkpt lat="48.35134" lon="2.73315">
        <ele>120.40000152588</ele>
        <time>2019-04-11T13:50:09Z</time>
      </trkpt>
      <trkpt lat="48.35135" lon="2.73315">
        <ele>120.40000152588</ele>
        <time>2019-04-11T13:50:14Z</time>
      </trkpt>
      <trkpt lat="48.35134" lon="2.73315">
        <ele>120.40000152588</ele>
        <time>2019-04-11T13:50:19Z</time>
      </trkpt>
      <trkpt lat="48.35133" lon="2.73314">
        <ele>120.40000152588</ele>
        <time>2019-04-11T13:50:24Z</time>
      </trkpt>
      <trkpt lat="48.35132" lon="2.73315">
        <ele>120.40000152588</ele>
        <time>2019-04-11T13:50:29Z</time>
      </trkpt>
      <trkpt lat="48.35131" lon="2.73315">
        <ele>120.40000152588</ele>
        <time>2019-04-11T13:50:34Z</time>
      </trkpt>
      <trkpt lat="48.35131" lon="2.73317">
        <ele>120.40000152588</ele>
        <time>2019-04-11T13:50:39Z</time>
      </trkpt>
      <trkpt lat="48.35132" lon="2.73317">
        <ele>120.40000152588</ele>
        <time>2019-04-11T13:50:44Z</time>
      </trkpt>
      <trkpt lat="48.35132" lon="2.73318">
        <ele>120.40000152588</ele>
        <time>2019-04-11T13:50:49Z</time>
      </trkpt>
      <trkpt lat="48.35132" lon="2.7332">
        <ele>120.40000152588</ele>
        <time>2019-04-11T13:50:54Z</time>
      </trkpt>
      <trkpt lat="48.35132" lon="2.73322">
        <ele>120.40000152588</ele>
        <time>2019-04-11T13:50:59Z</time>
      </trkpt>
      <trkpt lat="48.35133" lon="2.73323">
        <ele>120.40000152588</ele>
        <time>2019-04-11T13:51:04Z</time>
      </trkpt>
      <trkpt lat="48.35133" lon="2.73323">
        <ele>120.40000152588</ele>
        <time>2019-04-11T13:51:09Z</time>
      </trkpt>
      <trkpt lat="48.35134" lon="2.73323">
        <ele>120.40000152588</ele>
        <time>2019-04-11T13:51:14Z</time>
      </trkpt>
      <trkpt lat="48.35135" lon="2.73321">
        <ele>120.40000152588</ele>
        <time>2019-04-11T13:51:19Z</time>
      </trkpt>
      <trkpt lat="48.35136" lon="2.73321">
        <ele>120.40000152588</ele>
        <time>2019-04-11T13:51:24Z</time>
      </trkpt>
      <trkpt lat="48.35136" lon="2.73319">
        <ele>120.40000152588</ele>
        <time>2019-04-11T13:51:29Z</time>
      </trkpt>
      <trkpt lat="48.35136" lon="2.73318">
        <ele>120.40000152588</ele>
        <time>2019-04-11T13:51:34Z</time>
      </trkpt>
      <trkpt lat="48.35135" lon="2.73315">
        <ele>120.40000152588</ele>
        <time>2019-04-11T13:51:39Z</time>
      </trkpt>
      <trkpt lat="48.35136" lon="2.73314">
        <ele>120.40000152588</ele>
        <time>2019-04-11T13:51:44Z</time>
      </trkpt>
      <trkpt lat="48.35135" lon="2.73313">
        <ele>120.40000152588</ele>
        <time>2019-04-11T13:51:49Z</time>
      </trkpt>
      <trkpt lat="48.35136" lon="2.73309">
        <ele>120.40000152588</ele>
        <time>2019-04-11T13:51:54Z</time>
      </trkpt>
      <trkpt lat="48.35138" lon="2.73299">
        <ele>120.40000152588</ele>
        <time>2019-04-11T13:51:59Z</time>
      </trkpt>
      <trkpt lat="48.35142" lon="2.73294">
        <ele>120.40000152588</ele>
        <time>2019-04-11T13:52:04Z</time>
      </trkpt>
      <trkpt lat="48.35145" lon="2.73286">
        <ele>120.40000152588</ele>
        <time>2019-04-11T13:52:09Z</time>
      </trkpt>
      <trkpt lat="48.35148" lon="2.73279">
        <ele>120.40000152588</ele>
        <time>2019-04-11T13:52:14Z</time>
      </trkpt>
      <trkpt lat="48.35151" lon="2.73271">
        <ele>120.40000152588</ele>
        <time>2019-04-11T13:52:19Z</time>
      </trkpt>
      <trkpt lat="48.35153" lon="2.73263">
        <ele>119.19999694824</ele>
        <time>2019-04-11T13:52:24Z</time>
      </trkpt>
      <trkpt lat="48.35156" lon="2.73256">
        <ele>118.40000152588</ele>
        <time>2019-04-11T13:52:29Z</time>
      </trkpt>
      <trkpt lat="48.35158" lon="2.73249">
        <ele>118.19999694824</ele>
        <time>2019-04-11T13:52:34Z</time>
      </trkpt>
      <trkpt lat="48.35161" lon="2.73242">
        <ele>118</ele>
        <time>2019-04-11T13:52:39Z</time>
      </trkpt>
      <trkpt lat="48.35164" lon="2.73234">
        <ele>117.80000305176</ele>
        <time>2019-04-11T13:52:44Z</time>
      </trkpt>
      <trkpt lat="48.35166" lon="2.73226">
        <ele>117.40000152588</ele>
        <time>2019-04-11T13:52:49Z</time>
      </trkpt>
      <trkpt lat="48.35167" lon="2.73219">
        <ele>116.80000305176</ele>
        <time>2019-04-11T13:52:54Z</time>
      </trkpt>
      <trkpt lat="48.35169" lon="2.73209">
        <ele>116</ele>
        <time>2019-04-11T13:52:59Z</time>
      </trkpt>
      <trkpt lat="48.35169" lon="2.73201">
        <ele>115.59999847412</ele>
        <time>2019-04-11T13:53:04Z</time>
      </trkpt>
      <trkpt lat="48.35171" lon="2.73193">
        <ele>115.40000152588</ele>
        <time>2019-04-11T13:53:09Z</time>
      </trkpt>
      <trkpt lat="48.35173" lon="2.73183">
        <ele>115</ele>
        <time>2019-04-11T13:53:14Z</time>
      </trkpt>
      <trkpt lat="48.35177" lon="2.73173">
        <ele>114.59999847412</ele>
        <time>2019-04-11T13:53:19Z</time>
      </trkpt>
      <trkpt lat="48.3518" lon="2.73165">
        <ele>114.19999694824</ele>
        <time>2019-04-11T13:53:24Z</time>
      </trkpt>
      <trkpt lat="48.35183" lon="2.73157">
        <ele>114</ele>
        <time>2019-04-11T13:53:29Z</time>
      </trkpt>
      <trkpt lat="48.35186" lon="2.73149">
        <ele>114</ele>
        <time>2019-04-11T13:53:34Z</time>
      </trkpt>
      <trkpt lat="48.35189" lon="2.73141">
        <ele>114</ele>
        <time>2019-04-11T13:53:39Z</time>
      </trkpt>
      <trkpt lat="48.35192" lon="2.73133">
        <ele>113.59999847412</ele>
        <time>2019-04-11T13:53:44Z</time>
      </trkpt>
      <trkpt lat="48.35196" lon="2.73125">
        <ele>113.40000152588</ele>
        <time>2019-04-11T13:53:49Z</time>
      </trkpt>
      <trkpt lat="48.35198" lon="2.73117">
        <ele>113</ele>
        <time>2019-04-11T13:53:54Z</time>
      </trkpt>
      <trkpt lat="48.35201" lon="2.73109">
        <ele>112.40000152588</ele>
        <time>2019-04-11T13:53:59Z</time>
      </trkpt>
      <trkpt lat="48.35205" lon="2.731">
        <ele>112.19999694824</ele>
        <time>2019-04-11T13:54:04Z</time>
      </trkpt>
      <trkpt lat="48.35208" lon="2.73089">
        <ele>111.40000152588</ele>
        <time>2019-04-11T13:54:09Z</time>
      </trkpt>
      <trkpt lat="48.35212" lon="2.7308">
        <ele>111</ele>
        <time>2019-04-11T13:54:14Z</time>
      </trkpt>
      <trkpt lat="48.35215" lon="2.73072">
        <ele>110.80000305176</ele>
        <time>2019-04-11T13:54:19Z</time>
      </trkpt>
      <trkpt lat="48.35218" lon="2.73064">
        <ele>110.59999847412</ele>
        <time>2019-04-11T13:54:24Z</time>
      </trkpt>
      <trkpt lat="48.35221" lon="2.73056">
        <ele>110.40000152588</ele>
        <time>2019-04-11T13:54:29Z</time>
      </trkpt>
      <trkpt lat="48.35223" lon="2.73051">
        <ele>110</ele>
        <time>2019-04-11T13:54:34Z</time>
      </trkpt>
      <trkpt lat="48.35227" lon="2.73044">
        <ele>109.80000305176</ele>
        <time>2019-04-11T13:54:39Z</time>
      </trkpt>
      <trkpt lat="48.35232" lon="2.73034">
        <ele>109.59999847412</ele>
        <time>2019-04-11T13:54:44Z</time>
      </trkpt>
      <trkpt lat="48.35236" lon="2.73029">
        <ele>109.40000152588</ele>
        <time>2019-04-11T13:54:49Z</time>
      </trkpt>
      <trkpt lat="48.3524" lon="2.7302">
        <ele>109.19999694824</ele>
        <time>2019-04-11T13:54:54Z</time>
      </trkpt>
      <trkpt lat="48.35245" lon="2.73014">
        <ele>109.19999694824</ele>
        <time>2019-04-11T13:54:59Z</time>
      </trkpt>
      <trkpt lat="48.35249" lon="2.7301">
        <ele>109</ele>
        <time>2019-04-11T13:55:04Z</time>
      </trkpt>
      <trkpt lat="48.35254" lon="2.73004">
        <ele>108.80000305176</ele>
        <time>2019-04-11T13:55:09Z</time>
      </trkpt>
      <trkpt lat="48.35258" lon="2.72999">
        <ele>108.80000305176</ele>
        <time>2019-04-11T13:55:14Z</time>
      </trkpt>
      <trkpt lat="48.35263" lon="2.72992">
        <ele>108.40000152588</ele>
        <time>2019-04-11T13:55:19Z</time>
      </trkpt>
      <trkpt lat="48.35267" lon="2.72985">
        <ele>108</ele>
        <time>2019-04-11T13:55:24Z</time>
      </trkpt>
      <trkpt lat="48.35271" lon="2.7298">
        <ele>107.80000305176</ele>
        <time>2019-04-11T13:55:29Z</time>
      </trkpt>
      <trkpt lat="48.35274" lon="2.72974">
        <ele>107.80000305176</ele>
        <time>2019-04-11T13:55:34Z</time>
      </trkpt>
      <trkpt lat="48.35279" lon="2.72969">
        <ele>107.80000305176</ele>
        <time>2019-04-11T13:55:39Z</time>
      </trkpt>
      <trkpt lat="48.35285" lon="2.72962">
        <ele>107.59999847412</ele>
        <time>2019-04-11T13:55:44Z</time>
      </trkpt>
      <trkpt lat="48.35289" lon="2.72954">
        <ele>107.80000305176</ele>
        <time>2019-04-11T13:55:49Z</time>
      </trkpt>
      <trkpt lat="48.35294" lon="2.72948">
        <ele>107.80000305176</ele>
        <time>2019-04-11T13:55:54Z</time>
      </trkpt>
      <trkpt lat="48.35298" lon="2.72942">
        <ele>107.40000152588</ele>
        <time>2019-04-11T13:55:59Z</time>
      </trkpt>
      <trkpt lat="48.35304" lon="2.72935">
        <ele>107.40000152588</ele>
        <time>2019-04-11T13:56:04Z</time>
      </trkpt>
      <trkpt lat="48.35309" lon="2.72927">
        <ele>107.19999694824</ele>
        <time>2019-04-11T13:56:09Z</time>
      </trkpt>
      <trkpt lat="48.35314" lon="2.72919">
        <ele>107</ele>
        <time>2019-04-11T13:56:14Z</time>
      </trkpt>
      <trkpt lat="48.35318" lon="2.72913">
        <ele>106.59999847412</ele>
        <time>2019-04-11T13:56:19Z</time>
      </trkpt>
      <trkpt lat="48.35322" lon="2.72907">
        <ele>106.40000152588</ele>
        <time>2019-04-11T13:56:24Z</time>
      </trkpt>
      <trkpt lat="48.35327" lon="2.72899">
        <ele>106.59999847412</ele>
        <time>2019-04-11T13:56:29Z</time>
      </trkpt>
      <trkpt lat="48.35331" lon="2.72891">
        <ele>106.40000152588</ele>
        <time>2019-04-11T13:56:34Z</time>
      </trkpt>
      <trkpt lat="48.35334" lon="2.72887">
        <ele>106.19999694824</ele>
        <time>2019-04-11T13:56:39Z</time>
      </trkpt>
      <trkpt lat="48.35339" lon="2.72883">
        <ele>106.19999694824</ele>
        <time>2019-04-11T13:56:44Z</time>
      </trkpt>
      <trkpt lat="48.35343" lon="2.72879">
        <ele>106</ele>
        <time>2019-04-11T13:56:49Z</time>
      </trkpt>
      <trkpt lat="48.35347" lon="2.72873">
        <ele>105.59999847412</ele>
        <time>2019-04-11T13:56:54Z</time>
      </trkpt>
      <trkpt lat="48.35353" lon="2.72866">
        <ele>105.19999694824</ele>
        <time>2019-04-11T13:56:59Z</time>
      </trkpt>
      <trkpt lat="48.35358" lon="2.72861">
        <ele>104.80000305176</ele>
        <time>2019-04-11T13:57:04Z</time>
      </trkpt>
      <trkpt lat="48.35364" lon="2.72854">
        <ele>104.59999847412</ele>
        <time>2019-04-11T13:57:09Z</time>
      </trkpt>
      <trkpt lat="48.3537" lon="2.72844">
        <ele>104.59999847412</ele>
        <time>2019-04-11T13:57:14Z</time>
      </trkpt>
      <trkpt lat="48.35375" lon="2.72836">
        <ele>104.59999847412</ele>
        <time>2019-04-11T13:57:19Z</time>
      </trkpt>
      <trkpt lat="48.35379" lon="2.72829">
        <ele>104.40000152588</ele>
        <time>2019-04-11T13:57:24Z</time>
      </trkpt>
      <trkpt lat="48.35384" lon="2.72824">
        <ele>104.80000305176</ele>
        <time>2019-04-11T13:57:29Z</time>
      </trkpt>
      <trkpt lat="48.35389" lon="2.72816">
        <ele>104.59999847412</ele>
        <time>2019-04-11T13:57:34Z</time>
      </trkpt>
      <trkpt lat="48.35394" lon="2.72808">
        <ele>104.40000152588</ele>
        <time>2019-04-11T13:57:39Z</time>
      </trkpt>
      <trkpt lat="48.35398" lon="2.72801">
        <ele>104.40000152588</ele>
        <time>2019-04-11T13:57:44Z</time>
      </trkpt>
      <trkpt lat="48.35403" lon="2.72795">
        <ele>104</ele>
        <time>2019-04-11T13:57:49Z</time>
      </trkpt>
      <trkpt lat="48.35406" lon="2.7279">
        <ele>103.80000305176</ele>
        <time>2019-04-11T13:57:54Z</time>
      </trkpt>
      <trkpt lat="48.35411" lon="2.72784">
        <ele>103.80000305176</ele>
        <time>2019-04-11T13:57:59Z</time>
      </trkpt>
      <trkpt lat="48.35413" lon="2.72777">
        <ele>103.59999847412</ele>
        <time>2019-04-11T13:58:04Z</time>
      </trkpt>
      <trkpt lat="48.35417" lon="2.72773">
        <ele>103.59999847412</ele>
        <time>2019-04-11T13:58:09Z</time>
      </trkpt>
      <trkpt lat="48.35421" lon="2.72768">
        <ele>103.40000152588</ele>
        <time>2019-04-11T13:58:14Z</time>
      </trkpt>
      <trkpt lat="48.35425" lon="2.72764">
        <ele>103.19999694824</ele>
        <time>2019-04-11T13:58:19Z</time>
      </trkpt>
      <trkpt lat="48.35429" lon="2.72756">
        <ele>103</ele>
        <time>2019-04-11T13:58:24Z</time>
      </trkpt>
      <trkpt lat="48.35433" lon="2.72749">
        <ele>103.40000152588</ele>
        <time>2019-04-11T13:58:29Z</time>
      </trkpt>
      <trkpt lat="48.35436" lon="2.72742">
        <ele>103.59999847412</ele>
        <time>2019-04-11T13:58:34Z</time>
      </trkpt>
      <trkpt lat="48.35438" lon="2.72736">
        <ele>103.40000152588</ele>
        <time>2019-04-11T13:58:39Z</time>
      </trkpt>
      <trkpt lat="48.35441" lon="2.72732">
        <ele>103.40000152588</ele>
        <time>2019-04-11T13:58:44Z</time>
      </trkpt>
      <trkpt lat="48.35442" lon="2.72729">
        <ele>103.19999694824</ele>
        <time>2019-04-11T13:58:49Z</time>
      </trkpt>
      <trkpt lat="48.35445" lon="2.72725">
        <ele>103.19999694824</ele>
        <time>2019-04-11T13:58:54Z</time>
      </trkpt>
      <trkpt lat="48.35451" lon="2.7272">
        <ele>103.19999694824</ele>
        <time>2019-04-11T13:58:59Z</time>
      </trkpt>
      <trkpt lat="48.35455" lon="2.72717">
        <ele>103.19999694824</ele>
        <time>2019-04-11T13:59:04Z</time>
      </trkpt>
      <trkpt lat="48.35462" lon="2.72713">
        <ele>103.19999694824</ele>
        <time>2019-04-11T13:59:09Z</time>
      </trkpt>
      <trkpt lat="48.35466" lon="2.72705">
        <ele>103.19999694824</ele>
        <time>2019-04-11T13:59:14Z</time>
      </trkpt>
      <trkpt lat="48.35469" lon="2.727">
        <ele>103.40000152588</ele>
        <time>2019-04-11T13:59:19Z</time>
      </trkpt>
      <trkpt lat="48.35475" lon="2.72693">
        <ele>103.59999847412</ele>
        <time>2019-04-11T13:59:24Z</time>
      </trkpt>
      <trkpt lat="48.3548" lon="2.72687">
        <ele>103.59999847412</ele>
        <time>2019-04-11T13:59:29Z</time>
      </trkpt>
      <trkpt lat="48.35485" lon="2.72683">
        <ele>103.80000305176</ele>
        <time>2019-04-11T13:59:34Z</time>
      </trkpt>
      <trkpt lat="48.35489" lon="2.72678">
        <ele>104.19999694824</ele>
        <time>2019-04-11T13:59:39Z</time>
      </trkpt>
      <trkpt lat="48.35493" lon="2.72672">
        <ele>104.40000152588</ele>
        <time>2019-04-11T13:59:44Z</time>
      </trkpt>
      <trkpt lat="48.35498" lon="2.72666">
        <ele>104.80000305176</ele>
        <time>2019-04-11T13:59:49Z</time>
      </trkpt>
      <trkpt lat="48.35503" lon="2.72662">
        <ele>105.19999694824</ele>
        <time>2019-04-11T13:59:54Z</time>
      </trkpt>
      <trkpt lat="48.35508" lon="2.72657">
        <ele>105.40000152588</ele>
        <time>2019-04-11T13:59:59Z</time>
      </trkpt>
      <trkpt lat="48.35512" lon="2.72652">
        <ele>105.80000305176</ele>
        <time>2019-04-11T14:00:04Z</time>
      </trkpt>
      <trkpt lat="48.35515" lon="2.72647">
        <ele>106</ele>
        <time>2019-04-11T14:00:09Z</time>
      </trkpt>
      <trkpt lat="48.35519" lon="2.72642">
        <ele>106.80000305176</ele>
        <time>2019-04-11T14:00:14Z</time>
      </trkpt>
      <trkpt lat="48.35524" lon="2.7264">
        <ele>107</ele>
        <time>2019-04-11T14:00:19Z</time>
      </trkpt>
      <trkpt lat="48.35529" lon="2.72635">
        <ele>107.80000305176</ele>
        <time>2019-04-11T14:00:24Z</time>
      </trkpt>
      <trkpt lat="48.35533" lon="2.72632">
        <ele>108.19999694824</ele>
        <time>2019-04-11T14:00:29Z</time>
      </trkpt>
      <trkpt lat="48.35536" lon="2.72629">
        <ele>108.80000305176</ele>
        <time>2019-04-11T14:00:34Z</time>
      </trkpt>
      <trkpt lat="48.35542" lon="2.72626">
        <ele>109.59999847412</ele>
        <time>2019-04-11T14:00:39Z</time>
      </trkpt>
      <trkpt lat="48.35548" lon="2.72621">
        <ele>110</ele>
        <time>2019-04-11T14:00:44Z</time>
      </trkpt>
      <trkpt lat="48.35551" lon="2.72616">
        <ele>110.59999847412</ele>
        <time>2019-04-11T14:00:49Z</time>
      </trkpt>
      <trkpt lat="48.35554" lon="2.72608">
        <ele>111.19999694824</ele>
        <time>2019-04-11T14:00:54Z</time>
      </trkpt>
      <trkpt lat="48.35557" lon="2.72602">
        <ele>111.80000305176</ele>
        <time>2019-04-11T14:00:59Z</time>
      </trkpt>
      <trkpt lat="48.3556" lon="2.72598">
        <ele>112.80000305176</ele>
        <time>2019-04-11T14:01:04Z</time>
      </trkpt>
      <trkpt lat="48.35564" lon="2.72595">
        <ele>113.40000152588</ele>
        <time>2019-04-11T14:01:09Z</time>
      </trkpt>
      <trkpt lat="48.35568" lon="2.72592">
        <ele>113.80000305176</ele>
        <time>2019-04-11T14:01:14Z</time>
      </trkpt>
      <trkpt lat="48.35573" lon="2.72588">
        <ele>114.40000152588</ele>
        <time>2019-04-11T14:01:19Z</time>
      </trkpt>
      <trkpt lat="48.35578" lon="2.72584">
        <ele>115</ele>
        <time>2019-04-11T14:01:24Z</time>
      </trkpt>
      <trkpt lat="48.35583" lon="2.72581">
        <ele>115.59999847412</ele>
        <time>2019-04-11T14:01:29Z</time>
      </trkpt>
      <trkpt lat="48.35588" lon="2.72578">
        <ele>115.80000305176</ele>
        <time>2019-04-11T14:01:34Z</time>
      </trkpt>
      <trkpt lat="48.35594" lon="2.72576">
        <ele>115.80000305176</ele>
        <time>2019-04-11T14:01:39Z</time>
      </trkpt>
      <trkpt lat="48.356" lon="2.72577">
        <ele>115.80000305176</ele>
        <time>2019-04-11T14:01:44Z</time>
      </trkpt>
      <trkpt lat="48.35606" lon="2.72579">
        <ele>115.40000152588</ele>
        <time>2019-04-11T14:01:49Z</time>
      </trkpt>
      <trkpt lat="48.3561" lon="2.72579">
        <ele>114.59999847412</ele>
        <time>2019-04-11T14:01:54Z</time>
      </trkpt>
      <trkpt lat="48.35616" lon="2.72579">
        <ele>114.19999694824</ele>
        <time>2019-04-11T14:01:59Z</time>
      </trkpt>
      <trkpt lat="48.3562" lon="2.72579">
        <ele>113.59999847412</ele>
        <time>2019-04-11T14:02:04Z</time>
      </trkpt>
      <trkpt lat="48.35623" lon="2.72578">
        <ele>113</ele>
        <time>2019-04-11T14:02:09Z</time>
      </trkpt>
      <trkpt lat="48.35629" lon="2.72577">
        <ele>112.40000152588</ele>
        <time>2019-04-11T14:02:14Z</time>
      </trkpt>
      <trkpt lat="48.35636" lon="2.72578">
        <ele>112</ele>
        <time>2019-04-11T14:02:19Z</time>
      </trkpt>
      <trkpt lat="48.35642" lon="2.7258">
        <ele>111.40000152588</ele>
        <time>2019-04-11T14:02:24Z</time>
      </trkpt>
      <trkpt lat="48.3565" lon="2.72581">
        <ele>110.80000305176</ele>
        <time>2019-04-11T14:02:29Z</time>
      </trkpt>
      <trkpt lat="48.35657" lon="2.7258">
        <ele>110.19999694824</ele>
        <time>2019-04-11T14:02:34Z</time>
      </trkpt>
      <trkpt lat="48.35661" lon="2.72579">
        <ele>109.19999694824</ele>
        <time>2019-04-11T14:02:39Z</time>
      </trkpt>
      <trkpt lat="48.35668" lon="2.7258">
        <ele>108</ele>
        <time>2019-04-11T14:02:44Z</time>
      </trkpt>
      <trkpt lat="48.35672" lon="2.72581">
        <ele>107.19999694824</ele>
        <time>2019-04-11T14:02:49Z</time>
      </trkpt>
      <trkpt lat="48.35674" lon="2.72582">
        <ele>106.40000152588</ele>
        <time>2019-04-11T14:02:54Z</time>
      </trkpt>
      <trkpt lat="48.35679" lon="2.72583">
        <ele>106.40000152588</ele>
        <time>2019-04-11T14:02:59Z</time>
      </trkpt>
      <trkpt lat="48.35681" lon="2.72584">
        <ele>106.40000152588</ele>
        <time>2019-04-11T14:03:04Z</time>
      </trkpt>
      <trkpt lat="48.35683" lon="2.72585">
        <ele>106</ele>
        <time>2019-04-11T14:03:09Z</time>
      </trkpt>
      <trkpt lat="48.35688" lon="2.72586">
        <ele>105.59999847412</ele>
        <time>2019-04-11T14:03:14Z</time>
      </trkpt>
      <trkpt lat="48.35695" lon="2.72588">
        <ele>105.59999847412</ele>
        <time>2019-04-11T14:03:19Z</time>
      </trkpt>
      <trkpt lat="48.35701" lon="2.72589">
        <ele>105.19999694824</ele>
        <time>2019-04-11T14:03:24Z</time>
      </trkpt>
      <trkpt lat="48.35706" lon="2.7259">
        <ele>104.80000305176</ele>
        <time>2019-04-11T14:03:29Z</time>
      </trkpt>
      <trkpt lat="48.3571" lon="2.72592">
        <ele>104.59999847412</ele>
        <time>2019-04-11T14:03:34Z</time>
      </trkpt>
      <trkpt lat="48.35716" lon="2.72593">
        <ele>104.19999694824</ele>
        <time>2019-04-11T14:03:39Z</time>
      </trkpt>
      <trkpt lat="48.35718" lon="2.72596">
        <ele>104</ele>
        <time>2019-04-11T14:03:44Z</time>
      </trkpt>
      <trkpt lat="48.35723" lon="2.72598">
        <ele>103.80000305176</ele>
        <time>2019-04-11T14:03:49Z</time>
      </trkpt>
      <trkpt lat="48.35731" lon="2.72599">
        <ele>103.80000305176</ele>
        <time>2019-04-11T14:03:54Z</time>
      </trkpt>
      <trkpt lat="48.35737" lon="2.72601">
        <ele>103.40000152588</ele>
        <time>2019-04-11T14:03:59Z</time>
      </trkpt>
      <trkpt lat="48.35743" lon="2.72603">
        <ele>103.19999694824</ele>
        <time>2019-04-11T14:04:04Z</time>
      </trkpt>
      <trkpt lat="48.35747" lon="2.72605">
        <ele>103</ele>
        <time>2019-04-11T14:04:09Z</time>
      </trkpt>
      <trkpt lat="48.35753" lon="2.72608">
        <ele>102.80000305176</ele>
        <time>2019-04-11T14:04:14Z</time>
      </trkpt>
      <trkpt lat="48.3576" lon="2.7261">
        <ele>102.40000152588</ele>
        <time>2019-04-11T14:04:19Z</time>
      </trkpt>
      <trkpt lat="48.35767" lon="2.72613">
        <ele>101.80000305176</ele>
        <time>2019-04-11T14:04:24Z</time>
      </trkpt>
      <trkpt lat="48.35771" lon="2.72615">
        <ele>101.59999847412</ele>
        <time>2019-04-11T14:04:29Z</time>
      </trkpt>
      <trkpt lat="48.35777" lon="2.72616">
        <ele>101</ele>
        <time>2019-04-11T14:04:34Z</time>
      </trkpt>
      <trkpt lat="48.35782" lon="2.72618">
        <ele>100.40000152588</ele>
        <time>2019-04-11T14:04:39Z</time>
      </trkpt>
      <trkpt lat="48.35788" lon="2.72619">
        <ele>99.599998474121</ele>
        <time>2019-04-11T14:04:44Z</time>
      </trkpt>
      <trkpt lat="48.35792" lon="2.72622">
        <ele>99.800003051758</ele>
        <time>2019-04-11T14:04:49Z</time>
      </trkpt>
      <trkpt lat="48.35798" lon="2.72625">
        <ele>99.800003051758</ele>
        <time>2019-04-11T14:04:54Z</time>
      </trkpt>
      <trkpt lat="48.35806" lon="2.72629">
        <ele>99.400001525879</ele>
        <time>2019-04-11T14:04:59Z</time>
      </trkpt>
      <trkpt lat="48.35812" lon="2.72631">
        <ele>99.599998474121</ele>
        <time>2019-04-11T14:05:04Z</time>
      </trkpt>
      <trkpt lat="48.35816" lon="2.72633">
        <ele>99.599998474121</ele>
        <time>2019-04-11T14:05:09Z</time>
      </trkpt>
      <trkpt lat="48.35821" lon="2.72637">
        <ele>99</ele>
        <time>2019-04-11T14:05:14Z</time>
      </trkpt>
      <trkpt lat="48.35825" lon="2.72639">
        <ele>98.599998474121</ele>
        <time>2019-04-11T14:05:19Z</time>
      </trkpt>
      <trkpt lat="48.35828" lon="2.72642">
        <ele>98.400001525879</ele>
        <time>2019-04-11T14:05:24Z</time>
      </trkpt>
      <trkpt lat="48.35833" lon="2.72644">
        <ele>98.599998474121</ele>
        <time>2019-04-11T14:05:29Z</time>
      </trkpt>
      <trkpt lat="48.35837" lon="2.72648">
        <ele>98.599998474121</ele>
        <time>2019-04-11T14:05:34Z</time>
      </trkpt>
      <trkpt lat="48.35843" lon="2.72653">
        <ele>98.199996948242</ele>
        <time>2019-04-11T14:05:39Z</time>
      </trkpt>
      <trkpt lat="48.35848" lon="2.72659">
        <ele>97.800003051758</ele>
        <time>2019-04-11T14:05:44Z</time>
      </trkpt>
      <trkpt lat="48.35852" lon="2.72664">
        <ele>97.800003051758</ele>
        <time>2019-04-11T14:05:49Z</time>
      </trkpt>
      <trkpt lat="48.35858" lon="2.72668">
        <ele>97.800003051758</ele>
        <time>2019-04-11T14:05:54Z</time>
      </trkpt>
      <trkpt lat="48.35863" lon="2.72672">
        <ele>97.400001525879</ele>
        <time>2019-04-11T14:05:59Z</time>
      </trkpt>
      <trkpt lat="48.35869" lon="2.72677">
        <ele>97.199996948242</ele>
        <time>2019-04-11T14:06:04Z</time>
      </trkpt>
      <trkpt lat="48.3587" lon="2.72678">
        <ele>97.400001525879</ele>
        <time>2019-04-11T14:06:09Z</time>
      </trkpt>
      <trkpt lat="48.35871" lon="2.72678">
        <ele>97.400001525879</ele>
        <time>2019-04-11T14:06:14Z</time>
      </trkpt>
      <trkpt lat="48.35872" lon="2.72676">
        <ele>97.400001525879</ele>
        <time>2019-04-11T14:06:19Z</time>
      </trkpt>
      <trkpt lat="48.35871" lon="2.72676">
        <ele>97.400001525879</ele>
        <time>2019-04-11T14:06:24Z</time>
      </trkpt>
      <trkpt lat="48.35871" lon="2.72676">
        <ele>97.400001525879</ele>
        <time>2019-04-11T14:06:29Z</time>
      </trkpt>
      <trkpt lat="48.35871" lon="2.72677">
        <ele>97.199996948242</ele>
        <time>2019-04-11T14:06:34Z</time>
      </trkpt>
      <trkpt lat="48.35871" lon="2.72678">
        <ele>97.400001525879</ele>
        <time>2019-04-11T14:06:39Z</time>
      </trkpt>
      <trkpt lat="48.35871" lon="2.72679">
        <ele>97.800003051758</ele>
        <time>2019-04-11T14:06:44Z</time>
      </trkpt>
      <trkpt lat="48.35871" lon="2.7268">
        <ele>97.800003051758</ele>
        <time>2019-04-11T14:06:49Z</time>
      </trkpt>
      <trkpt lat="48.35871" lon="2.7268">
        <ele>97.400001525879</ele>
        <time>2019-04-11T14:06:54Z</time>
      </trkpt>
      <trkpt lat="48.3587" lon="2.72681">
        <ele>97.199996948242</ele>
        <time>2019-04-11T14:06:59Z</time>
      </trkpt>
      <trkpt lat="48.3587" lon="2.72682">
        <ele>97</ele>
        <time>2019-04-11T14:07:04Z</time>
      </trkpt>
      <trkpt lat="48.35869" lon="2.72681">
        <ele>97.199996948242</ele>
        <time>2019-04-11T14:07:09Z</time>
      </trkpt>
      <trkpt lat="48.35868" lon="2.72681">
        <ele>97.199996948242</ele>
        <time>2019-04-11T14:07:14Z</time>
      </trkpt>
      <trkpt lat="48.35866" lon="2.72681">
        <ele>97.199996948242</ele>
        <time>2019-04-11T14:07:19Z</time>
      </trkpt>
      <trkpt lat="48.35867" lon="2.7268">
        <ele>97.199996948242</ele>
        <time>2019-04-11T14:07:24Z</time>
      </trkpt>
      <trkpt lat="48.35867" lon="2.72679">
        <ele>97.199996948242</ele>
        <time>2019-04-11T14:07:29Z</time>
      </trkpt>
      <trkpt lat="48.35867" lon="2.72677">
        <ele>97.199996948242</ele>
        <time>2019-04-11T14:07:34Z</time>
      </trkpt>
      <trkpt lat="48.35869" lon="2.72677">
        <ele>97.199996948242</ele>
        <time>2019-04-11T14:07:39Z</time>
      </trkpt>
      <trkpt lat="48.35868" lon="2.72677">
        <ele>97.199996948242</ele>
        <time>2019-04-11T14:07:44Z</time>
      </trkpt>
      <trkpt lat="48.35868" lon="2.72677">
        <ele>97.199996948242</ele>
        <time>2019-04-11T14:07:49Z</time>
      </trkpt>
      <trkpt lat="48.35869" lon="2.72677">
        <ele>97.199996948242</ele>
        <time>2019-04-11T14:07:54Z</time>
      </trkpt>
      <trkpt lat="48.3587" lon="2.72678">
        <ele>97.199996948242</ele>
        <time>2019-04-11T14:07:59Z</time>
      </trkpt>
      <trkpt lat="48.3587" lon="2.72678">
        <ele>97.199996948242</ele>
        <time>2019-04-11T14:08:04Z</time>
      </trkpt>
      <trkpt lat="48.3587" lon="2.72679">
        <ele>97.199996948242</ele>
        <time>2019-04-11T14:08:09Z</time>
      </trkpt>
      <trkpt lat="48.35869" lon="2.72679">
        <ele>97.199996948242</ele>
        <time>2019-04-11T14:08:14Z</time>
      </trkpt>
      <trkpt lat="48.35868" lon="2.72678">
        <ele>97.199996948242</ele>
        <time>2019-04-11T14:08:19Z</time>
      </trkpt>
      <trkpt lat="48.35867" lon="2.72677">
        <ele>97.199996948242</ele>
        <time>2019-04-11T14:08:24Z</time>
      </trkpt>
      <trkpt lat="48.35866" lon="2.72678">
        <ele>97.199996948242</ele>
        <time>2019-04-11T14:08:29Z</time>
      </trkpt>
      <trkpt lat="48.35866" lon="2.72678">
        <ele>97.199996948242</ele>
        <time>2019-04-11T14:08:34Z</time>
      </trkpt>
      <trkpt lat="48.35867" lon="2.72679">
        <ele>97.199996948242</ele>
        <time>2019-04-11T14:08:39Z</time>
      </trkpt>
      <trkpt lat="48.35869" lon="2.72681">
        <ele>97.199996948242</ele>
        <time>2019-04-11T14:08:44Z</time>
      </trkpt>
      <trkpt lat="48.35869" lon="2.72682">
        <ele>97.199996948242</ele>
        <time>2019-04-11T14:08:49Z</time>
      </trkpt>
      <trkpt lat="48.35869" lon="2.72682">
        <ele>97.199996948242</ele>
        <time>2019-04-11T14:08:54Z</time>
      </trkpt>
      <trkpt lat="48.35867" lon="2.72682">
        <ele>97.199996948242</ele>
        <time>2019-04-11T14:08:59Z</time>
      </trkpt>
      <trkpt lat="48.35867" lon="2.72682">
        <ele>97.199996948242</ele>
        <time>2019-04-11T14:09:04Z</time>
      </trkpt>
      <trkpt lat="48.35866" lon="2.72683">
        <ele>97.199996948242</ele>
        <time>2019-04-11T14:09:09Z</time>
      </trkpt>
      <trkpt lat="48.35866" lon="2.72683">
        <ele>97.199996948242</ele>
        <time>2019-04-11T14:09:14Z</time>
      </trkpt>
      <trkpt lat="48.35869" lon="2.72686">
        <ele>97.199996948242</ele>
        <time>2019-04-11T14:09:19Z</time>
      </trkpt>
      <trkpt lat="48.35871" lon="2.72687">
        <ele>97.199996948242</ele>
        <time>2019-04-11T14:09:24Z</time>
      </trkpt>
      <trkpt lat="48.35873" lon="2.72689">
        <ele>97.199996948242</ele>
        <time>2019-04-11T14:09:29Z</time>
      </trkpt>
      <trkpt lat="48.35878" lon="2.72691">
        <ele>97.199996948242</ele>
        <time>2019-04-11T14:09:34Z</time>
      </trkpt>
      <trkpt lat="48.35885" lon="2.72696">
        <ele>97.199996948242</ele>
        <time>2019-04-11T14:09:39Z</time>
      </trkpt>
      <trkpt lat="48.35892" lon="2.72701">
        <ele>97.199996948242</ele>
        <time>2019-04-11T14:09:44Z</time>
      </trkpt>
      <trkpt lat="48.35897" lon="2.72705">
        <ele>97.199996948242</ele>
        <time>2019-04-11T14:09:49Z</time>
      </trkpt>
      <trkpt lat="48.35901" lon="2.72708">
        <ele>97.199996948242</ele>
        <time>2019-04-11T14:09:54Z</time>
      </trkpt>
      <trkpt lat="48.35905" lon="2.72712">
        <ele>97.199996948242</ele>
        <time>2019-04-11T14:09:59Z</time>
      </trkpt>
      <trkpt lat="48.35909" lon="2.72716">
        <ele>97.199996948242</ele>
        <time>2019-04-11T14:10:04Z</time>
      </trkpt>
      <trkpt lat="48.35914" lon="2.7272">
        <ele>97.199996948242</ele>
        <time>2019-04-11T14:10:09Z</time>
      </trkpt>
      <trkpt lat="48.35919" lon="2.72724">
        <ele>96.400001525879</ele>
        <time>2019-04-11T14:10:14Z</time>
      </trkpt>
      <trkpt lat="48.35923" lon="2.72728">
        <ele>96</ele>
        <time>2019-04-11T14:10:19Z</time>
      </trkpt>
      <trkpt lat="48.35928" lon="2.72732">
        <ele>95.400001525879</ele>
        <time>2019-04-11T14:10:24Z</time>
      </trkpt>
      <trkpt lat="48.35935" lon="2.72737">
        <ele>95.199996948242</ele>
        <time>2019-04-11T14:10:29Z</time>
      </trkpt>
      <trkpt lat="48.3594" lon="2.72741">
        <ele>95.199996948242</ele>
        <time>2019-04-11T14:10:34Z</time>
      </trkpt>
      <trkpt lat="48.35945" lon="2.72746">
        <ele>95.400001525879</ele>
        <time>2019-04-11T14:10:39Z</time>
      </trkpt>
      <trkpt lat="48.3595" lon="2.72749">
        <ele>95.400001525879</ele>
        <time>2019-04-11T14:10:44Z</time>
      </trkpt>
      <trkpt lat="48.35955" lon="2.72753">
        <ele>95.199996948242</ele>
        <time>2019-04-11T14:10:49Z</time>
      </trkpt>
      <trkpt lat="48.3596" lon="2.72758">
        <ele>95</ele>
        <time>2019-04-11T14:10:54Z</time>
      </trkpt>
      <trkpt lat="48.35964" lon="2.72763">
        <ele>95.199996948242</ele>
        <time>2019-04-11T14:10:59Z</time>
      </trkpt>
      <trkpt lat="48.35968" lon="2.72768">
        <ele>95.400001525879</ele>
        <time>2019-04-11T14:11:04Z</time>
      </trkpt>
      <trkpt lat="48.35972" lon="2.72771">
        <ele>95</ele>
        <time>2019-04-11T14:11:09Z</time>
      </trkpt>
      <trkpt lat="48.35978" lon="2.72774">
        <ele>95.199996948242</ele>
        <time>2019-04-11T14:11:14Z</time>
      </trkpt>
      <trkpt lat="48.35983" lon="2.72777">
        <ele>95.400001525879</ele>
        <time>2019-04-11T14:11:19Z</time>
      </trkpt>
      <trkpt lat="48.35987" lon="2.72782">
        <ele>95.400001525879</ele>
        <time>2019-04-11T14:11:24Z</time>
      </trkpt>
      <trkpt lat="48.35993" lon="2.72787">
        <ele>95.599998474121</ele>
        <time>2019-04-11T14:11:29Z</time>
      </trkpt>
      <trkpt lat="48.35997" lon="2.72791">
        <ele>96.199996948242</ele>
        <time>2019-04-11T14:11:34Z</time>
      </trkpt>
      <trkpt lat="48.36002" lon="2.72795">
        <ele>96.599998474121</ele>
        <time>2019-04-11T14:11:39Z</time>
      </trkpt>
      <trkpt lat="48.36008" lon="2.72799">
        <ele>97</ele>
        <time>2019-04-11T14:11:44Z</time>
      </trkpt>
      <trkpt lat="48.36011" lon="2.72802">
        <ele>97</ele>
        <time>2019-04-11T14:11:49Z</time>
      </trkpt>
      <trkpt lat="48.36015" lon="2.72808">
        <ele>96.800003051758</ele>
        <time>2019-04-11T14:11:54Z</time>
      </trkpt>
      <trkpt lat="48.36018" lon="2.72813">
        <ele>96.599998474121</ele>
        <time>2019-04-11T14:11:59Z</time>
      </trkpt>
      <trkpt lat="48.36022" lon="2.72818">
        <ele>96.199996948242</ele>
        <time>2019-04-11T14:12:04Z</time>
      </trkpt>
      <trkpt lat="48.36027" lon="2.72824">
        <ele>95.800003051758</ele>
        <time>2019-04-11T14:12:09Z</time>
      </trkpt>
      <trkpt lat="48.36032" lon="2.7283">
        <ele>95.599998474121</ele>
        <time>2019-04-11T14:12:14Z</time>
      </trkpt>
      <trkpt lat="48.36038" lon="2.72835">
        <ele>95.800003051758</ele>
        <time>2019-04-11T14:12:19Z</time>
      </trkpt>
      <trkpt lat="48.36043" lon="2.7284">
        <ele>95.800003051758</ele>
        <time>2019-04-11T14:12:24Z</time>
      </trkpt>
      <trkpt lat="48.36048" lon="2.72846">
        <ele>95.400001525879</ele>
        <time>2019-04-11T14:12:29Z</time>
      </trkpt>
      <trkpt lat="48.36053" lon="2.7285">
        <ele>95.400001525879</ele>
        <time>2019-04-11T14:12:34Z</time>
      </trkpt>
      <trkpt lat="48.36059" lon="2.72853">
        <ele>95.599998474121</ele>
        <time>2019-04-11T14:12:39Z</time>
      </trkpt>
      <trkpt lat="48.36064" lon="2.72857">
        <ele>95.800003051758</ele>
        <time>2019-04-11T14:12:44Z</time>
      </trkpt>
      <trkpt lat="48.36069" lon="2.72862">
        <ele>95.599998474121</ele>
        <time>2019-04-11T14:12:49Z</time>
      </trkpt>
      <trkpt lat="48.36073" lon="2.72867">
        <ele>95.599998474121</ele>
        <time>2019-04-11T14:12:54Z</time>
      </trkpt>
      <trkpt lat="48.36079" lon="2.72874">
        <ele>95.599998474121</ele>
        <time>2019-04-11T14:12:59Z</time>
      </trkpt>
      <trkpt lat="48.36084" lon="2.72879">
        <ele>95.800003051758</ele>
        <time>2019-04-11T14:13:04Z</time>
      </trkpt>
      <trkpt lat="48.36089" lon="2.72884">
        <ele>95.800003051758</ele>
        <time>2019-04-11T14:13:09Z</time>
      </trkpt>
      <trkpt lat="48.36095" lon="2.72888">
        <ele>95.800003051758</ele>
        <time>2019-04-11T14:13:14Z</time>
      </trkpt>
      <trkpt lat="48.36099" lon="2.72894">
        <ele>95.599998474121</ele>
        <time>2019-04-11T14:13:19Z</time>
      </trkpt>
      <trkpt lat="48.36104" lon="2.72898">
        <ele>95.800003051758</ele>
        <time>2019-04-11T14:13:24Z</time>
      </trkpt>
      <trkpt lat="48.3611" lon="2.72902">
        <ele>96</ele>
        <time>2019-04-11T14:13:29Z</time>
      </trkpt>
      <trkpt lat="48.36117" lon="2.72907">
        <ele>96.199996948242</ele>
        <time>2019-04-11T14:13:34Z</time>
      </trkpt>
      <trkpt lat="48.36122" lon="2.7291">
        <ele>96</ele>
        <time>2019-04-11T14:13:39Z</time>
      </trkpt>
      <trkpt lat="48.36128" lon="2.72915">
        <ele>95.800003051758</ele>
        <time>2019-04-11T14:13:44Z</time>
      </trkpt>
      <trkpt lat="48.36133" lon="2.72921">
        <ele>95.800003051758</ele>
        <time>2019-04-11T14:13:49Z</time>
      </trkpt>
      <trkpt lat="48.3614" lon="2.72927">
        <ele>96</ele>
        <time>2019-04-11T14:13:54Z</time>
      </trkpt>
      <trkpt lat="48.36145" lon="2.72932">
        <ele>96.199996948242</ele>
        <time>2019-04-11T14:13:59Z</time>
      </trkpt>
      <trkpt lat="48.36147" lon="2.72935">
        <ele>96.400001525879</ele>
        <time>2019-04-11T14:14:04Z</time>
      </trkpt>
      <trkpt lat="48.36148" lon="2.72939">
        <ele>96.400001525879</ele>
        <time>2019-04-11T14:14:09Z</time>
      </trkpt>
      <trkpt lat="48.36148" lon="2.72948">
        <ele>96.400001525879</ele>
        <time>2019-04-11T14:14:14Z</time>
      </trkpt>
      <trkpt lat="48.36144" lon="2.72955">
        <ele>96.400001525879</ele>
        <time>2019-04-11T14:14:19Z</time>
      </trkpt>
      <trkpt lat="48.36142" lon="2.72963">
        <ele>96.400001525879</ele>
        <time>2019-04-11T14:14:24Z</time>
      </trkpt>
      <trkpt lat="48.36142" lon="2.7297">
        <ele>96.400001525879</ele>
        <time>2019-04-11T14:14:29Z</time>
      </trkpt>
      <trkpt lat="48.36142" lon="2.72974">
        <ele>96.400001525879</ele>
        <time>2019-04-11T14:14:34Z</time>
      </trkpt>
      <trkpt lat="48.36139" lon="2.72983">
        <ele>96.400001525879</ele>
        <time>2019-04-11T14:14:39Z</time>
      </trkpt>
      <trkpt lat="48.36137" lon="2.72993">
        <ele>96.400001525879</ele>
        <time>2019-04-11T14:14:44Z</time>
      </trkpt>
      <trkpt lat="48.36135" lon="2.73">
        <ele>96.400001525879</ele>
        <time>2019-04-11T14:14:49Z</time>
      </trkpt>
      <trkpt lat="48.36133" lon="2.7301">
        <ele>96.400001525879</ele>
        <time>2019-04-11T14:14:54Z</time>
      </trkpt>
      <trkpt lat="48.36133" lon="2.73019">
        <ele>96.400001525879</ele>
        <time>2019-04-11T14:14:59Z</time>
      </trkpt>
      <trkpt lat="48.36134" lon="2.73028">
        <ele>96.400001525879</ele>
        <time>2019-04-11T14:15:04Z</time>
      </trkpt>
      <trkpt lat="48.36134" lon="2.73037">
        <ele>96.400001525879</ele>
        <time>2019-04-11T14:15:09Z</time>
      </trkpt>
      <trkpt lat="48.36132" lon="2.73045">
        <ele>96.400001525879</ele>
        <time>2019-04-11T14:15:14Z</time>
      </trkpt>
      <trkpt lat="48.36132" lon="2.73055">
        <ele>96.400001525879</ele>
        <time>2019-04-11T14:15:19Z</time>
      </trkpt>
      <trkpt lat="48.36131" lon="2.73063">
        <ele>96.400001525879</ele>
        <time>2019-04-11T14:15:24Z</time>
      </trkpt>
      <trkpt lat="48.36132" lon="2.7307">
        <ele>96.400001525879</ele>
        <time>2019-04-11T14:15:29Z</time>
      </trkpt>
      <trkpt lat="48.36131" lon="2.73076">
        <ele>96.400001525879</ele>
        <time>2019-04-11T14:15:34Z</time>
      </trkpt>
      <trkpt lat="48.36133" lon="2.73079">
        <ele>96.400001525879</ele>
        <time>2019-04-11T14:15:39Z</time>
      </trkpt>
      <trkpt lat="48.36131" lon="2.73091">
        <ele>96.400001525879</ele>
        <time>2019-04-11T14:15:44Z</time>
      </trkpt>
      <trkpt lat="48.36127" lon="2.73101">
        <ele>96.400001525879</ele>
        <time>2019-04-11T14:15:49Z</time>
      </trkpt>
      <trkpt lat="48.36127" lon="2.73106">
        <ele>96.400001525879</ele>
        <time>2019-04-11T14:15:54Z</time>
      </trkpt>
      <trkpt lat="48.36126" lon="2.73114">
        <ele>96.400001525879</ele>
        <time>2019-04-11T14:15:59Z</time>
      </trkpt>
      <trkpt lat="48.36124" lon="2.73126">
        <ele>96.400001525879</ele>
        <time>2019-04-11T14:16:04Z</time>
      </trkpt>
      <trkpt lat="48.36122" lon="2.73137">
        <ele>96.400001525879</ele>
        <time>2019-04-11T14:16:09Z</time>
      </trkpt>
      <trkpt lat="48.36121" lon="2.73146">
        <ele>96.400001525879</ele>
        <time>2019-04-11T14:16:14Z</time>
      </trkpt>
      <trkpt lat="48.36119" lon="2.73154">
        <ele>96.400001525879</ele>
        <time>2019-04-11T14:16:19Z</time>
      </trkpt>
      <trkpt lat="48.36118" lon="2.73163">
        <ele>96.400001525879</ele>
        <time>2019-04-11T14:16:24Z</time>
      </trkpt>
      <trkpt lat="48.36117" lon="2.73172">
        <ele>96.400001525879</ele>
        <time>2019-04-11T14:16:29Z</time>
      </trkpt>
      <trkpt lat="48.36118" lon="2.7318">
        <ele>96.400001525879</ele>
        <time>2019-04-11T14:16:34Z</time>
      </trkpt>
      <trkpt lat="48.36117" lon="2.73188">
        <ele>96.400001525879</ele>
        <time>2019-04-11T14:16:39Z</time>
      </trkpt>
      <trkpt lat="48.36115" lon="2.73196">
        <ele>96.400001525879</ele>
        <time>2019-04-11T14:16:44Z</time>
      </trkpt>
      <trkpt lat="48.36113" lon="2.73206">
        <ele>96.400001525879</ele>
        <time>2019-04-11T14:16:49Z</time>
      </trkpt>
      <trkpt lat="48.36113" lon="2.73216">
        <ele>96.400001525879</ele>
        <time>2019-04-11T14:16:54Z</time>
      </trkpt>
      <trkpt lat="48.36111" lon="2.73224">
        <ele>96.400001525879</ele>
        <time>2019-04-11T14:16:59Z</time>
      </trkpt>
      <trkpt lat="48.36111" lon="2.73228">
        <ele>96.400001525879</ele>
        <time>2019-04-11T14:17:04Z</time>
      </trkpt>
      <trkpt lat="48.36111" lon="2.73231">
        <ele>99.199996948242</ele>
        <time>2019-04-11T14:17:09Z</time>
      </trkpt>
      <trkpt lat="48.36109" lon="2.7324">
        <ele>99</ele>
        <time>2019-04-11T14:17:14Z</time>
      </trkpt>
      <trkpt lat="48.36109" lon="2.73252">
        <ele>98.800003051758</ele>
        <time>2019-04-11T14:17:19Z</time>
      </trkpt>
      <trkpt lat="48.36109" lon="2.73263">
        <ele>98.599998474121</ele>
        <time>2019-04-11T14:17:24Z</time>
      </trkpt>
      <trkpt lat="48.36108" lon="2.73271">
        <ele>98.400001525879</ele>
        <time>2019-04-11T14:17:29Z</time>
      </trkpt>
      <trkpt lat="48.36106" lon="2.7328">
        <ele>98.199996948242</ele>
        <time>2019-04-11T14:17:34Z</time>
      </trkpt>
      <trkpt lat="48.36105" lon="2.73288">
        <ele>98.400001525879</ele>
        <time>2019-04-11T14:17:39Z</time>
      </trkpt>
      <trkpt lat="48.36104" lon="2.73298">
        <ele>98.599998474121</ele>
        <time>2019-04-11T14:17:44Z</time>
      </trkpt>
      <trkpt lat="48.36103" lon="2.73307">
        <ele>98.599998474121</ele>
        <time>2019-04-11T14:17:49Z</time>
      </trkpt>
      <trkpt lat="48.36101" lon="2.73318">
        <ele>98.599998474121</ele>
        <time>2019-04-11T14:17:54Z</time>
      </trkpt>
      <trkpt lat="48.36101" lon="2.73326">
        <ele>98.400001525879</ele>
        <time>2019-04-11T14:17:59Z</time>
      </trkpt>
      <trkpt lat="48.36099" lon="2.73335">
        <ele>98.400001525879</ele>
        <time>2019-04-11T14:18:04Z</time>
      </trkpt>
      <trkpt lat="48.36098" lon="2.73342">
        <ele>98.199996948242</ele>
        <time>2019-04-11T14:18:09Z</time>
      </trkpt>
      <trkpt lat="48.36097" lon="2.73351">
        <ele>98.199996948242</ele>
        <time>2019-04-11T14:18:14Z</time>
      </trkpt>
      <trkpt lat="48.36096" lon="2.73358">
        <ele>98.199996948242</ele>
        <time>2019-04-11T14:18:19Z</time>
      </trkpt>
      <trkpt lat="48.36096" lon="2.73367">
        <ele>98.199996948242</ele>
        <time>2019-04-11T14:18:24Z</time>
      </trkpt>
      <trkpt lat="48.36094" lon="2.73376">
        <ele>98</ele>
        <time>2019-04-11T14:18:29Z</time>
      </trkpt>
      <trkpt lat="48.36094" lon="2.73385">
        <ele>97.800003051758</ele>
        <time>2019-04-11T14:18:34Z</time>
      </trkpt>
      <trkpt lat="48.36093" lon="2.73395">
        <ele>98</ele>
        <time>2019-04-11T14:18:39Z</time>
      </trkpt>
      <trkpt lat="48.36094" lon="2.73405">
        <ele>98</ele>
        <time>2019-04-11T14:18:44Z</time>
      </trkpt>
      <trkpt lat="48.36094" lon="2.73414">
        <ele>98.199996948242</ele>
        <time>2019-04-11T14:18:49Z</time>
      </trkpt>
      <trkpt lat="48.36094" lon="2.73424">
        <ele>98.599998474121</ele>
        <time>2019-04-11T14:18:54Z</time>
      </trkpt>
      <trkpt lat="48.36091" lon="2.73433">
        <ele>98.599998474121</ele>
        <time>2019-04-11T14:18:59Z</time>
      </trkpt>
      <trkpt lat="48.3609" lon="2.73442">
        <ele>98.599998474121</ele>
        <time>2019-04-11T14:19:04Z</time>
      </trkpt>
      <trkpt lat="48.36089" lon="2.73447">
        <ele>98.400001525879</ele>
        <time>2019-04-11T14:19:09Z</time>
      </trkpt>
      <trkpt lat="48.36086" lon="2.73454">
        <ele>98.400001525879</ele>
        <time>2019-04-11T14:19:14Z</time>
      </trkpt>
      <trkpt lat="48.36087" lon="2.73456">
        <ele>98.400001525879</ele>
        <time>2019-04-11T14:19:19Z</time>
      </trkpt>
      <trkpt lat="48.36088" lon="2.73458">
        <ele>98.400001525879</ele>
        <time>2019-04-11T14:19:24Z</time>
      </trkpt>
      <trkpt lat="48.3609" lon="2.7346">
        <ele>98.400001525879</ele>
        <time>2019-04-11T14:19:29Z</time>
      </trkpt>
      <trkpt lat="48.3609" lon="2.7346">
        <ele>98.400001525879</ele>
        <time>2019-04-11T14:19:34Z</time>
      </trkpt>
      <trkpt lat="48.36089" lon="2.73461">
        <ele>98.400001525879</ele>
        <time>2019-04-11T14:19:39Z</time>
      </trkpt>
      <trkpt lat="48.36088" lon="2.73461">
        <ele>98.400001525879</ele>
        <time>2019-04-11T14:19:44Z</time>
      </trkpt>
      <trkpt lat="48.36089" lon="2.73462">
        <ele>98.400001525879</ele>
        <time>2019-04-11T14:19:49Z</time>
      </trkpt>
      <trkpt lat="48.36088" lon="2.73462">
        <ele>98.400001525879</ele>
        <time>2019-04-11T14:19:54Z</time>
      </trkpt>
      <trkpt lat="48.36088" lon="2.73463">
        <ele>98.400001525879</ele>
        <time>2019-04-11T14:19:59Z</time>
      </trkpt>
      <trkpt lat="48.36087" lon="2.73463">
        <ele>98.400001525879</ele>
        <time>2019-04-11T14:20:04Z</time>
      </trkpt>
      <trkpt lat="48.36088" lon="2.73463">
        <ele>98.400001525879</ele>
        <time>2019-04-11T14:20:09Z</time>
      </trkpt>
      <trkpt lat="48.36088" lon="2.73463">
        <ele>98.400001525879</ele>
        <time>2019-04-11T14:20:14Z</time>
      </trkpt>
      <trkpt lat="48.36089" lon="2.73463">
        <ele>98.400001525879</ele>
        <time>2019-04-11T14:20:19Z</time>
      </trkpt>
      <trkpt lat="48.3609" lon="2.73464">
        <ele>98.400001525879</ele>
        <time>2019-04-11T14:20:24Z</time>
      </trkpt>
      <trkpt lat="48.3609" lon="2.73464">
        <ele>98.400001525879</ele>
        <time>2019-04-11T14:20:29Z</time>
      </trkpt>
      <trkpt lat="48.36089" lon="2.73464">
        <ele>98.400001525879</ele>
        <time>2019-04-11T14:20:34Z</time>
      </trkpt>
      <trkpt lat="48.3609" lon="2.73463">
        <ele>98.400001525879</ele>
        <time>2019-04-11T14:20:39Z</time>
      </trkpt>
      <trkpt lat="48.36089" lon="2.73463">
        <ele>98.400001525879</ele>
        <time>2019-04-11T14:20:44Z</time>
      </trkpt>
      <trkpt lat="48.36088" lon="2.73464">
        <ele>98.400001525879</ele>
        <time>2019-04-11T14:20:49Z</time>
      </trkpt>
      <trkpt lat="48.36087" lon="2.73465">
        <ele>98.400001525879</ele>
        <time>2019-04-11T14:20:54Z</time>
      </trkpt>
      <trkpt lat="48.36088" lon="2.73465">
        <ele>98.400001525879</ele>
        <time>2019-04-11T14:20:59Z</time>
      </trkpt>
      <trkpt lat="48.36087" lon="2.73465">
        <ele>98.400001525879</ele>
        <time>2019-04-11T14:21:05Z</time>
      </trkpt>
      <trkpt lat="48.36087" lon="2.73466">
        <ele>98.400001525879</ele>
        <time>2019-04-11T14:21:10Z</time>
      </trkpt>
      <trkpt lat="48.36088" lon="2.73464">
        <ele>98.400001525879</ele>
        <time>2019-04-11T14:21:15Z</time>
      </trkpt>
      <trkpt lat="48.36089" lon="2.73462">
        <ele>98.400001525879</ele>
        <time>2019-04-11T14:21:20Z</time>
      </trkpt>
      <trkpt lat="48.36089" lon="2.73462">
        <ele>98.400001525879</ele>
        <time>2019-04-11T14:21:25Z</time>
      </trkpt>
      <trkpt lat="48.36089" lon="2.73461">
        <ele>98.400001525879</ele>
        <time>2019-04-11T14:21:30Z</time>
      </trkpt>
      <trkpt lat="48.36089" lon="2.73462">
        <ele>98.400001525879</ele>
        <time>2019-04-11T14:21:35Z</time>
      </trkpt>
      <trkpt lat="48.36088" lon="2.73463">
        <ele>98.400001525879</ele>
        <time>2019-04-11T14:21:40Z</time>
      </trkpt>
      <trkpt lat="48.36087" lon="2.73464">
        <ele>98.400001525879</ele>
        <time>2019-04-11T14:21:45Z</time>
      </trkpt>
      <trkpt lat="48.36085" lon="2.73465">
        <ele>98.400001525879</ele>
        <time>2019-04-11T14:21:50Z</time>
      </trkpt>
      <trkpt lat="48.36084" lon="2.73465">
        <ele>98.400001525879</ele>
        <time>2019-04-11T14:21:55Z</time>
      </trkpt>
      <trkpt lat="48.36084" lon="2.73464">
        <ele>98.400001525879</ele>
        <time>2019-04-11T14:22:00Z</time>
      </trkpt>
      <trkpt lat="48.36085" lon="2.73461">
        <ele>98.400001525879</ele>
        <time>2019-04-11T14:22:05Z</time>
      </trkpt>
      <trkpt lat="48.36085" lon="2.73461">
        <ele>98.400001525879</ele>
        <time>2019-04-11T14:22:10Z</time>
      </trkpt>
      <trkpt lat="48.36087" lon="2.73459">
        <ele>98.400001525879</ele>
        <time>2019-04-11T14:22:15Z</time>
      </trkpt>
      <trkpt lat="48.36088" lon="2.73458">
        <ele>98.400001525879</ele>
        <time>2019-04-11T14:22:20Z</time>
      </trkpt>
      <trkpt lat="48.36092" lon="2.73457">
        <ele>98.400001525879</ele>
        <time>2019-04-11T14:22:25Z</time>
      </trkpt>
      <trkpt lat="48.36094" lon="2.73459">
        <ele>98.400001525879</ele>
        <time>2019-04-11T14:22:30Z</time>
      </trkpt>
      <trkpt lat="48.36092" lon="2.73458">
        <ele>98.199996948242</ele>
        <time>2019-04-11T14:22:35Z</time>
      </trkpt>
      <trkpt lat="48.36093" lon="2.73459">
        <ele>98.199996948242</ele>
        <time>2019-04-11T14:22:40Z</time>
      </trkpt>
      <trkpt lat="48.36099" lon="2.73461">
        <ele>98</ele>
        <time>2019-04-11T14:22:45Z</time>
      </trkpt>
      <trkpt lat="48.36102" lon="2.73462">
        <ele>97.800003051758</ele>
        <time>2019-04-11T14:22:50Z</time>
      </trkpt>
      <trkpt lat="48.36101" lon="2.73462">
        <ele>97.800003051758</ele>
        <time>2019-04-11T14:22:55Z</time>
      </trkpt>
      <trkpt lat="48.36099" lon="2.73462">
        <ele>97.800003051758</ele>
        <time>2019-04-11T14:23:00Z</time>
      </trkpt>
      <trkpt lat="48.36096" lon="2.73462">
        <ele>98</ele>
        <time>2019-04-11T14:23:05Z</time>
      </trkpt>
      <trkpt lat="48.36094" lon="2.73462">
        <ele>98</ele>
        <time>2019-04-11T14:23:10Z</time>
      </trkpt>
      <trkpt lat="48.36094" lon="2.73462">
        <ele>98</ele>
        <time>2019-04-11T14:23:15Z</time>
      </trkpt>
      <trkpt lat="48.36093" lon="2.73462">
        <ele>98</ele>
        <time>2019-04-11T14:23:20Z</time>
      </trkpt>
      <trkpt lat="48.36093" lon="2.73463">
        <ele>98</ele>
        <time>2019-04-11T14:23:25Z</time>
      </trkpt>
      <trkpt lat="48.36092" lon="2.73463">
        <ele>97.800003051758</ele>
        <time>2019-04-11T14:23:30Z</time>
      </trkpt>
      <trkpt lat="48.36092" lon="2.73463">
        <ele>97.800003051758</ele>
        <time>2019-04-11T14:23:35Z</time>
      </trkpt>
      <trkpt lat="48.36093" lon="2.73463">
        <ele>97.800003051758</ele>
        <time>2019-04-11T14:23:40Z</time>
      </trkpt>
      <trkpt lat="48.36092" lon="2.73463">
        <ele>98</ele>
        <time>2019-04-11T14:23:45Z</time>
      </trkpt>
      <trkpt lat="48.36092" lon="2.73463">
        <ele>98.199996948242</ele>
        <time>2019-04-11T14:23:50Z</time>
      </trkpt>
      <trkpt lat="48.36093" lon="2.73462">
        <ele>98.199996948242</ele>
        <time>2019-04-11T14:23:55Z</time>
      </trkpt>
      <trkpt lat="48.36092" lon="2.73462">
        <ele>98.199996948242</ele>
        <time>2019-04-11T14:24:00Z</time>
      </trkpt>
      <trkpt lat="48.36093" lon="2.73461">
        <ele>98.199996948242</ele>
        <time>2019-04-11T14:24:05Z</time>
      </trkpt>
      <trkpt lat="48.36094" lon="2.73461">
        <ele>98.199996948242</ele>
        <time>2019-04-11T14:24:10Z</time>
      </trkpt>
      <trkpt lat="48.36094" lon="2.73461">
        <ele>98.199996948242</ele>
        <time>2019-04-11T14:24:15Z</time>
      </trkpt>
      <trkpt lat="48.36094" lon="2.7346">
        <ele>98.199996948242</ele>
        <time>2019-04-11T14:24:20Z</time>
      </trkpt>
      <trkpt lat="48.36094" lon="2.7346">
        <ele>98.400001525879</ele>
        <time>2019-04-11T14:24:25Z</time>
      </trkpt>
      <trkpt lat="48.36093" lon="2.73461">
        <ele>98.400001525879</ele>
        <time>2019-04-11T14:24:30Z</time>
      </trkpt>
      <trkpt lat="48.36092" lon="2.73463">
        <ele>98.400001525879</ele>
        <time>2019-04-11T14:24:35Z</time>
      </trkpt>
      <trkpt lat="48.36092" lon="2.73462">
        <ele>98.400001525879</ele>
        <time>2019-04-11T14:24:40Z</time>
      </trkpt>
      <trkpt lat="48.36091" lon="2.73463">
        <ele>98.400001525879</ele>
        <time>2019-04-11T14:24:45Z</time>
      </trkpt>
      <trkpt lat="48.36092" lon="2.73463">
        <ele>98.400001525879</ele>
        <time>2019-04-11T14:24:50Z</time>
      </trkpt>
      <trkpt lat="48.36093" lon="2.73464">
        <ele>98.400001525879</ele>
        <time>2019-04-11T14:24:55Z</time>
      </trkpt>
      <trkpt lat="48.36092" lon="2.73466">
        <ele>98.199996948242</ele>
        <time>2019-04-11T14:25:00Z</time>
      </trkpt>
      <trkpt lat="48.36091" lon="2.73467">
        <ele>98.400001525879</ele>
        <time>2019-04-11T14:25:05Z</time>
      </trkpt>
      <trkpt lat="48.36091" lon="2.73468">
        <ele>98.599998474121</ele>
        <time>2019-04-11T14:25:10Z</time>
      </trkpt>
      <trkpt lat="48.36091" lon="2.73469">
        <ele>98.599998474121</ele>
        <time>2019-04-11T14:25:15Z</time>
      </trkpt>
      <trkpt lat="48.3609" lon="2.73469">
        <ele>98.400001525879</ele>
        <time>2019-04-11T14:25:20Z</time>
      </trkpt>
      <trkpt lat="48.3609" lon="2.7347">
        <ele>98.199996948242</ele>
        <time>2019-04-11T14:25:25Z</time>
      </trkpt>
      <trkpt lat="48.36089" lon="2.7347">
        <ele>98</ele>
        <time>2019-04-11T14:25:30Z</time>
      </trkpt>
      <trkpt lat="48.36088" lon="2.7347">
        <ele>98</ele>
        <time>2019-04-11T14:25:35Z</time>
      </trkpt>
      <trkpt lat="48.36088" lon="2.7347">
        <ele>98</ele>
        <time>2019-04-11T14:25:40Z</time>
      </trkpt>
      <trkpt lat="48.36089" lon="2.73469">
        <ele>98</ele>
        <time>2019-04-11T14:25:45Z</time>
      </trkpt>
      <trkpt lat="48.3609" lon="2.73469">
        <ele>98</ele>
        <time>2019-04-11T14:25:50Z</time>
      </trkpt>
      <trkpt lat="48.3609" lon="2.73468">
        <ele>98</ele>
        <time>2019-04-11T14:25:55Z</time>
      </trkpt>
      <trkpt lat="48.3609" lon="2.73469">
        <ele>98</ele>
        <time>2019-04-11T14:26:00Z</time>
      </trkpt>
      <trkpt lat="48.3609" lon="2.73469">
        <ele>98</ele>
        <time>2019-04-11T14:26:05Z</time>
      </trkpt>
      <trkpt lat="48.3609" lon="2.73469">
        <ele>98</ele>
        <time>2019-04-11T14:26:10Z</time>
      </trkpt>
      <trkpt lat="48.3609" lon="2.7347">
        <ele>98</ele>
        <time>2019-04-11T14:26:15Z</time>
      </trkpt>
      <trkpt lat="48.3609" lon="2.73472">
        <ele>98</ele>
        <time>2019-04-11T14:26:20Z</time>
      </trkpt>
      <trkpt lat="48.36089" lon="2.73472">
        <ele>98</ele>
        <time>2019-04-11T14:26:25Z</time>
      </trkpt>
      <trkpt lat="48.36089" lon="2.73473">
        <ele>98</ele>
        <time>2019-04-11T14:26:30Z</time>
      </trkpt>
      <trkpt lat="48.3609" lon="2.73473">
        <ele>98</ele>
        <time>2019-04-11T14:26:35Z</time>
      </trkpt>
      <trkpt lat="48.36089" lon="2.73472">
        <ele>98</ele>
        <time>2019-04-11T14:26:40Z</time>
      </trkpt>
      <trkpt lat="48.36089" lon="2.73472">
        <ele>98</ele>
        <time>2019-04-11T14:26:45Z</time>
      </trkpt>
      <trkpt lat="48.36089" lon="2.73469">
        <ele>98</ele>
        <time>2019-04-11T14:26:50Z</time>
      </trkpt>
      <trkpt lat="48.36088" lon="2.73468">
        <ele>98</ele>
        <time>2019-04-11T14:26:55Z</time>
      </trkpt>
      <trkpt lat="48.36087" lon="2.73468">
        <ele>98</ele>
        <time>2019-04-11T14:27:00Z</time>
      </trkpt>
      <trkpt lat="48.36088" lon="2.73468">
        <ele>98</ele>
        <time>2019-04-11T14:27:05Z</time>
      </trkpt>
      <trkpt lat="48.36089" lon="2.73468">
        <ele>98</ele>
        <time>2019-04-11T14:27:10Z</time>
      </trkpt>
      <trkpt lat="48.36089" lon="2.73466">
        <ele>98</ele>
        <time>2019-04-11T14:27:15Z</time>
      </trkpt>
      <trkpt lat="48.36089" lon="2.73466">
        <ele>98</ele>
        <time>2019-04-11T14:27:20Z</time>
      </trkpt>
      <trkpt lat="48.36088" lon="2.73465">
        <ele>98</ele>
        <time>2019-04-11T14:27:25Z</time>
      </trkpt>
      <trkpt lat="48.36089" lon="2.73463">
        <ele>98</ele>
        <time>2019-04-11T14:27:30Z</time>
      </trkpt>
      <trkpt lat="48.36089" lon="2.73462">
        <ele>98</ele>
        <time>2019-04-11T14:27:35Z</time>
      </trkpt>
      <trkpt lat="48.3609" lon="2.73463">
        <ele>98</ele>
        <time>2019-04-11T14:27:40Z</time>
      </trkpt>
      <trkpt lat="48.3609" lon="2.73463">
        <ele>98</ele>
        <time>2019-04-11T14:27:45Z</time>
      </trkpt>
      <trkpt lat="48.36089" lon="2.73464">
        <ele>98</ele>
        <time>2019-04-11T14:27:50Z</time>
      </trkpt>
      <trkpt lat="48.36089" lon="2.73463">
        <ele>98</ele>
        <time>2019-04-11T14:27:55Z</time>
      </trkpt>
      <trkpt lat="48.36089" lon="2.73463">
        <ele>98</ele>
        <time>2019-04-11T14:28:00Z</time>
      </trkpt>
      <trkpt lat="48.36088" lon="2.73464">
        <ele>98</ele>
        <time>2019-04-11T14:28:05Z</time>
      </trkpt>
      <trkpt lat="48.36089" lon="2.73465">
        <ele>98</ele>
        <time>2019-04-11T14:28:10Z</time>
      </trkpt>
      <trkpt lat="48.36089" lon="2.73467">
        <ele>98</ele>
        <time>2019-04-11T14:28:15Z</time>
      </trkpt>
      <trkpt lat="48.36087" lon="2.73468">
        <ele>98</ele>
        <time>2019-04-11T14:28:20Z</time>
      </trkpt>
      <trkpt lat="48.36088" lon="2.73469">
        <ele>98</ele>
        <time>2019-04-11T14:28:25Z</time>
      </trkpt>
      <trkpt lat="48.36088" lon="2.7347">
        <ele>98</ele>
        <time>2019-04-11T14:28:30Z</time>
      </trkpt>
      <trkpt lat="48.36088" lon="2.7347">
        <ele>98</ele>
        <time>2019-04-11T14:28:35Z</time>
      </trkpt>
      <trkpt lat="48.36087" lon="2.7347">
        <ele>98</ele>
        <time>2019-04-11T14:28:40Z</time>
      </trkpt>
      <trkpt lat="48.36088" lon="2.7347">
        <ele>98</ele>
        <time>2019-04-11T14:28:45Z</time>
      </trkpt>
      <trkpt lat="48.36089" lon="2.73468">
        <ele>98</ele>
        <time>2019-04-11T14:28:50Z</time>
      </trkpt>
      <trkpt lat="48.36088" lon="2.73468">
        <ele>98</ele>
        <time>2019-04-11T14:28:55Z</time>
      </trkpt>
      <trkpt lat="48.36091" lon="2.73466">
        <ele>98</ele>
        <time>2019-04-11T14:29:00Z</time>
      </trkpt>
      <trkpt lat="48.36092" lon="2.73467">
        <ele>98</ele>
        <time>2019-04-11T14:29:05Z</time>
      </trkpt>
      <trkpt lat="48.36095" lon="2.73466">
        <ele>98</ele>
        <time>2019-04-11T14:29:10Z</time>
      </trkpt>
      <trkpt lat="48.36097" lon="2.73469">
        <ele>98</ele>
        <time>2019-04-11T14:29:15Z</time>
      </trkpt>
      <trkpt lat="48.361" lon="2.73472">
        <ele>98</ele>
        <time>2019-04-11T14:29:20Z</time>
      </trkpt>
      <trkpt lat="48.36104" lon="2.73474">
        <ele>98</ele>
        <time>2019-04-11T14:29:25Z</time>
      </trkpt>
      <trkpt lat="48.36109" lon="2.73477">
        <ele>98</ele>
        <time>2019-04-11T14:29:30Z</time>
      </trkpt>
      <trkpt lat="48.36113" lon="2.73483">
        <ele>98</ele>
        <time>2019-04-11T14:29:35Z</time>
      </trkpt>
      <trkpt lat="48.36118" lon="2.73487">
        <ele>98</ele>
        <time>2019-04-11T14:29:40Z</time>
      </trkpt>
      <trkpt lat="48.36122" lon="2.73492">
        <ele>98</ele>
        <time>2019-04-11T14:29:45Z</time>
      </trkpt>
      <trkpt lat="48.36125" lon="2.73499">
        <ele>98</ele>
        <time>2019-04-11T14:29:50Z</time>
      </trkpt>
      <trkpt lat="48.36129" lon="2.73503">
        <ele>98</ele>
        <time>2019-04-11T14:29:55Z</time>
      </trkpt>
      <trkpt lat="48.36132" lon="2.73508">
        <ele>98</ele>
        <time>2019-04-11T14:30:00Z</time>
      </trkpt>
      <trkpt lat="48.36136" lon="2.73512">
        <ele>98</ele>
        <time>2019-04-11T14:30:05Z</time>
      </trkpt>
      <trkpt lat="48.3614" lon="2.73515">
        <ele>98</ele>
        <time>2019-04-11T14:30:10Z</time>
      </trkpt>
      <trkpt lat="48.36143" lon="2.73519">
        <ele>98</ele>
        <time>2019-04-11T14:30:15Z</time>
      </trkpt>
      <trkpt lat="48.36147" lon="2.73523">
        <ele>98</ele>
        <time>2019-04-11T14:30:20Z</time>
      </trkpt>
      <trkpt lat="48.36149" lon="2.73527">
        <ele>98</ele>
        <time>2019-04-11T14:30:25Z</time>
      </trkpt>
      <trkpt lat="48.36154" lon="2.7353">
        <ele>98</ele>
        <time>2019-04-11T14:30:30Z</time>
      </trkpt>
      <trkpt lat="48.36156" lon="2.73533">
        <ele>98</ele>
        <time>2019-04-11T14:30:35Z</time>
      </trkpt>
      <trkpt lat="48.3616" lon="2.73537">
        <ele>98</ele>
        <time>2019-04-11T14:30:40Z</time>
      </trkpt>
      <trkpt lat="48.36166" lon="2.73543">
        <ele>98</ele>
        <time>2019-04-11T14:30:45Z</time>
      </trkpt>
      <trkpt lat="48.36171" lon="2.73549">
        <ele>98</ele>
        <time>2019-04-11T14:30:50Z</time>
      </trkpt>
      <trkpt lat="48.36176" lon="2.73554">
        <ele>98</ele>
        <time>2019-04-11T14:30:55Z</time>
      </trkpt>
      <trkpt lat="48.36183" lon="2.73558">
        <ele>98</ele>
        <time>2019-04-11T14:31:00Z</time>
      </trkpt>
      <trkpt lat="48.36188" lon="2.73563">
        <ele>98</ele>
        <time>2019-04-11T14:31:05Z</time>
      </trkpt>
      <trkpt lat="48.36192" lon="2.7357">
        <ele>98</ele>
        <time>2019-04-11T14:31:10Z</time>
      </trkpt>
      <trkpt lat="48.36197" lon="2.73576">
        <ele>98</ele>
        <time>2019-04-11T14:31:15Z</time>
      </trkpt>
      <trkpt lat="48.36202" lon="2.7358">
        <ele>98</ele>
        <time>2019-04-11T14:31:20Z</time>
      </trkpt>
      <trkpt lat="48.36205" lon="2.73586">
        <ele>98</ele>
        <time>2019-04-11T14:31:25Z</time>
      </trkpt>
      <trkpt lat="48.36209" lon="2.73591">
        <ele>98</ele>
        <time>2019-04-11T14:31:30Z</time>
      </trkpt>
      <trkpt lat="48.36213" lon="2.73597">
        <ele>98</ele>
        <time>2019-04-11T14:31:35Z</time>
      </trkpt>
      <trkpt lat="48.36216" lon="2.73601">
        <ele>98</ele>
        <time>2019-04-11T14:31:40Z</time>
      </trkpt>
      <trkpt lat="48.36221" lon="2.73606">
        <ele>98</ele>
        <time>2019-04-11T14:31:45Z</time>
      </trkpt>
      <trkpt lat="48.36228" lon="2.7361">
        <ele>98</ele>
        <time>2019-04-11T14:31:50Z</time>
      </trkpt>
      <trkpt lat="48.36232" lon="2.73619">
        <ele>98</ele>
        <time>2019-04-11T14:31:55Z</time>
      </trkpt>
      <trkpt lat="48.36236" lon="2.73623">
        <ele>98</ele>
        <time>2019-04-11T14:32:00Z</time>
      </trkpt>
      <trkpt lat="48.36241" lon="2.73627">
        <ele>98</ele>
        <time>2019-04-11T14:32:05Z</time>
      </trkpt>
      <trkpt lat="48.36246" lon="2.73631">
        <ele>98</ele>
        <time>2019-04-11T14:32:10Z</time>
      </trkpt>
      <trkpt lat="48.36252" lon="2.73635">
        <ele>98</ele>
        <time>2019-04-11T14:32:15Z</time>
      </trkpt>
      <trkpt lat="48.36255" lon="2.73638">
        <ele>98</ele>
        <time>2019-04-11T14:32:20Z</time>
      </trkpt>
      <trkpt lat="48.36259" lon="2.73644">
        <ele>98</ele>
        <time>2019-04-11T14:32:25Z</time>
      </trkpt>
      <trkpt lat="48.36264" lon="2.73652">
        <ele>98</ele>
        <time>2019-04-11T14:32:30Z</time>
      </trkpt>
      <trkpt lat="48.36271" lon="2.73655">
        <ele>98</ele>
        <time>2019-04-11T14:32:35Z</time>
      </trkpt>
      <trkpt lat="48.36276" lon="2.73661">
        <ele>98</ele>
        <time>2019-04-11T14:32:40Z</time>
      </trkpt>
      <trkpt lat="48.36283" lon="2.73667">
        <ele>98</ele>
        <time>2019-04-11T14:32:45Z</time>
      </trkpt>
      <trkpt lat="48.36288" lon="2.73671">
        <ele>98</ele>
        <time>2019-04-11T14:32:50Z</time>
      </trkpt>
      <trkpt lat="48.36293" lon="2.73676">
        <ele>98</ele>
        <time>2019-04-11T14:32:55Z</time>
      </trkpt>
      <trkpt lat="48.36296" lon="2.73683">
        <ele>98</ele>
        <time>2019-04-11T14:33:00Z</time>
      </trkpt>
      <trkpt lat="48.36301" lon="2.73688">
        <ele>98</ele>
        <time>2019-04-11T14:33:05Z</time>
      </trkpt>
      <trkpt lat="48.36305" lon="2.73693">
        <ele>98</ele>
        <time>2019-04-11T14:33:10Z</time>
      </trkpt>
      <trkpt lat="48.3631" lon="2.73698">
        <ele>98</ele>
        <time>2019-04-11T14:33:15Z</time>
      </trkpt>
      <trkpt lat="48.36314" lon="2.73705">
        <ele>98</ele>
        <time>2019-04-11T14:33:20Z</time>
      </trkpt>
      <trkpt lat="48.36319" lon="2.73708">
        <ele>98</ele>
        <time>2019-04-11T14:33:25Z</time>
      </trkpt>
      <trkpt lat="48.36324" lon="2.73714">
        <ele>98</ele>
        <time>2019-04-11T14:33:30Z</time>
      </trkpt>
      <trkpt lat="48.36328" lon="2.73717">
        <ele>98</ele>
        <time>2019-04-11T14:33:35Z</time>
      </trkpt>
      <trkpt lat="48.36331" lon="2.73722">
        <ele>101.40000152588</ele>
        <time>2019-04-11T14:33:40Z</time>
      </trkpt>
      <trkpt lat="48.36332" lon="2.73726">
        <ele>101.19999694824</ele>
        <time>2019-04-11T14:33:45Z</time>
      </trkpt>
      <trkpt lat="48.36332" lon="2.73732">
        <ele>101.19999694824</ele>
        <time>2019-04-11T14:33:50Z</time>
      </trkpt>
      <trkpt lat="48.36331" lon="2.73743">
        <ele>101.40000152588</ele>
        <time>2019-04-11T14:33:55Z</time>
      </trkpt>
      <trkpt lat="48.36333" lon="2.73753">
        <ele>101.59999847412</ele>
        <time>2019-04-11T14:34:00Z</time>
      </trkpt>
      <trkpt lat="48.36333" lon="2.73762">
        <ele>101.59999847412</ele>
        <time>2019-04-11T14:34:05Z</time>
      </trkpt>
      <trkpt lat="48.36334" lon="2.73771">
        <ele>101.40000152588</ele>
        <time>2019-04-11T14:34:10Z</time>
      </trkpt>
      <trkpt lat="48.36333" lon="2.73781">
        <ele>101.40000152588</ele>
        <time>2019-04-11T14:34:15Z</time>
      </trkpt>
      <trkpt lat="48.36331" lon="2.73789">
        <ele>101.40000152588</ele>
        <time>2019-04-11T14:34:20Z</time>
      </trkpt>
      <trkpt lat="48.36331" lon="2.73797">
        <ele>101.59999847412</ele>
        <time>2019-04-11T14:34:25Z</time>
      </trkpt>
      <trkpt lat="48.3633" lon="2.73804">
        <ele>101.80000305176</ele>
        <time>2019-04-11T14:34:30Z</time>
      </trkpt>
      <trkpt lat="48.3633" lon="2.73813">
        <ele>101.80000305176</ele>
        <time>2019-04-11T14:34:35Z</time>
      </trkpt>
      <trkpt lat="48.36329" lon="2.73821">
        <ele>101.59999847412</ele>
        <time>2019-04-11T14:34:40Z</time>
      </trkpt>
      <trkpt lat="48.36329" lon="2.73829">
        <ele>101.40000152588</ele>
        <time>2019-04-11T14:34:45Z</time>
      </trkpt>
      <trkpt lat="48.36328" lon="2.73837">
        <ele>101.59999847412</ele>
        <time>2019-04-11T14:34:50Z</time>
      </trkpt>
      <trkpt lat="48.36328" lon="2.73846">
        <ele>101.59999847412</ele>
        <time>2019-04-11T14:34:55Z</time>
      </trkpt>
      <trkpt lat="48.36328" lon="2.73855">
        <ele>101.80000305176</ele>
        <time>2019-04-11T14:35:00Z</time>
      </trkpt>
      <trkpt lat="48.36328" lon="2.73864">
        <ele>102</ele>
        <time>2019-04-11T14:35:05Z</time>
      </trkpt>
      <trkpt lat="48.36326" lon="2.73872">
        <ele>102</ele>
        <time>2019-04-11T14:35:10Z</time>
      </trkpt>
      <trkpt lat="48.36326" lon="2.73883">
        <ele>101.80000305176</ele>
        <time>2019-04-11T14:35:15Z</time>
      </trkpt>
      <trkpt lat="48.36325" lon="2.7389">
        <ele>101.80000305176</ele>
        <time>2019-04-11T14:35:20Z</time>
      </trkpt>
      <trkpt lat="48.36325" lon="2.73897">
        <ele>102</ele>
        <time>2019-04-11T14:35:25Z</time>
      </trkpt>
      <trkpt lat="48.36325" lon="2.73907">
        <ele>102</ele>
        <time>2019-04-11T14:35:30Z</time>
      </trkpt>
      <trkpt lat="48.36325" lon="2.73916">
        <ele>101.80000305176</ele>
        <time>2019-04-11T14:35:35Z</time>
      </trkpt>
      <trkpt lat="48.36324" lon="2.73923">
        <ele>101.80000305176</ele>
        <time>2019-04-11T14:35:40Z</time>
      </trkpt>
      <trkpt lat="48.36323" lon="2.73931">
        <ele>101.80000305176</ele>
        <time>2019-04-11T14:35:45Z</time>
      </trkpt>
      <trkpt lat="48.36322" lon="2.73939">
        <ele>102</ele>
        <time>2019-04-11T14:35:50Z</time>
      </trkpt>
      <trkpt lat="48.36321" lon="2.73947">
        <ele>102</ele>
        <time>2019-04-11T14:35:55Z</time>
      </trkpt>
      <trkpt lat="48.36319" lon="2.73955">
        <ele>102.19999694824</ele>
        <time>2019-04-11T14:36:00Z</time>
      </trkpt>
      <trkpt lat="48.3632" lon="2.73962">
        <ele>102.19999694824</ele>
        <time>2019-04-11T14:36:05Z</time>
      </trkpt>
      <trkpt lat="48.36319" lon="2.73972">
        <ele>102.40000152588</ele>
        <time>2019-04-11T14:36:10Z</time>
      </trkpt>
      <trkpt lat="48.36318" lon="2.7398">
        <ele>102.80000305176</ele>
        <time>2019-04-11T14:36:15Z</time>
      </trkpt>
      <trkpt lat="48.36317" lon="2.73988">
        <ele>103</ele>
        <time>2019-04-11T14:36:20Z</time>
      </trkpt>
      <trkpt lat="48.36317" lon="2.73997">
        <ele>103.19999694824</ele>
        <time>2019-04-11T14:36:25Z</time>
      </trkpt>
      <trkpt lat="48.36317" lon="2.74004">
        <ele>103.40000152588</ele>
        <time>2019-04-11T14:36:30Z</time>
      </trkpt>
      <trkpt lat="48.36318" lon="2.74012">
        <ele>103.40000152588</ele>
        <time>2019-04-11T14:36:35Z</time>
      </trkpt>
      <trkpt lat="48.36317" lon="2.7402">
        <ele>103.59999847412</ele>
        <time>2019-04-11T14:36:40Z</time>
      </trkpt>
      <trkpt lat="48.36317" lon="2.74028">
        <ele>103.80000305176</ele>
        <time>2019-04-11T14:36:45Z</time>
      </trkpt>
      <trkpt lat="48.36317" lon="2.74037">
        <ele>103.80000305176</ele>
        <time>2019-04-11T14:36:50Z</time>
      </trkpt>
      <trkpt lat="48.36316" lon="2.74046">
        <ele>104</ele>
        <time>2019-04-11T14:36:55Z</time>
      </trkpt>
      <trkpt lat="48.36316" lon="2.74053">
        <ele>104.19999694824</ele>
        <time>2019-04-11T14:37:00Z</time>
      </trkpt>
      <trkpt lat="48.36316" lon="2.74061">
        <ele>104.19999694824</ele>
        <time>2019-04-11T14:37:05Z</time>
      </trkpt>
      <trkpt lat="48.36316" lon="2.74069">
        <ele>104.19999694824</ele>
        <time>2019-04-11T14:37:10Z</time>
      </trkpt>
      <trkpt lat="48.36317" lon="2.74077">
        <ele>104</ele>
        <time>2019-04-11T14:37:15Z</time>
      </trkpt>
      <trkpt lat="48.36316" lon="2.74085">
        <ele>103.80000305176</ele>
        <time>2019-04-11T14:37:20Z</time>
      </trkpt>
      <trkpt lat="48.36316" lon="2.74092">
        <ele>103.80000305176</ele>
        <time>2019-04-11T14:37:25Z</time>
      </trkpt>
      <trkpt lat="48.36316" lon="2.74099">
        <ele>103.80000305176</ele>
        <time>2019-04-11T14:37:30Z</time>
      </trkpt>
      <trkpt lat="48.36316" lon="2.74108">
        <ele>104.19999694824</ele>
        <time>2019-04-11T14:37:35Z</time>
      </trkpt>
      <trkpt lat="48.36315" lon="2.74118">
        <ele>104.59999847412</ele>
        <time>2019-04-11T14:37:40Z</time>
      </trkpt>
      <trkpt lat="48.36315" lon="2.74128">
        <ele>105.19999694824</ele>
        <time>2019-04-11T14:37:45Z</time>
      </trkpt>
      <trkpt lat="48.36315" lon="2.74137">
        <ele>105.40000152588</ele>
        <time>2019-04-11T14:37:50Z</time>
      </trkpt>
      <trkpt lat="48.36315" lon="2.74144">
        <ele>105.59999847412</ele>
        <time>2019-04-11T14:37:55Z</time>
      </trkpt>
      <trkpt lat="48.36314" lon="2.74151">
        <ele>105.59999847412</ele>
        <time>2019-04-11T14:38:00Z</time>
      </trkpt>
      <trkpt lat="48.36313" lon="2.74159">
        <ele>105.59999847412</ele>
        <time>2019-04-11T14:38:05Z</time>
      </trkpt>
      <trkpt lat="48.36312" lon="2.74168">
        <ele>105.59999847412</ele>
        <time>2019-04-11T14:38:10Z</time>
      </trkpt>
      <trkpt lat="48.36312" lon="2.74176">
        <ele>105.80000305176</ele>
        <time>2019-04-11T14:38:15Z</time>
      </trkpt>
      <trkpt lat="48.36311" lon="2.74184">
        <ele>105.80000305176</ele>
        <time>2019-04-11T14:38:20Z</time>
      </trkpt>
      <trkpt lat="48.3631" lon="2.74193">
        <ele>105.59999847412</ele>
        <time>2019-04-11T14:38:25Z</time>
      </trkpt>
      <trkpt lat="48.3631" lon="2.74202">
        <ele>105.59999847412</ele>
        <time>2019-04-11T14:38:30Z</time>
      </trkpt>
      <trkpt lat="48.3631" lon="2.74209">
        <ele>106.19999694824</ele>
        <time>2019-04-11T14:38:35Z</time>
      </trkpt>
      <trkpt lat="48.36309" lon="2.74217">
        <ele>106.80000305176</ele>
        <time>2019-04-11T14:38:40Z</time>
      </trkpt>
      <trkpt lat="48.36309" lon="2.74225">
        <ele>106.59999847412</ele>
        <time>2019-04-11T14:38:45Z</time>
      </trkpt>
      <trkpt lat="48.36309" lon="2.74234">
        <ele>106.40000152588</ele>
        <time>2019-04-11T14:38:50Z</time>
      </trkpt>
      <trkpt lat="48.36308" lon="2.74243">
        <ele>106.80000305176</ele>
        <time>2019-04-11T14:38:55Z</time>
      </trkpt>
      <trkpt lat="48.36308" lon="2.74252">
        <ele>107</ele>
        <time>2019-04-11T14:39:00Z</time>
      </trkpt>
      <trkpt lat="48.36308" lon="2.74261">
        <ele>107.19999694824</ele>
        <time>2019-04-11T14:39:05Z</time>
      </trkpt>
      <trkpt lat="48.36309" lon="2.74269">
        <ele>107.19999694824</ele>
        <time>2019-04-11T14:39:10Z</time>
      </trkpt>
      <trkpt lat="48.36309" lon="2.74277">
        <ele>107.40000152588</ele>
        <time>2019-04-11T14:39:15Z</time>
      </trkpt>
      <trkpt lat="48.36309" lon="2.74285">
        <ele>108</ele>
        <time>2019-04-11T14:39:20Z</time>
      </trkpt>
      <trkpt lat="48.36309" lon="2.74293">
        <ele>108</ele>
        <time>2019-04-11T14:39:25Z</time>
      </trkpt>
      <trkpt lat="48.3631" lon="2.743">
        <ele>108</ele>
        <time>2019-04-11T14:39:30Z</time>
      </trkpt>
      <trkpt lat="48.3631" lon="2.74308">
        <ele>108</ele>
        <time>2019-04-11T14:39:35Z</time>
      </trkpt>
      <trkpt lat="48.3631" lon="2.74313">
        <ele>108.19999694824</ele>
        <time>2019-04-11T14:39:40Z</time>
      </trkpt>
      <trkpt lat="48.3631" lon="2.74321">
        <ele>108.40000152588</ele>
        <time>2019-04-11T14:39:45Z</time>
      </trkpt>
      <trkpt lat="48.3631" lon="2.74328">
        <ele>108.80000305176</ele>
        <time>2019-04-11T14:39:50Z</time>
      </trkpt>
      <trkpt lat="48.3631" lon="2.74336">
        <ele>109</ele>
        <time>2019-04-11T14:39:55Z</time>
      </trkpt>
      <trkpt lat="48.3631" lon="2.74344">
        <ele>108.80000305176</ele>
        <time>2019-04-11T14:40:00Z</time>
      </trkpt>
      <trkpt lat="48.3631" lon="2.74352">
        <ele>109</ele>
        <time>2019-04-11T14:40:05Z</time>
      </trkpt>
      <trkpt lat="48.36311" lon="2.74359">
        <ele>109</ele>
        <time>2019-04-11T14:40:10Z</time>
      </trkpt>
      <trkpt lat="48.36311" lon="2.74368">
        <ele>109</ele>
        <time>2019-04-11T14:40:15Z</time>
      </trkpt>
      <trkpt lat="48.36311" lon="2.74375">
        <ele>109.19999694824</ele>
        <time>2019-04-11T14:40:20Z</time>
      </trkpt>
      <trkpt lat="48.36312" lon="2.74382">
        <ele>109.40000152588</ele>
        <time>2019-04-11T14:40:25Z</time>
      </trkpt>
      <trkpt lat="48.36312" lon="2.7439">
        <ele>109.59999847412</ele>
        <time>2019-04-11T14:40:30Z</time>
      </trkpt>
      <trkpt lat="48.36313" lon="2.74399">
        <ele>109.80000305176</ele>
        <time>2019-04-11T14:40:35Z</time>
      </trkpt>
      <trkpt lat="48.36314" lon="2.74407">
        <ele>110</ele>
        <time>2019-04-11T14:40:40Z</time>
      </trkpt>
      <trkpt lat="48.36314" lon="2.74415">
        <ele>110.19999694824</ele>
        <time>2019-04-11T14:40:45Z</time>
      </trkpt>
      <trkpt lat="48.36315" lon="2.74422">
        <ele>110.80000305176</ele>
        <time>2019-04-11T14:40:50Z</time>
      </trkpt>
      <trkpt lat="48.36316" lon="2.74431">
        <ele>111</ele>
        <time>2019-04-11T14:40:55Z</time>
      </trkpt>
      <trkpt lat="48.36315" lon="2.74439">
        <ele>111.19999694824</ele>
        <time>2019-04-11T14:41:00Z</time>
      </trkpt>
      <trkpt lat="48.36315" lon="2.74447">
        <ele>111</ele>
        <time>2019-04-11T14:41:05Z</time>
      </trkpt>
      <trkpt lat="48.36315" lon="2.74455">
        <ele>111.40000152588</ele>
        <time>2019-04-11T14:41:10Z</time>
      </trkpt>
      <trkpt lat="48.36316" lon="2.74463">
        <ele>111.80000305176</ele>
        <time>2019-04-11T14:41:15Z</time>
      </trkpt>
      <trkpt lat="48.36316" lon="2.74472">
        <ele>112</ele>
        <time>2019-04-11T14:41:20Z</time>
      </trkpt>
      <trkpt lat="48.36317" lon="2.7448">
        <ele>112</ele>
        <time>2019-04-11T14:41:25Z</time>
      </trkpt>
      <trkpt lat="48.36318" lon="2.74489">
        <ele>112.19999694824</ele>
        <time>2019-04-11T14:41:30Z</time>
      </trkpt>
      <trkpt lat="48.36319" lon="2.74497">
        <ele>112</ele>
        <time>2019-04-11T14:41:35Z</time>
      </trkpt>
      <trkpt lat="48.36319" lon="2.74508">
        <ele>112.40000152588</ele>
        <time>2019-04-11T14:41:40Z</time>
      </trkpt>
      <trkpt lat="48.36319" lon="2.74517">
        <ele>112.80000305176</ele>
        <time>2019-04-11T14:41:45Z</time>
      </trkpt>
      <trkpt lat="48.36318" lon="2.74524">
        <ele>113.40000152588</ele>
        <time>2019-04-11T14:41:50Z</time>
      </trkpt>
      <trkpt lat="48.36319" lon="2.74525">
        <ele>113.40000152588</ele>
        <time>2019-04-11T14:41:55Z</time>
      </trkpt>
      <trkpt lat="48.3632" lon="2.74529">
        <ele>113.40000152588</ele>
        <time>2019-04-11T14:42:00Z</time>
      </trkpt>
      <trkpt lat="48.3632" lon="2.74535">
        <ele>113.40000152588</ele>
        <time>2019-04-11T14:42:05Z</time>
      </trkpt>
      <trkpt lat="48.36321" lon="2.74545">
        <ele>113.59999847412</ele>
        <time>2019-04-11T14:42:10Z</time>
      </trkpt>
      <trkpt lat="48.36322" lon="2.74553">
        <ele>113.80000305176</ele>
        <time>2019-04-11T14:42:15Z</time>
      </trkpt>
      <trkpt lat="48.36321" lon="2.74561">
        <ele>114.40000152588</ele>
        <time>2019-04-11T14:42:20Z</time>
      </trkpt>
      <trkpt lat="48.3632" lon="2.74561">
        <ele>114.80000305176</ele>
        <time>2019-04-11T14:42:25Z</time>
      </trkpt>
      <trkpt lat="48.36322" lon="2.74556">
        <ele>114.80000305176</ele>
        <time>2019-04-11T14:42:30Z</time>
      </trkpt>
      <trkpt lat="48.36322" lon="2.74551">
        <ele>114.40000152588</ele>
        <time>2019-04-11T14:42:35Z</time>
      </trkpt>
      <trkpt lat="48.36323" lon="2.74547">
        <ele>114</ele>
        <time>2019-04-11T14:42:40Z</time>
      </trkpt>
      <trkpt lat="48.36322" lon="2.74543">
        <ele>113.80000305176</ele>
        <time>2019-04-11T14:42:45Z</time>
      </trkpt>
      <trkpt lat="48.36322" lon="2.74539">
        <ele>113.40000152588</ele>
        <time>2019-04-11T14:42:50Z</time>
      </trkpt>
      <trkpt lat="48.36322" lon="2.74536">
        <ele>113.19999694824</ele>
        <time>2019-04-11T14:42:55Z</time>
      </trkpt>
      <trkpt lat="48.36322" lon="2.74535">
        <ele>113</ele>
        <time>2019-04-11T14:43:00Z</time>
      </trkpt>
      <trkpt lat="48.36323" lon="2.74534">
        <ele>113.19999694824</ele>
        <time>2019-04-11T14:43:05Z</time>
      </trkpt>
      <trkpt lat="48.36323" lon="2.74533">
        <ele>113.40000152588</ele>
        <time>2019-04-11T14:43:10Z</time>
      </trkpt>
      <trkpt lat="48.36323" lon="2.74532">
        <ele>113.59999847412</ele>
        <time>2019-04-11T14:43:15Z</time>
      </trkpt>
      <trkpt lat="48.36323" lon="2.7453">
        <ele>113.59999847412</ele>
        <time>2019-04-11T14:43:20Z</time>
      </trkpt>
      <trkpt lat="48.36324" lon="2.7453">
        <ele>113.80000305176</ele>
        <time>2019-04-11T14:43:25Z</time>
      </trkpt>
      <trkpt lat="48.36328" lon="2.74526">
        <ele>113.59999847412</ele>
        <time>2019-04-11T14:43:30Z</time>
      </trkpt>
      <trkpt lat="48.3633" lon="2.74526">
        <ele>113.80000305176</ele>
        <time>2019-04-11T14:43:35Z</time>
      </trkpt>
      <trkpt lat="48.36334" lon="2.74525">
        <ele>113.80000305176</ele>
        <time>2019-04-11T14:43:40Z</time>
      </trkpt>
      <trkpt lat="48.36337" lon="2.74525">
        <ele>114.19999694824</ele>
        <time>2019-04-11T14:43:45Z</time>
      </trkpt>
      <trkpt lat="48.36339" lon="2.74526">
        <ele>114.59999847412</ele>
        <time>2019-04-11T14:43:50Z</time>
      </trkpt>
      <trkpt lat="48.36343" lon="2.74526">
        <ele>114.80000305176</ele>
        <time>2019-04-11T14:43:55Z</time>
      </trkpt>
      <trkpt lat="48.36347" lon="2.74525">
        <ele>115</ele>
        <time>2019-04-11T14:44:00Z</time>
      </trkpt>
      <trkpt lat="48.36351" lon="2.74524">
        <ele>115.59999847412</ele>
        <time>2019-04-11T14:44:05Z</time>
      </trkpt>
      <trkpt lat="48.36357" lon="2.74523">
        <ele>116.40000152588</ele>
        <time>2019-04-11T14:44:10Z</time>
      </trkpt>
      <trkpt lat="48.3636" lon="2.74521">
        <ele>116.80000305176</ele>
        <time>2019-04-11T14:44:15Z</time>
      </trkpt>
      <trkpt lat="48.36364" lon="2.7452">
        <ele>117.40000152588</ele>
        <time>2019-04-11T14:44:20Z</time>
      </trkpt>
      <trkpt lat="48.36368" lon="2.74519">
        <ele>118.19999694824</ele>
        <time>2019-04-11T14:44:25Z</time>
      </trkpt>
      <trkpt lat="48.36371" lon="2.74518">
        <ele>118.80000305176</ele>
        <time>2019-04-11T14:44:30Z</time>
      </trkpt>
      <trkpt lat="48.36376" lon="2.74518">
        <ele>119.40000152588</ele>
        <time>2019-04-11T14:44:35Z</time>
      </trkpt>
      <trkpt lat="48.36383" lon="2.74518">
        <ele>119.40000152588</ele>
        <time>2019-04-11T14:44:40Z</time>
      </trkpt>
      <trkpt lat="48.36388" lon="2.74516">
        <ele>119</ele>
        <time>2019-04-11T14:44:45Z</time>
      </trkpt>
      <trkpt lat="48.36393" lon="2.74515">
        <ele>118.59999847412</ele>
        <time>2019-04-11T14:44:50Z</time>
      </trkpt>
      <trkpt lat="48.36398" lon="2.74513">
        <ele>118.19999694824</ele>
        <time>2019-04-11T14:44:55Z</time>
      </trkpt>
      <trkpt lat="48.36403" lon="2.74513">
        <ele>117.59999847412</ele>
        <time>2019-04-11T14:45:00Z</time>
      </trkpt>
      <trkpt lat="48.36408" lon="2.74511">
        <ele>117.19999694824</ele>
        <time>2019-04-11T14:45:05Z</time>
      </trkpt>
      <trkpt lat="48.36412" lon="2.74511">
        <ele>117</ele>
        <time>2019-04-11T14:45:10Z</time>
      </trkpt>
      <trkpt lat="48.36417" lon="2.74511">
        <ele>115.80000305176</ele>
        <time>2019-04-11T14:45:15Z</time>
      </trkpt>
      <trkpt lat="48.36421" lon="2.74511">
        <ele>115.19999694824</ele>
        <time>2019-04-11T14:45:20Z</time>
      </trkpt>
      <trkpt lat="48.36428" lon="2.74508">
        <ele>115</ele>
        <time>2019-04-11T14:45:25Z</time>
      </trkpt>
      <trkpt lat="48.36433" lon="2.74508">
        <ele>114.59999847412</ele>
        <time>2019-04-11T14:45:30Z</time>
      </trkpt>
      <trkpt lat="48.36439" lon="2.74506">
        <ele>114</ele>
        <time>2019-04-11T14:45:35Z</time>
      </trkpt>
      <trkpt lat="48.36446" lon="2.74505">
        <ele>113.80000305176</ele>
        <time>2019-04-11T14:45:40Z</time>
      </trkpt>
      <trkpt lat="48.36452" lon="2.74504">
        <ele>113.19999694824</ele>
        <time>2019-04-11T14:45:45Z</time>
      </trkpt>
      <trkpt lat="48.36457" lon="2.74503">
        <ele>113</ele>
        <time>2019-04-11T14:45:50Z</time>
      </trkpt>
      <trkpt lat="48.36462" lon="2.74502">
        <ele>112.80000305176</ele>
        <time>2019-04-11T14:45:55Z</time>
      </trkpt>
      <trkpt lat="48.3647" lon="2.74502">
        <ele>112.40000152588</ele>
        <time>2019-04-11T14:46:00Z</time>
      </trkpt>
      <trkpt lat="48.36476" lon="2.745">
        <ele>112</ele>
        <time>2019-04-11T14:46:05Z</time>
      </trkpt>
      <trkpt lat="48.36482" lon="2.74498">
        <ele>111.59999847412</ele>
        <time>2019-04-11T14:46:10Z</time>
      </trkpt>
      <trkpt lat="48.36488" lon="2.74496">
        <ele>111.59999847412</ele>
        <time>2019-04-11T14:46:15Z</time>
      </trkpt>
      <trkpt lat="48.36493" lon="2.74495">
        <ele>111.40000152588</ele>
        <time>2019-04-11T14:46:20Z</time>
      </trkpt>
      <trkpt lat="48.36499" lon="2.74495">
        <ele>111</ele>
        <time>2019-04-11T14:46:25Z</time>
      </trkpt>
      <trkpt lat="48.36505" lon="2.74493">
        <ele>111</ele>
        <time>2019-04-11T14:46:30Z</time>
      </trkpt>
      <trkpt lat="48.36512" lon="2.74492">
        <ele>111</ele>
        <time>2019-04-11T14:46:35Z</time>
      </trkpt>
      <trkpt lat="48.36517" lon="2.74491">
        <ele>111</ele>
        <time>2019-04-11T14:46:40Z</time>
      </trkpt>
      <trkpt lat="48.36523" lon="2.7449">
        <ele>110.40000152588</ele>
        <time>2019-04-11T14:46:45Z</time>
      </trkpt>
      <trkpt lat="48.36527" lon="2.7449">
        <ele>110</ele>
        <time>2019-04-11T14:46:50Z</time>
      </trkpt>
      <trkpt lat="48.3653" lon="2.74489">
        <ele>109.40000152588</ele>
        <time>2019-04-11T14:46:55Z</time>
      </trkpt>
      <trkpt lat="48.36535" lon="2.74488">
        <ele>108.40000152588</ele>
        <time>2019-04-11T14:47:00Z</time>
      </trkpt>
      <trkpt lat="48.36542" lon="2.74485">
        <ele>107.80000305176</ele>
        <time>2019-04-11T14:47:05Z</time>
      </trkpt>
      <trkpt lat="48.36548" lon="2.74484">
        <ele>107.59999847412</ele>
        <time>2019-04-11T14:47:10Z</time>
      </trkpt>
      <trkpt lat="48.36554" lon="2.74482">
        <ele>107.40000152588</ele>
        <time>2019-04-11T14:47:15Z</time>
      </trkpt>
      <trkpt lat="48.3656" lon="2.74481">
        <ele>108.19999694824</ele>
        <time>2019-04-11T14:47:20Z</time>
      </trkpt>
      <trkpt lat="48.36565" lon="2.74479">
        <ele>108.40000152588</ele>
        <time>2019-04-11T14:47:25Z</time>
      </trkpt>
      <trkpt lat="48.3657" lon="2.74477">
        <ele>107.59999847412</ele>
        <time>2019-04-11T14:47:30Z</time>
      </trkpt>
      <trkpt lat="48.36575" lon="2.74478">
        <ele>107</ele>
        <time>2019-04-11T14:47:35Z</time>
      </trkpt>
      <trkpt lat="48.3658" lon="2.74476">
        <ele>107.40000152588</ele>
        <time>2019-04-11T14:47:40Z</time>
      </trkpt>
      <trkpt lat="48.36588" lon="2.74475">
        <ele>108.19999694824</ele>
        <time>2019-04-11T14:47:45Z</time>
      </trkpt>
      <trkpt lat="48.36595" lon="2.74473">
        <ele>108.19999694824</ele>
        <time>2019-04-11T14:47:50Z</time>
      </trkpt>
      <trkpt lat="48.36601" lon="2.74473">
        <ele>108</ele>
        <time>2019-04-11T14:47:55Z</time>
      </trkpt>
      <trkpt lat="48.36607" lon="2.74472">
        <ele>108</ele>
        <time>2019-04-11T14:48:00Z</time>
      </trkpt>
      <trkpt lat="48.36613" lon="2.7447">
        <ele>107.80000305176</ele>
        <time>2019-04-11T14:48:05Z</time>
      </trkpt>
      <trkpt lat="48.36618" lon="2.7447">
        <ele>107.80000305176</ele>
        <time>2019-04-11T14:48:10Z</time>
      </trkpt>
      <trkpt lat="48.36624" lon="2.74469">
        <ele>107.80000305176</ele>
        <time>2019-04-11T14:48:15Z</time>
      </trkpt>
      <trkpt lat="48.36628" lon="2.7447">
        <ele>108.19999694824</ele>
        <time>2019-04-11T14:48:20Z</time>
      </trkpt>
      <trkpt lat="48.36632" lon="2.74473">
        <ele>108.80000305176</ele>
        <time>2019-04-11T14:48:25Z</time>
      </trkpt>
      <trkpt lat="48.36635" lon="2.74471">
        <ele>109.19999694824</ele>
        <time>2019-04-11T14:48:30Z</time>
      </trkpt>
      <trkpt lat="48.3664" lon="2.74465">
        <ele>109.19999694824</ele>
        <time>2019-04-11T14:48:35Z</time>
      </trkpt>
      <trkpt lat="48.36643" lon="2.74456">
        <ele>109.19999694824</ele>
        <time>2019-04-11T14:48:40Z</time>
      </trkpt>
      <trkpt lat="48.36644" lon="2.74447">
        <ele>109.19999694824</ele>
        <time>2019-04-11T14:48:45Z</time>
      </trkpt>
      <trkpt lat="48.36646" lon="2.74439">
        <ele>109.19999694824</ele>
        <time>2019-04-11T14:48:50Z</time>
      </trkpt>
      <trkpt lat="48.36647" lon="2.74429">
        <ele>109.19999694824</ele>
        <time>2019-04-11T14:48:55Z</time>
      </trkpt>
      <trkpt lat="48.36648" lon="2.74424">
        <ele>109.19999694824</ele>
        <time>2019-04-11T14:49:00Z</time>
      </trkpt>
      <trkpt lat="48.36649" lon="2.74414">
        <ele>109.19999694824</ele>
        <time>2019-04-11T14:49:05Z</time>
      </trkpt>
      <trkpt lat="48.36651" lon="2.74407">
        <ele>109.19999694824</ele>
        <time>2019-04-11T14:49:10Z</time>
      </trkpt>
      <trkpt lat="48.36653" lon="2.744">
        <ele>109.19999694824</ele>
        <time>2019-04-11T14:49:15Z</time>
      </trkpt>
      <trkpt lat="48.36654" lon="2.74391">
        <ele>109.19999694824</ele>
        <time>2019-04-11T14:49:20Z</time>
      </trkpt>
      <trkpt lat="48.36655" lon="2.74382">
        <ele>109.19999694824</ele>
        <time>2019-04-11T14:49:25Z</time>
      </trkpt>
      <trkpt lat="48.36656" lon="2.74373">
        <ele>109</ele>
        <time>2019-04-11T14:49:30Z</time>
      </trkpt>
      <trkpt lat="48.36657" lon="2.74366">
        <ele>109</ele>
        <time>2019-04-11T14:49:35Z</time>
      </trkpt>
      <trkpt lat="48.36658" lon="2.74357">
        <ele>109</ele>
        <time>2019-04-11T14:49:40Z</time>
      </trkpt>
      <trkpt lat="48.3666" lon="2.74349">
        <ele>109</ele>
        <time>2019-04-11T14:49:45Z</time>
      </trkpt>
      <trkpt lat="48.36662" lon="2.74341">
        <ele>109</ele>
        <time>2019-04-11T14:49:50Z</time>
      </trkpt>
      <trkpt lat="48.36663" lon="2.74333">
        <ele>109</ele>
        <time>2019-04-11T14:49:55Z</time>
      </trkpt>
      <trkpt lat="48.36663" lon="2.74326">
        <ele>109.19999694824</ele>
        <time>2019-04-11T14:50:00Z</time>
      </trkpt>
      <trkpt lat="48.36665" lon="2.74317">
        <ele>109.19999694824</ele>
        <time>2019-04-11T14:50:05Z</time>
      </trkpt>
      <trkpt lat="48.36667" lon="2.7431">
        <ele>109.40000152588</ele>
        <time>2019-04-11T14:50:10Z</time>
      </trkpt>
      <trkpt lat="48.36668" lon="2.74302">
        <ele>109.40000152588</ele>
        <time>2019-04-11T14:50:15Z</time>
      </trkpt>
      <trkpt lat="48.36669" lon="2.74296">
        <ele>109.80000305176</ele>
        <time>2019-04-11T14:50:20Z</time>
      </trkpt>
      <trkpt lat="48.3667" lon="2.74289">
        <ele>110</ele>
        <time>2019-04-11T14:50:25Z</time>
      </trkpt>
      <trkpt lat="48.36672" lon="2.74277">
        <ele>110.19999694824</ele>
        <time>2019-04-11T14:50:30Z</time>
      </trkpt>
      <trkpt lat="48.36676" lon="2.74268">
        <ele>110.19999694824</ele>
        <time>2019-04-11T14:50:35Z</time>
      </trkpt>
      <trkpt lat="48.36678" lon="2.74259">
        <ele>110.19999694824</ele>
        <time>2019-04-11T14:50:40Z</time>
      </trkpt>
      <trkpt lat="48.3668" lon="2.74249">
        <ele>110.19999694824</ele>
        <time>2019-04-11T14:50:45Z</time>
      </trkpt>
      <trkpt lat="48.36681" lon="2.74239">
        <ele>110.19999694824</ele>
        <time>2019-04-11T14:50:50Z</time>
      </trkpt>
      <trkpt lat="48.36682" lon="2.74228">
        <ele>110.19999694824</ele>
        <time>2019-04-11T14:50:55Z</time>
      </trkpt>
      <trkpt lat="48.36683" lon="2.74222">
        <ele>110.19999694824</ele>
        <time>2019-04-11T14:51:00Z</time>
      </trkpt>
      <trkpt lat="48.36681" lon="2.74218">
        <ele>110.19999694824</ele>
        <time>2019-04-11T14:51:05Z</time>
      </trkpt>
      <trkpt lat="48.36681" lon="2.7421">
        <ele>110.40000152588</ele>
        <time>2019-04-11T14:51:10Z</time>
      </trkpt>
      <trkpt lat="48.36682" lon="2.74201">
        <ele>110.59999847412</ele>
        <time>2019-04-11T14:51:15Z</time>
      </trkpt>
      <trkpt lat="48.36682" lon="2.74193">
        <ele>110.59999847412</ele>
        <time>2019-04-11T14:51:20Z</time>
      </trkpt>
      <trkpt lat="48.36683" lon="2.74185">
        <ele>110.80000305176</ele>
        <time>2019-04-11T14:51:25Z</time>
      </trkpt>
      <trkpt lat="48.36684" lon="2.74175">
        <ele>111</ele>
        <time>2019-04-11T14:51:30Z</time>
      </trkpt>
      <trkpt lat="48.36684" lon="2.74166">
        <ele>111.40000152588</ele>
        <time>2019-04-11T14:51:35Z</time>
      </trkpt>
      <trkpt lat="48.36685" lon="2.74158">
        <ele>111.40000152588</ele>
        <time>2019-04-11T14:51:40Z</time>
      </trkpt>
      <trkpt lat="48.36686" lon="2.7415">
        <ele>111.59999847412</ele>
        <time>2019-04-11T14:51:45Z</time>
      </trkpt>
      <trkpt lat="48.36687" lon="2.74141">
        <ele>111.59999847412</ele>
        <time>2019-04-11T14:51:50Z</time>
      </trkpt>
      <trkpt lat="48.36689" lon="2.74134">
        <ele>111.59999847412</ele>
        <time>2019-04-11T14:51:55Z</time>
      </trkpt>
      <trkpt lat="48.3669" lon="2.74125">
        <ele>111.19999694824</ele>
        <time>2019-04-11T14:52:00Z</time>
      </trkpt>
      <trkpt lat="48.36691" lon="2.74114">
        <ele>111</ele>
        <time>2019-04-11T14:52:05Z</time>
      </trkpt>
      <trkpt lat="48.36694" lon="2.74103">
        <ele>110.80000305176</ele>
        <time>2019-04-11T14:52:10Z</time>
      </trkpt>
      <trkpt lat="48.36696" lon="2.74091">
        <ele>110.59999847412</ele>
        <time>2019-04-11T14:52:15Z</time>
      </trkpt>
      <trkpt lat="48.36696" lon="2.74082">
        <ele>110.59999847412</ele>
        <time>2019-04-11T14:52:20Z</time>
      </trkpt>
      <trkpt lat="48.36698" lon="2.74073">
        <ele>110.59999847412</ele>
        <time>2019-04-11T14:52:25Z</time>
      </trkpt>
      <trkpt lat="48.36698" lon="2.74062">
        <ele>110.80000305176</ele>
        <time>2019-04-11T14:52:30Z</time>
      </trkpt>
      <trkpt lat="48.36699" lon="2.74054">
        <ele>111</ele>
        <time>2019-04-11T14:52:35Z</time>
      </trkpt>
      <trkpt lat="48.36701" lon="2.74047">
        <ele>111</ele>
        <time>2019-04-11T14:52:40Z</time>
      </trkpt>
      <trkpt lat="48.36703" lon="2.74039">
        <ele>111.19999694824</ele>
        <time>2019-04-11T14:52:45Z</time>
      </trkpt>
      <trkpt lat="48.36704" lon="2.74032">
        <ele>111.19999694824</ele>
        <time>2019-04-11T14:52:50Z</time>
      </trkpt>
      <trkpt lat="48.36706" lon="2.74025">
        <ele>111.40000152588</ele>
        <time>2019-04-11T14:52:55Z</time>
      </trkpt>
      <trkpt lat="48.36708" lon="2.74018">
        <ele>111.40000152588</ele>
        <time>2019-04-11T14:53:00Z</time>
      </trkpt>
      <trkpt lat="48.36709" lon="2.74007">
        <ele>111.40000152588</ele>
        <time>2019-04-11T14:53:05Z</time>
      </trkpt>
      <trkpt lat="48.3671" lon="2.73996">
        <ele>111.40000152588</ele>
        <time>2019-04-11T14:53:10Z</time>
      </trkpt>
      <trkpt lat="48.3671" lon="2.73987">
        <ele>111.40000152588</ele>
        <time>2019-04-11T14:53:15Z</time>
      </trkpt>
      <trkpt lat="48.36711" lon="2.73978">
        <ele>111.19999694824</ele>
        <time>2019-04-11T14:53:20Z</time>
      </trkpt>
      <trkpt lat="48.36711" lon="2.73971">
        <ele>111.19999694824</ele>
        <time>2019-04-11T14:53:25Z</time>
      </trkpt>
      <trkpt lat="48.36713" lon="2.73962">
        <ele>111.40000152588</ele>
        <time>2019-04-11T14:53:30Z</time>
      </trkpt>
      <trkpt lat="48.36714" lon="2.73954">
        <ele>111.40000152588</ele>
        <time>2019-04-11T14:53:35Z</time>
      </trkpt>
      <trkpt lat="48.36717" lon="2.73946">
        <ele>111.40000152588</ele>
        <time>2019-04-11T14:53:40Z</time>
      </trkpt>
      <trkpt lat="48.36718" lon="2.73937">
        <ele>111.40000152588</ele>
        <time>2019-04-11T14:53:45Z</time>
      </trkpt>
      <trkpt lat="48.36717" lon="2.73927">
        <ele>111.40000152588</ele>
        <time>2019-04-11T14:53:50Z</time>
      </trkpt>
      <trkpt lat="48.36718" lon="2.73918">
        <ele>111.59999847412</ele>
        <time>2019-04-11T14:53:55Z</time>
      </trkpt>
      <trkpt lat="48.36719" lon="2.73915">
        <ele>112</ele>
        <time>2019-04-11T14:54:00Z</time>
      </trkpt>
      <trkpt lat="48.3672" lon="2.73904">
        <ele>112.19999694824</ele>
        <time>2019-04-11T14:54:05Z</time>
      </trkpt>
      <trkpt lat="48.36721" lon="2.73893">
        <ele>112.59999847412</ele>
        <time>2019-04-11T14:54:10Z</time>
      </trkpt>
      <trkpt lat="48.36722" lon="2.73883">
        <ele>112.80000305176</ele>
        <time>2019-04-11T14:54:15Z</time>
      </trkpt>
      <trkpt lat="48.36724" lon="2.73876">
        <ele>113.40000152588</ele>
        <time>2019-04-11T14:54:20Z</time>
      </trkpt>
      <trkpt lat="48.36726" lon="2.73867">
        <ele>113.80000305176</ele>
        <time>2019-04-11T14:54:25Z</time>
      </trkpt>
      <trkpt lat="48.36726" lon="2.73857">
        <ele>114</ele>
        <time>2019-04-11T14:54:30Z</time>
      </trkpt>
      <trkpt lat="48.36727" lon="2.73848">
        <ele>114</ele>
        <time>2019-04-11T14:54:35Z</time>
      </trkpt>
      <trkpt lat="48.36729" lon="2.73839">
        <ele>114</ele>
        <time>2019-04-11T14:54:40Z</time>
      </trkpt>
      <trkpt lat="48.36732" lon="2.73831">
        <ele>114</ele>
        <time>2019-04-11T14:54:45Z</time>
      </trkpt>
      <trkpt lat="48.36733" lon="2.73823">
        <ele>114</ele>
        <time>2019-04-11T14:54:50Z</time>
      </trkpt>
      <trkpt lat="48.36735" lon="2.73815">
        <ele>114</ele>
        <time>2019-04-11T14:54:55Z</time>
      </trkpt>
      <trkpt lat="48.36737" lon="2.73804">
        <ele>114</ele>
        <time>2019-04-11T14:55:00Z</time>
      </trkpt>
      <trkpt lat="48.36739" lon="2.73796">
        <ele>114</ele>
        <time>2019-04-11T14:55:05Z</time>
      </trkpt>
      <trkpt lat="48.3674" lon="2.73787">
        <ele>113.59999847412</ele>
        <time>2019-04-11T14:55:10Z</time>
      </trkpt>
      <trkpt lat="48.3674" lon="2.73778">
        <ele>113.59999847412</ele>
        <time>2019-04-11T14:55:15Z</time>
      </trkpt>
      <trkpt lat="48.36741" lon="2.7377">
        <ele>113.59999847412</ele>
        <time>2019-04-11T14:55:20Z</time>
      </trkpt>
      <trkpt lat="48.36742" lon="2.73762">
        <ele>113.80000305176</ele>
        <time>2019-04-11T14:55:25Z</time>
      </trkpt>
      <trkpt lat="48.36743" lon="2.73752">
        <ele>114</ele>
        <time>2019-04-11T14:55:30Z</time>
      </trkpt>
      <trkpt lat="48.36744" lon="2.73743">
        <ele>113.80000305176</ele>
        <time>2019-04-11T14:55:35Z</time>
      </trkpt>
      <trkpt lat="48.36744" lon="2.73735">
        <ele>113.40000152588</ele>
        <time>2019-04-11T14:55:40Z</time>
      </trkpt>
      <trkpt lat="48.36744" lon="2.73727">
        <ele>112.40000152588</ele>
        <time>2019-04-11T14:55:45Z</time>
      </trkpt>
      <trkpt lat="48.36746" lon="2.73717">
        <ele>111.80000305176</ele>
        <time>2019-04-11T14:55:50Z</time>
      </trkpt>
      <trkpt lat="48.36748" lon="2.73709">
        <ele>111.19999694824</ele>
        <time>2019-04-11T14:55:55Z</time>
      </trkpt>
      <trkpt lat="48.3675" lon="2.737">
        <ele>111</ele>
        <time>2019-04-11T14:56:00Z</time>
      </trkpt>
      <trkpt lat="48.36752" lon="2.7369">
        <ele>110.80000305176</ele>
        <time>2019-04-11T14:56:05Z</time>
      </trkpt>
      <trkpt lat="48.36752" lon="2.73682">
        <ele>110.40000152588</ele>
        <time>2019-04-11T14:56:10Z</time>
      </trkpt>
      <trkpt lat="48.36753" lon="2.73676">
        <ele>109.80000305176</ele>
        <time>2019-04-11T14:56:15Z</time>
      </trkpt>
      <trkpt lat="48.36753" lon="2.73666">
        <ele>109.59999847412</ele>
        <time>2019-04-11T14:56:20Z</time>
      </trkpt>
      <trkpt lat="48.36753" lon="2.7366">
        <ele>109.19999694824</ele>
        <time>2019-04-11T14:56:25Z</time>
      </trkpt>
      <trkpt lat="48.36752" lon="2.7365">
        <ele>109.19999694824</ele>
        <time>2019-04-11T14:56:30Z</time>
      </trkpt>
      <trkpt lat="48.36752" lon="2.7364">
        <ele>109</ele>
        <time>2019-04-11T14:56:35Z</time>
      </trkpt>
      <trkpt lat="48.36752" lon="2.7363">
        <ele>108.59999847412</ele>
        <time>2019-04-11T14:56:40Z</time>
      </trkpt>
      <trkpt lat="48.36753" lon="2.73622">
        <ele>108.19999694824</ele>
        <time>2019-04-11T14:56:45Z</time>
      </trkpt>
      <trkpt lat="48.36753" lon="2.73614">
        <ele>107.40000152588</ele>
        <time>2019-04-11T14:56:50Z</time>
      </trkpt>
      <trkpt lat="48.36754" lon="2.73608">
        <ele>107.19999694824</ele>
        <time>2019-04-11T14:56:55Z</time>
      </trkpt>
      <trkpt lat="48.36755" lon="2.73599">
        <ele>106.80000305176</ele>
        <time>2019-04-11T14:57:00Z</time>
      </trkpt>
      <trkpt lat="48.36756" lon="2.73589">
        <ele>106.59999847412</ele>
        <time>2019-04-11T14:57:05Z</time>
      </trkpt>
      <trkpt lat="48.36758" lon="2.73582">
        <ele>106.59999847412</ele>
        <time>2019-04-11T14:57:10Z</time>
      </trkpt>
      <trkpt lat="48.3676" lon="2.73573">
        <ele>106.40000152588</ele>
        <time>2019-04-11T14:57:15Z</time>
      </trkpt>
      <trkpt lat="48.36759" lon="2.73565">
        <ele>106.19999694824</ele>
        <time>2019-04-11T14:57:20Z</time>
      </trkpt>
      <trkpt lat="48.36762" lon="2.73556">
        <ele>105.80000305176</ele>
        <time>2019-04-11T14:57:25Z</time>
      </trkpt>
      <trkpt lat="48.36763" lon="2.73549">
        <ele>105.59999847412</ele>
        <time>2019-04-11T14:57:30Z</time>
      </trkpt>
      <trkpt lat="48.36763" lon="2.73541">
        <ele>105.40000152588</ele>
        <time>2019-04-11T14:57:35Z</time>
      </trkpt>
      <trkpt lat="48.36764" lon="2.73538">
        <ele>105.19999694824</ele>
        <time>2019-04-11T14:57:40Z</time>
      </trkpt>
      <trkpt lat="48.36764" lon="2.73538">
        <ele>105.40000152588</ele>
        <time>2019-04-11T14:57:45Z</time>
      </trkpt>
      <trkpt lat="48.36763" lon="2.73538">
        <ele>105.59999847412</ele>
        <time>2019-04-11T14:57:50Z</time>
      </trkpt>
      <trkpt lat="48.36763" lon="2.7354">
        <ele>105.80000305176</ele>
        <time>2019-04-11T14:57:55Z</time>
      </trkpt>
      <trkpt lat="48.36763" lon="2.73541">
        <ele>106.19999694824</ele>
        <time>2019-04-11T14:58:00Z</time>
      </trkpt>
      <trkpt lat="48.36765" lon="2.7354">
        <ele>106</ele>
        <time>2019-04-11T14:58:05Z</time>
      </trkpt>
      <trkpt lat="48.36765" lon="2.73541">
        <ele>105.59999847412</ele>
        <time>2019-04-11T14:58:10Z</time>
      </trkpt>
      <trkpt lat="48.36766" lon="2.73541">
        <ele>105.40000152588</ele>
        <time>2019-04-11T14:58:15Z</time>
      </trkpt>
      <trkpt lat="48.36766" lon="2.7354">
        <ele>105.40000152588</ele>
        <time>2019-04-11T14:58:20Z</time>
      </trkpt>
      <trkpt lat="48.36765" lon="2.73536">
        <ele>105.59999847412</ele>
        <time>2019-04-11T14:58:25Z</time>
      </trkpt>
      <trkpt lat="48.36764" lon="2.73535">
        <ele>105.80000305176</ele>
        <time>2019-04-11T14:58:30Z</time>
      </trkpt>
      <trkpt lat="48.36765" lon="2.73534">
        <ele>106</ele>
        <time>2019-04-11T14:58:35Z</time>
      </trkpt>
      <trkpt lat="48.36766" lon="2.73534">
        <ele>106</ele>
        <time>2019-04-11T14:58:40Z</time>
      </trkpt>
      <trkpt lat="48.36765" lon="2.73533">
        <ele>106</ele>
        <time>2019-04-11T14:58:45Z</time>
      </trkpt>
      <trkpt lat="48.36765" lon="2.73533">
        <ele>106.19999694824</ele>
        <time>2019-04-11T14:58:50Z</time>
      </trkpt>
      <trkpt lat="48.36765" lon="2.73533">
        <ele>106.19999694824</ele>
        <time>2019-04-11T14:58:55Z</time>
      </trkpt>
      <trkpt lat="48.36765" lon="2.73532">
        <ele>106.59999847412</ele>
        <time>2019-04-11T14:59:00Z</time>
      </trkpt>
      <trkpt lat="48.36764" lon="2.73531">
        <ele>106.59999847412</ele>
        <time>2019-04-11T14:59:05Z</time>
      </trkpt>
      <trkpt lat="48.36765" lon="2.73533">
        <ele>106.40000152588</ele>
        <time>2019-04-11T14:59:10Z</time>
      </trkpt>
      <trkpt lat="48.36766" lon="2.73534">
        <ele>106.19999694824</ele>
        <time>2019-04-11T14:59:15Z</time>
      </trkpt>
      <trkpt lat="48.36766" lon="2.73536">
        <ele>106.19999694824</ele>
        <time>2019-04-11T14:59:20Z</time>
      </trkpt>
      <trkpt lat="48.36766" lon="2.73536">
        <ele>106.19999694824</ele>
        <time>2019-04-11T14:59:25Z</time>
      </trkpt>
      <trkpt lat="48.36767" lon="2.73536">
        <ele>106.19999694824</ele>
        <time>2019-04-11T14:59:30Z</time>
      </trkpt>
      <trkpt lat="48.36768" lon="2.73537">
        <ele>106.19999694824</ele>
        <time>2019-04-11T14:59:35Z</time>
      </trkpt>
      <trkpt lat="48.36767" lon="2.73537">
        <ele>106</ele>
        <time>2019-04-11T14:59:40Z</time>
      </trkpt>
      <trkpt lat="48.36766" lon="2.73537">
        <ele>106</ele>
        <time>2019-04-11T14:59:45Z</time>
      </trkpt>
      <trkpt lat="48.36763" lon="2.73537">
        <ele>106</ele>
        <time>2019-04-11T14:59:50Z</time>
      </trkpt>
      <trkpt lat="48.36764" lon="2.73537">
        <ele>106</ele>
        <time>2019-04-11T14:59:55Z</time>
      </trkpt>
      <trkpt lat="48.36765" lon="2.73539">
        <ele>106</ele>
        <time>2019-04-11T15:00:00Z</time>
      </trkpt>
      <trkpt lat="48.36766" lon="2.73541">
        <ele>106</ele>
        <time>2019-04-11T15:00:05Z</time>
      </trkpt>
      <trkpt lat="48.36765" lon="2.73546">
        <ele>106</ele>
        <time>2019-04-11T15:00:10Z</time>
      </trkpt>
      <trkpt lat="48.36767" lon="2.73544">
        <ele>106</ele>
        <time>2019-04-11T15:00:15Z</time>
      </trkpt>
      <trkpt lat="48.36768" lon="2.73543">
        <ele>106</ele>
        <time>2019-04-11T15:00:20Z</time>
      </trkpt>
      <trkpt lat="48.36768" lon="2.73544">
        <ele>106</ele>
        <time>2019-04-11T15:00:25Z</time>
      </trkpt>
      <trkpt lat="48.36767" lon="2.73543">
        <ele>106</ele>
        <time>2019-04-11T15:00:30Z</time>
      </trkpt>
      <trkpt lat="48.36766" lon="2.73544">
        <ele>106</ele>
        <time>2019-04-11T15:00:35Z</time>
      </trkpt>
      <trkpt lat="48.36766" lon="2.73543">
        <ele>106</ele>
        <time>2019-04-11T15:00:40Z</time>
      </trkpt>
      <trkpt lat="48.36766" lon="2.73543">
        <ele>106</ele>
        <time>2019-04-11T15:00:45Z</time>
      </trkpt>
      <trkpt lat="48.36767" lon="2.73543">
        <ele>106</ele>
        <time>2019-04-11T15:00:50Z</time>
      </trkpt>
      <trkpt lat="48.36769" lon="2.73545">
        <ele>106</ele>
        <time>2019-04-11T15:00:55Z</time>
      </trkpt>
      <trkpt lat="48.3677" lon="2.73544">
        <ele>106</ele>
        <time>2019-04-11T15:01:00Z</time>
      </trkpt>
      <trkpt lat="48.36771" lon="2.73542">
        <ele>106</ele>
        <time>2019-04-11T15:01:05Z</time>
      </trkpt>
      <trkpt lat="48.36773" lon="2.73541">
        <ele>106</ele>
        <time>2019-04-11T15:01:10Z</time>
      </trkpt>
      <trkpt lat="48.36774" lon="2.73543">
        <ele>106</ele>
        <time>2019-04-11T15:01:15Z</time>
      </trkpt>
      <trkpt lat="48.36773" lon="2.73547">
        <ele>106</ele>
        <time>2019-04-11T15:01:20Z</time>
      </trkpt>
      <trkpt lat="48.36772" lon="2.73549">
        <ele>106</ele>
        <time>2019-04-11T15:01:25Z</time>
      </trkpt>
      <trkpt lat="48.36773" lon="2.73549">
        <ele>106</ele>
        <time>2019-04-11T15:01:30Z</time>
      </trkpt>
      <trkpt lat="48.36772" lon="2.73547">
        <ele>106</ele>
        <time>2019-04-11T15:01:35Z</time>
      </trkpt>
      <trkpt lat="48.36771" lon="2.73547">
        <ele>106</ele>
        <time>2019-04-11T15:01:40Z</time>
      </trkpt>
      <trkpt lat="48.36771" lon="2.73547">
        <ele>106</ele>
        <time>2019-04-11T15:01:45Z</time>
      </trkpt>
      <trkpt lat="48.36771" lon="2.73548">
        <ele>106</ele>
        <time>2019-04-11T15:01:50Z</time>
      </trkpt>
      <trkpt lat="48.36769" lon="2.7355">
        <ele>106</ele>
        <time>2019-04-11T15:01:55Z</time>
      </trkpt>
      <trkpt lat="48.36769" lon="2.73551">
        <ele>106</ele>
        <time>2019-04-11T15:02:00Z</time>
      </trkpt>
      <trkpt lat="48.36769" lon="2.73549">
        <ele>106</ele>
        <time>2019-04-11T15:02:05Z</time>
      </trkpt>
      <trkpt lat="48.36769" lon="2.73547">
        <ele>106</ele>
        <time>2019-04-11T15:02:10Z</time>
      </trkpt>
      <trkpt lat="48.36771" lon="2.73546">
        <ele>106</ele>
        <time>2019-04-11T15:02:15Z</time>
      </trkpt>
      <trkpt lat="48.36772" lon="2.73544">
        <ele>106</ele>
        <time>2019-04-11T15:02:20Z</time>
      </trkpt>
      <trkpt lat="48.36772" lon="2.73541">
        <ele>106</ele>
        <time>2019-04-11T15:02:25Z</time>
      </trkpt>
      <trkpt lat="48.36773" lon="2.7354">
        <ele>106</ele>
        <time>2019-04-11T15:02:30Z</time>
      </trkpt>
      <trkpt lat="48.36774" lon="2.7354">
        <ele>106</ele>
        <time>2019-04-11T15:02:35Z</time>
      </trkpt>
      <trkpt lat="48.36775" lon="2.73539">
        <ele>106</ele>
        <time>2019-04-11T15:02:40Z</time>
      </trkpt>
      <trkpt lat="48.36774" lon="2.73538">
        <ele>106</ele>
        <time>2019-04-11T15:02:45Z</time>
      </trkpt>
      <trkpt lat="48.36774" lon="2.73538">
        <ele>106</ele>
        <time>2019-04-11T15:02:50Z</time>
      </trkpt>
      <trkpt lat="48.36775" lon="2.73536">
        <ele>106</ele>
        <time>2019-04-11T15:02:55Z</time>
      </trkpt>
      <trkpt lat="48.36775" lon="2.73536">
        <ele>106</ele>
        <time>2019-04-11T15:03:00Z</time>
      </trkpt>
      <trkpt lat="48.36774" lon="2.73536">
        <ele>106</ele>
        <time>2019-04-11T15:03:05Z</time>
      </trkpt>
      <trkpt lat="48.36775" lon="2.73536">
        <ele>106</ele>
        <time>2019-04-11T15:03:10Z</time>
      </trkpt>
      <trkpt lat="48.36776" lon="2.73537">
        <ele>106</ele>
        <time>2019-04-11T15:03:15Z</time>
      </trkpt>
      <trkpt lat="48.36775" lon="2.73537">
        <ele>106</ele>
        <time>2019-04-11T15:03:20Z</time>
      </trkpt>
      <trkpt lat="48.36776" lon="2.73535">
        <ele>106</ele>
        <time>2019-04-11T15:03:25Z</time>
      </trkpt>
      <trkpt lat="48.36776" lon="2.73533">
        <ele>106</ele>
        <time>2019-04-11T15:03:30Z</time>
      </trkpt>
      <trkpt lat="48.36777" lon="2.73532">
        <ele>106</ele>
        <time>2019-04-11T15:03:35Z</time>
      </trkpt>
      <trkpt lat="48.36778" lon="2.73532">
        <ele>106</ele>
        <time>2019-04-11T15:03:40Z</time>
      </trkpt>
      <trkpt lat="48.36778" lon="2.73533">
        <ele>106</ele>
        <time>2019-04-11T15:03:45Z</time>
      </trkpt>
      <trkpt lat="48.36778" lon="2.73535">
        <ele>106</ele>
        <time>2019-04-11T15:03:50Z</time>
      </trkpt>
      <trkpt lat="48.36776" lon="2.73534">
        <ele>106</ele>
        <time>2019-04-11T15:03:55Z</time>
      </trkpt>
      <trkpt lat="48.36777" lon="2.73536">
        <ele>106</ele>
        <time>2019-04-11T15:04:00Z</time>
      </trkpt>
      <trkpt lat="48.36778" lon="2.73538">
        <ele>106</ele>
        <time>2019-04-11T15:04:05Z</time>
      </trkpt>
      <trkpt lat="48.36781" lon="2.73538">
        <ele>106</ele>
        <time>2019-04-11T15:04:10Z</time>
      </trkpt>
      <trkpt lat="48.36786" lon="2.73541">
        <ele>106</ele>
        <time>2019-04-11T15:04:15Z</time>
      </trkpt>
      <trkpt lat="48.36789" lon="2.73543">
        <ele>106</ele>
        <time>2019-04-11T15:04:20Z</time>
      </trkpt>
      <trkpt lat="48.36796" lon="2.73549">
        <ele>106</ele>
        <time>2019-04-11T15:04:25Z</time>
      </trkpt>
      <trkpt lat="48.36801" lon="2.73557">
        <ele>106</ele>
        <time>2019-04-11T15:04:30Z</time>
      </trkpt>
      <trkpt lat="48.36804" lon="2.73561">
        <ele>106</ele>
        <time>2019-04-11T15:04:35Z</time>
      </trkpt>
      <trkpt lat="48.36805" lon="2.73564">
        <ele>106</ele>
        <time>2019-04-11T15:04:40Z</time>
      </trkpt>
      <trkpt lat="48.36807" lon="2.73566">
        <ele>106</ele>
        <time>2019-04-11T15:04:45Z</time>
      </trkpt>
      <trkpt lat="48.3681" lon="2.7357">
        <ele>106.40000152588</ele>
        <time>2019-04-11T15:04:50Z</time>
      </trkpt>
      <trkpt lat="48.36818" lon="2.7358">
        <ele>109</ele>
        <time>2019-04-11T15:04:55Z</time>
      </trkpt>
      <trkpt lat="48.36823" lon="2.73587">
        <ele>109.19999694824</ele>
        <time>2019-04-11T15:05:00Z</time>
      </trkpt>
      <trkpt lat="48.36825" lon="2.73592">
        <ele>109.19999694824</ele>
        <time>2019-04-11T15:05:05Z</time>
      </trkpt>
      <trkpt lat="48.36832" lon="2.73599">
        <ele>109.40000152588</ele>
        <time>2019-04-11T15:05:10Z</time>
      </trkpt>
      <trkpt lat="48.36836" lon="2.73603">
        <ele>109.80000305176</ele>
        <time>2019-04-11T15:05:15Z</time>
      </trkpt>
      <trkpt lat="48.36839" lon="2.73607">
        <ele>110.19999694824</ele>
        <time>2019-04-11T15:05:20Z</time>
      </trkpt>
      <trkpt lat="48.36845" lon="2.73611">
        <ele>111</ele>
        <time>2019-04-11T15:05:25Z</time>
      </trkpt>
      <trkpt lat="48.36849" lon="2.73617">
        <ele>111.40000152588</ele>
        <time>2019-04-11T15:05:30Z</time>
      </trkpt>
      <trkpt lat="48.36853" lon="2.73622">
        <ele>111.40000152588</ele>
        <time>2019-04-11T15:05:35Z</time>
      </trkpt>
      <trkpt lat="48.36855" lon="2.73624">
        <ele>111.59999847412</ele>
        <time>2019-04-11T15:05:40Z</time>
      </trkpt>
      <trkpt lat="48.36857" lon="2.73627">
        <ele>111.80000305176</ele>
        <time>2019-04-11T15:05:45Z</time>
      </trkpt>
      <trkpt lat="48.36862" lon="2.73632">
        <ele>112</ele>
        <time>2019-04-11T15:05:50Z</time>
      </trkpt>
      <trkpt lat="48.36864" lon="2.73633">
        <ele>112.19999694824</ele>
        <time>2019-04-11T15:05:55Z</time>
      </trkpt>
      <trkpt lat="48.36867" lon="2.73639">
        <ele>112.40000152588</ele>
        <time>2019-04-11T15:06:00Z</time>
      </trkpt>
      <trkpt lat="48.36871" lon="2.73644">
        <ele>112.59999847412</ele>
        <time>2019-04-11T15:06:05Z</time>
      </trkpt>
      <trkpt lat="48.36873" lon="2.73646">
        <ele>113</ele>
        <time>2019-04-11T15:06:10Z</time>
      </trkpt>
      <trkpt lat="48.36875" lon="2.73649">
        <ele>113</ele>
        <time>2019-04-11T15:06:15Z</time>
      </trkpt>
      <trkpt lat="48.36882" lon="2.73657">
        <ele>113.19999694824</ele>
        <time>2019-04-11T15:06:20Z</time>
      </trkpt>
      <trkpt lat="48.36888" lon="2.73662">
        <ele>113.59999847412</ele>
        <time>2019-04-11T15:06:25Z</time>
      </trkpt>
      <trkpt lat="48.3689" lon="2.73666">
        <ele>114.19999694824</ele>
        <time>2019-04-11T15:06:30Z</time>
      </trkpt>
      <trkpt lat="48.36892" lon="2.73668">
        <ele>115</ele>
        <time>2019-04-11T15:06:35Z</time>
      </trkpt>
      <trkpt lat="48.36893" lon="2.7367">
        <ele>115.40000152588</ele>
        <time>2019-04-11T15:06:40Z</time>
      </trkpt>
      <trkpt lat="48.36895" lon="2.73673">
        <ele>115.80000305176</ele>
        <time>2019-04-11T15:06:45Z</time>
      </trkpt>
      <trkpt lat="48.36898" lon="2.73675">
        <ele>116.19999694824</ele>
        <time>2019-04-11T15:06:50Z</time>
      </trkpt>
      <trkpt lat="48.36901" lon="2.7368">
        <ele>116.80000305176</ele>
        <time>2019-04-11T15:06:55Z</time>
      </trkpt>
      <trkpt lat="48.36905" lon="2.73683">
        <ele>117.40000152588</ele>
        <time>2019-04-11T15:07:00Z</time>
      </trkpt>
      <trkpt lat="48.36909" lon="2.73688">
        <ele>118.19999694824</ele>
        <time>2019-04-11T15:07:05Z</time>
      </trkpt>
      <trkpt lat="48.36917" lon="2.73699">
        <ele>119</ele>
        <time>2019-04-11T15:07:10Z</time>
      </trkpt>
      <trkpt lat="48.36919" lon="2.73701">
        <ele>119.59999847412</ele>
        <time>2019-04-11T15:07:15Z</time>
      </trkpt>
      <trkpt lat="48.36924" lon="2.73707">
        <ele>120.40000152588</ele>
        <time>2019-04-11T15:07:20Z</time>
      </trkpt>
      <trkpt lat="48.36925" lon="2.73708">
        <ele>121.19999694824</ele>
        <time>2019-04-11T15:07:25Z</time>
      </trkpt>
      <trkpt lat="48.36928" lon="2.73711">
        <ele>121.80000305176</ele>
        <time>2019-04-11T15:07:30Z</time>
      </trkpt>
      <trkpt lat="48.36931" lon="2.73715">
        <ele>122.40000152588</ele>
        <time>2019-04-11T15:07:35Z</time>
      </trkpt>
      <trkpt lat="48.36935" lon="2.73719">
        <ele>123.40000152588</ele>
        <time>2019-04-11T15:07:40Z</time>
      </trkpt>
      <trkpt lat="48.36939" lon="2.73724">
        <ele>124.40000152588</ele>
        <time>2019-04-11T15:07:45Z</time>
      </trkpt>
      <trkpt lat="48.36944" lon="2.73728">
        <ele>125.19999694824</ele>
        <time>2019-04-11T15:07:50Z</time>
      </trkpt>
      <trkpt lat="48.36946" lon="2.7373">
        <ele>126</ele>
        <time>2019-04-11T15:07:55Z</time>
      </trkpt>
      <trkpt lat="48.36948" lon="2.73733">
        <ele>126.80000305176</ele>
        <time>2019-04-11T15:08:00Z</time>
      </trkpt>
      <trkpt lat="48.36956" lon="2.73736">
        <ele>128</ele>
        <time>2019-04-11T15:08:05Z</time>
      </trkpt>
      <trkpt lat="48.36961" lon="2.73742">
        <ele>128.39999389648</ele>
        <time>2019-04-11T15:08:10Z</time>
      </trkpt>
      <trkpt lat="48.36966" lon="2.73745">
        <ele>129.19999694824</ele>
        <time>2019-04-11T15:08:15Z</time>
      </trkpt>
      <trkpt lat="48.36971" lon="2.73749">
        <ele>130.39999389648</ele>
        <time>2019-04-11T15:08:20Z</time>
      </trkpt>
      <trkpt lat="48.36977" lon="2.73751">
        <ele>131.19999694824</ele>
        <time>2019-04-11T15:08:25Z</time>
      </trkpt>
      <trkpt lat="48.36979" lon="2.73754">
        <ele>132.19999694824</ele>
        <time>2019-04-11T15:08:30Z</time>
      </trkpt>
      <trkpt lat="48.36982" lon="2.73758">
        <ele>132.80000305176</ele>
        <time>2019-04-11T15:08:35Z</time>
      </trkpt>
      <trkpt lat="48.36986" lon="2.73764">
        <ele>133.80000305176</ele>
        <time>2019-04-11T15:08:40Z</time>
      </trkpt>
      <trkpt lat="48.36986" lon="2.73767">
        <ele>135</ele>
        <time>2019-04-11T15:08:45Z</time>
      </trkpt>
      <trkpt lat="48.36987" lon="2.73772">
        <ele>135.80000305176</ele>
        <time>2019-04-11T15:08:50Z</time>
      </trkpt>
      <trkpt lat="48.36986" lon="2.73776">
        <ele>137.19999694824</ele>
        <time>2019-04-11T15:08:55Z</time>
      </trkpt>
      <trkpt lat="48.36984" lon="2.73784">
        <ele>138.19999694824</ele>
        <time>2019-04-11T15:09:00Z</time>
      </trkpt>
      <trkpt lat="48.36984" lon="2.73788">
        <ele>139.39999389648</ele>
        <time>2019-04-11T15:09:05Z</time>
      </trkpt>
      <trkpt lat="48.36984" lon="2.73797">
        <ele>140.39999389648</ele>
        <time>2019-04-11T15:09:10Z</time>
      </trkpt>
      <trkpt lat="48.36982" lon="2.73803">
        <ele>140.80000305176</ele>
        <time>2019-04-11T15:09:15Z</time>
      </trkpt>
      <trkpt lat="48.36982" lon="2.73805">
        <ele>141.39999389648</ele>
        <time>2019-04-11T15:09:20Z</time>
      </trkpt>
      <trkpt lat="48.3698" lon="2.7381">
        <ele>141.80000305176</ele>
        <time>2019-04-11T15:09:25Z</time>
      </trkpt>
      <trkpt lat="48.36979" lon="2.73812">
        <ele>142</ele>
        <time>2019-04-11T15:09:30Z</time>
      </trkpt>
      <trkpt lat="48.36978" lon="2.73813">
        <ele>141.80000305176</ele>
        <time>2019-04-11T15:09:35Z</time>
      </trkpt>
      <trkpt lat="48.36977" lon="2.73812">
        <ele>142</ele>
        <time>2019-04-11T15:09:40Z</time>
      </trkpt>
      <trkpt lat="48.36976" lon="2.73812">
        <ele>142</ele>
        <time>2019-04-11T15:09:45Z</time>
      </trkpt>
      <trkpt lat="48.36976" lon="2.73812">
        <ele>142</ele>
        <time>2019-04-11T15:09:50Z</time>
      </trkpt>
      <trkpt lat="48.36977" lon="2.73812">
        <ele>142.19999694824</ele>
        <time>2019-04-11T15:09:55Z</time>
      </trkpt>
      <trkpt lat="48.36977" lon="2.73813">
        <ele>142.39999389648</ele>
        <time>2019-04-11T15:10:00Z</time>
      </trkpt>
      <trkpt lat="48.36978" lon="2.73812">
        <ele>142</ele>
        <time>2019-04-11T15:10:05Z</time>
      </trkpt>
      <trkpt lat="48.36978" lon="2.73813">
        <ele>141.80000305176</ele>
        <time>2019-04-11T15:10:10Z</time>
      </trkpt>
      <trkpt lat="48.36979" lon="2.73814">
        <ele>141.80000305176</ele>
        <time>2019-04-11T15:10:15Z</time>
      </trkpt>
      <trkpt lat="48.3698" lon="2.73814">
        <ele>141.80000305176</ele>
        <time>2019-04-11T15:10:20Z</time>
      </trkpt>
      <trkpt lat="48.3698" lon="2.73815">
        <ele>142</ele>
        <time>2019-04-11T15:10:25Z</time>
      </trkpt>
      <trkpt lat="48.3698" lon="2.73815">
        <ele>142.19999694824</ele>
        <time>2019-04-11T15:10:30Z</time>
      </trkpt>
      <trkpt lat="48.36981" lon="2.73815">
        <ele>142.19999694824</ele>
        <time>2019-04-11T15:10:35Z</time>
      </trkpt>
      <trkpt lat="48.36981" lon="2.73815">
        <ele>142.19999694824</ele>
        <time>2019-04-11T15:10:40Z</time>
      </trkpt>
      <trkpt lat="48.36981" lon="2.73814">
        <ele>142.19999694824</ele>
        <time>2019-04-11T15:10:45Z</time>
      </trkpt>
      <trkpt lat="48.3698" lon="2.73814">
        <ele>142.19999694824</ele>
        <time>2019-04-11T15:10:50Z</time>
      </trkpt>
      <trkpt lat="48.3698" lon="2.73814">
        <ele>142.19999694824</ele>
        <time>2019-04-11T15:10:55Z</time>
      </trkpt>
      <trkpt lat="48.3698" lon="2.73813">
        <ele>142.19999694824</ele>
        <time>2019-04-11T15:11:00Z</time>
      </trkpt>
      <trkpt lat="48.3698" lon="2.73812">
        <ele>142.19999694824</ele>
        <time>2019-04-11T15:11:05Z</time>
      </trkpt>
      <trkpt lat="48.3698" lon="2.73811">
        <ele>142.19999694824</ele>
        <time>2019-04-11T15:11:10Z</time>
      </trkpt>
      <trkpt lat="48.3698" lon="2.73811">
        <ele>142.19999694824</ele>
        <time>2019-04-11T15:11:15Z</time>
      </trkpt>
      <trkpt lat="48.3698" lon="2.7381">
        <ele>142.19999694824</ele>
        <time>2019-04-11T15:11:20Z</time>
      </trkpt>
      <trkpt lat="48.3698" lon="2.7381">
        <ele>142.19999694824</ele>
        <time>2019-04-11T15:11:25Z</time>
      </trkpt>
      <trkpt lat="48.3698" lon="2.73809">
        <ele>142.19999694824</ele>
        <time>2019-04-11T15:11:30Z</time>
      </trkpt>
      <trkpt lat="48.36981" lon="2.73808">
        <ele>142.19999694824</ele>
        <time>2019-04-11T15:11:35Z</time>
      </trkpt>
      <trkpt lat="48.3698" lon="2.7381">
        <ele>142.19999694824</ele>
        <time>2019-04-11T15:11:40Z</time>
      </trkpt>
      <trkpt lat="48.3698" lon="2.73811">
        <ele>142.19999694824</ele>
        <time>2019-04-11T15:11:45Z</time>
      </trkpt>
      <trkpt lat="48.3698" lon="2.73811">
        <ele>142.19999694824</ele>
        <time>2019-04-11T15:11:50Z</time>
      </trkpt>
      <trkpt lat="48.36981" lon="2.73811">
        <ele>142.19999694824</ele>
        <time>2019-04-11T15:11:55Z</time>
      </trkpt>
      <trkpt lat="48.3698" lon="2.7381">
        <ele>142.19999694824</ele>
        <time>2019-04-11T15:12:00Z</time>
      </trkpt>
      <trkpt lat="48.36979" lon="2.7381">
        <ele>142.19999694824</ele>
        <time>2019-04-11T15:12:05Z</time>
      </trkpt>
      <trkpt lat="48.36973" lon="2.73812">
        <ele>142.19999694824</ele>
        <time>2019-04-11T15:12:10Z</time>
      </trkpt>
      <trkpt lat="48.36968" lon="2.73813">
        <ele>142.19999694824</ele>
        <time>2019-04-11T15:12:15Z</time>
      </trkpt>
      <trkpt lat="48.36965" lon="2.73816">
        <ele>142.19999694824</ele>
        <time>2019-04-11T15:12:20Z</time>
      </trkpt>
      <trkpt lat="48.36962" lon="2.73817">
        <ele>142.19999694824</ele>
        <time>2019-04-11T15:12:25Z</time>
      </trkpt>
      <trkpt lat="48.36961" lon="2.73818">
        <ele>142.19999694824</ele>
        <time>2019-04-11T15:12:30Z</time>
      </trkpt>
      <trkpt lat="48.36959" lon="2.73819">
        <ele>142.19999694824</ele>
        <time>2019-04-11T15:12:35Z</time>
      </trkpt>
      <trkpt lat="48.36956" lon="2.73823">
        <ele>142.19999694824</ele>
        <time>2019-04-11T15:12:40Z</time>
      </trkpt>
      <trkpt lat="48.36953" lon="2.7383">
        <ele>142.19999694824</ele>
        <time>2019-04-11T15:12:45Z</time>
      </trkpt>
      <trkpt lat="48.36951" lon="2.73836">
        <ele>142.19999694824</ele>
        <time>2019-04-11T15:12:50Z</time>
      </trkpt>
      <trkpt lat="48.3695" lon="2.73842">
        <ele>142.19999694824</ele>
        <time>2019-04-11T15:12:55Z</time>
      </trkpt>
      <trkpt lat="48.36948" lon="2.73849">
        <ele>142.19999694824</ele>
        <time>2019-04-11T15:13:00Z</time>
      </trkpt>
      <trkpt lat="48.36946" lon="2.73856">
        <ele>142.19999694824</ele>
        <time>2019-04-11T15:13:05Z</time>
      </trkpt>
      <trkpt lat="48.36944" lon="2.73862">
        <ele>142.19999694824</ele>
        <time>2019-04-11T15:13:10Z</time>
      </trkpt>
      <trkpt lat="48.36942" lon="2.73869">
        <ele>142.19999694824</ele>
        <time>2019-04-11T15:13:15Z</time>
      </trkpt>
      <trkpt lat="48.36941" lon="2.73876">
        <ele>142.19999694824</ele>
        <time>2019-04-11T15:13:20Z</time>
      </trkpt>
      <trkpt lat="48.36939" lon="2.73884">
        <ele>142.19999694824</ele>
        <time>2019-04-11T15:13:25Z</time>
      </trkpt>
      <trkpt lat="48.36936" lon="2.7389">
        <ele>142.19999694824</ele>
        <time>2019-04-11T15:13:30Z</time>
      </trkpt>
      <trkpt lat="48.36934" lon="2.739">
        <ele>142.19999694824</ele>
        <time>2019-04-11T15:13:35Z</time>
      </trkpt>
      <trkpt lat="48.36932" lon="2.73907">
        <ele>142.19999694824</ele>
        <time>2019-04-11T15:13:40Z</time>
      </trkpt>
      <trkpt lat="48.3693" lon="2.73915">
        <ele>142.19999694824</ele>
        <time>2019-04-11T15:13:45Z</time>
      </trkpt>
      <trkpt lat="48.36929" lon="2.73922">
        <ele>142.19999694824</ele>
        <time>2019-04-11T15:13:50Z</time>
      </trkpt>
      <trkpt lat="48.36927" lon="2.73928">
        <ele>142.19999694824</ele>
        <time>2019-04-11T15:13:55Z</time>
      </trkpt>
      <trkpt lat="48.36925" lon="2.73934">
        <ele>142.19999694824</ele>
        <time>2019-04-11T15:14:00Z</time>
      </trkpt>
      <trkpt lat="48.36924" lon="2.73941">
        <ele>142.19999694824</ele>
        <time>2019-04-11T15:14:05Z</time>
      </trkpt>
      <trkpt lat="48.36922" lon="2.73948">
        <ele>142.19999694824</ele>
        <time>2019-04-11T15:14:10Z</time>
      </trkpt>
      <trkpt lat="48.3692" lon="2.73959">
        <ele>142.19999694824</ele>
        <time>2019-04-11T15:14:15Z</time>
      </trkpt>
      <trkpt lat="48.36918" lon="2.73967">
        <ele>142.19999694824</ele>
        <time>2019-04-11T15:14:20Z</time>
      </trkpt>
      <trkpt lat="48.36917" lon="2.73977">
        <ele>142.19999694824</ele>
        <time>2019-04-11T15:14:25Z</time>
      </trkpt>
      <trkpt lat="48.36915" lon="2.73986">
        <ele>142.19999694824</ele>
        <time>2019-04-11T15:14:30Z</time>
      </trkpt>
      <trkpt lat="48.36913" lon="2.73995">
        <ele>142.19999694824</ele>
        <time>2019-04-11T15:14:35Z</time>
      </trkpt>
      <trkpt lat="48.36911" lon="2.74003">
        <ele>142.19999694824</ele>
        <time>2019-04-11T15:14:40Z</time>
      </trkpt>
      <trkpt lat="48.36909" lon="2.74012">
        <ele>142.19999694824</ele>
        <time>2019-04-11T15:14:45Z</time>
      </trkpt>
      <trkpt lat="48.36907" lon="2.74021">
        <ele>142.19999694824</ele>
        <time>2019-04-11T15:14:50Z</time>
      </trkpt>
      <trkpt lat="48.36906" lon="2.74025">
        <ele>142.19999694824</ele>
        <time>2019-04-11T15:14:55Z</time>
      </trkpt>
      <trkpt lat="48.36904" lon="2.74033">
        <ele>142.19999694824</ele>
        <time>2019-04-11T15:15:00Z</time>
      </trkpt>
      <trkpt lat="48.36901" lon="2.7404">
        <ele>142.19999694824</ele>
        <time>2019-04-11T15:15:05Z</time>
      </trkpt>
      <trkpt lat="48.36899" lon="2.74049">
        <ele>142.19999694824</ele>
        <time>2019-04-11T15:15:10Z</time>
      </trkpt>
      <trkpt lat="48.36897" lon="2.74058">
        <ele>142.19999694824</ele>
        <time>2019-04-11T15:15:15Z</time>
      </trkpt>
      <trkpt lat="48.36894" lon="2.74066">
        <ele>142.19999694824</ele>
        <time>2019-04-11T15:15:20Z</time>
      </trkpt>
      <trkpt lat="48.36893" lon="2.74075">
        <ele>142.19999694824</ele>
        <time>2019-04-11T15:15:25Z</time>
      </trkpt>
      <trkpt lat="48.36891" lon="2.74083">
        <ele>142.19999694824</ele>
        <time>2019-04-11T15:15:30Z</time>
      </trkpt>
      <trkpt lat="48.3689" lon="2.74091">
        <ele>142.19999694824</ele>
        <time>2019-04-11T15:15:35Z</time>
      </trkpt>
      <trkpt lat="48.36888" lon="2.74101">
        <ele>142.19999694824</ele>
        <time>2019-04-11T15:15:40Z</time>
      </trkpt>
      <trkpt lat="48.36886" lon="2.74108">
        <ele>142.19999694824</ele>
        <time>2019-04-11T15:15:45Z</time>
      </trkpt>
      <trkpt lat="48.36884" lon="2.74115">
        <ele>142.19999694824</ele>
        <time>2019-04-11T15:15:50Z</time>
      </trkpt>
      <trkpt lat="48.36881" lon="2.74126">
        <ele>142.19999694824</ele>
        <time>2019-04-11T15:15:55Z</time>
      </trkpt>
      <trkpt lat="48.36878" lon="2.74133">
        <ele>142.19999694824</ele>
        <time>2019-04-11T15:16:00Z</time>
      </trkpt>
      <trkpt lat="48.36875" lon="2.74141">
        <ele>142.19999694824</ele>
        <time>2019-04-11T15:16:05Z</time>
      </trkpt>
      <trkpt lat="48.36873" lon="2.7415">
        <ele>142.19999694824</ele>
        <time>2019-04-11T15:16:10Z</time>
      </trkpt>
      <trkpt lat="48.36871" lon="2.74159">
        <ele>142.19999694824</ele>
        <time>2019-04-11T15:16:15Z</time>
      </trkpt>
      <trkpt lat="48.36869" lon="2.74168">
        <ele>142.19999694824</ele>
        <time>2019-04-11T15:16:20Z</time>
      </trkpt>
      <trkpt lat="48.36868" lon="2.74173">
        <ele>142.19999694824</ele>
        <time>2019-04-11T15:16:25Z</time>
      </trkpt>
      <trkpt lat="48.36866" lon="2.74181">
        <ele>142.19999694824</ele>
        <time>2019-04-11T15:16:30Z</time>
      </trkpt>
      <trkpt lat="48.36863" lon="2.74191">
        <ele>142.19999694824</ele>
        <time>2019-04-11T15:16:35Z</time>
      </trkpt>
      <trkpt lat="48.36861" lon="2.74201">
        <ele>142.19999694824</ele>
        <time>2019-04-11T15:16:40Z</time>
      </trkpt>
      <trkpt lat="48.3686" lon="2.74211">
        <ele>142.19999694824</ele>
        <time>2019-04-11T15:16:45Z</time>
      </trkpt>
      <trkpt lat="48.36858" lon="2.7422">
        <ele>142.19999694824</ele>
        <time>2019-04-11T15:16:50Z</time>
      </trkpt>
      <trkpt lat="48.36857" lon="2.74231">
        <ele>142.19999694824</ele>
        <time>2019-04-11T15:16:55Z</time>
      </trkpt>
      <trkpt lat="48.36856" lon="2.7424">
        <ele>142.19999694824</ele>
        <time>2019-04-11T15:17:00Z</time>
      </trkpt>
      <trkpt lat="48.36855" lon="2.74249">
        <ele>142.19999694824</ele>
        <time>2019-04-11T15:17:05Z</time>
      </trkpt>
      <trkpt lat="48.36854" lon="2.74256">
        <ele>142.19999694824</ele>
        <time>2019-04-11T15:17:10Z</time>
      </trkpt>
      <trkpt lat="48.36853" lon="2.74264">
        <ele>142.19999694824</ele>
        <time>2019-04-11T15:17:15Z</time>
      </trkpt>
      <trkpt lat="48.36853" lon="2.7427">
        <ele>142.19999694824</ele>
        <time>2019-04-11T15:17:20Z</time>
      </trkpt>
      <trkpt lat="48.36851" lon="2.74279">
        <ele>142.19999694824</ele>
        <time>2019-04-11T15:17:25Z</time>
      </trkpt>
      <trkpt lat="48.36849" lon="2.74288">
        <ele>142.19999694824</ele>
        <time>2019-04-11T15:17:30Z</time>
      </trkpt>
      <trkpt lat="48.36848" lon="2.74298">
        <ele>142.19999694824</ele>
        <time>2019-04-11T15:17:35Z</time>
      </trkpt>
      <trkpt lat="48.36848" lon="2.74306">
        <ele>142.19999694824</ele>
        <time>2019-04-11T15:17:40Z</time>
      </trkpt>
      <trkpt lat="48.36847" lon="2.74313">
        <ele>142.19999694824</ele>
        <time>2019-04-11T15:17:45Z</time>
      </trkpt>
      <trkpt lat="48.36847" lon="2.7432">
        <ele>142.19999694824</ele>
        <time>2019-04-11T15:17:50Z</time>
      </trkpt>
      <trkpt lat="48.36848" lon="2.74327">
        <ele>142.19999694824</ele>
        <time>2019-04-11T15:17:55Z</time>
      </trkpt>
      <trkpt lat="48.36849" lon="2.74332">
        <ele>142.19999694824</ele>
        <time>2019-04-11T15:18:00Z</time>
      </trkpt>
      <trkpt lat="48.36852" lon="2.7434">
        <ele>142.19999694824</ele>
        <time>2019-04-11T15:18:05Z</time>
      </trkpt>
      <trkpt lat="48.36854" lon="2.74351">
        <ele>142.19999694824</ele>
        <time>2019-04-11T15:18:10Z</time>
      </trkpt>
      <trkpt lat="48.36858" lon="2.74363">
        <ele>142.19999694824</ele>
        <time>2019-04-11T15:18:15Z</time>
      </trkpt>
      <trkpt lat="48.36862" lon="2.74375">
        <ele>142.19999694824</ele>
        <time>2019-04-11T15:18:20Z</time>
      </trkpt>
      <trkpt lat="48.36863" lon="2.74383">
        <ele>142.19999694824</ele>
        <time>2019-04-11T15:18:25Z</time>
      </trkpt>
      <trkpt lat="48.36865" lon="2.74394">
        <ele>142.19999694824</ele>
        <time>2019-04-11T15:18:30Z</time>
      </trkpt>
      <trkpt lat="48.36867" lon="2.74401">
        <ele>142.19999694824</ele>
        <time>2019-04-11T15:18:35Z</time>
      </trkpt>
      <trkpt lat="48.36867" lon="2.74405">
        <ele>142.19999694824</ele>
        <time>2019-04-11T15:18:40Z</time>
      </trkpt>
      <trkpt lat="48.36871" lon="2.74415">
        <ele>142.19999694824</ele>
        <time>2019-04-11T15:18:45Z</time>
      </trkpt>
      <trkpt lat="48.36875" lon="2.74426">
        <ele>142.19999694824</ele>
        <time>2019-04-11T15:18:50Z</time>
      </trkpt>
      <trkpt lat="48.36878" lon="2.74435">
        <ele>142.19999694824</ele>
        <time>2019-04-11T15:18:55Z</time>
      </trkpt>
      <trkpt lat="48.36882" lon="2.74439">
        <ele>142.19999694824</ele>
        <time>2019-04-11T15:19:00Z</time>
      </trkpt>
      <trkpt lat="48.36887" lon="2.74445">
        <ele>142.19999694824</ele>
        <time>2019-04-11T15:19:05Z</time>
      </trkpt>
      <trkpt lat="48.36889" lon="2.74446">
        <ele>142.19999694824</ele>
        <time>2019-04-11T15:19:10Z</time>
      </trkpt>
      <trkpt lat="48.36891" lon="2.74448">
        <ele>142.19999694824</ele>
        <time>2019-04-11T15:19:15Z</time>
      </trkpt>
      <trkpt lat="48.36896" lon="2.7445">
        <ele>142.19999694824</ele>
        <time>2019-04-11T15:19:20Z</time>
      </trkpt>
      <trkpt lat="48.36899" lon="2.7445">
        <ele>142.19999694824</ele>
        <time>2019-04-11T15:19:25Z</time>
      </trkpt>
      <trkpt lat="48.3691" lon="2.74455">
        <ele>142.19999694824</ele>
        <time>2019-04-11T15:19:30Z</time>
      </trkpt>
      <trkpt lat="48.36912" lon="2.74456">
        <ele>142.19999694824</ele>
        <time>2019-04-11T15:19:35Z</time>
      </trkpt>
      <trkpt lat="48.36915" lon="2.74457">
        <ele>142.19999694824</ele>
        <time>2019-04-11T15:19:40Z</time>
      </trkpt>
      <trkpt lat="48.36917" lon="2.74458">
        <ele>142.19999694824</ele>
        <time>2019-04-11T15:19:45Z</time>
      </trkpt>
      <trkpt lat="48.36925" lon="2.74461">
        <ele>142.19999694824</ele>
        <time>2019-04-11T15:19:50Z</time>
      </trkpt>
      <trkpt lat="48.36931" lon="2.74464">
        <ele>142.19999694824</ele>
        <time>2019-04-11T15:19:55Z</time>
      </trkpt>
      <trkpt lat="48.36942" lon="2.74464">
        <ele>142.19999694824</ele>
        <time>2019-04-11T15:20:00Z</time>
      </trkpt>
      <trkpt lat="48.36948" lon="2.74463">
        <ele>142.19999694824</ele>
        <time>2019-04-11T15:20:05Z</time>
      </trkpt>
      <trkpt lat="48.36956" lon="2.7446">
        <ele>142.19999694824</ele>
        <time>2019-04-11T15:20:10Z</time>
      </trkpt>
      <trkpt lat="48.36963" lon="2.74459">
        <ele>142.19999694824</ele>
        <time>2019-04-11T15:20:15Z</time>
      </trkpt>
      <trkpt lat="48.36968" lon="2.74458">
        <ele>142.19999694824</ele>
        <time>2019-04-11T15:20:20Z</time>
      </trkpt>
      <trkpt lat="48.36971" lon="2.74458">
        <ele>142.19999694824</ele>
        <time>2019-04-11T15:20:25Z</time>
      </trkpt>
      <trkpt lat="48.36976" lon="2.74457">
        <ele>142.19999694824</ele>
        <time>2019-04-11T15:20:30Z</time>
      </trkpt>
      <trkpt lat="48.36984" lon="2.74456">
        <ele>142.19999694824</ele>
        <time>2019-04-11T15:20:35Z</time>
      </trkpt>
      <trkpt lat="48.36991" lon="2.74457">
        <ele>142.19999694824</ele>
        <time>2019-04-11T15:20:40Z</time>
      </trkpt>
      <trkpt lat="48.36997" lon="2.74456">
        <ele>142.19999694824</ele>
        <time>2019-04-11T15:20:45Z</time>
      </trkpt>
      <trkpt lat="48.37002" lon="2.74454">
        <ele>142.19999694824</ele>
        <time>2019-04-11T15:20:50Z</time>
      </trkpt>
      <trkpt lat="48.37006" lon="2.74452">
        <ele>142.19999694824</ele>
        <time>2019-04-11T15:20:55Z</time>
      </trkpt>
      <trkpt lat="48.37009" lon="2.74447">
        <ele>142.19999694824</ele>
        <time>2019-04-11T15:21:00Z</time>
      </trkpt>
      <trkpt lat="48.37012" lon="2.74441">
        <ele>142.19999694824</ele>
        <time>2019-04-11T15:21:05Z</time>
      </trkpt>
      <trkpt lat="48.37013" lon="2.74438">
        <ele>142.19999694824</ele>
        <time>2019-04-11T15:21:10Z</time>
      </trkpt>
      <trkpt lat="48.37014" lon="2.74433">
        <ele>142.19999694824</ele>
        <time>2019-04-11T15:21:15Z</time>
      </trkpt>
      <trkpt lat="48.37015" lon="2.74429">
        <ele>142.19999694824</ele>
        <time>2019-04-11T15:21:20Z</time>
      </trkpt>
      <trkpt lat="48.37017" lon="2.74428">
        <ele>142.19999694824</ele>
        <time>2019-04-11T15:21:25Z</time>
      </trkpt>
      <trkpt lat="48.3702" lon="2.74428">
        <ele>142.19999694824</ele>
        <time>2019-04-11T15:21:30Z</time>
      </trkpt>
      <trkpt lat="48.37023" lon="2.74428">
        <ele>142.19999694824</ele>
        <time>2019-04-11T15:21:35Z</time>
      </trkpt>
      <trkpt lat="48.37025" lon="2.7443">
        <ele>129.39999389648</ele>
        <time>2019-04-11T15:21:40Z</time>
      </trkpt>
      <trkpt lat="48.37033" lon="2.74435">
        <ele>128.60000610352</ele>
        <time>2019-04-11T15:21:45Z</time>
      </trkpt>
      <trkpt lat="48.37041" lon="2.74438">
        <ele>127.19999694824</ele>
        <time>2019-04-11T15:21:50Z</time>
      </trkpt>
      <trkpt lat="48.37042" lon="2.74438">
        <ele>125.80000305176</ele>
        <time>2019-04-11T15:21:55Z</time>
      </trkpt>
      <trkpt lat="48.3705" lon="2.74444">
        <ele>124.80000305176</ele>
        <time>2019-04-11T15:22:00Z</time>
      </trkpt>
      <trkpt lat="48.37056" lon="2.74444">
        <ele>123.80000305176</ele>
        <time>2019-04-11T15:22:05Z</time>
      </trkpt>
      <trkpt lat="48.37062" lon="2.74445">
        <ele>123.40000152588</ele>
        <time>2019-04-11T15:22:10Z</time>
      </trkpt>
      <trkpt lat="48.37064" lon="2.74445">
        <ele>121.40000152588</ele>
        <time>2019-04-11T15:22:15Z</time>
      </trkpt>
      <trkpt lat="48.37067" lon="2.74446">
        <ele>120.80000305176</ele>
        <time>2019-04-11T15:22:20Z</time>
      </trkpt>
      <trkpt lat="48.37069" lon="2.74446">
        <ele>120</ele>
        <time>2019-04-11T15:22:25Z</time>
      </trkpt>
      <trkpt lat="48.37078" lon="2.74444">
        <ele>119</ele>
        <time>2019-04-11T15:22:30Z</time>
      </trkpt>
      <trkpt lat="48.37087" lon="2.74442">
        <ele>118.40000152588</ele>
        <time>2019-04-11T15:22:35Z</time>
      </trkpt>
      <trkpt lat="48.37094" lon="2.74439">
        <ele>117.80000305176</ele>
        <time>2019-04-11T15:22:40Z</time>
      </trkpt>
      <trkpt lat="48.37097" lon="2.7444">
        <ele>117</ele>
        <time>2019-04-11T15:22:45Z</time>
      </trkpt>
      <trkpt lat="48.37102" lon="2.74441">
        <ele>116.40000152588</ele>
        <time>2019-04-11T15:22:50Z</time>
      </trkpt>
      <trkpt lat="48.37109" lon="2.74441">
        <ele>116</ele>
        <time>2019-04-11T15:22:55Z</time>
      </trkpt>
      <trkpt lat="48.37113" lon="2.74442">
        <ele>115.40000152588</ele>
        <time>2019-04-11T15:23:00Z</time>
      </trkpt>
      <trkpt lat="48.3712" lon="2.74446">
        <ele>115.40000152588</ele>
        <time>2019-04-11T15:23:05Z</time>
      </trkpt>
      <trkpt lat="48.37124" lon="2.74447">
        <ele>115.59999847412</ele>
        <time>2019-04-11T15:23:10Z</time>
      </trkpt>
      <trkpt lat="48.37129" lon="2.74451">
        <ele>116</ele>
        <time>2019-04-11T15:23:15Z</time>
      </trkpt>
      <trkpt lat="48.37134" lon="2.74449">
        <ele>116</ele>
        <time>2019-04-11T15:23:20Z</time>
      </trkpt>
      <trkpt lat="48.37139" lon="2.74449">
        <ele>115</ele>
        <time>2019-04-11T15:23:25Z</time>
      </trkpt>
      <trkpt lat="48.37143" lon="2.74448">
        <ele>114.59999847412</ele>
        <time>2019-04-11T15:23:30Z</time>
      </trkpt>
      <trkpt lat="48.37145" lon="2.74448">
        <ele>113.40000152588</ele>
        <time>2019-04-11T15:23:35Z</time>
      </trkpt>
      <trkpt lat="48.37149" lon="2.74445">
        <ele>112.40000152588</ele>
        <time>2019-04-11T15:23:40Z</time>
      </trkpt>
      <trkpt lat="48.37153" lon="2.74443">
        <ele>111.80000305176</ele>
        <time>2019-04-11T15:23:45Z</time>
      </trkpt>
      <trkpt lat="48.37156" lon="2.7444">
        <ele>110.59999847412</ele>
        <time>2019-04-11T15:23:50Z</time>
      </trkpt>
      <trkpt lat="48.37158" lon="2.74438">
        <ele>110</ele>
        <time>2019-04-11T15:23:55Z</time>
      </trkpt>
      <trkpt lat="48.37164" lon="2.74434">
        <ele>109.19999694824</ele>
        <time>2019-04-11T15:24:00Z</time>
      </trkpt>
      <trkpt lat="48.37168" lon="2.74434">
        <ele>108.40000152588</ele>
        <time>2019-04-11T15:24:05Z</time>
      </trkpt>
      <trkpt lat="48.37171" lon="2.74436">
        <ele>107.59999847412</ele>
        <time>2019-04-11T15:24:10Z</time>
      </trkpt>
      <trkpt lat="48.3718" lon="2.74437">
        <ele>106.59999847412</ele>
        <time>2019-04-11T15:24:15Z</time>
      </trkpt>
      <trkpt lat="48.37184" lon="2.74443">
        <ele>106</ele>
        <time>2019-04-11T15:24:20Z</time>
      </trkpt>
      <trkpt lat="48.37189" lon="2.74447">
        <ele>105.59999847412</ele>
        <time>2019-04-11T15:24:25Z</time>
      </trkpt>
      <trkpt lat="48.37191" lon="2.74448">
        <ele>105.40000152588</ele>
        <time>2019-04-11T15:24:30Z</time>
      </trkpt>
      <trkpt lat="48.37198" lon="2.74449">
        <ele>105.40000152588</ele>
        <time>2019-04-11T15:24:35Z</time>
      </trkpt>
      <trkpt lat="48.37203" lon="2.74452">
        <ele>105</ele>
        <time>2019-04-11T15:24:40Z</time>
      </trkpt>
      <trkpt lat="48.37211" lon="2.74463">
        <ele>104.59999847412</ele>
        <time>2019-04-11T15:24:45Z</time>
      </trkpt>
      <trkpt lat="48.37213" lon="2.7447">
        <ele>104.59999847412</ele>
        <time>2019-04-11T15:24:50Z</time>
      </trkpt>
      <trkpt lat="48.37214" lon="2.74472">
        <ele>105</ele>
        <time>2019-04-11T15:24:55Z</time>
      </trkpt>
      <trkpt lat="48.37215" lon="2.74472">
        <ele>105.19999694824</ele>
        <time>2019-04-11T15:25:00Z</time>
      </trkpt>
      <trkpt lat="48.37216" lon="2.74471">
        <ele>105.19999694824</ele>
        <time>2019-04-11T15:25:05Z</time>
      </trkpt>
      <trkpt lat="48.37217" lon="2.74471">
        <ele>105.19999694824</ele>
        <time>2019-04-11T15:25:10Z</time>
      </trkpt>
      <trkpt lat="48.37216" lon="2.74472">
        <ele>105.19999694824</ele>
        <time>2019-04-11T15:25:15Z</time>
      </trkpt>
      <trkpt lat="48.37214" lon="2.74473">
        <ele>105.40000152588</ele>
        <time>2019-04-11T15:25:20Z</time>
      </trkpt>
      <trkpt lat="48.37214" lon="2.74474">
        <ele>105.19999694824</ele>
        <time>2019-04-11T15:25:25Z</time>
      </trkpt>
      <trkpt lat="48.37213" lon="2.74473">
        <ele>105.19999694824</ele>
        <time>2019-04-11T15:25:30Z</time>
      </trkpt>
      <trkpt lat="48.37212" lon="2.74473">
        <ele>105.19999694824</ele>
        <time>2019-04-11T15:25:35Z</time>
      </trkpt>
      <trkpt lat="48.37211" lon="2.74474">
        <ele>105.19999694824</ele>
        <time>2019-04-11T15:25:40Z</time>
      </trkpt>
      <trkpt lat="48.3721" lon="2.74474">
        <ele>105.19999694824</ele>
        <time>2019-04-11T15:25:45Z</time>
      </trkpt>
      <trkpt lat="48.37211" lon="2.74476">
        <ele>105.19999694824</ele>
        <time>2019-04-11T15:25:50Z</time>
      </trkpt>
      <trkpt lat="48.3721" lon="2.74477">
        <ele>105.19999694824</ele>
        <time>2019-04-11T15:25:55Z</time>
      </trkpt>
      <trkpt lat="48.3721" lon="2.74478">
        <ele>105.19999694824</ele>
        <time>2019-04-11T15:26:00Z</time>
      </trkpt>
      <trkpt lat="48.3721" lon="2.74477">
        <ele>105.19999694824</ele>
        <time>2019-04-11T15:26:05Z</time>
      </trkpt>
      <trkpt lat="48.3721" lon="2.74477">
        <ele>105</ele>
        <time>2019-04-11T15:26:10Z</time>
      </trkpt>
      <trkpt lat="48.37209" lon="2.74476">
        <ele>105</ele>
        <time>2019-04-11T15:26:15Z</time>
      </trkpt>
      <trkpt lat="48.37209" lon="2.74474">
        <ele>105</ele>
        <time>2019-04-11T15:26:20Z</time>
      </trkpt>
      <trkpt lat="48.37209" lon="2.74473">
        <ele>105</ele>
        <time>2019-04-11T15:26:25Z</time>
      </trkpt>
      <trkpt lat="48.37209" lon="2.74472">
        <ele>105.19999694824</ele>
        <time>2019-04-11T15:26:30Z</time>
      </trkpt>
      <trkpt lat="48.37209" lon="2.74471">
        <ele>105.19999694824</ele>
        <time>2019-04-11T15:26:35Z</time>
      </trkpt>
      <trkpt lat="48.37209" lon="2.7447">
        <ele>105.59999847412</ele>
        <time>2019-04-11T15:26:40Z</time>
      </trkpt>
      <trkpt lat="48.37208" lon="2.74469">
        <ele>105.59999847412</ele>
        <time>2019-04-11T15:26:45Z</time>
      </trkpt>
      <trkpt lat="48.37207" lon="2.74468">
        <ele>105.59999847412</ele>
        <time>2019-04-11T15:26:50Z</time>
      </trkpt>
      <trkpt lat="48.37206" lon="2.74467">
        <ele>105.59999847412</ele>
        <time>2019-04-11T15:26:55Z</time>
      </trkpt>
      <trkpt lat="48.37206" lon="2.74467">
        <ele>105.59999847412</ele>
        <time>2019-04-11T15:27:00Z</time>
      </trkpt>
      <trkpt lat="48.37206" lon="2.74467">
        <ele>105.59999847412</ele>
        <time>2019-04-11T15:27:05Z</time>
      </trkpt>
      <trkpt lat="48.37206" lon="2.74466">
        <ele>105.59999847412</ele>
        <time>2019-04-11T15:27:10Z</time>
      </trkpt>
      <trkpt lat="48.37207" lon="2.74465">
        <ele>105.59999847412</ele>
        <time>2019-04-11T15:27:15Z</time>
      </trkpt>
      <trkpt lat="48.37207" lon="2.74464">
        <ele>105.59999847412</ele>
        <time>2019-04-11T15:27:20Z</time>
      </trkpt>
      <trkpt lat="48.37207" lon="2.74464">
        <ele>105.59999847412</ele>
        <time>2019-04-11T15:27:25Z</time>
      </trkpt>
      <trkpt lat="48.37207" lon="2.74463">
        <ele>105.59999847412</ele>
        <time>2019-04-11T15:27:30Z</time>
      </trkpt>
      <trkpt lat="48.37207" lon="2.74463">
        <ele>105.59999847412</ele>
        <time>2019-04-11T15:27:35Z</time>
      </trkpt>
      <trkpt lat="48.37207" lon="2.74464">
        <ele>105.59999847412</ele>
        <time>2019-04-11T15:27:40Z</time>
      </trkpt>
      <trkpt lat="48.37206" lon="2.74464">
        <ele>105.59999847412</ele>
        <time>2019-04-11T15:27:45Z</time>
      </trkpt>
      <trkpt lat="48.37207" lon="2.74464">
        <ele>105.59999847412</ele>
        <time>2019-04-11T15:27:50Z</time>
      </trkpt>
      <trkpt lat="48.37208" lon="2.74463">
        <ele>105.59999847412</ele>
        <time>2019-04-11T15:27:55Z</time>
      </trkpt>
      <trkpt lat="48.37208" lon="2.74465">
        <ele>105.59999847412</ele>
        <time>2019-04-11T15:28:00Z</time>
      </trkpt>
      <trkpt lat="48.37209" lon="2.74465">
        <ele>105.59999847412</ele>
        <time>2019-04-11T15:28:05Z</time>
      </trkpt>
      <trkpt lat="48.37209" lon="2.74466">
        <ele>105.59999847412</ele>
        <time>2019-04-11T15:28:10Z</time>
      </trkpt>
      <trkpt lat="48.37209" lon="2.74466">
        <ele>105.59999847412</ele>
        <time>2019-04-11T15:28:15Z</time>
      </trkpt>
      <trkpt lat="48.37209" lon="2.74465">
        <ele>105.59999847412</ele>
        <time>2019-04-11T15:28:20Z</time>
      </trkpt>
      <trkpt lat="48.37209" lon="2.74465">
        <ele>105.59999847412</ele>
        <time>2019-04-11T15:28:25Z</time>
      </trkpt>
      <trkpt lat="48.37209" lon="2.74463">
        <ele>105.59999847412</ele>
        <time>2019-04-11T15:28:30Z</time>
      </trkpt>
      <trkpt lat="48.3721" lon="2.74464">
        <ele>105.59999847412</ele>
        <time>2019-04-11T15:28:35Z</time>
      </trkpt>
      <trkpt lat="48.3721" lon="2.74465">
        <ele>105.59999847412</ele>
        <time>2019-04-11T15:28:40Z</time>
      </trkpt>
      <trkpt lat="48.3721" lon="2.74467">
        <ele>105.59999847412</ele>
        <time>2019-04-11T15:28:45Z</time>
      </trkpt>
      <trkpt lat="48.37212" lon="2.74468">
        <ele>105.59999847412</ele>
        <time>2019-04-11T15:28:50Z</time>
      </trkpt>
      <trkpt lat="48.37213" lon="2.7447">
        <ele>105.59999847412</ele>
        <time>2019-04-11T15:28:55Z</time>
      </trkpt>
      <trkpt lat="48.37214" lon="2.74472">
        <ele>105.59999847412</ele>
        <time>2019-04-11T15:29:00Z</time>
      </trkpt>
      <trkpt lat="48.37217" lon="2.7448">
        <ele>105.59999847412</ele>
        <time>2019-04-11T15:29:05Z</time>
      </trkpt>
      <trkpt lat="48.37217" lon="2.74483">
        <ele>105.59999847412</ele>
        <time>2019-04-11T15:29:10Z</time>
      </trkpt>
      <trkpt lat="48.37217" lon="2.74484">
        <ele>105.59999847412</ele>
        <time>2019-04-11T15:29:15Z</time>
      </trkpt>
      <trkpt lat="48.37217" lon="2.74483">
        <ele>105.59999847412</ele>
        <time>2019-04-11T15:29:20Z</time>
      </trkpt>
      <trkpt lat="48.37216" lon="2.74485">
        <ele>105.59999847412</ele>
        <time>2019-04-11T15:29:25Z</time>
      </trkpt>
      <trkpt lat="48.37213" lon="2.74488">
        <ele>105.59999847412</ele>
        <time>2019-04-11T15:29:30Z</time>
      </trkpt>
      <trkpt lat="48.37212" lon="2.74494">
        <ele>105.59999847412</ele>
        <time>2019-04-11T15:29:35Z</time>
      </trkpt>
      <trkpt lat="48.37211" lon="2.74496">
        <ele>105.59999847412</ele>
        <time>2019-04-11T15:29:40Z</time>
      </trkpt>
      <trkpt lat="48.37211" lon="2.74499">
        <ele>105.59999847412</ele>
        <time>2019-04-11T15:29:45Z</time>
      </trkpt>
      <trkpt lat="48.37212" lon="2.74506">
        <ele>105.59999847412</ele>
        <time>2019-04-11T15:29:50Z</time>
      </trkpt>
      <trkpt lat="48.37213" lon="2.74516">
        <ele>105.59999847412</ele>
        <time>2019-04-11T15:29:55Z</time>
      </trkpt>
      <trkpt lat="48.37212" lon="2.74522">
        <ele>105.59999847412</ele>
        <time>2019-04-11T15:30:00Z</time>
      </trkpt>
      <trkpt lat="48.37213" lon="2.74526">
        <ele>105.59999847412</ele>
        <time>2019-04-11T15:30:05Z</time>
      </trkpt>
      <trkpt lat="48.37212" lon="2.74529">
        <ele>105.59999847412</ele>
        <time>2019-04-11T15:30:10Z</time>
      </trkpt>
      <trkpt lat="48.37212" lon="2.74533">
        <ele>105.59999847412</ele>
        <time>2019-04-11T15:30:15Z</time>
      </trkpt>
      <trkpt lat="48.37211" lon="2.74536">
        <ele>105.59999847412</ele>
        <time>2019-04-11T15:30:20Z</time>
      </trkpt>
      <trkpt lat="48.37211" lon="2.74544">
        <ele>105.59999847412</ele>
        <time>2019-04-11T15:30:25Z</time>
      </trkpt>
      <trkpt lat="48.3721" lon="2.74545">
        <ele>105.59999847412</ele>
        <time>2019-04-11T15:30:30Z</time>
      </trkpt>
      <trkpt lat="48.37207" lon="2.74546">
        <ele>105.59999847412</ele>
        <time>2019-04-11T15:30:35Z</time>
      </trkpt>
      <trkpt lat="48.37206" lon="2.74547">
        <ele>105.59999847412</ele>
        <time>2019-04-11T15:30:40Z</time>
      </trkpt>
      <trkpt lat="48.37204" lon="2.74547">
        <ele>105.59999847412</ele>
        <time>2019-04-11T15:30:45Z</time>
      </trkpt>
      <trkpt lat="48.37202" lon="2.74548">
        <ele>114.40000152588</ele>
        <time>2019-04-11T15:30:50Z</time>
      </trkpt>
      <trkpt lat="48.372" lon="2.74546">
        <ele>114.19999694824</ele>
        <time>2019-04-11T15:30:55Z</time>
      </trkpt>
      <trkpt lat="48.37197" lon="2.74545">
        <ele>114.19999694824</ele>
        <time>2019-04-11T15:31:00Z</time>
      </trkpt>
      <trkpt lat="48.37191" lon="2.74543">
        <ele>114.19999694824</ele>
        <time>2019-04-11T15:31:05Z</time>
      </trkpt>
      <trkpt lat="48.37185" lon="2.74542">
        <ele>114.19999694824</ele>
        <time>2019-04-11T15:31:10Z</time>
      </trkpt>
      <trkpt lat="48.37182" lon="2.74544">
        <ele>114.40000152588</ele>
        <time>2019-04-11T15:31:15Z</time>
      </trkpt>
      <trkpt lat="48.37179" lon="2.74545">
        <ele>115</ele>
        <time>2019-04-11T15:31:20Z</time>
      </trkpt>
      <trkpt lat="48.37177" lon="2.74546">
        <ele>115.59999847412</ele>
        <time>2019-04-11T15:31:25Z</time>
      </trkpt>
      <trkpt lat="48.37175" lon="2.74549">
        <ele>116.80000305176</ele>
        <time>2019-04-11T15:31:30Z</time>
      </trkpt>
      <trkpt lat="48.37172" lon="2.74553">
        <ele>116.80000305176</ele>
        <time>2019-04-11T15:31:35Z</time>
      </trkpt>
      <trkpt lat="48.37171" lon="2.74556">
        <ele>117</ele>
        <time>2019-04-11T15:31:40Z</time>
      </trkpt>
      <trkpt lat="48.37168" lon="2.74557">
        <ele>117.59999847412</ele>
        <time>2019-04-11T15:31:45Z</time>
      </trkpt>
      <trkpt lat="48.37166" lon="2.74558">
        <ele>117.59999847412</ele>
        <time>2019-04-11T15:31:50Z</time>
      </trkpt>
      <trkpt lat="48.37165" lon="2.74561">
        <ele>118.59999847412</ele>
        <time>2019-04-11T15:31:55Z</time>
      </trkpt>
      <trkpt lat="48.37163" lon="2.74564">
        <ele>119</ele>
        <time>2019-04-11T15:32:00Z</time>
      </trkpt>
      <trkpt lat="48.3716" lon="2.74569">
        <ele>119.19999694824</ele>
        <time>2019-04-11T15:32:05Z</time>
      </trkpt>
      <trkpt lat="48.37158" lon="2.74574">
        <ele>119.80000305176</ele>
        <time>2019-04-11T15:32:10Z</time>
      </trkpt>
      <trkpt lat="48.37157" lon="2.74576">
        <ele>119.80000305176</ele>
        <time>2019-04-11T15:32:15Z</time>
      </trkpt>
      <trkpt lat="48.37159" lon="2.7458">
        <ele>119.80000305176</ele>
        <time>2019-04-11T15:32:20Z</time>
      </trkpt>
      <trkpt lat="48.37159" lon="2.74583">
        <ele>119.19999694824</ele>
        <time>2019-04-11T15:32:25Z</time>
      </trkpt>
      <trkpt lat="48.3716" lon="2.7459">
        <ele>118.40000152588</ele>
        <time>2019-04-11T15:32:30Z</time>
      </trkpt>
      <trkpt lat="48.37162" lon="2.74591">
        <ele>117.40000152588</ele>
        <time>2019-04-11T15:32:35Z</time>
      </trkpt>
      <trkpt lat="48.37165" lon="2.74591">
        <ele>117.19999694824</ele>
        <time>2019-04-11T15:32:40Z</time>
      </trkpt>
      <trkpt lat="48.37167" lon="2.74594">
        <ele>116.59999847412</ele>
        <time>2019-04-11T15:32:45Z</time>
      </trkpt>
      <trkpt lat="48.37166" lon="2.74596">
        <ele>115.80000305176</ele>
        <time>2019-04-11T15:32:50Z</time>
      </trkpt>
      <trkpt lat="48.37163" lon="2.746">
        <ele>115.80000305176</ele>
        <time>2019-04-11T15:32:55Z</time>
      </trkpt>
      <trkpt lat="48.37163" lon="2.74602">
        <ele>115.80000305176</ele>
        <time>2019-04-11T15:33:00Z</time>
      </trkpt>
      <trkpt lat="48.37164" lon="2.74603">
        <ele>115.19999694824</ele>
        <time>2019-04-11T15:33:05Z</time>
      </trkpt>
      <trkpt lat="48.37164" lon="2.74605">
        <ele>113.80000305176</ele>
        <time>2019-04-11T15:33:10Z</time>
      </trkpt>
      <trkpt lat="48.37165" lon="2.74605">
        <ele>113</ele>
        <time>2019-04-11T15:33:15Z</time>
      </trkpt>
      <trkpt lat="48.3717" lon="2.74603">
        <ele>112.19999694824</ele>
        <time>2019-04-11T15:33:20Z</time>
      </trkpt>
      <trkpt lat="48.37174" lon="2.74599">
        <ele>112</ele>
        <time>2019-04-11T15:33:25Z</time>
      </trkpt>
      <trkpt lat="48.37178" lon="2.74599">
        <ele>111.59999847412</ele>
        <time>2019-04-11T15:33:30Z</time>
      </trkpt>
      <trkpt lat="48.3718" lon="2.74604">
        <ele>111</ele>
        <time>2019-04-11T15:33:35Z</time>
      </trkpt>
      <trkpt lat="48.37183" lon="2.7461">
        <ele>110.40000152588</ele>
        <time>2019-04-11T15:33:40Z</time>
      </trkpt>
      <trkpt lat="48.37183" lon="2.74612">
        <ele>109.59999847412</ele>
        <time>2019-04-11T15:33:45Z</time>
      </trkpt>
      <trkpt lat="48.37185" lon="2.74612">
        <ele>109.19999694824</ele>
        <time>2019-04-11T15:33:50Z</time>
      </trkpt>
      <trkpt lat="48.37185" lon="2.74613">
        <ele>108.40000152588</ele>
        <time>2019-04-11T15:33:55Z</time>
      </trkpt>
      <trkpt lat="48.37186" lon="2.74615">
        <ele>108</ele>
        <time>2019-04-11T15:34:00Z</time>
      </trkpt>
      <trkpt lat="48.37185" lon="2.74616">
        <ele>107.80000305176</ele>
        <time>2019-04-11T15:34:05Z</time>
      </trkpt>
      <trkpt lat="48.37185" lon="2.74618">
        <ele>107.59999847412</ele>
        <time>2019-04-11T15:34:10Z</time>
      </trkpt>
      <trkpt lat="48.37186" lon="2.74619">
        <ele>107.59999847412</ele>
        <time>2019-04-11T15:34:15Z</time>
      </trkpt>
      <trkpt lat="48.37186" lon="2.74621">
        <ele>107.59999847412</ele>
        <time>2019-04-11T15:34:20Z</time>
      </trkpt>
      <trkpt lat="48.37186" lon="2.74622">
        <ele>107.59999847412</ele>
        <time>2019-04-11T15:34:25Z</time>
      </trkpt>
      <trkpt lat="48.37186" lon="2.74625">
        <ele>107.59999847412</ele>
        <time>2019-04-11T15:34:30Z</time>
      </trkpt>
      <trkpt lat="48.37186" lon="2.74626">
        <ele>107.80000305176</ele>
        <time>2019-04-11T15:34:35Z</time>
      </trkpt>
      <trkpt lat="48.37186" lon="2.74628">
        <ele>108</ele>
        <time>2019-04-11T15:34:40Z</time>
      </trkpt>
      <trkpt lat="48.37185" lon="2.74629">
        <ele>108</ele>
        <time>2019-04-11T15:34:45Z</time>
      </trkpt>
      <trkpt lat="48.37184" lon="2.74631">
        <ele>108</ele>
        <time>2019-04-11T15:34:50Z</time>
      </trkpt>
      <trkpt lat="48.37184" lon="2.74632">
        <ele>108</ele>
        <time>2019-04-11T15:34:55Z</time>
      </trkpt>
      <trkpt lat="48.37183" lon="2.74631">
        <ele>108</ele>
        <time>2019-04-11T15:35:00Z</time>
      </trkpt>
      <trkpt lat="48.37183" lon="2.7463">
        <ele>108</ele>
        <time>2019-04-11T15:35:05Z</time>
      </trkpt>
      <trkpt lat="48.37184" lon="2.74629">
        <ele>108</ele>
        <time>2019-04-11T15:35:10Z</time>
      </trkpt>
      <trkpt lat="48.37183" lon="2.7463">
        <ele>108</ele>
        <time>2019-04-11T15:35:15Z</time>
      </trkpt>
      <trkpt lat="48.37183" lon="2.74628">
        <ele>108</ele>
        <time>2019-04-11T15:35:20Z</time>
      </trkpt>
      <trkpt lat="48.37183" lon="2.74626">
        <ele>108</ele>
        <time>2019-04-11T15:35:25Z</time>
      </trkpt>
      <trkpt lat="48.37184" lon="2.74626">
        <ele>108</ele>
        <time>2019-04-11T15:35:30Z</time>
      </trkpt>
      <trkpt lat="48.37186" lon="2.74622">
        <ele>108</ele>
        <time>2019-04-11T15:35:35Z</time>
      </trkpt>
      <trkpt lat="48.37188" lon="2.74621">
        <ele>108</ele>
        <time>2019-04-11T15:35:40Z</time>
      </trkpt>
      <trkpt lat="48.37191" lon="2.74621">
        <ele>108</ele>
        <time>2019-04-11T15:35:45Z</time>
      </trkpt>
      <trkpt lat="48.37194" lon="2.74622">
        <ele>108</ele>
        <time>2019-04-11T15:35:50Z</time>
      </trkpt>
      <trkpt lat="48.37198" lon="2.74624">
        <ele>105.40000152588</ele>
        <time>2019-04-11T15:35:55Z</time>
      </trkpt>
      <trkpt lat="48.372" lon="2.74627">
        <ele>105</ele>
        <time>2019-04-11T15:36:00Z</time>
      </trkpt>
      <trkpt lat="48.37201" lon="2.74635">
        <ele>105</ele>
        <time>2019-04-11T15:36:05Z</time>
      </trkpt>
      <trkpt lat="48.37202" lon="2.74638">
        <ele>104.80000305176</ele>
        <time>2019-04-11T15:36:10Z</time>
      </trkpt>
      <trkpt lat="48.37207" lon="2.74644">
        <ele>104.59999847412</ele>
        <time>2019-04-11T15:36:15Z</time>
      </trkpt>
      <trkpt lat="48.37211" lon="2.74652">
        <ele>104.40000152588</ele>
        <time>2019-04-11T15:36:20Z</time>
      </trkpt>
      <trkpt lat="48.37215" lon="2.74657">
        <ele>104.40000152588</ele>
        <time>2019-04-11T15:36:25Z</time>
      </trkpt>
      <trkpt lat="48.37217" lon="2.74658">
        <ele>104.19999694824</ele>
        <time>2019-04-11T15:36:30Z</time>
      </trkpt>
      <trkpt lat="48.37219" lon="2.74659">
        <ele>104</ele>
        <time>2019-04-11T15:36:35Z</time>
      </trkpt>
      <trkpt lat="48.37224" lon="2.7466">
        <ele>103.80000305176</ele>
        <time>2019-04-11T15:36:40Z</time>
      </trkpt>
      <trkpt lat="48.37227" lon="2.7466">
        <ele>103.40000152588</ele>
        <time>2019-04-11T15:36:45Z</time>
      </trkpt>
      <trkpt lat="48.37232" lon="2.7466">
        <ele>103.19999694824</ele>
        <time>2019-04-11T15:36:50Z</time>
      </trkpt>
      <trkpt lat="48.37243" lon="2.74663">
        <ele>103</ele>
        <time>2019-04-11T15:36:55Z</time>
      </trkpt>
      <trkpt lat="48.37252" lon="2.74664">
        <ele>102.80000305176</ele>
        <time>2019-04-11T15:37:00Z</time>
      </trkpt>
      <trkpt lat="48.37259" lon="2.74664">
        <ele>102.40000152588</ele>
        <time>2019-04-11T15:37:05Z</time>
      </trkpt>
      <trkpt lat="48.37265" lon="2.74665">
        <ele>101.59999847412</ele>
        <time>2019-04-11T15:37:10Z</time>
      </trkpt>
      <trkpt lat="48.37271" lon="2.74665">
        <ele>101.40000152588</ele>
        <time>2019-04-11T15:37:15Z</time>
      </trkpt>
      <trkpt lat="48.37277" lon="2.74667">
        <ele>101</ele>
        <time>2019-04-11T15:37:20Z</time>
      </trkpt>
      <trkpt lat="48.37284" lon="2.74669">
        <ele>101</ele>
        <time>2019-04-11T15:37:25Z</time>
      </trkpt>
      <trkpt lat="48.37288" lon="2.74675">
        <ele>100.80000305176</ele>
        <time>2019-04-11T15:37:30Z</time>
      </trkpt>
      <trkpt lat="48.37288" lon="2.74682">
        <ele>100.40000152588</ele>
        <time>2019-04-11T15:37:35Z</time>
      </trkpt>
      <trkpt lat="48.37288" lon="2.74688">
        <ele>100.19999694824</ele>
        <time>2019-04-11T15:37:40Z</time>
      </trkpt>
      <trkpt lat="48.37288" lon="2.74696">
        <ele>100.19999694824</ele>
        <time>2019-04-11T15:37:45Z</time>
      </trkpt>
      <trkpt lat="48.37286" lon="2.74705">
        <ele>100.19999694824</ele>
        <time>2019-04-11T15:37:50Z</time>
      </trkpt>
      <trkpt lat="48.37286" lon="2.74711">
        <ele>100.19999694824</ele>
        <time>2019-04-11T15:37:55Z</time>
      </trkpt>
      <trkpt lat="48.37286" lon="2.74717">
        <ele>100.19999694824</ele>
        <time>2019-04-11T15:38:00Z</time>
      </trkpt>
      <trkpt lat="48.37287" lon="2.74727">
        <ele>100.19999694824</ele>
        <time>2019-04-11T15:38:05Z</time>
      </trkpt>
      <trkpt lat="48.37287" lon="2.74737">
        <ele>100.19999694824</ele>
        <time>2019-04-11T15:38:10Z</time>
      </trkpt>
      <trkpt lat="48.37286" lon="2.74746">
        <ele>100.19999694824</ele>
        <time>2019-04-11T15:38:15Z</time>
      </trkpt>
      <trkpt lat="48.37286" lon="2.74754">
        <ele>100.40000152588</ele>
        <time>2019-04-11T15:38:20Z</time>
      </trkpt>
      <trkpt lat="48.37286" lon="2.74761">
        <ele>100.40000152588</ele>
        <time>2019-04-11T15:38:25Z</time>
      </trkpt>
      <trkpt lat="48.37285" lon="2.74768">
        <ele>100.59999847412</ele>
        <time>2019-04-11T15:38:30Z</time>
      </trkpt>
      <trkpt lat="48.37284" lon="2.74779">
        <ele>100.59999847412</ele>
        <time>2019-04-11T15:38:35Z</time>
      </trkpt>
      <trkpt lat="48.37284" lon="2.74787">
        <ele>100.59999847412</ele>
        <time>2019-04-11T15:38:40Z</time>
      </trkpt>
      <trkpt lat="48.37284" lon="2.74796">
        <ele>100.59999847412</ele>
        <time>2019-04-11T15:38:45Z</time>
      </trkpt>
      <trkpt lat="48.37284" lon="2.74804">
        <ele>100.40000152588</ele>
        <time>2019-04-11T15:38:50Z</time>
      </trkpt>
      <trkpt lat="48.37283" lon="2.74813">
        <ele>100.40000152588</ele>
        <time>2019-04-11T15:38:55Z</time>
      </trkpt>
      <trkpt lat="48.37282" lon="2.74822">
        <ele>100.59999847412</ele>
        <time>2019-04-11T15:39:00Z</time>
      </trkpt>
      <trkpt lat="48.37283" lon="2.74831">
        <ele>100.40000152588</ele>
        <time>2019-04-11T15:39:05Z</time>
      </trkpt>
      <trkpt lat="48.37282" lon="2.74838">
        <ele>100.40000152588</ele>
        <time>2019-04-11T15:39:10Z</time>
      </trkpt>
      <trkpt lat="48.37281" lon="2.74849">
        <ele>100.19999694824</ele>
        <time>2019-04-11T15:39:15Z</time>
      </trkpt>
      <trkpt lat="48.37281" lon="2.74857">
        <ele>100</ele>
        <time>2019-04-11T15:39:20Z</time>
      </trkpt>
      <trkpt lat="48.37281" lon="2.74864">
        <ele>100</ele>
        <time>2019-04-11T15:39:25Z</time>
      </trkpt>
      <trkpt lat="48.3728" lon="2.74868">
        <ele>99.800003051758</ele>
        <time>2019-04-11T15:39:30Z</time>
      </trkpt>
      <trkpt lat="48.3728" lon="2.7487">
        <ele>99.800003051758</ele>
        <time>2019-04-11T15:39:35Z</time>
      </trkpt>
      <trkpt lat="48.3728" lon="2.74872">
        <ele>99.800003051758</ele>
        <time>2019-04-11T15:39:40Z</time>
      </trkpt>
      <trkpt lat="48.3728" lon="2.74874">
        <ele>99.800003051758</ele>
        <time>2019-04-11T15:39:45Z</time>
      </trkpt>
      <trkpt lat="48.3728" lon="2.74875">
        <ele>99.800003051758</ele>
        <time>2019-04-11T15:39:50Z</time>
      </trkpt>
      <trkpt lat="48.37279" lon="2.74876">
        <ele>99.800003051758</ele>
        <time>2019-04-11T15:39:55Z</time>
      </trkpt>
      <trkpt lat="48.3728" lon="2.74877">
        <ele>99.800003051758</ele>
        <time>2019-04-11T15:40:00Z</time>
      </trkpt>
      <trkpt lat="48.37281" lon="2.74878">
        <ele>99.800003051758</ele>
        <time>2019-04-11T15:40:05Z</time>
      </trkpt>
      <trkpt lat="48.37282" lon="2.7488">
        <ele>99.800003051758</ele>
        <time>2019-04-11T15:40:11Z</time>
      </trkpt>
      <trkpt lat="48.37282" lon="2.74879">
        <ele>99.800003051758</ele>
        <time>2019-04-11T15:40:16Z</time>
      </trkpt>
      <trkpt lat="48.37281" lon="2.7488">
        <ele>99.800003051758</ele>
        <time>2019-04-11T15:40:21Z</time>
      </trkpt>
      <trkpt lat="48.37281" lon="2.7488">
        <ele>99.800003051758</ele>
        <time>2019-04-11T15:40:26Z</time>
      </trkpt>
      <trkpt lat="48.3728" lon="2.74879">
        <ele>99.800003051758</ele>
        <time>2019-04-11T15:40:31Z</time>
      </trkpt>
      <trkpt lat="48.37279" lon="2.74879">
        <ele>99.800003051758</ele>
        <time>2019-04-11T15:40:36Z</time>
      </trkpt>
      <trkpt lat="48.37278" lon="2.74879">
        <ele>99.800003051758</ele>
        <time>2019-04-11T15:40:41Z</time>
      </trkpt>
      <trkpt lat="48.37278" lon="2.74878">
        <ele>99.800003051758</ele>
        <time>2019-04-11T15:40:46Z</time>
      </trkpt>
      <trkpt lat="48.37279" lon="2.74877">
        <ele>99.800003051758</ele>
        <time>2019-04-11T15:40:51Z</time>
      </trkpt>
      <trkpt lat="48.37279" lon="2.74877">
        <ele>99.800003051758</ele>
        <time>2019-04-11T15:40:56Z</time>
      </trkpt>
      <trkpt lat="48.3728" lon="2.74878">
        <ele>99.800003051758</ele>
        <time>2019-04-11T15:41:01Z</time>
      </trkpt>
      <trkpt lat="48.3728" lon="2.74878">
        <ele>99.800003051758</ele>
        <time>2019-04-11T15:41:06Z</time>
      </trkpt>
      <trkpt lat="48.3728" lon="2.7488">
        <ele>99.800003051758</ele>
        <time>2019-04-11T15:41:11Z</time>
      </trkpt>
      <trkpt lat="48.37281" lon="2.74882">
        <ele>99.800003051758</ele>
        <time>2019-04-11T15:41:16Z</time>
      </trkpt>
      <trkpt lat="48.37282" lon="2.74884">
        <ele>99.800003051758</ele>
        <time>2019-04-11T15:41:21Z</time>
      </trkpt>
      <trkpt lat="48.37282" lon="2.74886">
        <ele>99.800003051758</ele>
        <time>2019-04-11T15:41:26Z</time>
      </trkpt>
      <trkpt lat="48.37283" lon="2.74885">
        <ele>99.800003051758</ele>
        <time>2019-04-11T15:41:31Z</time>
      </trkpt>
      <trkpt lat="48.37283" lon="2.74885">
        <ele>99.800003051758</ele>
        <time>2019-04-11T15:41:36Z</time>
      </trkpt>
      <trkpt lat="48.37283" lon="2.74885">
        <ele>99.800003051758</ele>
        <time>2019-04-11T15:41:41Z</time>
      </trkpt>
      <trkpt lat="48.37283" lon="2.74886">
        <ele>99.800003051758</ele>
        <time>2019-04-11T15:41:44Z</time>
      </trkpt>
    </trkseg>
  </trk>
</gpx>